<?xml version='1.0' encoding='UTF-8'?><gpx version="1.1" creator="JPX - https://github.com/jenetics/jpx" xmlns="http://www.topografix.com/GPX/1/1"><trk><trkseg><trkpt lat="46.02052334279475" lon="8.681964689830146"><ele>206.16666666666669</ele><time>2026-04-01T12:14:45.001Z</time></trkpt><trkpt lat="46.02053718252403" lon="8.681865342747185"><ele>206.33333333333334</ele><time>2026-04-01T12:14:47.001Z</time></trkpt><trkpt lat="46.02060329713395" lon="8.681859276883968"><ele>206.5</ele><time>2026-04-01T12:14:51.001Z</time></trkpt><trkpt lat="46.020688049291195" lon="8.681836956679028"><ele>206.66666666666669</ele><time>2026-04-01T12:14:54.001Z</time></trkpt><trkpt lat="46.02078989233753" lon="8.681810478968261"><ele>206.83333333333334</ele><time>2026-04-01T12:14:56.001Z</time></trkpt><trkpt lat="46.0208905506474" lon="8.681777004958436"><ele>207.0</ele><time>2026-04-01T12:14:58.001Z</time></trkpt><trkpt lat="46.02097279510029" lon="8.681743916623539"><ele>208.0</ele><time>2026-04-01T12:15:00.001Z</time></trkpt><trkpt lat="46.021048595480536" lon="8.68171143487697"><ele>209.0</ele><time>2026-04-01T12:15:02.001Z</time></trkpt><trkpt lat="46.021113075396094" lon="8.681673858081666"><ele>210.0</ele><time>2026-04-01T12:15:06.001Z</time></trkpt><trkpt lat="46.021116725593295" lon="8.681550709090134"><ele>211.0</ele><time>2026-04-01T12:15:08.002Z</time></trkpt><trkpt lat="46.02107673788077" lon="8.681404443891383"><ele>212.0</ele><time>2026-04-01T12:15:10.002Z</time></trkpt><trkpt lat="46.02103829749491" lon="8.681241654082628"><ele>211.66666666666669</ele><time>2026-04-01T12:15:12.002Z</time></trkpt><trkpt lat="46.0209997137426" lon="8.681077065972962"><ele>211.33333333333334</ele><time>2026-04-01T12:15:14.002Z</time></trkpt><trkpt lat="46.020978127209936" lon="8.680982077411613"><ele>211.0</ele><time>2026-04-01T12:15:15.002Z</time></trkpt><trkpt lat="46.02095508263443" lon="8.680884594438217"><ele>210.66666666666669</ele><time>2026-04-01T12:15:16.002Z</time></trkpt><trkpt lat="46.020936904152954" lon="8.680787614395054"><ele>210.33333333333334</ele><time>2026-04-01T12:15:17.002Z</time></trkpt><trkpt lat="46.02091334441646" lon="8.680687886757951"><ele>210.0</ele><time>2026-04-01T12:15:18.002Z</time></trkpt><trkpt lat="46.02089197462306" lon="8.680591163017493"><ele>210.0</ele><time>2026-04-01T12:15:19.002Z</time></trkpt><trkpt lat="46.02087339215292" lon="8.680494234767918"><ele>210.0</ele><time>2026-04-01T12:15:20.002Z</time></trkpt><trkpt lat="46.02085433550952" lon="8.680396941526785"><ele>210.0</ele><time>2026-04-01T12:15:21.002Z</time></trkpt><trkpt lat="46.020834155322476" lon="8.680295842598339"><ele>210.0</ele><time>2026-04-01T12:15:22.002Z</time></trkpt><trkpt lat="46.0208120738417" lon="8.680191934702954"><ele>210.0</ele><time>2026-04-01T12:15:23.002Z</time></trkpt><trkpt lat="46.020796919394826" lon="8.680080625529126"><ele>210.0</ele><time>2026-04-01T12:15:24.002Z</time></trkpt><trkpt lat="46.020802792027325" lon="8.679964414164472"><ele>210.0</ele><time>2026-04-01T12:15:25.002Z</time></trkpt><trkpt lat="46.02082085024128" lon="8.679860044804897"><ele>210.71428571428572</ele><time>2026-04-01T12:15:26.002Z</time></trkpt><trkpt lat="46.020849681848084" lon="8.679771554732786"><ele>211.42857142857144</ele><time>2026-04-01T12:15:27.002Z</time></trkpt><trkpt lat="46.02086493317224" lon="8.679673369464076"><ele>212.14285714285714</ele><time>2026-04-01T12:15:28.002Z</time></trkpt><trkpt lat="46.02088318368407" lon="8.679580195803606"><ele>212.85714285714286</ele><time>2026-04-01T12:15:29.002Z</time></trkpt><trkpt lat="46.0208998431698" lon="8.679492359715265"><ele>213.57142857142858</ele><time>2026-04-01T12:15:30.002Z</time></trkpt><trkpt lat="46.02091938747894" lon="8.679403988553183"><ele>214.28571428571428</ele><time>2026-04-01T12:15:31.002Z</time></trkpt><trkpt lat="46.02093989208756" lon="8.679316591436548"><ele>215.0</ele><time>2026-04-01T12:15:32.002Z</time></trkpt><trkpt lat="46.02095646631058" lon="8.679228875277047"><ele>215.4</ele><time>2026-04-01T12:15:33.002Z</time></trkpt><trkpt lat="46.0209952705276" lon="8.679056201717023"><ele>215.8</ele><time>2026-04-01T12:15:35.002Z</time></trkpt><trkpt lat="46.02101366134046" lon="8.678967937355251"><ele>216.2</ele><time>2026-04-01T12:15:36.002Z</time></trkpt><trkpt lat="46.02104306099097" lon="8.678800480749823"><ele>216.6</ele><time>2026-04-01T12:15:38.002Z</time></trkpt><trkpt lat="46.021069332247976" lon="8.678667386133625"><ele>217.0</ele><time>2026-04-01T12:15:40.002Z</time></trkpt><trkpt lat="46.02112706282492" lon="8.67857498799229"><ele>217.0</ele><time>2026-04-01T12:15:42.002Z</time></trkpt><trkpt lat="46.02121944881883" lon="8.678565849958304"><ele>217.0</ele><time>2026-04-01T12:15:44.002Z</time></trkpt><trkpt lat="46.02133842203225" lon="8.678632165642151"><ele>217.0</ele><time>2026-04-01T12:15:46.002Z</time></trkpt><trkpt lat="46.02140181263814" lon="8.678658170159549"><ele>217.0</ele><time>2026-04-01T12:15:47.002Z</time></trkpt><trkpt lat="46.02146634201526" lon="8.678692604041963"><ele>217.0</ele><time>2026-04-01T12:15:48.002Z</time></trkpt><trkpt lat="46.02158755412016" lon="8.678765564209316"><ele>218.16666666666666</ele><time>2026-04-01T12:15:50.002Z</time></trkpt><trkpt lat="46.02164961952441" lon="8.678793046026891"><ele>219.33333333333331</ele><time>2026-04-01T12:15:51.001Z</time></trkpt><trkpt lat="46.02170721443979" lon="8.678831990272247"><ele>220.5</ele><time>2026-04-01T12:15:52.001Z</time></trkpt><trkpt lat="46.02177085037301" lon="8.678853548160589"><ele>221.66666666666669</ele><time>2026-04-01T12:15:53.001Z</time></trkpt><trkpt lat="46.02185425592763" lon="8.678807279097063"><ele>222.83333333333334</ele><time>2026-04-01T12:15:55.001Z</time></trkpt><trkpt lat="46.02189055561075" lon="8.67865920518223"><ele>224.0</ele><time>2026-04-01T12:15:57.001Z</time></trkpt><trkpt lat="46.021926383413096" lon="8.678513124545809"><ele>224.0</ele><time>2026-04-01T12:15:59.001Z</time></trkpt><trkpt lat="46.02196907828127" lon="8.678362130772413"><ele>223.99999999999997</ele><time>2026-04-01T12:16:01.001Z</time></trkpt><trkpt lat="46.02201067548167" lon="8.678226409756652"><ele>223.99999999999997</ele><time>2026-04-01T12:16:03.001Z</time></trkpt><trkpt lat="46.02203692805765" lon="8.67813116891921"><ele>224.0</ele><time>2026-04-01T12:16:05.001Z</time></trkpt><trkpt lat="46.022084290699766" lon="8.678016389520835"><ele>224.0</ele><time>2026-04-01T12:16:11.001Z</time></trkpt><trkpt lat="46.022052704690665" lon="8.677925789043156"><ele>224.0</ele><time>2026-04-01T12:16:12.001Z</time></trkpt><trkpt lat="46.02200482424768" lon="8.677774311477357"><ele>223.99999999999997</ele><time>2026-04-01T12:16:14.001Z</time></trkpt><trkpt lat="46.02196776986434" lon="8.67767831602401"><ele>223.99999999999997</ele><time>2026-04-01T12:16:15.001Z</time></trkpt><trkpt lat="46.0219267268982" lon="8.677583141229297"><ele>224.0</ele><time>2026-04-01T12:16:16.001Z</time></trkpt><trkpt lat="46.02187807774162" lon="8.677479363347198"><ele>224.0</ele><time>2026-04-01T12:16:17.001Z</time></trkpt><trkpt lat="46.02182547052575" lon="8.67736577513838"><ele>225.2</ele><time>2026-04-01T12:16:18.001Z</time></trkpt><trkpt lat="46.02176813812887" lon="8.677246937059039"><ele>226.39999999999998</ele><time>2026-04-01T12:16:19.001Z</time></trkpt><trkpt lat="46.021705082043795" lon="8.677122154660704"><ele>227.6</ele><time>2026-04-01T12:16:20.001Z</time></trkpt><trkpt lat="46.021639626446806" lon="8.676991066531436"><ele>228.8</ele><time>2026-04-01T12:16:21.001Z</time></trkpt><trkpt lat="46.02156858319877" lon="8.67685518644044"><ele>230.0</ele><time>2026-04-01T12:16:22.001Z</time></trkpt><trkpt lat="46.02149800901295" lon="8.676714495137873"><ele>224.5</ele><time>2026-04-01T12:16:23.001Z</time></trkpt><trkpt lat="46.02142275417536" lon="8.676568118372481"><ele>219.0</ele><time>2026-04-01T12:16:24.001Z</time></trkpt><trkpt lat="46.021351938492266" lon="8.676420606065896"><ele>213.5</ele><time>2026-04-01T12:16:25.001Z</time></trkpt><trkpt lat="46.02127703360764" lon="8.676266887216764"><ele>208.0</ele><time>2026-04-01T12:16:26.001Z</time></trkpt><trkpt lat="46.02121259689753" lon="8.676103385581799"><ele>212.25</ele><time>2026-04-01T12:16:27.001Z</time></trkpt><trkpt lat="46.021121453484334" lon="8.67595808612285"><ele>216.5</ele><time>2026-04-01T12:16:28.001Z</time></trkpt><trkpt lat="46.02103962516186" lon="8.67580112959522"><ele>220.75</ele><time>2026-04-01T12:16:29.001Z</time></trkpt><trkpt lat="46.02096621562044" lon="8.675635762576025"><ele>225.0</ele><time>2026-04-01T12:16:30.001Z</time></trkpt><trkpt lat="46.020886539995665" lon="8.675473293536461"><ele>220.25</ele><time>2026-04-01T12:16:31.001Z</time></trkpt><trkpt lat="46.02080380341324" lon="8.675311728253138"><ele>215.5</ele><time>2026-04-01T12:16:32.001Z</time></trkpt><trkpt lat="46.020720511874615" lon="8.67515011834114"><ele>210.75</ele><time>2026-04-01T12:16:33.001Z</time></trkpt><trkpt lat="46.020633006012794" lon="8.674990122323075"><ele>206.0</ele><time>2026-04-01T12:16:34.001Z</time></trkpt><trkpt lat="46.02054187862254" lon="8.67483717172333"><ele>206.0</ele><time>2026-04-01T12:16:35.001Z</time></trkpt><trkpt lat="46.020440803712475" lon="8.674687986769761"><ele>206.0</ele><time>2026-04-01T12:16:36.001Z</time></trkpt><trkpt lat="46.02034390247902" lon="8.674545111416005"><ele>206.0</ele><time>2026-04-01T12:16:37.001Z</time></trkpt><trkpt lat="46.02024813259656" lon="8.674392131603861"><ele>206.0</ele><time>2026-04-01T12:16:38.001Z</time></trkpt><trkpt lat="46.02015088858292" lon="8.674248334490459"><ele>204.0</ele><time>2026-04-01T12:16:39.001Z</time></trkpt><trkpt lat="46.02005692218669" lon="8.674098262477223"><ele>202.0</ele><time>2026-04-01T12:16:40.001Z</time></trkpt><trkpt lat="46.01996055462907" lon="8.673947003174444"><ele>200.0</ele><time>2026-04-01T12:16:41.001Z</time></trkpt><trkpt lat="46.01986957612865" lon="8.673788450741183"><ele>198.0</ele><time>2026-04-01T12:16:42.001Z</time></trkpt><trkpt lat="46.019778640983404" lon="8.673631223797708"><ele>204.0</ele><time>2026-04-01T12:16:43.001Z</time></trkpt><trkpt lat="46.019683671550716" lon="8.67347533261335"><ele>210.0</ele><time>2026-04-01T12:16:44.001Z</time></trkpt><trkpt lat="46.01959153517435" lon="8.673316317369066"><ele>216.0</ele><time>2026-04-01T12:16:45.001Z</time></trkpt><trkpt lat="46.019494776095264" lon="8.673163761452743"><ele>222.0</ele><time>2026-04-01T12:16:46.001Z</time></trkpt><trkpt lat="46.01939132190145" lon="8.673020344489881"><ele>222.0</ele><time>2026-04-01T12:16:47.001Z</time></trkpt><trkpt lat="46.01928011815286" lon="8.67288305733894"><ele>222.0</ele><time>2026-04-01T12:16:48.001Z</time></trkpt><trkpt lat="46.01916827971511" lon="8.672762133736793"><ele>222.0</ele><time>2026-04-01T12:16:49.001Z</time></trkpt><trkpt lat="46.01904632438922" lon="8.672640341050737"><ele>222.0</ele><time>2026-04-01T12:16:50.001Z</time></trkpt><trkpt lat="46.01893664679717" lon="8.672508294993564"><ele>222.0</ele><time>2026-04-01T12:16:51.001Z</time></trkpt><trkpt lat="46.018824587167366" lon="8.672379893889751"><ele>222.0</ele><time>2026-04-01T12:16:52.001Z</time></trkpt><trkpt lat="46.01871184721292" lon="8.672251159121721"><ele>222.0</ele><time>2026-04-01T12:16:53.001Z</time></trkpt><trkpt lat="46.01859359807846" lon="8.672134085448299"><ele>222.0</ele><time>2026-04-01T12:16:54.001Z</time></trkpt><trkpt lat="46.01847447431665" lon="8.672035397586859"><ele>222.0</ele><time>2026-04-01T12:16:55.001Z</time></trkpt><trkpt lat="46.01835136642965" lon="8.671949183326689"><ele>222.0</ele><time>2026-04-01T12:16:56.001Z</time></trkpt><trkpt lat="46.01822960198594" lon="8.671869981750524"><ele>222.0</ele><time>2026-04-01T12:16:57.001Z</time></trkpt><trkpt lat="46.01808998424161" lon="8.67183133103659"><ele>222.0</ele><time>2026-04-01T12:16:58.001Z</time></trkpt><trkpt lat="46.01795650889685" lon="8.67178894969596"><ele>221.75</ele><time>2026-04-01T12:16:59.001Z</time></trkpt><trkpt lat="46.017825717023435" lon="8.671757083608814"><ele>221.5</ele><time>2026-04-01T12:17:00.001Z</time></trkpt><trkpt lat="46.01769378912734" lon="8.671715925587923"><ele>221.25</ele><time>2026-04-01T12:17:01.001Z</time></trkpt><trkpt lat="46.01757055492029" lon="8.671679502392234"><ele>221.0</ele><time>2026-04-01T12:17:02.001Z</time></trkpt><trkpt lat="46.01743990206718" lon="8.67164485264052"><ele>221.0</ele><time>2026-04-01T12:17:03.001Z</time></trkpt><trkpt lat="46.01731292401284" lon="8.671614377069263"><ele>221.0</ele><time>2026-04-01T12:17:04.001Z</time></trkpt><trkpt lat="46.01718418250414" lon="8.671575076915548"><ele>221.0</ele><time>2026-04-01T12:17:05.001Z</time></trkpt><trkpt lat="46.01706029841732" lon="8.671538927153547"><ele>221.0</ele><time>2026-04-01T12:17:06.001Z</time></trkpt><trkpt lat="46.01693603092065" lon="8.671504179935049"><ele>221.0</ele><time>2026-04-01T12:17:07.001Z</time></trkpt><trkpt lat="46.01681038703449" lon="8.671472640105756"><ele>221.0</ele><time>2026-04-01T12:17:08.001Z</time></trkpt><trkpt lat="46.016691318738424" lon="8.671416997699968"><ele>221.0</ele><time>2026-04-01T12:17:09.001Z</time></trkpt><trkpt lat="46.01658438737845" lon="8.671343923008294"><ele>221.0</ele><time>2026-04-01T12:17:10.002Z</time></trkpt><trkpt lat="46.01646054623064" lon="8.671284557298648"><ele>222.25</ele><time>2026-04-01T12:17:11.002Z</time></trkpt><trkpt lat="46.01634368967701" lon="8.67117070991343"><ele>223.5</ele><time>2026-04-01T12:17:12.002Z</time></trkpt><trkpt lat="46.01622915850076" lon="8.671060467779876"><ele>224.75</ele><time>2026-04-01T12:17:13.002Z</time></trkpt><trkpt lat="46.016111369050606" lon="8.670950546175431"><ele>226.0</ele><time>2026-04-01T12:17:14.002Z</time></trkpt><trkpt lat="46.01598661344463" lon="8.670855613042104"><ele>226.0</ele><time>2026-04-01T12:17:15.002Z</time></trkpt><trkpt lat="46.01585667334518" lon="8.670762863058417"><ele>226.0</ele><time>2026-04-01T12:17:16.002Z</time></trkpt><trkpt lat="46.01572370130007" lon="8.670680626701094"><ele>226.0</ele><time>2026-04-01T12:17:17.002Z</time></trkpt><trkpt lat="46.01559048224073" lon="8.670602449448968"><ele>226.0</ele><time>2026-04-01T12:17:18.002Z</time></trkpt><trkpt lat="46.01546030161861" lon="8.67051348071808"><ele>225.5</ele><time>2026-04-01T12:17:19.002Z</time></trkpt><trkpt lat="46.01533000509173" lon="8.670428365850034"><ele>225.0</ele><time>2026-04-01T12:17:20.002Z</time></trkpt><trkpt lat="46.01520015142812" lon="8.670345263805984"><ele>224.5</ele><time>2026-04-01T12:17:21.002Z</time></trkpt><trkpt lat="46.015065680120685" lon="8.670272177847277"><ele>224.0</ele><time>2026-04-01T12:17:22.002Z</time></trkpt><trkpt lat="46.01492705236989" lon="8.670205771857798"><ele>224.0</ele><time>2026-04-01T12:17:23.002Z</time></trkpt><trkpt lat="46.01478917965785" lon="8.670158309680675"><ele>224.0</ele><time>2026-04-01T12:17:24.002Z</time></trkpt><trkpt lat="46.0146514143488" lon="8.670117742992328"><ele>224.0</ele><time>2026-04-01T12:17:25.002Z</time></trkpt><trkpt lat="46.014515102702866" lon="8.670070260693446"><ele>224.0</ele><time>2026-04-01T12:17:26.002Z</time></trkpt><trkpt lat="46.014377571313396" lon="8.670033004686982"><ele>224.0</ele><time>2026-04-01T12:17:27.002Z</time></trkpt><trkpt lat="46.01424485533679" lon="8.66996805429556"><ele>224.0</ele><time>2026-04-01T12:17:28.002Z</time></trkpt><trkpt lat="46.01411724841641" lon="8.669891294853295"><ele>224.0</ele><time>2026-04-01T12:17:29.002Z</time></trkpt><trkpt lat="46.0139964323432" lon="8.669778436766403"><ele>224.0</ele><time>2026-04-01T12:17:30.002Z</time></trkpt><trkpt lat="46.01388415481191" lon="8.669666066888126"><ele>223.5</ele><time>2026-04-01T12:17:31.002Z</time></trkpt><trkpt lat="46.01377363537327" lon="8.66954690363854"><ele>223.0</ele><time>2026-04-01T12:17:32.002Z</time></trkpt><trkpt lat="46.013661845219254" lon="8.669428409423006"><ele>222.5</ele><time>2026-04-01T12:17:33.002Z</time></trkpt><trkpt lat="46.013554103227584" lon="8.669307943014905"><ele>222.0</ele><time>2026-04-01T12:17:34.002Z</time></trkpt><trkpt lat="46.013449080265914" lon="8.669190812985772"><ele>222.0</ele><time>2026-04-01T12:17:35.002Z</time></trkpt><trkpt lat="46.013343075544924" lon="8.66907171219311"><ele>222.0</ele><time>2026-04-01T12:17:36.002Z</time></trkpt><trkpt lat="46.013244947753414" lon="8.668957277463193"><ele>222.0</ele><time>2026-04-01T12:17:37.002Z</time></trkpt><trkpt lat="46.013141750748886" lon="8.66884389110899"><ele>222.0</ele><time>2026-04-01T12:17:38.002Z</time></trkpt><trkpt lat="46.01303242838045" lon="8.668743150947837"><ele>221.0</ele><time>2026-04-01T12:17:39.002Z</time></trkpt><trkpt lat="46.01291983040628" lon="8.668654024482906"><ele>220.0</ele><time>2026-04-01T12:17:40.002Z</time></trkpt><trkpt lat="46.012798573522524" lon="8.668570815613052"><ele>219.0</ele><time>2026-04-01T12:17:41.002Z</time></trkpt><trkpt lat="46.0126839635279" lon="8.668480655932996"><ele>218.0</ele><time>2026-04-01T12:17:42.002Z</time></trkpt><trkpt lat="46.01258300250297" lon="8.66836726284666"><ele>218.0</ele><time>2026-04-01T12:17:43.002Z</time></trkpt><trkpt lat="46.012499396998884" lon="8.668230198745876"><ele>218.0</ele><time>2026-04-01T12:17:44.002Z</time></trkpt><trkpt lat="46.01243041814524" lon="8.668076145064875"><ele>218.0</ele><time>2026-04-01T12:17:45.002Z</time></trkpt><trkpt lat="46.012381297147485" lon="8.667900749666302"><ele>218.0</ele><time>2026-04-01T12:17:46.002Z</time></trkpt><trkpt lat="46.012322998694664" lon="8.667725510994773"><ele>215.75</ele><time>2026-04-01T12:17:47.002Z</time></trkpt><trkpt lat="46.01224280864039" lon="8.667558324287548"><ele>213.5</ele><time>2026-04-01T12:17:48.002Z</time></trkpt><trkpt lat="46.01215036088428" lon="8.667413115273217"><ele>211.25</ele><time>2026-04-01T12:17:49.002Z</time></trkpt><trkpt lat="46.01204338076311" lon="8.667291624190648"><ele>209.0</ele><time>2026-04-01T12:17:50.002Z</time></trkpt><trkpt lat="46.01193176325873" lon="8.667167277431039"><ele>209.0</ele><time>2026-04-01T12:17:51.002Z</time></trkpt><trkpt lat="46.011819649119076" lon="8.6670392826718"><ele>209.0</ele><time>2026-04-01T12:17:52.002Z</time></trkpt><trkpt lat="46.01170511589095" lon="8.666913486257068"><ele>209.0</ele><time>2026-04-01T12:17:53.002Z</time></trkpt><trkpt lat="46.011589242066876" lon="8.666784956039553"><ele>209.0</ele><time>2026-04-01T12:17:54.002Z</time></trkpt><trkpt lat="46.01147284175319" lon="8.666655738551219"><ele>207.0</ele><time>2026-04-01T12:17:55.002Z</time></trkpt><trkpt lat="46.01135786858569" lon="8.666526966735455"><ele>205.0</ele><time>2026-04-01T12:17:56.002Z</time></trkpt><trkpt lat="46.01123997795264" lon="8.666396115654717"><ele>203.0</ele><time>2026-04-01T12:17:57.001Z</time></trkpt><trkpt lat="46.011121533153585" lon="8.666266439857129"><ele>201.0</ele><time>2026-04-01T12:17:58.001Z</time></trkpt><trkpt lat="46.011003589390306" lon="8.666135526347169"><ele>201.25</ele><time>2026-04-01T12:17:59.001Z</time></trkpt><trkpt lat="46.010885714224514" lon="8.666006368189317"><ele>201.5</ele><time>2026-04-01T12:18:00.001Z</time></trkpt><trkpt lat="46.01077263920995" lon="8.665874280020391"><ele>201.75</ele><time>2026-04-01T12:18:01.001Z</time></trkpt><trkpt lat="46.01066866036982" lon="8.665738428906536"><ele>202.0</ele><time>2026-04-01T12:18:02.001Z</time></trkpt><trkpt lat="46.01058129364122" lon="8.665583551750657"><ele>202.0</ele><time>2026-04-01T12:18:03.001Z</time></trkpt><trkpt lat="46.01050337956904" lon="8.665416732295702"><ele>202.0</ele><time>2026-04-01T12:18:04.001Z</time></trkpt><trkpt lat="46.01042383267748" lon="8.66524590775238"><ele>202.0</ele><time>2026-04-01T12:18:05.001Z</time></trkpt><trkpt lat="46.01034471382986" lon="8.665075613722024"><ele>202.0</ele><time>2026-04-01T12:18:06.001Z</time></trkpt><trkpt lat="46.01026349211053" lon="8.664907687693884"><ele>203.5</ele><time>2026-04-01T12:18:07.001Z</time></trkpt><trkpt lat="46.010187990042006" lon="8.6647419077759"><ele>205.0</ele><time>2026-04-01T12:18:08.001Z</time></trkpt><trkpt lat="46.01010478161052" lon="8.664569399071766"><ele>206.5</ele><time>2026-04-01T12:18:09.001Z</time></trkpt><trkpt lat="46.010025053548944" lon="8.664401323972228"><ele>208.0</ele><time>2026-04-01T12:18:10.001Z</time></trkpt><trkpt lat="46.009934791417784" lon="8.66424615940338"><ele>208.0</ele><time>2026-04-01T12:18:11.001Z</time></trkpt><trkpt lat="46.009824325685116" lon="8.66411173341813"><ele>208.0</ele><time>2026-04-01T12:18:12.001Z</time></trkpt><trkpt lat="46.00969833397852" lon="8.664003052394305"><ele>208.0</ele><time>2026-04-01T12:18:13.001Z</time></trkpt><trkpt lat="46.0095683787506" lon="8.663896377584368"><ele>208.0</ele><time>2026-04-01T12:18:14.001Z</time></trkpt><trkpt lat="46.009434862828854" lon="8.663783820073382"><ele>208.0</ele><time>2026-04-01T12:18:15.001Z</time></trkpt><trkpt lat="46.009298116361194" lon="8.663673429629295"><ele>208.0</ele><time>2026-04-01T12:18:16.001Z</time></trkpt><trkpt lat="46.00915956841485" lon="8.663560653408334"><ele>208.0</ele><time>2026-04-01T12:18:17.001Z</time></trkpt><trkpt lat="46.0090218193328" lon="8.66344610921297"><ele>204.0</ele><time>2026-04-01T12:18:18.001Z</time></trkpt><trkpt lat="46.008883998325395" lon="8.663336852006841"><ele>200.0</ele><time>2026-04-01T12:18:19.001Z</time></trkpt><trkpt lat="46.00874758029011" lon="8.663227653541208"><ele>196.0</ele><time>2026-04-01T12:18:20.001Z</time></trkpt><trkpt lat="46.00861330395977" lon="8.663118696997289"><ele>196.0</ele><time>2026-04-01T12:18:21.001Z</time></trkpt><trkpt lat="46.00848532633386" lon="8.662998284437156"><ele>196.0</ele><time>2026-04-01T12:18:22.001Z</time></trkpt><trkpt lat="46.0083655500301" lon="8.662870369705585"><ele>196.0</ele><time>2026-04-01T12:18:23.001Z</time></trkpt><trkpt lat="46.008258654768696" lon="8.662724582786128"><ele>196.0</ele><time>2026-04-01T12:18:24.001Z</time></trkpt><trkpt lat="46.00816861036362" lon="8.66255933182146"><ele>196.0</ele><time>2026-04-01T12:18:25.001Z</time></trkpt><trkpt lat="46.00808844544492" lon="8.66238021694733"><ele>196.0</ele><time>2026-04-01T12:18:26.001Z</time></trkpt><trkpt lat="46.00800381720514" lon="8.662200657066732"><ele>196.0</ele><time>2026-04-01T12:18:27.001Z</time></trkpt><trkpt lat="46.007919207078615" lon="8.662017634469485"><ele>199.66666666666666</ele><time>2026-04-01T12:18:28.001Z</time></trkpt><trkpt lat="46.00782997370027" lon="8.661839953553075"><ele>203.33333333333331</ele><time>2026-04-01T12:18:29.001Z</time></trkpt><trkpt lat="46.007735040296375" lon="8.661672777856479"><ele>207.0</ele><time>2026-04-01T12:18:30.001Z</time></trkpt><trkpt lat="46.007626067336226" lon="8.661522022622043"><ele>207.0</ele><time>2026-04-01T12:18:31.001Z</time></trkpt><trkpt lat="46.00750457016361" lon="8.661389479478482"><ele>207.0</ele><time>2026-04-01T12:18:32.001Z</time></trkpt><trkpt lat="46.007375124263405" lon="8.661270904687012"><ele>207.0</ele><time>2026-04-01T12:18:33.001Z</time></trkpt><trkpt lat="46.00724602107875" lon="8.661155294840992"><ele>205.5</ele><time>2026-04-01T12:18:34.001Z</time></trkpt><trkpt lat="46.00711824647438" lon="8.661040114505827"><ele>204.0</ele><time>2026-04-01T12:18:35.001Z</time></trkpt><trkpt lat="46.006989084739615" lon="8.660932157991832"><ele>202.5</ele><time>2026-04-01T12:18:36.001Z</time></trkpt><trkpt lat="46.00686127680821" lon="8.66082409435347"><ele>201.0</ele><time>2026-04-01T12:18:37.001Z</time></trkpt><trkpt lat="46.00673629757793" lon="8.660716396583435"><ele>199.0</ele><time>2026-04-01T12:18:38.001Z</time></trkpt><trkpt lat="46.00661227625282" lon="8.660611345121476"><ele>197.0</ele><time>2026-04-01T12:18:39.001Z</time></trkpt><trkpt lat="46.006486349365694" lon="8.660509032651541"><ele>195.0</ele><time>2026-04-01T12:18:40.001Z</time></trkpt><trkpt lat="46.0063631448897" lon="8.660400727491776"><ele>193.0</ele><time>2026-04-01T12:18:41.001Z</time></trkpt><trkpt lat="46.006240992130536" lon="8.660288325019563"><ele>194.75</ele><time>2026-04-01T12:18:42.001Z</time></trkpt><trkpt lat="46.00612069827945" lon="8.660172841853226"><ele>196.5</ele><time>2026-04-01T12:18:43.001Z</time></trkpt><trkpt lat="46.006004184548416" lon="8.660056198589666"><ele>198.25</ele><time>2026-04-01T12:18:44.001Z</time></trkpt><trkpt lat="46.00588878700693" lon="8.659936506632691"><ele>200.0</ele><time>2026-04-01T12:18:45.001Z</time></trkpt><trkpt lat="46.005776143356236" lon="8.659814711424003"><ele>200.5</ele><time>2026-04-01T12:18:46.001Z</time></trkpt><trkpt lat="46.005662537598496" lon="8.659693438748457"><ele>201.0</ele><time>2026-04-01T12:18:47.001Z</time></trkpt><trkpt lat="46.005546809763125" lon="8.659572148078102"><ele>201.5</ele><time>2026-04-01T12:18:48.001Z</time></trkpt><trkpt lat="46.00543073529715" lon="8.659450449548245"><ele>202.0</ele><time>2026-04-01T12:18:49.001Z</time></trkpt><trkpt lat="46.005313561503854" lon="8.659330252655215"><ele>202.0</ele><time>2026-04-01T12:18:50.001Z</time></trkpt><trkpt lat="46.005193076052194" lon="8.659214705237542"><ele>202.0</ele><time>2026-04-01T12:18:51.001Z</time></trkpt><trkpt lat="46.005069212841114" lon="8.65910921894791"><ele>202.0</ele><time>2026-04-01T12:18:52.001Z</time></trkpt><trkpt lat="46.004940892588394" lon="8.65901397149585"><ele>202.0</ele><time>2026-04-01T12:18:53.001Z</time></trkpt><trkpt lat="46.00480871829939" lon="8.658930357506478"><ele>202.0</ele><time>2026-04-01T12:18:54.001Z</time></trkpt><trkpt lat="46.00467288989367" lon="8.65885990230996"><ele>202.0</ele><time>2026-04-01T12:18:55.001Z</time></trkpt><trkpt lat="46.00453491349715" lon="8.658798731174663"><ele>202.0</ele><time>2026-04-01T12:18:56.001Z</time></trkpt><trkpt lat="46.0043944207518" lon="8.65874068798115"><ele>202.0</ele><time>2026-04-01T12:18:57.001Z</time></trkpt><trkpt lat="46.00425344295108" lon="8.658688704800316"><ele>203.0</ele><time>2026-04-01T12:18:58.001Z</time></trkpt><trkpt lat="46.00411438273808" lon="8.658638829679772"><ele>204.0</ele><time>2026-04-01T12:18:59.001Z</time></trkpt><trkpt lat="46.003974646945665" lon="8.658587913861306"><ele>205.0</ele><time>2026-04-01T12:19:00.001Z</time></trkpt><trkpt lat="46.00383620174578" lon="8.6585404912963"><ele>206.0</ele><time>2026-04-01T12:19:01.001Z</time></trkpt><trkpt lat="46.00369848072266" lon="8.658491335718855"><ele>206.0</ele><time>2026-04-01T12:19:02.001Z</time></trkpt><trkpt lat="46.0035603369867" lon="8.658439353920167"><ele>206.0</ele><time>2026-04-01T12:19:03.001Z</time></trkpt><trkpt lat="46.00342236949234" lon="8.658386519642342"><ele>206.0</ele><time>2026-04-01T12:19:04.001Z</time></trkpt><trkpt lat="46.00328549068101" lon="8.658327104411097"><ele>206.0</ele><time>2026-04-01T12:19:05.001Z</time></trkpt><trkpt lat="46.00315316621622" lon="8.65826509882958"><ele>204.75</ele><time>2026-04-01T12:19:06.001Z</time></trkpt><trkpt lat="46.003024693964726" lon="8.658198520186353"><ele>203.5</ele><time>2026-04-01T12:19:07.001Z</time></trkpt><trkpt lat="46.00290098128471" lon="8.658130601330177"><ele>202.25</ele><time>2026-04-01T12:19:08.001Z</time></trkpt><trkpt lat="46.00278313555791" lon="8.658059842621414"><ele>201.0</ele><time>2026-04-01T12:19:09.001Z</time></trkpt><trkpt lat="46.00266680369024" lon="8.657990561064281"><ele>201.0</ele><time>2026-04-01T12:19:10.001Z</time></trkpt><trkpt lat="46.00255486890677" lon="8.657921190957167"><ele>201.0</ele><time>2026-04-01T12:19:11.001Z</time></trkpt><trkpt lat="46.00244698154654" lon="8.6578530193485"><ele>201.0</ele><time>2026-04-01T12:19:12.001Z</time></trkpt><trkpt lat="46.00234150318668" lon="8.657785254579483"><ele>201.0</ele><time>2026-04-01T12:19:13.001Z</time></trkpt><trkpt lat="46.002237934073726" lon="8.65771824883217"><ele>201.20000000000002</ele><time>2026-04-01T12:19:14.001Z</time></trkpt><trkpt lat="46.00213619560812" lon="8.657651059289826"><ele>201.4</ele><time>2026-04-01T12:19:15.001Z</time></trkpt><trkpt lat="46.00203449857304" lon="8.657586139001179"><ele>201.6</ele><time>2026-04-01T12:19:16.001Z</time></trkpt><trkpt lat="46.001937944166905" lon="8.657522924788367"><ele>201.8</ele><time>2026-04-01T12:19:17.001Z</time></trkpt><trkpt lat="46.00184275601851" lon="8.657460113373215"><ele>202.0</ele><time>2026-04-01T12:19:18.001Z</time></trkpt><trkpt lat="46.00175008924746" lon="8.657396636726922"><ele>200.0</ele><time>2026-04-01T12:19:19.001Z</time></trkpt><trkpt lat="46.00165458980853" lon="8.657331452683138"><ele>198.0</ele><time>2026-04-01T12:19:20.001Z</time></trkpt><trkpt lat="46.00155429911174" lon="8.657262570192586"><ele>196.0</ele><time>2026-04-01T12:19:21.001Z</time></trkpt><trkpt lat="46.00144955461264" lon="8.657190947383016"><ele>194.0</ele><time>2026-04-01T12:19:22.001Z</time></trkpt><trkpt lat="46.00134091464824" lon="8.657117181081436"><ele>194.0</ele><time>2026-04-01T12:19:23.001Z</time></trkpt><trkpt lat="46.0012280631485" lon="8.65704247541692"><ele>194.0</ele><time>2026-04-01T12:19:24.001Z</time></trkpt><trkpt lat="46.00111128927357" lon="8.656963985437699"><ele>194.0</ele><time>2026-04-01T12:19:25.001Z</time></trkpt><trkpt lat="46.000991990689776" lon="8.65688458580202"><ele>194.0</ele><time>2026-04-01T12:19:26.001Z</time></trkpt><trkpt lat="46.000869544957084" lon="8.656808177987207"><ele>195.25</ele><time>2026-04-01T12:19:27.001Z</time></trkpt><trkpt lat="46.0007474107552" lon="8.656741003470955"><ele>196.5</ele><time>2026-04-01T12:19:28.001Z</time></trkpt><trkpt lat="46.00062458850231" lon="8.656674755853132"><ele>197.75</ele><time>2026-04-01T12:19:29.001Z</time></trkpt><trkpt lat="46.000500619742745" lon="8.656613968237902"><ele>199.0</ele><time>2026-04-01T12:19:30.001Z</time></trkpt><trkpt lat="46.00037919531032" lon="8.656562057004285"><ele>199.0</ele><time>2026-04-01T12:19:31.001Z</time></trkpt><trkpt lat="46.00025930887451" lon="8.65651963222977"><ele>199.0</ele><time>2026-04-01T12:19:32.001Z</time></trkpt><trkpt lat="46.000141960388895" lon="8.656482551395623"><ele>199.0</ele><time>2026-04-01T12:19:33.001Z</time></trkpt><trkpt lat="46.000027350122615" lon="8.65644661319722"><ele>199.0</ele><time>2026-04-01T12:19:34.001Z</time></trkpt><trkpt lat="45.999921432528296" lon="8.656414392351234"><ele>199.0</ele><time>2026-04-01T12:19:35.001Z</time></trkpt><trkpt lat="45.999823422637434" lon="8.656387254039178"><ele>199.0</ele><time>2026-04-01T12:19:36.001Z</time></trkpt><trkpt lat="45.99972662853268" lon="8.656359381336015"><ele>199.0</ele><time>2026-04-01T12:19:37.002Z</time></trkpt><trkpt lat="45.99963026015842" lon="8.656334177662947"><ele>199.0</ele><time>2026-04-01T12:19:38.002Z</time></trkpt><trkpt lat="45.99953569518215" lon="8.656304651224287"><ele>199.0</ele><time>2026-04-01T12:19:39.002Z</time></trkpt><trkpt lat="45.99944341849207" lon="8.65627482784028"><ele>199.0</ele><time>2026-04-01T12:19:40.002Z</time></trkpt><trkpt lat="45.9993519395457" lon="8.656247342312254"><ele>199.0</ele><time>2026-04-01T12:19:41.002Z</time></trkpt><trkpt lat="45.99926252327815" lon="8.656220112609574"><ele>199.0</ele><time>2026-04-01T12:19:42.002Z</time></trkpt><trkpt lat="45.99917287253502" lon="8.656191995268555"><ele>199.0</ele><time>2026-04-01T12:19:43.002Z</time></trkpt><trkpt lat="45.99908152853952" lon="8.6561641098067"><ele>199.0</ele><time>2026-04-01T12:19:44.002Z</time></trkpt><trkpt lat="45.998989622062744" lon="8.656135397041304"><ele>203.0</ele><time>2026-04-01T12:19:45.002Z</time></trkpt><trkpt lat="45.99889561762446" lon="8.656108233044659"><ele>207.0</ele><time>2026-04-01T12:19:46.002Z</time></trkpt><trkpt lat="45.99880021993375" lon="8.656080828239853"><ele>210.99999999999997</ele><time>2026-04-01T12:19:47.002Z</time></trkpt><trkpt lat="45.99870312979562" lon="8.656052632541776"><ele>215.0</ele><time>2026-04-01T12:19:48.002Z</time></trkpt><trkpt lat="45.99860644401599" lon="8.65602512113026"><ele>219.0</ele><time>2026-04-01T12:19:49.002Z</time></trkpt><trkpt lat="45.99850749202423" lon="8.655997093027246"><ele>219.0</ele><time>2026-04-01T12:19:50.002Z</time></trkpt><trkpt lat="45.99840989540035" lon="8.655967827051997"><ele>218.99999999999997</ele><time>2026-04-01T12:19:51.002Z</time></trkpt><trkpt lat="45.99831322083484" lon="8.655939040585533"><ele>218.99999999999997</ele><time>2026-04-01T12:19:52.002Z</time></trkpt><trkpt lat="45.99822142569261" lon="8.655909370293829"><ele>219.0</ele><time>2026-04-01T12:19:53.002Z</time></trkpt><trkpt lat="45.99813258891223" lon="8.655875277214493"><ele>219.0</ele><time>2026-04-01T12:19:54.002Z</time></trkpt><trkpt lat="45.998038788155625" lon="8.655837599156794"><ele>217.5</ele><time>2026-04-01T12:19:55.002Z</time></trkpt><trkpt lat="45.99793217415461" lon="8.655789732249685"><ele>216.0</ele><time>2026-04-01T12:19:56.002Z</time></trkpt><trkpt lat="45.99781649178562" lon="8.655731893092847"><ele>214.5</ele><time>2026-04-01T12:19:57.002Z</time></trkpt><trkpt lat="45.997694193396114" lon="8.655657087533358"><ele>213.0</ele><time>2026-04-01T12:19:58.002Z</time></trkpt><trkpt lat="45.99756619624259" lon="8.655569674943353"><ele>216.33333333333331</ele><time>2026-04-01T12:19:59.002Z</time></trkpt><trkpt lat="45.997431406361756" lon="8.655463489264145"><ele>219.66666666666666</ele><time>2026-04-01T12:20:00.002Z</time></trkpt><trkpt lat="45.99728985521859" lon="8.655353122210423"><ele>223.0</ele><time>2026-04-01T12:20:01.002Z</time></trkpt><trkpt lat="45.99714455180744" lon="8.65524089422006"><ele>223.0</ele><time>2026-04-01T12:20:02.002Z</time></trkpt><trkpt lat="45.996999018382304" lon="8.6551256959979"><ele>223.0</ele><time>2026-04-01T12:20:03Z</time></trkpt><trkpt lat="45.99685489450928" lon="8.655006718364788"><ele>223.0</ele><time>2026-04-01T12:20:04Z</time></trkpt><trkpt lat="45.996711496096474" lon="8.654893314316203"><ele>218.66666666666666</ele><time>2026-04-01T12:20:05Z</time></trkpt><trkpt lat="45.996568505451044" lon="8.654779422115904"><ele>214.33333333333331</ele><time>2026-04-01T12:20:06Z</time></trkpt><trkpt lat="45.996425501159166" lon="8.654665681245229"><ele>210.0</ele><time>2026-04-01T12:20:07Z</time></trkpt><trkpt lat="45.99628242455604" lon="8.654551541625352"><ele>216.0</ele><time>2026-04-01T12:20:08Z</time></trkpt><trkpt lat="45.99613854672152" lon="8.654440336631188"><ele>222.0</ele><time>2026-04-01T12:20:09Z</time></trkpt><trkpt lat="45.99599464985623" lon="8.65432818376509"><ele>228.0</ele><time>2026-04-01T12:20:10Z</time></trkpt><trkpt lat="45.995850684448435" lon="8.6542149620568"><ele>223.66666666666669</ele><time>2026-04-01T12:20:11Z</time></trkpt><trkpt lat="45.99570538960831" lon="8.654101676325514"><ele>219.33333333333334</ele><time>2026-04-01T12:20:12Z</time></trkpt><trkpt lat="45.99556111976012" lon="8.653987026415399"><ele>215.0</ele><time>2026-04-01T12:20:13Z</time></trkpt><trkpt lat="45.99541673720895" lon="8.653874100573118"><ele>215.0</ele><time>2026-04-01T12:20:14Z</time></trkpt><trkpt lat="45.99527716517288" lon="8.653744829257928"><ele>215.0</ele><time>2026-04-01T12:20:15Z</time></trkpt><trkpt lat="45.995146097164266" lon="8.653599977086335"><ele>215.0</ele><time>2026-04-01T12:20:16Z</time></trkpt><trkpt lat="45.99502054657934" lon="8.653446841702864"><ele>216.0</ele><time>2026-04-01T12:20:17Z</time></trkpt><trkpt lat="45.99489173348456" lon="8.653296187989872"><ele>217.0</ele><time>2026-04-01T12:20:18Z</time></trkpt><trkpt lat="45.99476391171329" lon="8.653147339244812"><ele>218.0</ele><time>2026-04-01T12:20:19Z</time></trkpt><trkpt lat="45.994635462837465" lon="8.653000365280432"><ele>218.0</ele><time>2026-04-01T12:20:20Z</time></trkpt><trkpt lat="45.99450415443153" lon="8.65285851853297"><ele>218.0</ele><time>2026-04-01T12:20:21Z</time></trkpt><trkpt lat="45.994371507475776" lon="8.652717588353056"><ele>218.0</ele><time>2026-04-01T12:20:22Z</time></trkpt><trkpt lat="45.994239952588124" lon="8.652575661425951"><ele>216.33333333333334</ele><time>2026-04-01T12:20:23Z</time></trkpt><trkpt lat="45.99410675159853" lon="8.652434599186604"><ele>214.66666666666669</ele><time>2026-04-01T12:20:24Z</time></trkpt><trkpt lat="45.99397322611903" lon="8.65229481263499"><ele>213.0</ele><time>2026-04-01T12:20:25Z</time></trkpt><trkpt lat="45.993840460603494" lon="8.652155842525632"><ele>213.0</ele><time>2026-04-01T12:20:26Z</time></trkpt><trkpt lat="45.993709831658535" lon="8.652016630390161"><ele>213.0</ele><time>2026-04-01T12:20:27Z</time></trkpt><trkpt lat="45.99358145005825" lon="8.651880803924573"><ele>213.0</ele><time>2026-04-01T12:20:28Z</time></trkpt><trkpt lat="45.993454529467115" lon="8.651744741854023"><ele>211.33333333333331</ele><time>2026-04-01T12:20:29Z</time></trkpt><trkpt lat="45.993327574852565" lon="8.651610412904738"><ele>209.66666666666666</ele><time>2026-04-01T12:20:30Z</time></trkpt><trkpt lat="45.99320374194806" lon="8.651478528063663"><ele>208.0</ele><time>2026-04-01T12:20:31Z</time></trkpt><trkpt lat="45.99308195222355" lon="8.651347578227535"><ele>208.0</ele><time>2026-04-01T12:20:32Z</time></trkpt><trkpt lat="45.9929615258915" lon="8.651220346458196"><ele>208.0</ele><time>2026-04-01T12:20:33Z</time></trkpt><trkpt lat="45.992844460174844" lon="8.651095491364591"><ele>208.0</ele><time>2026-04-01T12:20:34Z</time></trkpt><trkpt lat="45.992725116074986" lon="8.650977900615757"><ele>208.0</ele><time>2026-04-01T12:20:35Z</time></trkpt><trkpt lat="45.99261303256212" lon="8.650856550510564"><ele>207.75</ele><time>2026-04-01T12:20:36Z</time></trkpt><trkpt lat="45.99249834680781" lon="8.650733856351907"><ele>207.5</ele><time>2026-04-01T12:20:37.001Z</time></trkpt><trkpt lat="45.992383538906516" lon="8.650611127597168"><ele>207.25</ele><time>2026-04-01T12:20:38.001Z</time></trkpt><trkpt lat="45.99226845458771" lon="8.650484918216359"><ele>207.0</ele><time>2026-04-01T12:20:39.001Z</time></trkpt><trkpt lat="45.9921549629123" lon="8.650355656063109"><ele>211.0</ele><time>2026-04-01T12:20:40.001Z</time></trkpt><trkpt lat="45.99204230924786" lon="8.650222000203659"><ele>215.0</ele><time>2026-04-01T12:20:41.001Z</time></trkpt><trkpt lat="45.9919338644666" lon="8.65008355927039"><ele>219.0</ele><time>2026-04-01T12:20:42.001Z</time></trkpt><trkpt lat="45.99183120973953" lon="8.64994071288061"><ele>223.0</ele><time>2026-04-01T12:20:43.001Z</time></trkpt><trkpt lat="45.99173538618933" lon="8.649789987984432"><ele>220.5</ele><time>2026-04-01T12:20:44.001Z</time></trkpt><trkpt lat="45.99164908468102" lon="8.649631383249327"><ele>218.0</ele><time>2026-04-01T12:20:45.001Z</time></trkpt><trkpt lat="45.99157234916233" lon="8.64946749328065"><ele>215.5</ele><time>2026-04-01T12:20:46.001Z</time></trkpt><trkpt lat="45.99149725210295" lon="8.649302750332701"><ele>213.0</ele><time>2026-04-01T12:20:47.001Z</time></trkpt><trkpt lat="45.99142618579833" lon="8.649130955047937"><ele>213.0</ele><time>2026-04-01T12:20:48.001Z</time></trkpt><trkpt lat="45.99135614863483" lon="8.648955688659294"><ele>213.0</ele><time>2026-04-01T12:20:49.001Z</time></trkpt><trkpt lat="45.99128474315524" lon="8.64877969130097"><ele>213.0</ele><time>2026-04-01T12:20:50.001Z</time></trkpt><trkpt lat="45.99121478482708" lon="8.648604583542712"><ele>213.0</ele><time>2026-04-01T12:20:51.001Z</time></trkpt><trkpt lat="45.99114866060835" lon="8.648435108464938"><ele>217.0</ele><time>2026-04-01T12:20:52.001Z</time></trkpt><trkpt lat="45.99108307113511" lon="8.64827071837085"><ele>221.0</ele><time>2026-04-01T12:20:53.001Z</time></trkpt><trkpt lat="45.991020534139885" lon="8.648110265902197"><ele>225.0</ele><time>2026-04-01T12:20:54.001Z</time></trkpt><trkpt lat="45.990961946535926" lon="8.647951532076826"><ele>229.0</ele><time>2026-04-01T12:20:55.001Z</time></trkpt><trkpt lat="45.99090184024275" lon="8.647799871255566"><ele>224.75</ele><time>2026-04-01T12:20:56.001Z</time></trkpt><trkpt lat="45.99084403138579" lon="8.647653245985527"><ele>220.5</ele><time>2026-04-01T12:20:57.001Z</time></trkpt><trkpt lat="45.9907856210261" lon="8.647509513667224"><ele>216.25</ele><time>2026-04-01T12:20:58.001Z</time></trkpt><trkpt lat="45.990728578652245" lon="8.647368905207957"><ele>212.0</ele><time>2026-04-01T12:20:59.001Z</time></trkpt><trkpt lat="45.99067272836703" lon="8.647231230610661"><ele>212.0</ele><time>2026-04-01T12:21:00.001Z</time></trkpt><trkpt lat="45.99061702187913" lon="8.647099363800102"><ele>212.0</ele><time>2026-04-01T12:21:01.001Z</time></trkpt><trkpt lat="45.990559458945484" lon="8.64696703611869"><ele>212.0</ele><time>2026-04-01T12:21:02.001Z</time></trkpt><trkpt lat="45.99049883135859" lon="8.64683134475132"><ele>212.0</ele><time>2026-04-01T12:21:03.001Z</time></trkpt><trkpt lat="45.99043286440262" lon="8.646693932157858"><ele>212.0</ele><time>2026-04-01T12:21:04.001Z</time></trkpt><trkpt lat="45.990358119083815" lon="8.646555355423434"><ele>212.75</ele><time>2026-04-01T12:21:05.001Z</time></trkpt><trkpt lat="45.9902748882732" lon="8.646420498861376"><ele>213.5</ele><time>2026-04-01T12:21:06.001Z</time></trkpt><trkpt lat="45.99018683820442" lon="8.646284162034643"><ele>214.25</ele><time>2026-04-01T12:21:07.001Z</time></trkpt><trkpt lat="45.99009339522295" lon="8.646149816093166"><ele>215.0</ele><time>2026-04-01T12:21:08.001Z</time></trkpt><trkpt lat="45.989996861689434" lon="8.64601482086905"><ele>215.0</ele><time>2026-04-01T12:21:09.001Z</time></trkpt><trkpt lat="45.98989882705937" lon="8.64588033451686"><ele>215.0</ele><time>2026-04-01T12:21:10.001Z</time></trkpt><trkpt lat="45.98979765160629" lon="8.645747358875195"><ele>215.0</ele><time>2026-04-01T12:21:11.001Z</time></trkpt><trkpt lat="45.98969541259069" lon="8.645615627970441"><ele>215.0</ele><time>2026-04-01T12:21:12.001Z</time></trkpt><trkpt lat="45.989595403348595" lon="8.645485801196788"><ele>215.0</ele><time>2026-04-01T12:21:13.001Z</time></trkpt><trkpt lat="45.98949922691386" lon="8.64535919825258"><ele>215.0</ele><time>2026-04-01T12:21:14.001Z</time></trkpt><trkpt lat="45.989402653133396" lon="8.645233134727278"><ele>215.0</ele><time>2026-04-01T12:21:15.001Z</time></trkpt><trkpt lat="45.98930511470765" lon="8.645107303692793"><ele>215.0</ele><time>2026-04-01T12:21:16.001Z</time></trkpt><trkpt lat="45.98921022533925" lon="8.644988274824144"><ele>213.6</ele><time>2026-04-01T12:21:17.001Z</time></trkpt><trkpt lat="45.98911882509091" lon="8.6448723815322"><ele>212.2</ele><time>2026-04-01T12:21:18.001Z</time></trkpt><trkpt lat="45.989035855714185" lon="8.644763563116618"><ele>210.8</ele><time>2026-04-01T12:21:19.001Z</time></trkpt><trkpt lat="45.98895516409937" lon="8.64465844473898"><ele>209.4</ele><time>2026-04-01T12:21:20.001Z</time></trkpt><trkpt lat="45.98887730656078" lon="8.644554193496305"><ele>208.0</ele><time>2026-04-01T12:21:21.001Z</time></trkpt><trkpt lat="45.98879832951138" lon="8.644454977158354"><ele>213.75</ele><time>2026-04-01T12:21:22.001Z</time></trkpt><trkpt lat="45.98871295470039" lon="8.644352056191973"><ele>219.5</ele><time>2026-04-01T12:21:23.001Z</time></trkpt><trkpt lat="45.98863099885643" lon="8.644225544533978"><ele>225.25</ele><time>2026-04-01T12:21:24.001Z</time></trkpt><trkpt lat="45.98853730225548" lon="8.644100096175581"><ele>231.0</ele><time>2026-04-01T12:21:25.001Z</time></trkpt><trkpt lat="45.988426352528016" lon="8.643986678076459"><ele>229.0</ele><time>2026-04-01T12:21:26.001Z</time></trkpt><trkpt lat="45.98832399909121" lon="8.643846414436648"><ele>227.0</ele><time>2026-04-01T12:21:27.001Z</time></trkpt><trkpt lat="45.98821682050962" lon="8.643708026232584"><ele>225.0</ele><time>2026-04-01T12:21:28.001Z</time></trkpt><trkpt lat="45.98810249522433" lon="8.643574293059245"><ele>223.0</ele><time>2026-04-01T12:21:29.001Z</time></trkpt><trkpt lat="45.987984133891054" lon="8.643443656626651"><ele>223.0</ele><time>2026-04-01T12:21:30.001Z</time></trkpt><trkpt lat="45.987862791098806" lon="8.64331568225009"><ele>223.0</ele><time>2026-04-01T12:21:31.001Z</time></trkpt><trkpt lat="45.9877395640665" lon="8.643188522360653"><ele>223.0</ele><time>2026-04-01T12:21:32.001Z</time></trkpt><trkpt lat="45.98761604122325" lon="8.643063055066856"><ele>223.0</ele><time>2026-04-01T12:21:33.001Z</time></trkpt><trkpt lat="45.987491679505915" lon="8.642939382853434"><ele>223.0</ele><time>2026-04-01T12:21:34.001Z</time></trkpt><trkpt lat="45.98736669091244" lon="8.642816597769622"><ele>223.0</ele><time>2026-04-01T12:21:35.001Z</time></trkpt><trkpt lat="45.98724250499906" lon="8.64269173406399"><ele>223.0</ele><time>2026-04-01T12:21:36.001Z</time></trkpt><trkpt lat="45.987119093027935" lon="8.642568200761968"><ele>223.0</ele><time>2026-04-01T12:21:37.001Z</time></trkpt><trkpt lat="45.98699702109032" lon="8.642445274789445"><ele>223.0</ele><time>2026-04-01T12:21:38.001Z</time></trkpt><trkpt lat="45.986874643010324" lon="8.642323592605907"><ele>223.0</ele><time>2026-04-01T12:21:39.001Z</time></trkpt><trkpt lat="45.98675103540826" lon="8.642203957099264"><ele>222.25</ele><time>2026-04-01T12:21:40.001Z</time></trkpt><trkpt lat="45.98662670808857" lon="8.642086607231752"><ele>221.5</ele><time>2026-04-01T12:21:41.001Z</time></trkpt><trkpt lat="45.9865017084933" lon="8.641972212264283"><ele>220.75</ele><time>2026-04-01T12:21:42.001Z</time></trkpt><trkpt lat="45.986376895249876" lon="8.641858580756995"><ele>220.0</ele><time>2026-04-01T12:21:43.001Z</time></trkpt><trkpt lat="45.98625009522688" lon="8.641745934687767"><ele>220.0</ele><time>2026-04-01T12:21:44.001Z</time></trkpt><trkpt lat="45.98612050352996" lon="8.641637532265719"><ele>220.0</ele><time>2026-04-01T12:21:45.001Z</time></trkpt><trkpt lat="45.98598927589306" lon="8.641529766363524"><ele>220.0</ele><time>2026-04-01T12:21:46.001Z</time></trkpt><trkpt lat="45.985856812466906" lon="8.64142209082082"><ele>222.0</ele><time>2026-04-01T12:21:47.001Z</time></trkpt><trkpt lat="45.98572266534638" lon="8.64131794141671"><ele>224.0</ele><time>2026-04-01T12:21:48.001Z</time></trkpt><trkpt lat="45.9855900555794" lon="8.641214918895308"><ele>226.0</ele><time>2026-04-01T12:21:49.001Z</time></trkpt><trkpt lat="45.98545778505971" lon="8.64111469667027"><ele>226.0</ele><time>2026-04-01T12:21:50.001Z</time></trkpt><trkpt lat="45.9853248014602" lon="8.641015318394539"><ele>226.0</ele><time>2026-04-01T12:21:51.001Z</time></trkpt><trkpt lat="45.98519225039537" lon="8.640917309361377"><ele>226.0</ele><time>2026-04-01T12:21:52.001Z</time></trkpt><trkpt lat="45.98505960464579" lon="8.64082163728549"><ele>226.0</ele><time>2026-04-01T12:21:53.001Z</time></trkpt><trkpt lat="45.98492832848994" lon="8.64072623829335"><ele>222.25</ele><time>2026-04-01T12:21:54.001Z</time></trkpt><trkpt lat="45.984795978170915" lon="8.640637333771776"><ele>218.5</ele><time>2026-04-01T12:21:55.001Z</time></trkpt><trkpt lat="45.984658823308656" lon="8.640567458100808"><ele>214.75</ele><time>2026-04-01T12:21:56.001Z</time></trkpt><trkpt lat="45.984515224026055" lon="8.640522004438258"><ele>211.0</ele><time>2026-04-01T12:21:57.001Z</time></trkpt><trkpt lat="45.98436980277824" lon="8.640498781728391"><ele>211.0</ele><time>2026-04-01T12:21:58.002Z</time></trkpt><trkpt lat="45.98422422446081" lon="8.640496579081951"><ele>211.0</ele><time>2026-04-01T12:21:59.002Z</time></trkpt><trkpt lat="45.98407863932452" lon="8.640499283840967"><ele>211.0</ele><time>2026-04-01T12:22:00.002Z</time></trkpt><trkpt lat="45.983935667727984" lon="8.640509232397068"><ele>211.0</ele><time>2026-04-01T12:22:01.002Z</time></trkpt><trkpt lat="45.98379782192533" lon="8.640521203481882"><ele>209.0</ele><time>2026-04-01T12:22:02.002Z</time></trkpt><trkpt lat="45.98366278818784" lon="8.64053216957175"><ele>207.0</ele><time>2026-04-01T12:22:03.002Z</time></trkpt><trkpt lat="45.98352962437332" lon="8.64054223559581"><ele>205.0</ele><time>2026-04-01T12:22:04.002Z</time></trkpt><trkpt lat="45.98339744041579" lon="8.64054737622315"><ele>203.0</ele><time>2026-04-01T12:22:05.002Z</time></trkpt><trkpt lat="45.98326507629846" lon="8.640532295410711"><ele>202.25</ele><time>2026-04-01T12:22:06.002Z</time></trkpt><trkpt lat="45.98313397637741" lon="8.640488507493034"><ele>201.5</ele><time>2026-04-01T12:22:07.002Z</time></trkpt><trkpt lat="45.98300703349244" lon="8.640407268057707"><ele>200.75</ele><time>2026-04-01T12:22:08.002Z</time></trkpt><trkpt lat="45.982887241038" lon="8.640296028242734"><ele>200.0</ele><time>2026-04-01T12:22:09Z</time></trkpt><trkpt lat="45.982777149818475" lon="8.640158401819317"><ele>201.66666666666669</ele><time>2026-04-01T12:22:10Z</time></trkpt><trkpt lat="45.982666100989086" lon="8.640010127961109"><ele>203.33333333333331</ele><time>2026-04-01T12:22:11Z</time></trkpt><trkpt lat="45.9825548621523" lon="8.639861877545423"><ele>205.0</ele><time>2026-04-01T12:22:12Z</time></trkpt><trkpt lat="45.982441867946555" lon="8.639704851721548"><ele>205.0</ele><time>2026-04-01T12:22:13Z</time></trkpt><trkpt lat="45.982325415039334" lon="8.639547821218722"><ele>205.0</ele><time>2026-04-01T12:22:14Z</time></trkpt><trkpt lat="45.98221028454004" lon="8.639389583660815"><ele>205.0</ele><time>2026-04-01T12:22:15Z</time></trkpt><trkpt lat="45.9820954986174" lon="8.63923015244966"><ele>209.33333333333331</ele><time>2026-04-01T12:22:16Z</time></trkpt><trkpt lat="45.98198036343532" lon="8.639072641102933"><ele>213.66666666666669</ele><time>2026-04-01T12:22:17Z</time></trkpt><trkpt lat="45.9818644288073" lon="8.638916819053279"><ele>218.0</ele><time>2026-04-01T12:22:18Z</time></trkpt><trkpt lat="45.98174546977965" lon="8.638767273360322"><ele>219.66666666666669</ele><time>2026-04-01T12:22:19Z</time></trkpt><trkpt lat="45.98162412418942" lon="8.638625029667681"><ele>221.33333333333331</ele><time>2026-04-01T12:22:20Z</time></trkpt><trkpt lat="45.98149813853659" lon="8.638487591804381"><ele>223.0</ele><time>2026-04-01T12:22:21Z</time></trkpt><trkpt lat="45.981372558728104" lon="8.638353622801736"><ele>223.0</ele><time>2026-04-01T12:22:22Z</time></trkpt><trkpt lat="45.981246904658065" lon="8.638219928802407"><ele>223.0</ele><time>2026-04-01T12:22:23Z</time></trkpt><trkpt lat="45.98112121154964" lon="8.638088065311281"><ele>223.0</ele><time>2026-04-01T12:22:24Z</time></trkpt><trkpt lat="45.9809945440586" lon="8.637956379086516"><ele>223.0</ele><time>2026-04-01T12:22:25Z</time></trkpt><trkpt lat="45.98086824828493" lon="8.637824774857743"><ele>223.0</ele><time>2026-04-01T12:22:26Z</time></trkpt><trkpt lat="45.980746914532496" lon="8.637695051771978"><ele>223.0</ele><time>2026-04-01T12:22:27Z</time></trkpt><trkpt lat="45.98062499189958" lon="8.63756774804087"><ele>227.33333333333331</ele><time>2026-04-01T12:22:28Z</time></trkpt><trkpt lat="45.98050405373051" lon="8.637441636373476"><ele>231.66666666666669</ele><time>2026-04-01T12:22:29Z</time></trkpt><trkpt lat="45.98038062323335" lon="8.637312907282656"><ele>236.0</ele><time>2026-04-01T12:22:30Z</time></trkpt><trkpt lat="45.98025690622696" lon="8.637182775926153"><ele>236.0</ele><time>2026-04-01T12:22:31Z</time></trkpt><trkpt lat="45.98013385370045" lon="8.637053606390154"><ele>236.0</ele><time>2026-04-01T12:22:32Z</time></trkpt><trkpt lat="45.98000941486452" lon="8.636923548879924"><ele>236.0</ele><time>2026-04-01T12:22:33Z</time></trkpt><trkpt lat="45.97988536683922" lon="8.636793566606034"><ele>235.0</ele><time>2026-04-01T12:22:34Z</time></trkpt><trkpt lat="45.979761379653" lon="8.636664020952342"><ele>234.0</ele><time>2026-04-01T12:22:35Z</time></trkpt><trkpt lat="45.979637967828864" lon="8.636536238792141"><ele>233.0</ele><time>2026-04-01T12:22:36Z</time></trkpt><trkpt lat="45.9795135392456" lon="8.636413509530083"><ele>233.0</ele><time>2026-04-01T12:22:37Z</time></trkpt><trkpt lat="45.97938867960886" lon="8.63628781296292"><ele>233.0</ele><time>2026-04-01T12:22:38Z</time></trkpt><trkpt lat="45.979264273639146" lon="8.63615685663492"><ele>233.0</ele><time>2026-04-01T12:22:39Z</time></trkpt><trkpt lat="45.97913946863237" lon="8.636024496415034"><ele>232.33333333333334</ele><time>2026-04-01T12:22:40Z</time></trkpt><trkpt lat="45.97901220298308" lon="8.635893890377421"><ele>231.66666666666669</ele><time>2026-04-01T12:22:41Z</time></trkpt><trkpt lat="45.978881478873156" lon="8.635769705134468"><ele>231.0</ele><time>2026-04-01T12:22:42Z</time></trkpt><trkpt lat="45.978746340515464" lon="8.635658048748137"><ele>231.0</ele><time>2026-04-01T12:22:43Z</time></trkpt><trkpt lat="45.97861084373098" lon="8.635547288895062"><ele>231.0</ele><time>2026-04-01T12:22:44Z</time></trkpt><trkpt lat="45.978470744181884" lon="8.635448608255954"><ele>231.0</ele><time>2026-04-01T12:22:45Z</time></trkpt><trkpt lat="45.97832664004224" lon="8.635359369371825"><ele>229.33333333333331</ele><time>2026-04-01T12:22:46Z</time></trkpt><trkpt lat="45.978177581988376" lon="8.635278297235066"><ele>227.66666666666666</ele><time>2026-04-01T12:22:47Z</time></trkpt><trkpt lat="45.97802818101466" lon="8.635201275759496"><ele>226.0</ele><time>2026-04-01T12:22:48Z</time></trkpt><trkpt lat="45.97788129378251" lon="8.635128128791258"><ele>226.0</ele><time>2026-04-01T12:22:49Z</time></trkpt><trkpt lat="45.97773830238789" lon="8.635056288483927"><ele>226.0</ele><time>2026-04-01T12:22:50Z</time></trkpt><trkpt lat="45.97759869712177" lon="8.634984123033481"><ele>226.0</ele><time>2026-04-01T12:22:51Z</time></trkpt><trkpt lat="45.9774637927248" lon="8.634907632608819"><ele>226.0</ele><time>2026-04-01T12:22:52Z</time></trkpt><trkpt lat="45.97733430559746" lon="8.634821466774726"><ele>224.25</ele><time>2026-04-01T12:22:53Z</time></trkpt><trkpt lat="45.97720826364136" lon="8.634719752963573"><ele>222.5</ele><time>2026-04-01T12:22:54Z</time></trkpt><trkpt lat="45.97708887122196" lon="8.634600492791938"><ele>220.75</ele><time>2026-04-01T12:22:55.001Z</time></trkpt><trkpt lat="45.976977724023314" lon="8.63446340891519"><ele>219.0</ele><time>2026-04-01T12:22:56.001Z</time></trkpt><trkpt lat="45.976876657453005" lon="8.634309284923297"><ele>219.0</ele><time>2026-04-01T12:22:57.001Z</time></trkpt><trkpt lat="45.976781004130984" lon="8.634147823354555"><ele>219.0</ele><time>2026-04-01T12:22:58.001Z</time></trkpt><trkpt lat="45.97668886755266" lon="8.633987085319625"><ele>219.0</ele><time>2026-04-01T12:22:59.001Z</time></trkpt><trkpt lat="45.9765955950081" lon="8.633830785518207"><ele>219.0</ele><time>2026-04-01T12:23:00.001Z</time></trkpt><trkpt lat="45.97650316054645" lon="8.633672551821402"><ele>219.5</ele><time>2026-04-01T12:23:01.001Z</time></trkpt><trkpt lat="45.976408039297525" lon="8.633510593255464"><ele>220.0</ele><time>2026-04-01T12:23:02.001Z</time></trkpt><trkpt lat="45.97631109341132" lon="8.63334686666845"><ele>220.5</ele><time>2026-04-01T12:23:03.001Z</time></trkpt><trkpt lat="45.97621095616418" lon="8.633188059273515"><ele>221.0</ele><time>2026-04-01T12:23:04.001Z</time></trkpt><trkpt lat="45.9761021479319" lon="8.633032481908474"><ele>221.0</ele><time>2026-04-01T12:23:05.001Z</time></trkpt><trkpt lat="45.97598876579505" lon="8.632886942713444"><ele>221.0</ele><time>2026-04-01T12:23:06.001Z</time></trkpt><trkpt lat="45.9758719138569" lon="8.632747307303474"><ele>221.0</ele><time>2026-04-01T12:23:07.001Z</time></trkpt><trkpt lat="45.975752329641736" lon="8.632614418420976"><ele>223.33333333333334</ele><time>2026-04-01T12:23:08.001Z</time></trkpt><trkpt lat="45.97563179691697" lon="8.632481472482116"><ele>225.66666666666669</ele><time>2026-04-01T12:23:09.001Z</time></trkpt><trkpt lat="45.97551056142419" lon="8.632352529838258"><ele>228.0</ele><time>2026-04-01T12:23:10.001Z</time></trkpt><trkpt lat="45.975392214020864" lon="8.632224234662388"><ele>228.0</ele><time>2026-04-01T12:23:11.001Z</time></trkpt><trkpt lat="45.97527085906938" lon="8.632092300896126"><ele>228.0</ele><time>2026-04-01T12:23:12.001Z</time></trkpt><trkpt lat="45.97514932272826" lon="8.631960208678949"><ele>228.0</ele><time>2026-04-01T12:23:13.001Z</time></trkpt><trkpt lat="45.97502662653402" lon="8.631825138545116"><ele>229.0</ele><time>2026-04-01T12:23:14.001Z</time></trkpt><trkpt lat="45.974903229597324" lon="8.631687011164656"><ele>230.0</ele><time>2026-04-01T12:23:15.001Z</time></trkpt><trkpt lat="45.97477830707393" lon="8.631547849902736"><ele>231.0</ele><time>2026-04-01T12:23:16.001Z</time></trkpt><trkpt lat="45.974656550322905" lon="8.631403095498454"><ele>231.0</ele><time>2026-04-01T12:23:17.001Z</time></trkpt><trkpt lat="45.97453545638066" lon="8.631256836391037"><ele>231.0</ele><time>2026-04-01T12:23:18.001Z</time></trkpt><trkpt lat="45.97441880515036" lon="8.631103939139306"><ele>231.0</ele><time>2026-04-01T12:23:19.001Z</time></trkpt><trkpt lat="45.97430154091662" lon="8.630949013389895"><ele>225.33333333333331</ele><time>2026-04-01T12:23:20.001Z</time></trkpt><trkpt lat="45.97418328067801" lon="8.630791876095639"><ele>219.66666666666666</ele><time>2026-04-01T12:23:21.001Z</time></trkpt><trkpt lat="45.974063666856594" lon="8.630633648055387"><ele>214.0</ele><time>2026-04-01T12:23:22.001Z</time></trkpt><trkpt lat="45.97394355244207" lon="8.630475659474326"><ele>214.0</ele><time>2026-04-01T12:23:23.001Z</time></trkpt><trkpt lat="45.97382254666395" lon="8.630318544060408"><ele>214.0</ele><time>2026-04-01T12:23:24.001Z</time></trkpt><trkpt lat="45.97369978362443" lon="8.630165236476245"><ele>214.0</ele><time>2026-04-01T12:23:25.001Z</time></trkpt><trkpt lat="45.973573097079644" lon="8.630017645440837"><ele>212.66666666666666</ele><time>2026-04-01T12:23:26.001Z</time></trkpt><trkpt lat="45.973440588536775" lon="8.629883128975509"><ele>211.33333333333331</ele><time>2026-04-01T12:23:27.001Z</time></trkpt><trkpt lat="45.9733021210285" lon="8.629764161369403"><ele>210.0</ele><time>2026-04-01T12:23:28.001Z</time></trkpt><trkpt lat="45.97316088410558" lon="8.629655072732687"><ele>210.0</ele><time>2026-04-01T12:23:29.001Z</time></trkpt><trkpt lat="45.973017316082355" lon="8.629550544976992"><ele>210.0</ele><time>2026-04-01T12:23:30.001Z</time></trkpt><trkpt lat="45.97287764452756" lon="8.629434820463997"><ele>210.0</ele><time>2026-04-01T12:23:31.001Z</time></trkpt><trkpt lat="45.972750089314054" lon="8.62929787877874"><ele>209.0</ele><time>2026-04-01T12:23:32.001Z</time></trkpt><trkpt lat="45.97263491146283" lon="8.629140154026192"><ele>208.0</ele><time>2026-04-01T12:23:33.001Z</time></trkpt><trkpt lat="45.97252732138086" lon="8.628968042765244"><ele>207.0</ele><time>2026-04-01T12:23:34.001Z</time></trkpt><trkpt lat="45.97242056627897" lon="8.628791468502023"><ele>213.66666666666669</ele><time>2026-04-01T12:23:35.001Z</time></trkpt><trkpt lat="45.97231119247707" lon="8.628616414246423"><ele>220.33333333333334</ele><time>2026-04-01T12:23:36.001Z</time></trkpt><trkpt lat="45.97219505752284" lon="8.628447600926282"><ele>227.0</ele><time>2026-04-01T12:23:37.001Z</time></trkpt><trkpt lat="45.97207467606823" lon="8.628289324107469"><ele>227.0</ele><time>2026-04-01T12:23:38.001Z</time></trkpt><trkpt lat="45.971948927369624" lon="8.628136638232144"><ele>227.0</ele><time>2026-04-01T12:23:39.001Z</time></trkpt><trkpt lat="45.97181814525637" lon="8.627993638126851"><ele>227.0</ele><time>2026-04-01T12:23:40.001Z</time></trkpt><trkpt lat="45.9716827560428" lon="8.627859118372868"><ele>224.33333333333334</ele><time>2026-04-01T12:23:41.001Z</time></trkpt><trkpt lat="45.9715442225978" lon="8.627734441370096"><ele>221.66666666666669</ele><time>2026-04-01T12:23:42.001Z</time></trkpt><trkpt lat="45.97140371862833" lon="8.627618378494356"><ele>219.0</ele><time>2026-04-01T12:23:43.001Z</time></trkpt><trkpt lat="45.97125813345989" lon="8.627512496926382"><ele>219.0</ele><time>2026-04-01T12:23:44.001Z</time></trkpt><trkpt lat="45.97111091509748" lon="8.627417014419954"><ele>219.0</ele><time>2026-04-01T12:23:45.001Z</time></trkpt><trkpt lat="45.97096174587064" lon="8.627333510209832"><ele>219.0</ele><time>2026-04-01T12:23:46.001Z</time></trkpt><trkpt lat="45.970809028961554" lon="8.62725350329341"><ele>213.66666666666669</ele><time>2026-04-01T12:23:47.001Z</time></trkpt><trkpt lat="45.970656101498506" lon="8.627179371389728"><ele>208.33333333333334</ele><time>2026-04-01T12:23:48.001Z</time></trkpt><trkpt lat="45.970500529012796" lon="8.627111363018697"><ele>203.0</ele><time>2026-04-01T12:23:49.001Z</time></trkpt><trkpt lat="45.97034627496576" lon="8.627047111429121"><ele>203.0</ele><time>2026-04-01T12:23:50.001Z</time></trkpt><trkpt lat="45.97019292649471" lon="8.626983052889884"><ele>203.0</ele><time>2026-04-01T12:23:51.001Z</time></trkpt><trkpt lat="45.97003905208818" lon="8.626920684125498"><ele>203.0</ele><time>2026-04-01T12:23:52.001Z</time></trkpt><trkpt lat="45.96988825015379" lon="8.626856672241296"><ele>207.0</ele><time>2026-04-01T12:23:53.001Z</time></trkpt><trkpt lat="45.96973760425084" lon="8.626797490730967"><ele>211.0</ele><time>2026-04-01T12:23:54.001Z</time></trkpt><trkpt lat="45.96958583910596" lon="8.626735852136559"><ele>215.0</ele><time>2026-04-01T12:23:55.001Z</time></trkpt><trkpt lat="45.969434364942636" lon="8.626678195013708"><ele>215.0</ele><time>2026-04-01T12:23:56.001Z</time></trkpt><trkpt lat="45.96928355289791" lon="8.626621998861124"><ele>215.0</ele><time>2026-04-01T12:23:57.001Z</time></trkpt><trkpt lat="45.96913308210421" lon="8.626562157563892"><ele>215.0</ele><time>2026-04-01T12:23:58.001Z</time></trkpt><trkpt lat="45.9689818346765" lon="8.626504970641662"><ele>211.33333333333334</ele><time>2026-04-01T12:23:59.001Z</time></trkpt><trkpt lat="45.968830651998424" lon="8.62644576037805"><ele>207.66666666666669</ele><time>2026-04-01T12:24:00.001Z</time></trkpt><trkpt lat="45.96867813071546" lon="8.626386116736498"><ele>204.0</ele><time>2026-04-01T12:24:01.001Z</time></trkpt><trkpt lat="45.96852572104422" lon="8.626327884983771"><ele>204.0</ele><time>2026-04-01T12:24:02.001Z</time></trkpt><trkpt lat="45.96837647206891" lon="8.626261796482806"><ele>204.0</ele><time>2026-04-01T12:24:03.001Z</time></trkpt><trkpt lat="45.96823196078657" lon="8.62617679585024"><ele>204.0</ele><time>2026-04-01T12:24:04.001Z</time></trkpt><trkpt lat="45.96810007992653" lon="8.626063766432654"><ele>210.66666666666669</ele><time>2026-04-01T12:24:05.001Z</time></trkpt><trkpt lat="45.96797534787219" lon="8.625932175288066"><ele>217.33333333333334</ele><time>2026-04-01T12:24:06.001Z</time></trkpt><trkpt lat="45.96785978516557" lon="8.625784574106538"><ele>224.0</ele><time>2026-04-01T12:24:07.001Z</time></trkpt><trkpt lat="45.96775541623969" lon="8.625624232610248"><ele>224.0</ele><time>2026-04-01T12:24:08.001Z</time></trkpt><trkpt lat="45.96765221770986" lon="8.625458955777807"><ele>224.0</ele><time>2026-04-01T12:24:09.001Z</time></trkpt><trkpt lat="45.96754462316941" lon="8.625293428515263"><ele>224.0</ele><time>2026-04-01T12:24:10.002Z</time></trkpt><trkpt lat="45.96742943010423" lon="8.625139372057584"><ele>224.0</ele><time>2026-04-01T12:24:11.002Z</time></trkpt><trkpt lat="45.9673068451312" lon="8.624993399862472"><ele>224.0</ele><time>2026-04-01T12:24:12.002Z</time></trkpt><trkpt lat="45.967176093492114" lon="8.624861353382947"><ele>224.0</ele><time>2026-04-01T12:24:13.002Z</time></trkpt><trkpt lat="45.967041522843175" lon="8.624739247710854"><ele>224.0</ele><time>2026-04-01T12:24:14.002Z</time></trkpt><trkpt lat="45.96690623086023" lon="8.624621606424892"><ele>224.0</ele><time>2026-04-01T12:24:15Z</time></trkpt><trkpt lat="45.96677427908184" lon="8.624501773424083"><ele>224.0</ele><time>2026-04-01T12:24:16Z</time></trkpt><trkpt lat="45.96664056515619" lon="8.624381403537061"><ele>222.66666666666669</ele><time>2026-04-01T12:24:17Z</time></trkpt><trkpt lat="45.96650874798902" lon="8.62426266589074"><ele>221.33333333333331</ele><time>2026-04-01T12:24:18Z</time></trkpt><trkpt lat="45.96637881499758" lon="8.624145834619137"><ele>220.0</ele><time>2026-04-01T12:24:19Z</time></trkpt><trkpt lat="45.96624544671024" lon="8.624035428927945"><ele>220.0</ele><time>2026-04-01T12:24:20Z</time></trkpt><trkpt lat="45.96611149896844" lon="8.623923663673661"><ele>220.0</ele><time>2026-04-01T12:24:21Z</time></trkpt><trkpt lat="45.965977018909946" lon="8.623815138695607"><ele>220.0</ele><time>2026-04-01T12:24:22Z</time></trkpt><trkpt lat="45.96583954717605" lon="8.623707059159587"><ele>224.33333333333331</ele><time>2026-04-01T12:24:23Z</time></trkpt><trkpt lat="45.96569790889164" lon="8.623608369067071"><ele>228.66666666666669</ele><time>2026-04-01T12:24:24Z</time></trkpt><trkpt lat="45.96555249971857" lon="8.623518164256064"><ele>233.0</ele><time>2026-04-01T12:24:25Z</time></trkpt><trkpt lat="45.96540375894817" lon="8.623432868332692"><ele>233.0</ele><time>2026-04-01T12:24:26Z</time></trkpt><trkpt lat="45.96525246817643" lon="8.623355008007344"><ele>233.0</ele><time>2026-04-01T12:24:27Z</time></trkpt><trkpt lat="45.96510035679119" lon="8.623283187868608"><ele>233.0</ele><time>2026-04-01T12:24:28Z</time></trkpt><trkpt lat="45.96494804501902" lon="8.6232141596769"><ele>225.66666666666669</ele><time>2026-04-01T12:24:29Z</time></trkpt><trkpt lat="45.964795837560395" lon="8.623145218634424"><ele>218.33333333333331</ele><time>2026-04-01T12:24:30Z</time></trkpt><trkpt lat="45.96464125904357" lon="8.623079012089264"><ele>211.0</ele><time>2026-04-01T12:24:31Z</time></trkpt><trkpt lat="45.96448490539769" lon="8.623012872783741"><ele>211.0</ele><time>2026-04-01T12:24:32Z</time></trkpt><trkpt lat="45.964328860036616" lon="8.622943930322164"><ele>211.0</ele><time>2026-04-01T12:24:33Z</time></trkpt><trkpt lat="45.964169352297816" lon="8.622877198905503"><ele>211.0</ele><time>2026-04-01T12:24:34Z</time></trkpt><trkpt lat="45.96401101344928" lon="8.622806846861385"><ele>218.0</ele><time>2026-04-01T12:24:35Z</time></trkpt><trkpt lat="45.96385359313267" lon="8.622737886178925"><ele>225.0</ele><time>2026-04-01T12:24:36Z</time></trkpt><trkpt lat="45.963697048385875" lon="8.6226697090308"><ele>232.0</ele><time>2026-04-01T12:24:37Z</time></trkpt><trkpt lat="45.96354099826944" lon="8.622601961518477"><ele>232.0</ele><time>2026-04-01T12:24:38Z</time></trkpt><trkpt lat="45.963385177945504" lon="8.622536305951625"><ele>232.0</ele><time>2026-04-01T12:24:39Z</time></trkpt><trkpt lat="45.96323109987018" lon="8.622471890718488"><ele>232.0</ele><time>2026-04-01T12:24:40Z</time></trkpt><trkpt lat="45.9630779260819" lon="8.622409686417313"><ele>224.0</ele><time>2026-04-01T12:24:41Z</time></trkpt><trkpt lat="45.96292480340806" lon="8.62234606540776"><ele>216.0</ele><time>2026-04-01T12:24:42Z</time></trkpt><trkpt lat="45.96277487723414" lon="8.62228172594724"><ele>208.0</ele><time>2026-04-01T12:24:43Z</time></trkpt><trkpt lat="45.96262309375309" lon="8.622218527008217"><ele>206.33333333333331</ele><time>2026-04-01T12:24:44Z</time></trkpt><trkpt lat="45.962472789098165" lon="8.622159585943718"><ele>204.66666666666669</ele><time>2026-04-01T12:24:45Z</time></trkpt><trkpt lat="45.96232151111416" lon="8.62210507953679"><ele>203.0</ele><time>2026-04-01T12:24:46Z</time></trkpt><trkpt lat="45.962170246242046" lon="8.622057947517847"><ele>203.0</ele><time>2026-04-01T12:24:47Z</time></trkpt><trkpt lat="45.962017092041485" lon="8.622014429085349"><ele>203.0</ele><time>2026-04-01T12:24:48Z</time></trkpt><trkpt lat="45.96186620353752" lon="8.621974894599044"><ele>203.0</ele><time>2026-04-01T12:24:49Z</time></trkpt><trkpt lat="45.96171499311234" lon="8.62193592208416"><ele>210.0</ele><time>2026-04-01T12:24:50Z</time></trkpt><trkpt lat="45.96156442946368" lon="8.621902287339898"><ele>217.0</ele><time>2026-04-01T12:24:51Z</time></trkpt><trkpt lat="45.961414270730124" lon="8.621873143150696"><ele>224.0</ele><time>2026-04-01T12:24:52Z</time></trkpt><trkpt lat="45.961265584201946" lon="8.621844102324708"><ele>224.0</ele><time>2026-04-01T12:24:53Z</time></trkpt><trkpt lat="45.96111662308917" lon="8.621816200992525"><ele>224.0</ele><time>2026-04-01T12:24:54Z</time></trkpt><trkpt lat="45.96097024980751" lon="8.621790032578996"><ele>224.0</ele><time>2026-04-01T12:24:55Z</time></trkpt><trkpt lat="45.96082408607738" lon="8.621765554640072"><ele>224.0</ele><time>2026-04-01T12:24:56Z</time></trkpt><trkpt lat="45.9606774457914" lon="8.621742535731714"><ele>219.75</ele><time>2026-04-01T12:24:57Z</time></trkpt><trkpt lat="45.96053375629634" lon="8.62171720617551"><ele>215.5</ele><time>2026-04-01T12:24:58Z</time></trkpt><trkpt lat="45.96039004442939" lon="8.62169256487882"><ele>211.25</ele><time>2026-04-01T12:24:59Z</time></trkpt><trkpt lat="45.96024773154527" lon="8.62166752787064"><ele>207.0</ele><time>2026-04-01T12:25:00Z</time></trkpt><trkpt lat="45.96010548546484" lon="8.62164056673962"><ele>205.75</ele><time>2026-04-01T12:25:01Z</time></trkpt><trkpt lat="45.9599647174667" lon="8.621609354814353"><ele>204.5</ele><time>2026-04-01T12:25:02Z</time></trkpt><trkpt lat="45.959829433279616" lon="8.62155279621702"><ele>203.25</ele><time>2026-04-01T12:25:03Z</time></trkpt><trkpt lat="45.95970073788686" lon="8.621474030144604"><ele>202.0</ele><time>2026-04-01T12:25:04.001Z</time></trkpt><trkpt lat="45.95957773142098" lon="8.621372637043157"><ele>202.0</ele><time>2026-04-01T12:25:05.001Z</time></trkpt><trkpt lat="45.959463335624314" lon="8.621254809120009"><ele>202.0</ele><time>2026-04-01T12:25:06.001Z</time></trkpt><trkpt lat="45.9593488541535" lon="8.621133598434175"><ele>202.0</ele><time>2026-04-01T12:25:07.001Z</time></trkpt><trkpt lat="45.95923386250536" lon="8.621011555164552"><ele>202.0</ele><time>2026-04-01T12:25:08.001Z</time></trkpt><trkpt lat="45.959118492366606" lon="8.620889257255277"><ele>203.25</ele><time>2026-04-01T12:25:09.001Z</time></trkpt><trkpt lat="45.95900451599791" lon="8.620766084499884"><ele>204.5</ele><time>2026-04-01T12:25:10.001Z</time></trkpt><trkpt lat="45.95889354787754" lon="8.620648342916146"><ele>205.75</ele><time>2026-04-01T12:25:11.001Z</time></trkpt><trkpt lat="45.958785343831025" lon="8.620529251952098"><ele>207.0</ele><time>2026-04-01T12:25:12.001Z</time></trkpt><trkpt lat="45.958678064104724" lon="8.620411514217814"><ele>206.0</ele><time>2026-04-01T12:25:13.001Z</time></trkpt><trkpt lat="45.95857199920799" lon="8.620294656933233"><ele>205.0</ele><time>2026-04-01T12:25:14.001Z</time></trkpt><trkpt lat="45.958469093607924" lon="8.620174740677875"><ele>204.0</ele><time>2026-04-01T12:25:15.001Z</time></trkpt><trkpt lat="45.95836681503373" lon="8.620052771581182"><ele>203.0</ele><time>2026-04-01T12:25:16.001Z</time></trkpt><trkpt lat="45.95826885287788" lon="8.619924656399641"><ele>203.0</ele><time>2026-04-01T12:25:17.001Z</time></trkpt><trkpt lat="45.958175648288005" lon="8.619792103115346"><ele>203.0</ele><time>2026-04-01T12:25:18.001Z</time></trkpt><trkpt lat="45.95808544882642" lon="8.619657962648196"><ele>203.0</ele><time>2026-04-01T12:25:19.001Z</time></trkpt><trkpt lat="45.95800001196845" lon="8.619524984174161"><ele>203.0</ele><time>2026-04-01T12:25:20.001Z</time></trkpt><trkpt lat="45.95791160732173" lon="8.61938779019823"><ele>206.0</ele><time>2026-04-01T12:25:21.001Z</time></trkpt><trkpt lat="45.95783203423118" lon="8.619253341523962"><ele>209.0</ele><time>2026-04-01T12:25:22.001Z</time></trkpt><trkpt lat="45.95775012140863" lon="8.61911941645971"><ele>212.0</ele><time>2026-04-01T12:25:23.001Z</time></trkpt><trkpt lat="45.95766903096886" lon="8.618984981969213"><ele>215.0</ele><time>2026-04-01T12:25:24.001Z</time></trkpt><trkpt lat="45.9575917581178" lon="8.618851944951894"><ele>212.75</ele><time>2026-04-01T12:25:25.001Z</time></trkpt><trkpt lat="45.957515922479544" lon="8.618722586431803"><ele>210.5</ele><time>2026-04-01T12:25:26.001Z</time></trkpt><trkpt lat="45.95744144383623" lon="8.618596518127331"><ele>208.25</ele><time>2026-04-01T12:25:27.001Z</time></trkpt><trkpt lat="45.9573688543029" lon="8.6184696889337"><ele>206.0</ele><time>2026-04-01T12:25:28.001Z</time></trkpt><trkpt lat="45.95729546448155" lon="8.618345131708391"><ele>206.0</ele><time>2026-04-01T12:25:29.001Z</time></trkpt><trkpt lat="45.957220736198984" lon="8.618227619615322"><ele>206.0</ele><time>2026-04-01T12:25:30.001Z</time></trkpt><trkpt lat="45.957150839524736" lon="8.61810971680917"><ele>206.0</ele><time>2026-04-01T12:25:31.001Z</time></trkpt><trkpt lat="45.9570802400128" lon="8.61799526377815"><ele>206.0</ele><time>2026-04-01T12:25:32.001Z</time></trkpt><trkpt lat="45.95701065574082" lon="8.617883271969584"><ele>206.0</ele><time>2026-04-01T12:25:33.001Z</time></trkpt><trkpt lat="45.95694612988931" lon="8.6177766285028"><ele>205.33333333333334</ele><time>2026-04-01T12:25:34.001Z</time></trkpt><trkpt lat="45.956887890538546" lon="8.617680446182234"><ele>204.66666666666669</ele><time>2026-04-01T12:25:35.001Z</time></trkpt><trkpt lat="45.956837424214626" lon="8.61759900310159"><ele>204.0</ele><time>2026-04-01T12:25:36.001Z</time></trkpt><trkpt lat="45.95679618032914" lon="8.617528366356115"><ele>203.33333333333331</ele><time>2026-04-01T12:25:37.001Z</time></trkpt><trkpt lat="45.95672653028852" lon="8.617414044847669"><ele>202.66666666666666</ele><time>2026-04-01T12:25:39.001Z</time></trkpt><trkpt lat="45.95667943517059" lon="8.617338610405115"><ele>202.0</ele><time>2026-04-01T12:25:42.001Z</time></trkpt><trkpt lat="45.9566114231801" lon="8.617224975926602"><ele>201.99999999999997</ele><time>2026-04-01T12:25:58.001Z</time></trkpt><trkpt lat="45.95653329892162" lon="8.617102352582956"><ele>202.0</ele><time>2026-04-01T12:26:00.001Z</time></trkpt><trkpt lat="45.956484387949494" lon="8.617025879086999"><ele>202.0</ele><time>2026-04-01T12:26:01.001Z</time></trkpt><trkpt lat="45.95643250167597" lon="8.616944123871018"><ele>202.0</ele><time>2026-04-01T12:26:02.001Z</time></trkpt><trkpt lat="45.95637699157141" lon="8.616857893880919"><ele>201.99999999999997</ele><time>2026-04-01T12:26:03.001Z</time></trkpt><trkpt lat="45.956317365479585" lon="8.616763700101359"><ele>202.0</ele><time>2026-04-01T12:26:04.001Z</time></trkpt><trkpt lat="45.956252403223715" lon="8.616658958923473"><ele>203.6</ele><time>2026-04-01T12:26:05.001Z</time></trkpt><trkpt lat="45.956183192617424" lon="8.616547523663423"><ele>205.2</ele><time>2026-04-01T12:26:06.001Z</time></trkpt><trkpt lat="45.95611212379399" lon="8.61643174981789"><ele>206.8</ele><time>2026-04-01T12:26:07.001Z</time></trkpt><trkpt lat="45.956037453216766" lon="8.6163104222835"><ele>208.4</ele><time>2026-04-01T12:26:08.001Z</time></trkpt><trkpt lat="45.955959728439204" lon="8.616184468096206"><ele>210.0</ele><time>2026-04-01T12:26:09.001Z</time></trkpt><trkpt lat="45.95587861006899" lon="8.616053377019597"><ele>209.25</ele><time>2026-04-01T12:26:10.001Z</time></trkpt><trkpt lat="45.955795644492355" lon="8.615915425208524"><ele>208.5</ele><time>2026-04-01T12:26:11.001Z</time></trkpt><trkpt lat="45.95570958992384" lon="8.615774693756812"><ele>207.75</ele><time>2026-04-01T12:26:12.002Z</time></trkpt><trkpt lat="45.95562081722351" lon="8.615630133766668"><ele>207.0</ele><time>2026-04-01T12:26:13.002Z</time></trkpt><trkpt lat="45.95553179933229" lon="8.615484990407213"><ele>207.0</ele><time>2026-04-01T12:26:14.002Z</time></trkpt><trkpt lat="45.95544203945058" lon="8.615336258809862"><ele>207.0</ele><time>2026-04-01T12:26:15.002Z</time></trkpt><trkpt lat="45.95534956102996" lon="8.615190290618125"><ele>207.0</ele><time>2026-04-01T12:26:16.002Z</time></trkpt><trkpt lat="45.95525534628999" lon="8.615040220755121"><ele>207.0</ele><time>2026-04-01T12:26:17.002Z</time></trkpt><trkpt lat="45.95516084198319" lon="8.614891059430375"><ele>206.0</ele><time>2026-04-01T12:26:18.002Z</time></trkpt><trkpt lat="45.95506399598275" lon="8.614741343627196"><ele>205.0</ele><time>2026-04-01T12:26:19.002Z</time></trkpt><trkpt lat="45.95497069089554" lon="8.614585484167645"><ele>204.0</ele><time>2026-04-01T12:26:20.002Z</time></trkpt><trkpt lat="45.95487850302165" lon="8.614423484378415"><ele>203.0</ele><time>2026-04-01T12:26:21Z</time></trkpt><trkpt lat="45.95478609581578" lon="8.614260640567077"><ele>205.5</ele><time>2026-04-01T12:26:22Z</time></trkpt><trkpt lat="45.954692555755365" lon="8.614096821258455"><ele>208.0</ele><time>2026-04-01T12:26:23Z</time></trkpt><trkpt lat="45.95460091431638" lon="8.613927319085748"><ele>210.5</ele><time>2026-04-01T12:26:24Z</time></trkpt><trkpt lat="45.95450821597799" lon="8.613757176009512"><ele>213.0</ele><time>2026-04-01T12:26:25Z</time></trkpt><trkpt lat="45.9544158525706" lon="8.61358415272328"><ele>210.33333333333331</ele><time>2026-04-01T12:26:26Z</time></trkpt><trkpt lat="45.95432490036073" lon="8.613408283542203"><ele>207.66666666666666</ele><time>2026-04-01T12:26:27Z</time></trkpt><trkpt lat="45.95423374456101" lon="8.613232026280926"><ele>205.0</ele><time>2026-04-01T12:26:28Z</time></trkpt><trkpt lat="45.95414125688423" lon="8.61305644581194"><ele>205.0</ele><time>2026-04-01T12:26:29Z</time></trkpt><trkpt lat="45.95405144621028" lon="8.612880709893783"><ele>205.0</ele><time>2026-04-01T12:26:30Z</time></trkpt><trkpt lat="45.953960611686675" lon="8.612702456514802"><ele>205.0</ele><time>2026-04-01T12:26:31Z</time></trkpt><trkpt lat="45.953868433674266" lon="8.612521365366463"><ele>208.66666666666666</ele><time>2026-04-01T12:26:32Z</time></trkpt><trkpt lat="45.95377956430383" lon="8.612339374768927"><ele>212.33333333333331</ele><time>2026-04-01T12:26:33Z</time></trkpt><trkpt lat="45.9536835773736" lon="8.612154888578825"><ele>216.0</ele><time>2026-04-01T12:26:34Z</time></trkpt><trkpt lat="45.95358682261499" lon="8.611965947449827"><ele>212.66666666666669</ele><time>2026-04-01T12:26:35Z</time></trkpt><trkpt lat="45.95349119202267" lon="8.611782469907487"><ele>209.33333333333334</ele><time>2026-04-01T12:26:36Z</time></trkpt><trkpt lat="45.95339636507692" lon="8.611596484800316"><ele>206.0</ele><time>2026-04-01T12:26:37Z</time></trkpt><trkpt lat="45.95330181362155" lon="8.611409662960272"><ele>206.0</ele><time>2026-04-01T12:26:38Z</time></trkpt><trkpt lat="45.95320773115105" lon="8.611225235722827"><ele>206.0</ele><time>2026-04-01T12:26:39Z</time></trkpt><trkpt lat="45.95311574726092" lon="8.611044575319383"><ele>206.0</ele><time>2026-04-01T12:26:40Z</time></trkpt><trkpt lat="45.95302744486836" lon="8.610869209268436"><ele>208.0</ele><time>2026-04-01T12:26:41Z</time></trkpt><trkpt lat="45.95293856578812" lon="8.610697154006422"><ele>210.0</ele><time>2026-04-01T12:26:42Z</time></trkpt><trkpt lat="45.95284946188335" lon="8.610523268990304"><ele>212.0</ele><time>2026-04-01T12:26:43Z</time></trkpt><trkpt lat="45.95276281794605" lon="8.61035080713234"><ele>214.0</ele><time>2026-04-01T12:26:44Z</time></trkpt><trkpt lat="45.95267734464619" lon="8.610183313076433"><ele>212.0</ele><time>2026-04-01T12:26:45Z</time></trkpt><trkpt lat="45.95259264194487" lon="8.610021318096566"><ele>210.0</ele><time>2026-04-01T12:26:46Z</time></trkpt><trkpt lat="45.95250795553161" lon="8.609856854471898"><ele>208.0</ele><time>2026-04-01T12:26:47Z</time></trkpt><trkpt lat="45.95242370283313" lon="8.609688306969932"><ele>206.0</ele><time>2026-04-01T12:26:48Z</time></trkpt><trkpt lat="45.952338579893684" lon="8.60952009425315"><ele>207.5</ele><time>2026-04-01T12:26:49Z</time></trkpt><trkpt lat="45.95225349265167" lon="8.6093527089799"><ele>209.0</ele><time>2026-04-01T12:26:50Z</time></trkpt><trkpt lat="45.952169177763814" lon="8.609185609215505"><ele>210.5</ele><time>2026-04-01T12:26:51Z</time></trkpt><trkpt lat="45.952084154368066" lon="8.60901834815221"><ele>212.0</ele><time>2026-04-01T12:26:52Z</time></trkpt><trkpt lat="45.951998070456284" lon="8.608850627158663"><ele>212.0</ele><time>2026-04-01T12:26:53Z</time></trkpt><trkpt lat="45.951910553511965" lon="8.608683959453343"><ele>212.0</ele><time>2026-04-01T12:26:54Z</time></trkpt><trkpt lat="45.95182594590791" lon="8.608512935782445"><ele>212.0</ele><time>2026-04-01T12:26:55Z</time></trkpt><trkpt lat="45.95173848996248" lon="8.608345376832846"><ele>212.0</ele><time>2026-04-01T12:26:56Z</time></trkpt><trkpt lat="45.95165101199709" lon="8.608178330212342"><ele>212.0</ele><time>2026-04-01T12:26:57Z</time></trkpt><trkpt lat="45.95156137437543" lon="8.608010834807141"><ele>212.0</ele><time>2026-04-01T12:26:58Z</time></trkpt><trkpt lat="45.95146788901335" lon="8.607846642487775"><ele>212.0</ele><time>2026-04-01T12:26:59Z</time></trkpt><trkpt lat="45.951373375944996" lon="8.60767975387216"><ele>212.0</ele><time>2026-04-01T12:27:00Z</time></trkpt><trkpt lat="45.951273303106966" lon="8.60751834112576"><ele>212.0</ele><time>2026-04-01T12:27:01Z</time></trkpt><trkpt lat="45.9511720812084" lon="8.607355624555721"><ele>212.0</ele><time>2026-04-01T12:27:02Z</time></trkpt><trkpt lat="45.95106539922463" lon="8.607198883297945"><ele>212.0</ele><time>2026-04-01T12:27:03Z</time></trkpt><trkpt lat="45.95095380937829" lon="8.60704728371137"><ele>210.33333333333334</ele><time>2026-04-01T12:27:04.001Z</time></trkpt><trkpt lat="45.95083914902662" lon="8.606897357911096"><ele>208.66666666666669</ele><time>2026-04-01T12:27:05.001Z</time></trkpt><trkpt lat="45.9507213943837" lon="8.606750674454464"><ele>207.0</ele><time>2026-04-01T12:27:06.001Z</time></trkpt><trkpt lat="45.950604582084175" lon="8.60660101954845"><ele>207.0</ele><time>2026-04-01T12:27:07.001Z</time></trkpt><trkpt lat="45.95048996476708" lon="8.606444956080853"><ele>207.0</ele><time>2026-04-01T12:27:08.001Z</time></trkpt><trkpt lat="45.95037771032151" lon="8.606283507718599"><ele>207.0</ele><time>2026-04-01T12:27:09.001Z</time></trkpt><trkpt lat="45.9502698250919" lon="8.60611471151887"><ele>205.33333333333331</ele><time>2026-04-01T12:27:10.001Z</time></trkpt><trkpt lat="45.950166012478185" lon="8.6059381229806"><ele>203.66666666666666</ele><time>2026-04-01T12:27:11.001Z</time></trkpt><trkpt lat="45.95006711258171" lon="8.605754742981501"><ele>202.0</ele><time>2026-04-01T12:27:12.001Z</time></trkpt><trkpt lat="45.949968932176915" lon="8.605569872443581"><ele>202.0</ele><time>2026-04-01T12:27:13.001Z</time></trkpt><trkpt lat="45.949869697872714" lon="8.605383007804752"><ele>202.0</ele><time>2026-04-01T12:27:14.001Z</time></trkpt><trkpt lat="45.94977012024607" lon="8.605195240171884"><ele>202.0</ele><time>2026-04-01T12:27:15.001Z</time></trkpt><trkpt lat="45.949668305353214" lon="8.605008786398773"><ele>207.66666666666666</ele><time>2026-04-01T12:27:16.001Z</time></trkpt><trkpt lat="45.949559581718724" lon="8.604828876395045"><ele>213.33333333333331</ele><time>2026-04-01T12:27:17.001Z</time></trkpt><trkpt lat="45.949443821342236" lon="8.60465653680983"><ele>219.0</ele><time>2026-04-01T12:27:18.001Z</time></trkpt><trkpt lat="45.94932246950933" lon="8.604492631861469"><ele>219.33333333333331</ele><time>2026-04-01T12:27:19.001Z</time></trkpt><trkpt lat="45.9491974610583" lon="8.604333829283085"><ele>219.66666666666666</ele><time>2026-04-01T12:27:20.001Z</time></trkpt><trkpt lat="45.94906723419492" lon="8.604177497402977"><ele>220.0</ele><time>2026-04-01T12:27:21.001Z</time></trkpt><trkpt lat="45.94893801703633" lon="8.604021431099971"><ele>220.0</ele><time>2026-04-01T12:27:22.001Z</time></trkpt><trkpt lat="45.94880707041973" lon="8.603864373313124"><ele>220.0</ele><time>2026-04-01T12:27:23.001Z</time></trkpt><trkpt lat="45.94867516891499" lon="8.603707608427664"><ele>220.0</ele><time>2026-04-01T12:27:24.001Z</time></trkpt><trkpt lat="45.94854342790077" lon="8.603550224726646"><ele>216.33333333333331</ele><time>2026-04-01T12:27:25.001Z</time></trkpt><trkpt lat="45.948412565090585" lon="8.603390003097452"><ele>212.66666666666669</ele><time>2026-04-01T12:27:26.001Z</time></trkpt><trkpt lat="45.94828361162842" lon="8.603227714484914"><ele>209.0</ele><time>2026-04-01T12:27:27.001Z</time></trkpt><trkpt lat="45.94815698886176" lon="8.603062985556443"><ele>209.0</ele><time>2026-04-01T12:27:28.001Z</time></trkpt><trkpt lat="45.9480305618187" lon="8.602897985226354"><ele>209.0</ele><time>2026-04-01T12:27:29.001Z</time></trkpt><trkpt lat="45.94790613147493" lon="8.602731688304374"><ele>209.0</ele><time>2026-04-01T12:27:30.001Z</time></trkpt><trkpt lat="45.94778045147025" lon="8.602565592169459"><ele>208.0</ele><time>2026-04-01T12:27:31.001Z</time></trkpt><trkpt lat="45.94765325260348" lon="8.602402818835252"><ele>207.0</ele><time>2026-04-01T12:27:32.001Z</time></trkpt><trkpt lat="45.947524469993944" lon="8.602242060184711"><ele>206.0</ele><time>2026-04-01T12:27:33.001Z</time></trkpt><trkpt lat="45.94739533076917" lon="8.602083333496095"><ele>214.66666666666669</ele><time>2026-04-01T12:27:34.001Z</time></trkpt><trkpt lat="45.947264604936606" lon="8.601931050553146"><ele>223.33333333333331</ele><time>2026-04-01T12:27:35.001Z</time></trkpt><trkpt lat="45.947134826938395" lon="8.601782941358513"><ele>232.0</ele><time>2026-04-01T12:27:36.001Z</time></trkpt><trkpt lat="45.94700790762351" lon="8.601635559888228"><ele>232.0</ele><time>2026-04-01T12:27:37.001Z</time></trkpt><trkpt lat="45.94688228169714" lon="8.601487594590383"><ele>232.0</ele><time>2026-04-01T12:27:38.001Z</time></trkpt><trkpt lat="45.94675805596031" lon="8.601338200643307"><ele>232.0</ele><time>2026-04-01T12:27:39.001Z</time></trkpt><trkpt lat="45.94663446358908" lon="8.601186370964278"><ele>228.66666666666666</ele><time>2026-04-01T12:27:40.001Z</time></trkpt><trkpt lat="45.94651467408243" lon="8.601028754220996"><ele>225.33333333333331</ele><time>2026-04-01T12:27:41.001Z</time></trkpt><trkpt lat="45.94639915126098" lon="8.600861586266092"><ele>222.0</ele><time>2026-04-01T12:27:42.001Z</time></trkpt><trkpt lat="45.946294745302986" lon="8.600681039945336"><ele>222.0</ele><time>2026-04-01T12:27:43.001Z</time></trkpt><trkpt lat="45.946194783444625" lon="8.600494152545627"><ele>222.0</ele><time>2026-04-01T12:27:44.001Z</time></trkpt><trkpt lat="45.9460979255125" lon="8.600304404528579"><ele>222.0</ele><time>2026-04-01T12:27:45.001Z</time></trkpt><trkpt lat="45.94600312587654" lon="8.600113244336168"><ele>218.66666666666669</ele><time>2026-04-01T12:27:46.001Z</time></trkpt><trkpt lat="45.94590756295268" lon="8.599923719793468"><ele>215.33333333333334</ele><time>2026-04-01T12:27:47.001Z</time></trkpt><trkpt lat="45.94581195962" lon="8.5997344565862"><ele>212.0</ele><time>2026-04-01T12:27:48.001Z</time></trkpt><trkpt lat="45.94571622075679" lon="8.599547025578433"><ele>216.66666666666669</ele><time>2026-04-01T12:27:49.001Z</time></trkpt><trkpt lat="45.945622020183016" lon="8.599358125302873"><ele>221.33333333333331</ele><time>2026-04-01T12:27:50.001Z</time></trkpt><trkpt lat="45.94552725359545" lon="8.599168363615274"><ele>226.0</ele><time>2026-04-01T12:27:51.001Z</time></trkpt><trkpt lat="45.94543049932141" lon="8.598978275523283"><ele>226.0</ele><time>2026-04-01T12:27:52.001Z</time></trkpt><trkpt lat="45.94533300145384" lon="8.598787268572858"><ele>226.0</ele><time>2026-04-01T12:27:53.001Z</time></trkpt><trkpt lat="45.94523547573347" lon="8.598596721851912"><ele>226.0</ele><time>2026-04-01T12:27:54.001Z</time></trkpt><trkpt lat="45.94513784053154" lon="8.59840633667993"><ele>221.66666666666666</ele><time>2026-04-01T12:27:55.001Z</time></trkpt><trkpt lat="45.945044402517595" lon="8.598217441832118"><ele>217.33333333333331</ele><time>2026-04-01T12:27:56.001Z</time></trkpt><trkpt lat="45.94495168579074" lon="8.598031636188493"><ele>213.0</ele><time>2026-04-01T12:27:57.001Z</time></trkpt><trkpt lat="45.94486045664141" lon="8.597851064763496"><ele>218.0</ele><time>2026-04-01T12:27:58.001Z</time></trkpt><trkpt lat="45.94476973471592" lon="8.59767157086714"><ele>223.0</ele><time>2026-04-01T12:27:59.001Z</time></trkpt><trkpt lat="45.94467918003137" lon="8.59749346568198"><ele>228.0</ele><time>2026-04-01T12:28:00.001Z</time></trkpt><trkpt lat="45.94458852487621" lon="8.597318204353844"><ele>228.0</ele><time>2026-04-01T12:28:01.001Z</time></trkpt><trkpt lat="45.94450001532925" lon="8.597141866436264"><ele>228.0</ele><time>2026-04-01T12:28:02.001Z</time></trkpt><trkpt lat="45.94441336849692" lon="8.596963792742116"><ele>228.0</ele><time>2026-04-01T12:28:03.001Z</time></trkpt><trkpt lat="45.94432404839919" lon="8.596789879807504"><ele>229.0</ele><time>2026-04-01T12:28:04.001Z</time></trkpt><trkpt lat="45.94423531327165" lon="8.596614099259064"><ele>230.0</ele><time>2026-04-01T12:28:05.001Z</time></trkpt><trkpt lat="45.94414883543256" lon="8.596433066170063"><ele>231.0</ele><time>2026-04-01T12:28:06.002Z</time></trkpt><trkpt lat="45.944073004966626" lon="8.596241358056048"><ele>224.33333333333331</ele><time>2026-04-01T12:28:07.002Z</time></trkpt><trkpt lat="45.94401134555346" lon="8.596041867103548"><ele>217.66666666666666</ele><time>2026-04-01T12:28:08.002Z</time></trkpt><trkpt lat="45.94396018462441" lon="8.595836997540015"><ele>211.0</ele><time>2026-04-01T12:28:09.002Z</time></trkpt><trkpt lat="45.94391590190768" lon="8.595630939799044"><ele>211.0</ele><time>2026-04-01T12:28:10.002Z</time></trkpt><trkpt lat="45.943873688515254" lon="8.595422606177532"><ele>211.0</ele><time>2026-04-01T12:28:11.002Z</time></trkpt><trkpt lat="45.943832415036866" lon="8.595214156284777"><ele>211.0</ele><time>2026-04-01T12:28:12.002Z</time></trkpt><trkpt lat="45.943789091310926" lon="8.595007345607467"><ele>212.5</ele><time>2026-04-01T12:28:13.002Z</time></trkpt><trkpt lat="45.94373978362589" lon="8.594804579561561"><ele>214.0</ele><time>2026-04-01T12:28:14.002Z</time></trkpt><trkpt lat="45.943681418699626" lon="8.594607916133572"><ele>215.5</ele><time>2026-04-01T12:28:15.002Z</time></trkpt><trkpt lat="45.94361336869243" lon="8.59442043932186"><ele>217.0</ele><time>2026-04-01T12:28:16.002Z</time></trkpt><trkpt lat="45.94352942007913" lon="8.594246931357656"><ele>217.5</ele><time>2026-04-01T12:28:17.002Z</time></trkpt><trkpt lat="45.943442763339796" lon="8.594078580833633"><ele>218.0</ele><time>2026-04-01T12:28:18.002Z</time></trkpt><trkpt lat="45.94335652973782" lon="8.593918613825181"><ele>218.5</ele><time>2026-04-01T12:28:19.002Z</time></trkpt><trkpt lat="45.94327397970466" lon="8.593757994917839"><ele>219.0</ele><time>2026-04-01T12:28:20.002Z</time></trkpt><trkpt lat="45.94319722726529" lon="8.593595018623699"><ele>215.25</ele><time>2026-04-01T12:28:21.002Z</time></trkpt><trkpt lat="45.94312889307745" lon="8.59342796883903"><ele>211.5</ele><time>2026-04-01T12:28:22.002Z</time></trkpt><trkpt lat="45.94307082152221" lon="8.593254817886605"><ele>207.75</ele><time>2026-04-01T12:28:23.002Z</time></trkpt><trkpt lat="45.94302085745035" lon="8.593082245151793"><ele>204.0</ele><time>2026-04-01T12:28:24.002Z</time></trkpt><trkpt lat="45.94297178303843" lon="8.59291152180879"><ele>206.5</ele><time>2026-04-01T12:28:25.002Z</time></trkpt><trkpt lat="45.94292302242867" lon="8.592740758732338"><ele>209.0</ele><time>2026-04-01T12:28:26.002Z</time></trkpt><trkpt lat="45.942873167461116" lon="8.592570913869462"><ele>211.5</ele><time>2026-04-01T12:28:27Z</time></trkpt><trkpt lat="45.94281953695551" lon="8.592401603350249"><ele>214.0</ele><time>2026-04-01T12:28:28Z</time></trkpt><trkpt lat="45.94275740665906" lon="8.592237639521839"><ele>214.0</ele><time>2026-04-01T12:28:29Z</time></trkpt><trkpt lat="45.94268706767456" lon="8.592080226046352"><ele>214.0</ele><time>2026-04-01T12:28:30Z</time></trkpt><trkpt lat="45.9426119418239" lon="8.59193029478425"><ele>214.0</ele><time>2026-04-01T12:28:31Z</time></trkpt><trkpt lat="45.94252859667694" lon="8.591785174517002"><ele>214.0</ele><time>2026-04-01T12:28:32Z</time></trkpt><trkpt lat="45.942442884348594" lon="8.591643519412356"><ele>213.0</ele><time>2026-04-01T12:28:33Z</time></trkpt><trkpt lat="45.94235483339353" lon="8.591502989656364"><ele>212.0</ele><time>2026-04-01T12:28:34Z</time></trkpt><trkpt lat="45.942265618286854" lon="8.591364086563564"><ele>211.0</ele><time>2026-04-01T12:28:35Z</time></trkpt><trkpt lat="45.94217707415029" lon="8.59122684278823"><ele>210.0</ele><time>2026-04-01T12:28:36Z</time></trkpt><trkpt lat="45.94208853949813" lon="8.591092722523298"><ele>208.25</ele><time>2026-04-01T12:28:37Z</time></trkpt><trkpt lat="45.941996786488446" lon="8.590961601648381"><ele>206.5</ele><time>2026-04-01T12:28:38Z</time></trkpt><trkpt lat="45.94190062300361" lon="8.590839602442829"><ele>204.75</ele><time>2026-04-01T12:28:39Z</time></trkpt><trkpt lat="45.941797675615916" lon="8.590729578486922"><ele>203.0</ele><time>2026-04-01T12:28:40Z</time></trkpt><trkpt lat="45.94168901314444" lon="8.590631879013461"><ele>203.0</ele><time>2026-04-01T12:28:41Z</time></trkpt><trkpt lat="45.941575598247944" lon="8.590545508239341"><ele>203.0</ele><time>2026-04-01T12:28:42Z</time></trkpt><trkpt lat="45.94145964067456" lon="8.590467447818272"><ele>203.0</ele><time>2026-04-01T12:28:43Z</time></trkpt><trkpt lat="45.941341539628034" lon="8.59039499869999"><ele>203.0</ele><time>2026-04-01T12:28:44Z</time></trkpt><trkpt lat="45.941221550726695" lon="8.590327007518455"><ele>205.0</ele><time>2026-04-01T12:28:45Z</time></trkpt><trkpt lat="45.94110022316088" lon="8.59026149858187"><ele>207.0</ele><time>2026-04-01T12:28:46Z</time></trkpt><trkpt lat="45.94097796731215" lon="8.59019384060368"><ele>209.0</ele><time>2026-04-01T12:28:47Z</time></trkpt><trkpt lat="45.94085585548014" lon="8.590125307292784"><ele>211.0</ele><time>2026-04-01T12:28:48Z</time></trkpt><trkpt lat="45.94073754931051" lon="8.590058516624453"><ele>211.0</ele><time>2026-04-01T12:28:49Z</time></trkpt><trkpt lat="45.940620572082466" lon="8.589995822314293"><ele>211.0</ele><time>2026-04-01T12:28:50Z</time></trkpt><trkpt lat="45.94050641537237" lon="8.589932190682102"><ele>211.0</ele><time>2026-04-01T12:28:51Z</time></trkpt><trkpt lat="45.940397643039674" lon="8.589862382377394"><ele>211.0</ele><time>2026-04-01T12:28:52Z</time></trkpt><trkpt lat="45.940295935221464" lon="8.589776431186163"><ele>211.0</ele><time>2026-04-01T12:28:53Z</time></trkpt><trkpt lat="45.94020727635245" lon="8.589667790347747"><ele>211.0</ele><time>2026-04-01T12:28:54Z</time></trkpt><trkpt lat="45.940136280014315" lon="8.589538294817523"><ele>211.0</ele><time>2026-04-01T12:28:55Z</time></trkpt><trkpt lat="45.9400812934794" lon="8.589389571153728"><ele>211.0</ele><time>2026-04-01T12:28:56Z</time></trkpt><trkpt lat="45.94004407694465" lon="8.589228976561008"><ele>210.5</ele><time>2026-04-01T12:28:57Z</time></trkpt><trkpt lat="45.94001091971844" lon="8.589063335220603"><ele>210.0</ele><time>2026-04-01T12:28:58Z</time></trkpt><trkpt lat="45.939980865585795" lon="8.588892508330172"><ele>209.5</ele><time>2026-04-01T12:28:59Z</time></trkpt><trkpt lat="45.93994813944281" lon="8.588722771463061"><ele>209.0</ele><time>2026-04-01T12:29:00Z</time></trkpt><trkpt lat="45.939918660810534" lon="8.588562444918608"><ele>209.0</ele><time>2026-04-01T12:29:01Z</time></trkpt><trkpt lat="45.93989701399131" lon="8.588427026743767"><ele>209.0</ele><time>2026-04-01T12:29:02Z</time></trkpt><trkpt lat="45.93987806569885" lon="8.588302389593792"><ele>209.0</ele><time>2026-04-01T12:29:03Z</time></trkpt><trkpt lat="45.93986420400355" lon="8.588204750061989"><ele>209.0</ele><time>2026-04-01T12:29:04Z</time></trkpt><trkpt lat="45.93983732898519" lon="8.588030218288946"><ele>209.0</ele><time>2026-04-01T12:29:06Z</time></trkpt><trkpt lat="45.93982278611849" lon="8.587930598582929"><ele>209.79999999999998</ele><time>2026-04-01T12:29:07.001Z</time></trkpt><trkpt lat="45.9397992965242" lon="8.5878182644661"><ele>210.6</ele><time>2026-04-01T12:29:08.001Z</time></trkpt><trkpt lat="45.93976863596824" lon="8.587694880243182"><ele>211.4</ele><time>2026-04-01T12:29:09.001Z</time></trkpt><trkpt lat="45.93973577856434" lon="8.58756044776194"><ele>212.2</ele><time>2026-04-01T12:29:10.001Z</time></trkpt><trkpt lat="45.93970353447223" lon="8.587417360099941"><ele>213.0</ele><time>2026-04-01T12:29:11.001Z</time></trkpt><trkpt lat="45.939672177364194" lon="8.587268301325741"><ele>213.0</ele><time>2026-04-01T12:29:12.001Z</time></trkpt><trkpt lat="45.93964157652362" lon="8.58711333865063"><ele>213.0</ele><time>2026-04-01T12:29:13.001Z</time></trkpt><trkpt lat="45.939609531808564" lon="8.586952834811155"><ele>213.0</ele><time>2026-04-01T12:29:14.001Z</time></trkpt><trkpt lat="45.93957795103748" lon="8.586784986283822"><ele>213.0</ele><time>2026-04-01T12:29:15.001Z</time></trkpt><trkpt lat="45.939552156511596" lon="8.586609466907186"><ele>215.0</ele><time>2026-04-01T12:29:16.001Z</time></trkpt><trkpt lat="45.93953853374939" lon="8.586427752733975"><ele>217.0</ele><time>2026-04-01T12:29:17.001Z</time></trkpt><trkpt lat="45.93953174863397" lon="8.586245015830949"><ele>219.0</ele><time>2026-04-01T12:29:18.001Z</time></trkpt><trkpt lat="45.93952006545031" lon="8.58606321914113"><ele>221.0</ele><time>2026-04-01T12:29:19.001Z</time></trkpt><trkpt lat="45.93949748063691" lon="8.585884060491368"><ele>225.75</ele><time>2026-04-01T12:29:20.001Z</time></trkpt><trkpt lat="45.93946638539093" lon="8.585705988986316"><ele>230.5</ele><time>2026-04-01T12:29:21.001Z</time></trkpt><trkpt lat="45.93942747264769" lon="8.585530225203755"><ele>235.25</ele><time>2026-04-01T12:29:22.001Z</time></trkpt><trkpt lat="45.939380852112805" lon="8.585359320573549"><ele>240.0</ele><time>2026-04-01T12:29:23.001Z</time></trkpt><trkpt lat="45.939325666482894" lon="8.585192343608059"><ele>241.5</ele><time>2026-04-01T12:29:24.001Z</time></trkpt><trkpt lat="45.939272382568156" lon="8.585026097812245"><ele>243.0</ele><time>2026-04-01T12:29:25.001Z</time></trkpt><trkpt lat="45.93923714976516" lon="8.584853809315469"><ele>244.5</ele><time>2026-04-01T12:29:26.001Z</time></trkpt><trkpt lat="45.939212421014794" lon="8.584682285014138"><ele>246.0</ele><time>2026-04-01T12:29:27.001Z</time></trkpt><trkpt lat="45.939187772878434" lon="8.584511521813257"><ele>235.0</ele><time>2026-04-01T12:29:28.001Z</time></trkpt><trkpt lat="45.939167368217234" lon="8.58433962452261"><ele>224.0</ele><time>2026-04-01T12:29:29.001Z</time></trkpt><trkpt lat="45.9391580044206" lon="8.58416588490499"><ele>213.0</ele><time>2026-04-01T12:29:30.001Z</time></trkpt><trkpt lat="45.9391634143857" lon="8.583990010503769"><ele>202.0</ele><time>2026-04-01T12:29:31.001Z</time></trkpt><trkpt lat="45.93917323775123" lon="8.5838134510594"><ele>202.25</ele><time>2026-04-01T12:29:32.001Z</time></trkpt><trkpt lat="45.93918625092813" lon="8.583633913948749"><ele>202.5</ele><time>2026-04-01T12:29:33.001Z</time></trkpt><trkpt lat="45.93919898878829" lon="8.583449146580815"><ele>202.75</ele><time>2026-04-01T12:29:34.001Z</time></trkpt><trkpt lat="45.9392122405709" lon="8.583262997485164"><ele>203.0</ele><time>2026-04-01T12:29:35.001Z</time></trkpt><trkpt lat="45.939225437336596" lon="8.583077570493936"><ele>213.5</ele><time>2026-04-01T12:29:36.001Z</time></trkpt><trkpt lat="45.939238631100494" lon="8.582892738897982"><ele>224.0</ele><time>2026-04-01T12:29:37.001Z</time></trkpt><trkpt lat="45.939251855235575" lon="8.582708190972161"><ele>234.5</ele><time>2026-04-01T12:29:38.001Z</time></trkpt><trkpt lat="45.93926604023063" lon="8.582529183735911"><ele>245.0</ele><time>2026-04-01T12:29:39.001Z</time></trkpt><trkpt lat="45.939277006199326" lon="8.582355782304628"><ele>245.0</ele><time>2026-04-01T12:29:40.001Z</time></trkpt><trkpt lat="45.93927952472652" lon="8.582186477393225"><ele>245.0</ele><time>2026-04-01T12:29:41.001Z</time></trkpt><trkpt lat="45.939265683661205" lon="8.58202343182244"><ele>245.0</ele><time>2026-04-01T12:29:42.001Z</time></trkpt><trkpt lat="45.93923669950142" lon="8.58186741848924"><ele>245.0</ele><time>2026-04-01T12:29:43.001Z</time></trkpt><trkpt lat="45.93919694182325" lon="8.581721856159138"><ele>234.75</ele><time>2026-04-01T12:29:44.001Z</time></trkpt><trkpt lat="45.9391412365234" lon="8.581583998663673"><ele>224.5</ele><time>2026-04-01T12:29:45.001Z</time></trkpt><trkpt lat="45.939075027625435" lon="8.581455132072517"><ele>214.25</ele><time>2026-04-01T12:29:46.001Z</time></trkpt><trkpt lat="45.938999067573185" lon="8.581330172050002"><ele>204.0</ele><time>2026-04-01T12:29:47.001Z</time></trkpt><trkpt lat="45.93892103988121" lon="8.581205538053709"><ele>204.0</ele><time>2026-04-01T12:29:48.001Z</time></trkpt><trkpt lat="45.93884286098693" lon="8.581080610567241"><ele>204.0</ele><time>2026-04-01T12:29:49.001Z</time></trkpt><trkpt lat="45.93876649879207" lon="8.580957444202033"><ele>204.0</ele><time>2026-04-01T12:29:50.001Z</time></trkpt><trkpt lat="45.93869459239883" lon="8.580840964947885"><ele>204.0</ele><time>2026-04-01T12:29:51.001Z</time></trkpt><trkpt lat="45.938624905333064" lon="8.580725292770765"><ele>204.0</ele><time>2026-04-01T12:29:52.001Z</time></trkpt><trkpt lat="45.938557781856474" lon="8.580618517244242"><ele>204.0</ele><time>2026-04-01T12:29:53.001Z</time></trkpt><trkpt lat="45.93849377820094" lon="8.580518869783727"><ele>204.0</ele><time>2026-04-01T12:29:54.001Z</time></trkpt><trkpt lat="45.938430709230936" lon="8.580425923328374"><ele>204.0</ele><time>2026-04-01T12:29:55.001Z</time></trkpt><trkpt lat="45.93836940645282" lon="8.580336716859632"><ele>204.0</ele><time>2026-04-01T12:29:56.001Z</time></trkpt><trkpt lat="45.93830894438597" lon="8.580250369796687"><ele>204.0</ele><time>2026-04-01T12:29:57.001Z</time></trkpt><trkpt lat="45.93825970635123" lon="8.580179088171832"><ele>204.0</ele><time>2026-04-01T12:29:58.001Z</time></trkpt><trkpt lat="45.938203896864046" lon="8.580099496360761"><ele>202.6</ele><time>2026-04-01T12:30:00.001Z</time></trkpt><trkpt lat="45.93815523076205" lon="8.580033147696447"><ele>201.2</ele><time>2026-04-01T12:30:03.001Z</time></trkpt><trkpt lat="45.93810998106981" lon="8.579968130935686"><ele>199.79999999999998</ele><time>2026-04-01T12:30:05.002Z</time></trkpt><trkpt lat="45.938048439412675" lon="8.57988258994578"><ele>198.39999999999998</ele><time>2026-04-01T12:30:07.002Z</time></trkpt><trkpt lat="45.937972893058166" lon="8.57978061383204"><ele>197.0</ele><time>2026-04-01T12:30:09.002Z</time></trkpt><trkpt lat="45.93788115346899" lon="8.579649279736712"><ele>197.00000000000003</ele><time>2026-04-01T12:30:11.002Z</time></trkpt><trkpt lat="45.93783134449583" lon="8.579572874132847"><ele>197.0</ele><time>2026-04-01T12:30:12.002Z</time></trkpt><trkpt lat="45.93778047244024" lon="8.57948866835714"><ele>197.0</ele><time>2026-04-01T12:30:13.002Z</time></trkpt><trkpt lat="45.93773166272662" lon="8.579400950383134"><ele>197.0</ele><time>2026-04-01T12:30:14.002Z</time></trkpt><trkpt lat="45.93768907515459" lon="8.579318585591896"><ele>197.00000000000003</ele><time>2026-04-01T12:30:15.002Z</time></trkpt><trkpt lat="45.93761806399553" lon="8.579171054253123"><ele>197.0</ele><time>2026-04-01T12:30:17.002Z</time></trkpt><trkpt lat="45.93755903993246" lon="8.579038063590763"><ele>197.66666666666669</ele><time>2026-04-01T12:30:19.002Z</time></trkpt><trkpt lat="45.93749045513302" lon="8.578883570679801"><ele>198.33333333333334</ele><time>2026-04-01T12:30:21.002Z</time></trkpt><trkpt lat="45.93745282769845" lon="8.578799206203065"><ele>199.0</ele><time>2026-04-01T12:30:22.002Z</time></trkpt><trkpt lat="45.937413319321855" lon="8.578709297023403"><ele>199.66666666666669</ele><time>2026-04-01T12:30:23.002Z</time></trkpt><trkpt lat="45.937372037097354" lon="8.578614923603105"><ele>200.33333333333334</ele><time>2026-04-01T12:30:24.002Z</time></trkpt><trkpt lat="45.937330923658386" lon="8.578523630346012"><ele>201.0</ele><time>2026-04-01T12:30:25.002Z</time></trkpt><trkpt lat="45.93729052852288" lon="8.578437279638981"><ele>201.42857142857142</ele><time>2026-04-01T12:30:26.002Z</time></trkpt><trkpt lat="45.937250876013586" lon="8.578355272131299"><ele>201.85714285714286</ele><time>2026-04-01T12:30:27.002Z</time></trkpt><trkpt lat="45.93720967162116" lon="8.578273145541418"><ele>202.28571428571428</ele><time>2026-04-01T12:30:28.002Z</time></trkpt><trkpt lat="45.937171248015694" lon="8.578191752808296"><ele>202.71428571428572</ele><time>2026-04-01T12:30:29.002Z</time></trkpt><trkpt lat="45.93713419829494" lon="8.578111169542819"><ele>203.14285714285717</ele><time>2026-04-01T12:30:30.002Z</time></trkpt><trkpt lat="45.93709828174683" lon="8.578031146258203"><ele>203.57142857142858</ele><time>2026-04-01T12:30:31.002Z</time></trkpt><trkpt lat="45.937064375917565" lon="8.577951994213919"><ele>204.0</ele><time>2026-04-01T12:30:32.002Z</time></trkpt><trkpt lat="45.93701391358052" lon="8.57781946585536"><ele>204.0</ele><time>2026-04-01T12:30:34Z</time></trkpt><trkpt lat="45.936990365738936" lon="8.577732135656783"><ele>204.0</ele><time>2026-04-01T12:30:37Z</time></trkpt><trkpt lat="45.93697214893735" lon="8.5776297279683"><ele>204.0</ele><time>2026-04-01T12:30:40Z</time></trkpt><trkpt lat="45.93696504917222" lon="8.57753691728788"><ele>204.0</ele><time>2026-04-01T12:30:44Z</time></trkpt><trkpt lat="45.93692797946692" lon="8.577445834633417"><ele>204.0</ele><time>2026-04-01T12:30:49Z</time></trkpt><trkpt lat="45.936870226909726" lon="8.577395823060593"><ele>204.0</ele><time>2026-04-01T12:30:53Z</time></trkpt><trkpt lat="45.93681792441274" lon="8.577326691126336"><ele>204.0</ele><time>2026-04-01T12:30:57Z</time></trkpt><trkpt lat="45.936761270992776" lon="8.577226120700237"><ele>203.83333333333334</ele><time>2026-04-01T12:31:01Z</time></trkpt><trkpt lat="45.93671469152771" lon="8.577132334150587"><ele>203.66666666666669</ele><time>2026-04-01T12:31:04Z</time></trkpt><trkpt lat="45.93667773268281" lon="8.577053537806066"><ele>203.5</ele><time>2026-04-01T12:31:06Z</time></trkpt><trkpt lat="45.93662923623389" lon="8.576960769171107"><ele>203.33333333333334</ele><time>2026-04-01T12:31:08Z</time></trkpt><trkpt lat="45.93658220003886" lon="8.576847605687487"><ele>203.16666666666669</ele><time>2026-04-01T12:31:10Z</time></trkpt><trkpt lat="45.93652529594282" lon="8.576722678926334"><ele>203.0</ele><time>2026-04-01T12:31:12.001Z</time></trkpt><trkpt lat="45.93646305216477" lon="8.576593593093193"><ele>203.00000000000003</ele><time>2026-04-01T12:31:14.001Z</time></trkpt><trkpt lat="45.93641000737874" lon="8.576469178590793"><ele>203.0</ele><time>2026-04-01T12:31:16.001Z</time></trkpt><trkpt lat="45.93634889093876" lon="8.576357885308234"><ele>203.0</ele><time>2026-04-01T12:31:18.001Z</time></trkpt><trkpt lat="45.93628762341642" lon="8.57623054192469"><ele>203.0</ele><time>2026-04-01T12:31:20.001Z</time></trkpt><trkpt lat="45.93625445744552" lon="8.576151328891099"><ele>203.00000000000003</ele><time>2026-04-01T12:31:21.001Z</time></trkpt><trkpt lat="45.93622803463153" lon="8.576067071455755"><ele>203.0</ele><time>2026-04-01T12:31:22.001Z</time></trkpt><trkpt lat="45.93616554976999" lon="8.575917217081033"><ele>203.33333333333334</ele><time>2026-04-01T12:31:24.001Z</time></trkpt><trkpt lat="45.93611193158066" lon="8.575790755765063"><ele>203.66666666666669</ele><time>2026-04-01T12:31:26.001Z</time></trkpt><trkpt lat="45.93606409923189" lon="8.575675078609004"><ele>204.0</ele><time>2026-04-01T12:31:28.001Z</time></trkpt><trkpt lat="45.93603202441015" lon="8.575594666828534"><ele>204.33333333333331</ele><time>2026-04-01T12:31:30.001Z</time></trkpt><trkpt lat="45.93599494386169" lon="8.575513926408343"><ele>204.66666666666666</ele><time>2026-04-01T12:31:33.001Z</time></trkpt><trkpt lat="45.93595019428892" lon="8.5754150426516"><ele>205.0</ele><time>2026-04-01T12:31:36.001Z</time></trkpt><trkpt lat="45.935910874035734" lon="8.575329631760466"><ele>203.99999999999997</ele><time>2026-04-01T12:31:38.001Z</time></trkpt><trkpt lat="45.93586225951371" lon="8.57522074353003"><ele>203.0</ele><time>2026-04-01T12:31:41.001Z</time></trkpt><trkpt lat="45.9358263191254" lon="8.575139835138737"><ele>202.0</ele><time>2026-04-01T12:32:06.002Z</time></trkpt><trkpt lat="45.93577217616996" lon="8.575015940735707"><ele>201.0</ele><time>2026-04-01T12:32:09.002Z</time></trkpt><trkpt lat="45.93572664624703" lon="8.57491929640713"><ele>199.99999999999997</ele><time>2026-04-01T12:32:11.002Z</time></trkpt><trkpt lat="45.93569139761387" lon="8.574841873788403"><ele>199.0</ele><time>2026-04-01T12:32:13.002Z</time></trkpt><trkpt lat="45.93564813901743" lon="8.574750084941723"><ele>198.99999999999997</ele><time>2026-04-01T12:32:16.002Z</time></trkpt><trkpt lat="45.93559945236767" lon="8.574642245963084"><ele>199.0</ele><time>2026-04-01T12:32:20.002Z</time></trkpt><trkpt lat="45.935562461235705" lon="8.57455964338939"><ele>199.0</ele><time>2026-04-01T12:32:22.002Z</time></trkpt><trkpt lat="45.93551951613783" lon="8.574463974809358"><ele>199.0</ele><time>2026-04-01T12:32:24.002Z</time></trkpt><trkpt lat="45.93547710551816" lon="8.574379312859486"><ele>198.99999999999997</ele><time>2026-04-01T12:32:26.002Z</time></trkpt><trkpt lat="45.93542841332723" lon="8.57428059909338"><ele>199.0</ele><time>2026-04-01T12:32:28.002Z</time></trkpt><trkpt lat="45.93537578161248" lon="8.574178562853607"><ele>199.79999999999998</ele><time>2026-04-01T12:32:30.002Z</time></trkpt><trkpt lat="45.935314733702036" lon="8.574074373397313"><ele>200.6</ele><time>2026-04-01T12:32:32.002Z</time></trkpt><trkpt lat="45.93524109751127" lon="8.573958300432468"><ele>201.4</ele><time>2026-04-01T12:32:34.002Z</time></trkpt><trkpt lat="45.935155683590665" lon="8.5738491800907"><ele>202.2</ele><time>2026-04-01T12:32:36.002Z</time></trkpt><trkpt lat="45.935067227131576" lon="8.573731946609788"><ele>203.0</ele><time>2026-04-01T12:32:38.002Z</time></trkpt><trkpt lat="45.9349625209743" lon="8.573624149958423"><ele>203.14285714285714</ele><time>2026-04-01T12:32:40Z</time></trkpt><trkpt lat="45.934905300393886" lon="8.573570231032404"><ele>203.28571428571428</ele><time>2026-04-01T12:32:41Z</time></trkpt><trkpt lat="45.93483762865056" lon="8.57353368225301"><ele>203.42857142857144</ele><time>2026-04-01T12:32:42Z</time></trkpt><trkpt lat="45.93478597206538" lon="8.57345258106889"><ele>203.57142857142856</ele><time>2026-04-01T12:32:43Z</time></trkpt><trkpt lat="45.93472255194659" lon="8.573392072618223"><ele>203.71428571428572</ele><time>2026-04-01T12:32:44Z</time></trkpt><trkpt lat="45.93465772630054" lon="8.573329677747259"><ele>203.85714285714286</ele><time>2026-04-01T12:32:45Z</time></trkpt><trkpt lat="45.93459334505815" lon="8.573267400766344"><ele>204.0</ele><time>2026-04-01T12:32:46Z</time></trkpt><trkpt lat="45.93453274785937" lon="8.573209021519268"><ele>204.0</ele><time>2026-04-01T12:32:47Z</time></trkpt><trkpt lat="45.93447787373862" lon="8.573151123329128"><ele>204.0</ele><time>2026-04-01T12:32:48Z</time></trkpt><trkpt lat="45.93442552746218" lon="8.573095153072591"><ele>204.0</ele><time>2026-04-01T12:32:49Z</time></trkpt><trkpt lat="45.93438204288321" lon="8.573028497016821"><ele>204.0</ele><time>2026-04-01T12:32:50Z</time></trkpt><trkpt lat="45.934348670278744" lon="8.572948855441663"><ele>204.0</ele><time>2026-04-01T12:32:51Z</time></trkpt><trkpt lat="45.93431798193543" lon="8.572869191150746"><ele>204.0</ele><time>2026-04-01T12:32:52Z</time></trkpt><trkpt lat="45.93422704750666" lon="8.572749738508179"><ele>204.0</ele><time>2026-04-01T12:32:54Z</time></trkpt><trkpt lat="45.93416178162768" lon="8.572725081572464"><ele>203.83333333333334</ele><time>2026-04-01T12:32:55Z</time></trkpt><trkpt lat="45.9340898521497" lon="8.572696771489309"><ele>203.66666666666669</ele><time>2026-04-01T12:32:56Z</time></trkpt><trkpt lat="45.934019738799755" lon="8.572654365205468"><ele>203.5</ele><time>2026-04-01T12:32:57Z</time></trkpt><trkpt lat="45.93395427660411" lon="8.572588740236977"><ele>203.33333333333334</ele><time>2026-04-01T12:32:58Z</time></trkpt><trkpt lat="45.93388279245085" lon="8.572514470056682"><ele>203.16666666666669</ele><time>2026-04-01T12:32:59Z</time></trkpt><trkpt lat="45.93380278668126" lon="8.572436550602795"><ele>203.0</ele><time>2026-04-01T12:33:00Z</time></trkpt><trkpt lat="45.9337153877042" lon="8.572351636935904"><ele>203.0</ele><time>2026-04-01T12:33:01Z</time></trkpt><trkpt lat="45.93362516017645" lon="8.57226180599482"><ele>203.0</ele><time>2026-04-01T12:33:02Z</time></trkpt><trkpt lat="45.93353021471261" lon="8.572166825891479"><ele>203.0</ele><time>2026-04-01T12:33:03Z</time></trkpt><trkpt lat="45.93343281801568" lon="8.572066380383504"><ele>203.0</ele><time>2026-04-01T12:33:04Z</time></trkpt><trkpt lat="45.933330036377974" lon="8.571964623296033"><ele>202.5</ele><time>2026-04-01T12:33:05Z</time></trkpt><trkpt lat="45.93322343269827" lon="8.571858526024858"><ele>202.0</ele><time>2026-04-01T12:33:06Z</time></trkpt><trkpt lat="45.93311542982647" lon="8.571752265104807"><ele>201.5</ele><time>2026-04-01T12:33:07Z</time></trkpt><trkpt lat="45.9330092353189" lon="8.571648080024298"><ele>201.0</ele><time>2026-04-01T12:33:08Z</time></trkpt><trkpt lat="45.93290265514217" lon="8.57154356131258"><ele>201.0</ele><time>2026-04-01T12:33:09Z</time></trkpt><trkpt lat="45.93279861466497" lon="8.571440029637378"><ele>201.0</ele><time>2026-04-01T12:33:10Z</time></trkpt><trkpt lat="45.93269393969699" lon="8.571336197966446"><ele>201.0</ele><time>2026-04-01T12:33:11Z</time></trkpt><trkpt lat="45.932590302272104" lon="8.571232034718829"><ele>201.0</ele><time>2026-04-01T12:33:12Z</time></trkpt><trkpt lat="45.93248565675363" lon="8.571127954965426"><ele>200.0</ele><time>2026-04-01T12:33:13Z</time></trkpt><trkpt lat="45.93238072938843" lon="8.57102399730774"><ele>199.0</ele><time>2026-04-01T12:33:14Z</time></trkpt><trkpt lat="45.93227428240834" lon="8.570918853225603"><ele>198.0</ele><time>2026-04-01T12:33:15.001Z</time></trkpt><trkpt lat="45.93216547889302" lon="8.5708114926757"><ele>197.0</ele><time>2026-04-01T12:33:16.001Z</time></trkpt><trkpt lat="45.93205681624127" lon="8.570705968527486"><ele>197.0</ele><time>2026-04-01T12:33:17.001Z</time></trkpt><trkpt lat="45.93194506397624" lon="8.57059749279964"><ele>197.0</ele><time>2026-04-01T12:33:18.001Z</time></trkpt><trkpt lat="45.93183158404877" lon="8.570486109037644"><ele>197.0</ele><time>2026-04-01T12:33:19.001Z</time></trkpt><trkpt lat="45.9317169829296" lon="8.570373324911753"><ele>197.0</ele><time>2026-04-01T12:33:20.001Z</time></trkpt><trkpt lat="45.93160039496103" lon="8.570259121974711"><ele>197.25</ele><time>2026-04-01T12:33:21.001Z</time></trkpt><trkpt lat="45.931483231731264" lon="8.570143190117925"><ele>197.5</ele><time>2026-04-01T12:33:22.001Z</time></trkpt><trkpt lat="45.931366337840345" lon="8.570027879361854"><ele>197.75</ele><time>2026-04-01T12:33:23.001Z</time></trkpt><trkpt lat="45.931249865578486" lon="8.569915549339514"><ele>198.0</ele><time>2026-04-01T12:33:24.001Z</time></trkpt><trkpt lat="45.93113445691201" lon="8.569804335908392"><ele>198.0</ele><time>2026-04-01T12:33:25.001Z</time></trkpt><trkpt lat="45.931020665266175" lon="8.569696410109291"><ele>198.0</ele><time>2026-04-01T12:33:26.001Z</time></trkpt><trkpt lat="45.93090840231572" lon="8.569585717568652"><ele>198.0</ele><time>2026-04-01T12:33:27.001Z</time></trkpt><trkpt lat="45.93079786275798" lon="8.569474908950589"><ele>198.0</ele><time>2026-04-01T12:33:28.001Z</time></trkpt><trkpt lat="45.930685301421036" lon="8.569362643784768"><ele>199.75</ele><time>2026-04-01T12:33:29.001Z</time></trkpt><trkpt lat="45.93057109068976" lon="8.569250183334695"><ele>201.5</ele><time>2026-04-01T12:33:30.001Z</time></trkpt><trkpt lat="45.9304563994972" lon="8.569137539953973"><ele>203.25</ele><time>2026-04-01T12:33:31.001Z</time></trkpt><trkpt lat="45.930342414543674" lon="8.569025294142211"><ele>205.0</ele><time>2026-04-01T12:33:32.001Z</time></trkpt><trkpt lat="45.93022722128795" lon="8.568912306871669"><ele>205.0</ele><time>2026-04-01T12:33:33.001Z</time></trkpt><trkpt lat="45.93011162589869" lon="8.56879691894366"><ele>205.0</ele><time>2026-04-01T12:33:34.001Z</time></trkpt><trkpt lat="45.929995689310516" lon="8.568681172793124"><ele>205.0</ele><time>2026-04-01T12:33:35.001Z</time></trkpt><trkpt lat="45.92987982629114" lon="8.568566887394242"><ele>205.0</ele><time>2026-04-01T12:33:36.001Z</time></trkpt><trkpt lat="45.929762834201604" lon="8.568454187845534"><ele>204.0</ele><time>2026-04-01T12:33:37.001Z</time></trkpt><trkpt lat="45.9296473299397" lon="8.568343152589577"><ele>203.0</ele><time>2026-04-01T12:33:38.001Z</time></trkpt><trkpt lat="45.929533345880294" lon="8.568230637149249"><ele>202.0</ele><time>2026-04-01T12:33:39.001Z</time></trkpt><trkpt lat="45.92942044937541" lon="8.568120488893701"><ele>201.0</ele><time>2026-04-01T12:33:40.001Z</time></trkpt><trkpt lat="45.929306263374855" lon="8.568011552885539"><ele>201.0</ele><time>2026-04-01T12:33:41.001Z</time></trkpt><trkpt lat="45.929193831833096" lon="8.567902492690255"><ele>201.0</ele><time>2026-04-01T12:33:42.001Z</time></trkpt><trkpt lat="45.92908260943923" lon="8.567792406276212"><ele>201.0</ele><time>2026-04-01T12:33:43.001Z</time></trkpt><trkpt lat="45.92897255801192" lon="8.56768221529232"><ele>201.0</ele><time>2026-04-01T12:33:44.001Z</time></trkpt><trkpt lat="45.92886150926946" lon="8.567571651322114"><ele>201.5</ele><time>2026-04-01T12:33:45.001Z</time></trkpt><trkpt lat="45.92874949060218" lon="8.567460296613268"><ele>202.0</ele><time>2026-04-01T12:33:46.001Z</time></trkpt><trkpt lat="45.928635638505575" lon="8.567350478859428"><ele>202.5</ele><time>2026-04-01T12:33:47.001Z</time></trkpt><trkpt lat="45.928523554616234" lon="8.567236823390306"><ele>203.0</ele><time>2026-04-01T12:33:48.001Z</time></trkpt><trkpt lat="45.928408961133805" lon="8.56712333814578"><ele>202.75</ele><time>2026-04-01T12:33:49.001Z</time></trkpt><trkpt lat="45.92829499354933" lon="8.567009033738273"><ele>202.5</ele><time>2026-04-01T12:33:50.001Z</time></trkpt><trkpt lat="45.92818005374534" lon="8.566892498806032"><ele>202.25</ele><time>2026-04-01T12:33:51.001Z</time></trkpt><trkpt lat="45.92806635286637" lon="8.566776714407075"><ele>202.0</ele><time>2026-04-01T12:33:52.001Z</time></trkpt><trkpt lat="45.92795552334333" lon="8.566653205884565"><ele>202.0</ele><time>2026-04-01T12:33:53.001Z</time></trkpt><trkpt lat="45.927854116105046" lon="8.56651608279595"><ele>202.0</ele><time>2026-04-01T12:33:54.001Z</time></trkpt><trkpt lat="45.92775853741005" lon="8.566371375450283"><ele>202.0</ele><time>2026-04-01T12:33:55.001Z</time></trkpt><trkpt lat="45.9276668795957" lon="8.56622023210368"><ele>202.0</ele><time>2026-04-01T12:33:56.001Z</time></trkpt><trkpt lat="45.927578467919034" lon="8.56606681319919"><ele>201.75</ele><time>2026-04-01T12:33:57.001Z</time></trkpt><trkpt lat="45.927494581114146" lon="8.56590896177937"><ele>201.5</ele><time>2026-04-01T12:33:58.001Z</time></trkpt><trkpt lat="45.92741688023825" lon="8.56574454434053"><ele>201.25</ele><time>2026-04-01T12:33:59.001Z</time></trkpt><trkpt lat="45.927350116251056" lon="8.5655733846614"><ele>201.0</ele><time>2026-04-01T12:34:00.001Z</time></trkpt><trkpt lat="45.92729711504841" lon="8.565394384273233"><ele>202.25</ele><time>2026-04-01T12:34:01.001Z</time></trkpt><trkpt lat="45.92726293156616" lon="8.565208098375798"><ele>203.5</ele><time>2026-04-01T12:34:02.001Z</time></trkpt><trkpt lat="45.92724152211909" lon="8.565019840090306"><ele>204.75</ele><time>2026-04-01T12:34:03.001Z</time></trkpt><trkpt lat="45.92723666796506" lon="8.564830529499623"><ele>206.0</ele><time>2026-04-01T12:34:04.001Z</time></trkpt><trkpt lat="45.92724394909912" lon="8.564643899509097"><ele>206.25</ele><time>2026-04-01T12:34:05.002Z</time></trkpt><trkpt lat="45.92726131325227" lon="8.564464736999545"><ele>206.5</ele><time>2026-04-01T12:34:06.002Z</time></trkpt><trkpt lat="45.927280904799346" lon="8.564296614251154"><ele>206.75</ele><time>2026-04-01T12:34:07.002Z</time></trkpt><trkpt lat="45.92729977732679" lon="8.564134636651273"><ele>207.0</ele><time>2026-04-01T12:34:08.002Z</time></trkpt><trkpt lat="45.92731519917764" lon="8.56398955751302"><ele>207.0</ele><time>2026-04-01T12:34:09.002Z</time></trkpt><trkpt lat="45.92733005853319" lon="8.563855153388644"><ele>207.0</ele><time>2026-04-01T12:34:10.002Z</time></trkpt><trkpt lat="45.927345784273" lon="8.563727308544358"><ele>207.0</ele><time>2026-04-01T12:34:11.002Z</time></trkpt><trkpt lat="45.92735837635515" lon="8.563607643669787"><ele>207.0</ele><time>2026-04-01T12:34:12.002Z</time></trkpt><trkpt lat="45.927372389415446" lon="8.563490141761315"><ele>207.0</ele><time>2026-04-01T12:34:13.002Z</time></trkpt><trkpt lat="45.92738761593468" lon="8.563373566338523"><ele>207.0</ele><time>2026-04-01T12:34:14.002Z</time></trkpt><trkpt lat="45.92740381134883" lon="8.563256702303887"><ele>206.83333333333334</ele><time>2026-04-01T12:34:15.002Z</time></trkpt><trkpt lat="45.92741861139555" lon="8.563135082954517"><ele>206.66666666666669</ele><time>2026-04-01T12:34:16.002Z</time></trkpt><trkpt lat="45.927436117690625" lon="8.563011827973853"><ele>206.5</ele><time>2026-04-01T12:34:17.002Z</time></trkpt><trkpt lat="45.9274512557328" lon="8.562887287536462"><ele>206.33333333333334</ele><time>2026-04-01T12:34:18.002Z</time></trkpt><trkpt lat="45.92746427337145" lon="8.562763423108462"><ele>206.16666666666669</ele><time>2026-04-01T12:34:19.002Z</time></trkpt><trkpt lat="45.92747841258352" lon="8.562647731848"><ele>206.0</ele><time>2026-04-01T12:34:20.002Z</time></trkpt><trkpt lat="45.9274921156287" lon="8.562540592353072"><ele>206.60000000000002</ele><time>2026-04-01T12:34:21.002Z</time></trkpt><trkpt lat="45.927504489066685" lon="8.56244211460917"><ele>207.2</ele><time>2026-04-01T12:34:22.002Z</time></trkpt><trkpt lat="45.9275159050487" lon="8.562350604345554"><ele>207.8</ele><time>2026-04-01T12:34:23.002Z</time></trkpt><trkpt lat="45.92753877003656" lon="8.562181729945372"><ele>208.39999999999998</ele><time>2026-04-01T12:34:25.002Z</time></trkpt><trkpt lat="45.9275623559294" lon="8.56201358741012"><ele>209.0</ele><time>2026-04-01T12:34:27.002Z</time></trkpt><trkpt lat="45.92758977525656" lon="8.561833201165975"><ele>209.0</ele><time>2026-04-01T12:34:29.002Z</time></trkpt><trkpt lat="45.9276036653425" lon="8.561736710089054"><ele>209.0</ele><time>2026-04-01T12:34:30.002Z</time></trkpt><trkpt lat="45.927618123912055" lon="8.561637323617704"><ele>209.0</ele><time>2026-04-01T12:34:31.002Z</time></trkpt><trkpt lat="45.927633649586426" lon="8.56153376873548"><ele>209.0</ele><time>2026-04-01T12:34:32.002Z</time></trkpt><trkpt lat="45.92764721158015" lon="8.561428011538274"><ele>209.0</ele><time>2026-04-01T12:34:33.002Z</time></trkpt><trkpt lat="45.92766249706132" lon="8.561319133446927"><ele>209.0</ele><time>2026-04-01T12:34:34.002Z</time></trkpt><trkpt lat="45.92767643231273" lon="8.561208791275696"><ele>209.0</ele><time>2026-04-01T12:34:35.002Z</time></trkpt><trkpt lat="45.92768848216478" lon="8.561103954482922"><ele>209.28571428571428</ele><time>2026-04-01T12:34:36.002Z</time></trkpt><trkpt lat="45.927699143695236" lon="8.56100510034277"><ele>209.57142857142856</ele><time>2026-04-01T12:34:37.002Z</time></trkpt><trkpt lat="45.92771001049611" lon="8.560907389881871"><ele>209.85714285714286</ele><time>2026-04-01T12:34:38.002Z</time></trkpt><trkpt lat="45.92772119247738" lon="8.560803698189263"><ele>210.14285714285714</ele><time>2026-04-01T12:34:39.002Z</time></trkpt><trkpt lat="45.92773396997941" lon="8.560705696193029"><ele>210.42857142857144</ele><time>2026-04-01T12:34:40.002Z</time></trkpt><trkpt lat="45.927744687394664" lon="8.560616253366291"><ele>210.71428571428572</ele><time>2026-04-01T12:34:41.002Z</time></trkpt><trkpt lat="45.92776347481466" lon="8.560468528864524"><ele>211.0</ele><time>2026-04-01T12:34:43.002Z</time></trkpt><trkpt lat="45.92777662281967" lon="8.560329577308256"><ele>210.99999999999997</ele><time>2026-04-01T12:34:45Z</time></trkpt><trkpt lat="45.92779266373055" lon="8.560207117962541"><ele>211.0</ele><time>2026-04-01T12:34:47Z</time></trkpt><trkpt lat="45.92780234698018" lon="8.560117026143477"><ele>211.0</ele><time>2026-04-01T12:34:50Z</time></trkpt><trkpt lat="45.92781568257145" lon="8.56001673179029"><ele>211.0</ele><time>2026-04-01T12:34:55Z</time></trkpt><trkpt lat="45.92782888944965" lon="8.559914419237503"><ele>210.99999999999997</ele><time>2026-04-01T12:34:58Z</time></trkpt><trkpt lat="45.927841601340326" lon="8.559808503455606"><ele>211.0</ele><time>2026-04-01T12:35:01Z</time></trkpt><trkpt lat="45.927866622460726" lon="8.559687959667501"><ele>210.99999999999997</ele><time>2026-04-01T12:35:04Z</time></trkpt><trkpt lat="45.9279074375779" lon="8.559593070065253"><ele>211.0</ele><time>2026-04-01T12:35:06Z</time></trkpt><trkpt lat="45.92796556819656" lon="8.55949151047741"><ele>211.0</ele><time>2026-04-01T12:35:08Z</time></trkpt><trkpt lat="45.927994359972686" lon="8.559392840817154"><ele>211.0</ele><time>2026-04-01T12:35:10Z</time></trkpt><trkpt lat="45.927995399127006" lon="8.559273963531949"><ele>210.99999999999997</ele><time>2026-04-01T12:35:13Z</time></trkpt><trkpt lat="45.9279720473753" lon="8.55916110094325"><ele>211.0</ele><time>2026-04-01T12:35:15Z</time></trkpt><trkpt lat="45.927957720251825" lon="8.559024342758526"><ele>210.99999999999997</ele><time>2026-04-01T12:35:17Z</time></trkpt><trkpt lat="45.92796511248709" lon="8.558842241673483"><ele>211.0</ele><time>2026-04-01T12:35:19.001Z</time></trkpt><trkpt lat="45.92797055027875" lon="8.558734675736758"><ele>211.0</ele><time>2026-04-01T12:35:20.001Z</time></trkpt><trkpt lat="45.92797447504766" lon="8.55862193772444"><ele>211.0</ele><time>2026-04-01T12:35:21.001Z</time></trkpt><trkpt lat="45.927979093005185" lon="8.55850932703633"><ele>210.99999999999997</ele><time>2026-04-01T12:35:22.001Z</time></trkpt><trkpt lat="45.92798548025389" lon="8.55839515340284"><ele>211.0</ele><time>2026-04-01T12:35:23.001Z</time></trkpt><trkpt lat="45.927991618995335" lon="8.55827848867227"><ele>210.99999999999997</ele><time>2026-04-01T12:35:24.001Z</time></trkpt><trkpt lat="45.92799760173731" lon="8.558159583691692"><ele>211.0</ele><time>2026-04-01T12:35:25.001Z</time></trkpt><trkpt lat="45.92800377290365" lon="8.558039393380838"><ele>211.0</ele><time>2026-04-01T12:35:26.001Z</time></trkpt><trkpt lat="45.92801128802235" lon="8.55791888836643"><ele>211.0</ele><time>2026-04-01T12:35:27.001Z</time></trkpt><trkpt lat="45.92801849170124" lon="8.557795674654066"><ele>210.99999999999997</ele><time>2026-04-01T12:35:28.001Z</time></trkpt><trkpt lat="45.92802674473868" lon="8.557673908203583"><ele>211.0</ele><time>2026-04-01T12:35:29.001Z</time></trkpt><trkpt lat="45.92803497506638" lon="8.557559191860518"><ele>210.83333333333331</ele><time>2026-04-01T12:35:30.001Z</time></trkpt><trkpt lat="45.928043625975" lon="8.55744603881663"><ele>210.66666666666666</ele><time>2026-04-01T12:35:31.001Z</time></trkpt><trkpt lat="45.92805273485542" lon="8.557328567361479"><ele>210.5</ele><time>2026-04-01T12:35:32.001Z</time></trkpt><trkpt lat="45.92806125967037" lon="8.557210944927682"><ele>210.33333333333331</ele><time>2026-04-01T12:35:33.001Z</time></trkpt><trkpt lat="45.92807042450261" lon="8.557091222411797"><ele>210.16666666666666</ele><time>2026-04-01T12:35:34.001Z</time></trkpt><trkpt lat="45.92808123201645" lon="8.556973702817606"><ele>210.0</ele><time>2026-04-01T12:35:35.001Z</time></trkpt><trkpt lat="45.928092896384335" lon="8.556857651105789"><ele>210.33333333333334</ele><time>2026-04-01T12:35:36.001Z</time></trkpt><trkpt lat="45.928104376537306" lon="8.55674050681623"><ele>210.66666666666669</ele><time>2026-04-01T12:35:37.001Z</time></trkpt><trkpt lat="45.92811647798596" lon="8.556628616992189"><ele>211.0</ele><time>2026-04-01T12:35:38.001Z</time></trkpt><trkpt lat="45.92813047887198" lon="8.55651291473357"><ele>211.33333333333334</ele><time>2026-04-01T12:35:39.001Z</time></trkpt><trkpt lat="45.92814481312323" lon="8.556397557712165"><ele>211.66666666666669</ele><time>2026-04-01T12:35:40.001Z</time></trkpt><trkpt lat="45.92815851779764" lon="8.556279006846742"><ele>212.0</ele><time>2026-04-01T12:35:41.001Z</time></trkpt><trkpt lat="45.92817232031245" lon="8.556159143842255"><ele>212.00000000000003</ele><time>2026-04-01T12:35:42.001Z</time></trkpt><trkpt lat="45.92818751526139" lon="8.556045711906258"><ele>212.0</ele><time>2026-04-01T12:35:43.001Z</time></trkpt><trkpt lat="45.92820930576747" lon="8.555941275771541"><ele>212.0</ele><time>2026-04-01T12:35:44.001Z</time></trkpt><trkpt lat="45.92823555299764" lon="8.555846708870563"><ele>212.0</ele><time>2026-04-01T12:35:45.001Z</time></trkpt><trkpt lat="45.92826553491618" lon="8.55576168367132"><ele>212.00000000000003</ele><time>2026-04-01T12:35:46.001Z</time></trkpt><trkpt lat="45.92830297680854" lon="8.555685958315998"><ele>212.0</ele><time>2026-04-01T12:35:47.001Z</time></trkpt><trkpt lat="45.928381876000145" lon="8.55554811725634"><ele>212.14285714285714</ele><time>2026-04-01T12:35:49.001Z</time></trkpt><trkpt lat="45.92840473255033" lon="8.55546010526337"><ele>212.28571428571428</ele><time>2026-04-01T12:35:50.001Z</time></trkpt><trkpt lat="45.928409933376194" lon="8.555359933647399"><ele>212.42857142857142</ele><time>2026-04-01T12:35:51.001Z</time></trkpt><trkpt lat="45.92839812166523" lon="8.555257445446905"><ele>212.57142857142856</ele><time>2026-04-01T12:35:52.001Z</time></trkpt><trkpt lat="45.92838471975749" lon="8.55515655259522"><ele>212.71428571428572</ele><time>2026-04-01T12:35:53.001Z</time></trkpt><trkpt lat="45.9283742449011" lon="8.555051861950876"><ele>212.85714285714283</ele><time>2026-04-01T12:35:54.001Z</time></trkpt><trkpt lat="45.92836762241879" lon="8.554942976751304"><ele>213.0</ele><time>2026-04-01T12:35:55.001Z</time></trkpt><trkpt lat="45.92836760583285" lon="8.554828778058948"><ele>213.0</ele><time>2026-04-01T12:35:56.001Z</time></trkpt><trkpt lat="45.92837403456361" lon="8.554713810278766"><ele>213.0</ele><time>2026-04-01T12:35:57.001Z</time></trkpt><trkpt lat="45.92838717458847" lon="8.554600192242871"><ele>213.0</ele><time>2026-04-01T12:35:58.001Z</time></trkpt><trkpt lat="45.928402054909846" lon="8.554484818952517"><ele>213.0</ele><time>2026-04-01T12:35:59.001Z</time></trkpt><trkpt lat="45.928415806416325" lon="8.554371170076454"><ele>213.0</ele><time>2026-04-01T12:36:00.001Z</time></trkpt><trkpt lat="45.92842899539375" lon="8.554263856431934"><ele>213.0</ele><time>2026-04-01T12:36:01.001Z</time></trkpt><trkpt lat="45.92844348886552" lon="8.55415402094993"><ele>213.66666666666666</ele><time>2026-04-01T12:36:02.001Z</time></trkpt><trkpt lat="45.928458244249704" lon="8.554042962125878"><ele>214.33333333333331</ele><time>2026-04-01T12:36:03.001Z</time></trkpt><trkpt lat="45.92847342201327" lon="8.553930504721576"><ele>215.0</ele><time>2026-04-01T12:36:04.001Z</time></trkpt><trkpt lat="45.92848571303384" lon="8.553819991946503"><ele>215.66666666666666</ele><time>2026-04-01T12:36:05.001Z</time></trkpt><trkpt lat="45.92850042463366" lon="8.553713171964512"><ele>216.33333333333331</ele><time>2026-04-01T12:36:06.002Z</time></trkpt><trkpt lat="45.92851175720049" lon="8.55361171543335"><ele>217.0</ele><time>2026-04-01T12:36:07.002Z</time></trkpt><trkpt lat="45.92853074742964" lon="8.5535189924451"><ele>217.0</ele><time>2026-04-01T12:36:08.002Z</time></trkpt><trkpt lat="45.928561323794135" lon="8.553364838100562"><ele>217.0</ele><time>2026-04-01T12:36:10.002Z</time></trkpt><trkpt lat="45.928598293727745" lon="8.553238334281183"><ele>217.0</ele><time>2026-04-01T12:36:12.002Z</time></trkpt><trkpt lat="45.92863976501686" lon="8.55313853272197"><ele>217.0</ele><time>2026-04-01T12:36:14.002Z</time></trkpt><trkpt lat="45.92869469643269" lon="8.553033051657492"><ele>217.0</ele><time>2026-04-01T12:36:18.002Z</time></trkpt><trkpt lat="45.92875826165162" lon="8.552935282963142"><ele>216.83333333333331</ele><time>2026-04-01T12:36:20.002Z</time></trkpt><trkpt lat="45.928809807359315" lon="8.55277260391634"><ele>216.66666666666666</ele><time>2026-04-01T12:36:22.002Z</time></trkpt><trkpt lat="45.92881347592838" lon="8.552681213382561"><ele>216.5</ele><time>2026-04-01T12:36:23.002Z</time></trkpt><trkpt lat="45.928801631972945" lon="8.552589873383376"><ele>216.33333333333331</ele><time>2026-04-01T12:36:24.002Z</time></trkpt><trkpt lat="45.92878289844994" lon="8.552414502874894"><ele>216.16666666666666</ele><time>2026-04-01T12:36:26.002Z</time></trkpt><trkpt lat="45.92878914493706" lon="8.552324410024964"><ele>216.0</ele><time>2026-04-01T12:36:27.002Z</time></trkpt><trkpt lat="45.92880648865238" lon="8.552232450463343"><ele>216.0</ele><time>2026-04-01T12:36:28.002Z</time></trkpt><trkpt lat="45.928831680000656" lon="8.552131315641388"><ele>216.0</ele><time>2026-04-01T12:36:29.002Z</time></trkpt><trkpt lat="45.928858716170296" lon="8.552027426575469"><ele>216.0</ele><time>2026-04-01T12:36:30.002Z</time></trkpt><trkpt lat="45.92888738688662" lon="8.551918001480045"><ele>216.0</ele><time>2026-04-01T12:36:31.002Z</time></trkpt><trkpt lat="45.92891740647203" lon="8.551804167008278"><ele>216.0</ele><time>2026-04-01T12:36:32.002Z</time></trkpt><trkpt lat="45.92894515155083" lon="8.55168616784807"><ele>216.0</ele><time>2026-04-01T12:36:33.002Z</time></trkpt><trkpt lat="45.928971025710425" lon="8.55156263265081"><ele>215.0</ele><time>2026-04-01T12:36:34.002Z</time></trkpt><trkpt lat="45.92899450165082" lon="8.551436874501423"><ele>214.00000000000003</ele><time>2026-04-01T12:36:35.002Z</time></trkpt><trkpt lat="45.92901473367243" lon="8.551310530915822"><ele>213.0</ele><time>2026-04-01T12:36:36.002Z</time></trkpt><trkpt lat="45.92903783003844" lon="8.551180612577308"><ele>212.0</ele><time>2026-04-01T12:36:37.002Z</time></trkpt><trkpt lat="45.92906098738774" lon="8.551046276149284"><ele>211.0</ele><time>2026-04-01T12:36:38.002Z</time></trkpt><trkpt lat="45.92908239144636" lon="8.550910629293659"><ele>211.0</ele><time>2026-04-01T12:36:39.002Z</time></trkpt><trkpt lat="45.929104918430156" lon="8.550771138762869"><ele>211.0</ele><time>2026-04-01T12:36:40.002Z</time></trkpt><trkpt lat="45.92912654531443" lon="8.550628860559893"><ele>211.0</ele><time>2026-04-01T12:36:41.002Z</time></trkpt><trkpt lat="45.92914900908674" lon="8.55048509740508"><ele>211.0</ele><time>2026-04-01T12:36:42.002Z</time></trkpt><trkpt lat="45.92917185621342" lon="8.550338204966762"><ele>211.0</ele><time>2026-04-01T12:36:43.002Z</time></trkpt><trkpt lat="45.92919576522928" lon="8.550187742108887"><ele>211.0</ele><time>2026-04-01T12:36:44.002Z</time></trkpt><trkpt lat="45.92921815252501" lon="8.550036487006121"><ele>211.0</ele><time>2026-04-01T12:36:45.002Z</time></trkpt><trkpt lat="45.929241814354995" lon="8.549885129113928"><ele>211.0</ele><time>2026-04-01T12:36:46.002Z</time></trkpt><trkpt lat="45.92926609358105" lon="8.549732274485823"><ele>211.0</ele><time>2026-04-01T12:36:47.002Z</time></trkpt><trkpt lat="45.929289027442856" lon="8.54957279007412"><ele>211.0</ele><time>2026-04-01T12:36:48.002Z</time></trkpt><trkpt lat="45.92931517900828" lon="8.549411156892944"><ele>210.75</ele><time>2026-04-01T12:36:49.002Z</time></trkpt><trkpt lat="45.92934347992885" lon="8.549247355717315"><ele>210.5</ele><time>2026-04-01T12:36:50.002Z</time></trkpt><trkpt lat="45.92937167921273" lon="8.54908288096737"><ele>210.25</ele><time>2026-04-01T12:36:51Z</time></trkpt><trkpt lat="45.929399737439816" lon="8.548921146674179"><ele>210.0</ele><time>2026-04-01T12:36:52Z</time></trkpt><trkpt lat="45.929426747070785" lon="8.548764184834418"><ele>209.8</ele><time>2026-04-01T12:36:53Z</time></trkpt><trkpt lat="45.92945466385334" lon="8.548610393720711"><ele>209.6</ele><time>2026-04-01T12:36:54Z</time></trkpt><trkpt lat="45.92948356585383" lon="8.54846357469746"><ele>209.39999999999998</ele><time>2026-04-01T12:36:55Z</time></trkpt><trkpt lat="45.929512925995965" lon="8.548331606851223"><ele>209.2</ele><time>2026-04-01T12:36:56Z</time></trkpt><trkpt lat="45.92953989504484" lon="8.548221475134097"><ele>209.0</ele><time>2026-04-01T12:36:57Z</time></trkpt><trkpt lat="45.929563327395535" lon="8.54813311764397"><ele>209.0</ele><time>2026-04-01T12:36:58Z</time></trkpt><trkpt lat="45.92959846834386" lon="8.548017988725155"><ele>209.0</ele><time>2026-04-01T12:37:00Z</time></trkpt><trkpt lat="45.92965062876251" lon="8.547904042480154"><ele>209.0</ele><time>2026-04-01T12:37:09Z</time></trkpt><trkpt lat="45.929710666117934" lon="8.547814452037887"><ele>209.0</ele><time>2026-04-01T12:37:11Z</time></trkpt><trkpt lat="45.929750460082865" lon="8.547685582701343"><ele>209.0</ele><time>2026-04-01T12:37:12.999Z</time></trkpt><trkpt lat="45.929771305722156" lon="8.54755907910706"><ele>209.0</ele><time>2026-04-01T12:37:14.999Z</time></trkpt><trkpt lat="45.92979573296784" lon="8.547429997848255"><ele>209.0</ele><time>2026-04-01T12:37:16.999Z</time></trkpt><trkpt lat="45.92984412658641" lon="8.547303487717851"><ele>209.0</ele><time>2026-04-01T12:37:19Z</time></trkpt><trkpt lat="45.929901419235875" lon="8.547175880005058"><ele>209.0</ele><time>2026-04-01T12:37:21Z</time></trkpt><trkpt lat="45.92996003687887" lon="8.547049652638682"><ele>209.0</ele><time>2026-04-01T12:37:23Z</time></trkpt><trkpt lat="45.930015738225855" lon="8.546927863264472"><ele>208.39999999999998</ele><time>2026-04-01T12:37:25Z</time></trkpt><trkpt lat="45.93007705464171" lon="8.546796750967458"><ele>207.8</ele><time>2026-04-01T12:37:27Z</time></trkpt><trkpt lat="45.930142128204615" lon="8.546656354404805"><ele>207.2</ele><time>2026-04-01T12:37:29Z</time></trkpt><trkpt lat="45.930200237139715" lon="8.546534002063597"><ele>206.60000000000002</ele><time>2026-04-01T12:37:31Z</time></trkpt><trkpt lat="45.93025271548677" lon="8.546423299975743"><ele>206.0</ele><time>2026-04-01T12:37:33Z</time></trkpt><trkpt lat="45.930300755772606" lon="8.546318544707432"><ele>205.99999999999997</ele><time>2026-04-01T12:37:35Z</time></trkpt><trkpt lat="45.9303462860001" lon="8.546221034462835"><ele>206.0</ele><time>2026-04-01T12:37:37Z</time></trkpt><trkpt lat="45.930381712215606" lon="8.54614516626093"><ele>206.0</ele><time>2026-04-01T12:37:40Z</time></trkpt><trkpt lat="45.9304170271723" lon="8.546069610759757"><ele>206.0</ele><time>2026-04-01T12:37:43Z</time></trkpt><trkpt lat="45.930452396044736" lon="8.54599356398024"><ele>206.0</ele><time>2026-04-01T12:37:46Z</time></trkpt><trkpt lat="45.93049271315633" lon="8.545904739682378"><ele>205.99999999999997</ele><time>2026-04-01T12:37:50Z</time></trkpt><trkpt lat="45.93052970482287" lon="8.545822437521538"><ele>206.0</ele><time>2026-04-01T12:37:55Z</time></trkpt><trkpt lat="45.93056844879582" lon="8.545734956441377"><ele>206.16666666666669</ele><time>2026-04-01T12:37:57Z</time></trkpt><trkpt lat="45.93062483780966" lon="8.545609308898108"><ele>206.33333333333334</ele><time>2026-04-01T12:37:59Z</time></trkpt><trkpt lat="45.930688140803696" lon="8.545469441743162"><ele>206.5</ele><time>2026-04-01T12:38:01Z</time></trkpt><trkpt lat="45.930724379961255" lon="8.545394826943369"><ele>206.66666666666669</ele><time>2026-04-01T12:38:02.001Z</time></trkpt><trkpt lat="45.93076209087312" lon="8.545317572777286"><ele>206.83333333333334</ele><time>2026-04-01T12:38:03.001Z</time></trkpt><trkpt lat="45.93080104200122" lon="8.545235616974509"><ele>207.0</ele><time>2026-04-01T12:38:04.001Z</time></trkpt><trkpt lat="45.93084055771261" lon="8.545145128490791"><ele>207.16666666666666</ele><time>2026-04-01T12:38:05.001Z</time></trkpt><trkpt lat="45.93088015435693" lon="8.545054100559826"><ele>207.33333333333331</ele><time>2026-04-01T12:38:06.001Z</time></trkpt><trkpt lat="45.93091994687126" lon="8.544955564571366"><ele>207.5</ele><time>2026-04-01T12:38:07.001Z</time></trkpt><trkpt lat="45.93096373962273" lon="8.544855609895219"><ele>207.66666666666666</ele><time>2026-04-01T12:38:08.001Z</time></trkpt><trkpt lat="45.93100894801533" lon="8.544752110131787"><ele>207.83333333333331</ele><time>2026-04-01T12:38:09.001Z</time></trkpt><trkpt lat="45.93105721840837" lon="8.544647499502178"><ele>208.0</ele><time>2026-04-01T12:38:10.001Z</time></trkpt><trkpt lat="45.93110459725453" lon="8.544540625518449"><ele>208.66666666666666</ele><time>2026-04-01T12:38:11.001Z</time></trkpt><trkpt lat="45.93115594388953" lon="8.544434880033522"><ele>209.33333333333331</ele><time>2026-04-01T12:38:12.001Z</time></trkpt><trkpt lat="45.931207175634256" lon="8.544329533287556"><ele>210.0</ele><time>2026-04-01T12:38:13.001Z</time></trkpt><trkpt lat="45.93125454314574" lon="8.544231315282746"><ele>210.66666666666669</ele><time>2026-04-01T12:38:14.001Z</time></trkpt><trkpt lat="45.93129719463027" lon="8.54413885063256"><ele>211.33333333333334</ele><time>2026-04-01T12:38:15.001Z</time></trkpt><trkpt lat="45.931336392357316" lon="8.544055882663514"><ele>212.0</ele><time>2026-04-01T12:38:16.001Z</time></trkpt><trkpt lat="45.931373224157454" lon="8.543979272652347"><ele>212.0</ele><time>2026-04-01T12:38:17.001Z</time></trkpt><trkpt lat="45.931409905043076" lon="8.543901120222749"><ele>212.0</ele><time>2026-04-01T12:38:18.001Z</time></trkpt><trkpt lat="45.93144730646216" lon="8.543821099050659"><ele>212.0</ele><time>2026-04-01T12:38:19.001Z</time></trkpt><trkpt lat="45.931486721521075" lon="8.543738331715918"><ele>212.0</ele><time>2026-04-01T12:38:20.001Z</time></trkpt><trkpt lat="45.931527111432956" lon="8.543648864167373"><ele>212.0</ele><time>2026-04-01T12:38:21.001Z</time></trkpt><trkpt lat="45.931569711182" lon="8.543553423047708"><ele>212.0</ele><time>2026-04-01T12:38:22.001Z</time></trkpt><trkpt lat="45.93161889812395" lon="8.543446754155594"><ele>212.0</ele><time>2026-04-01T12:38:23.001Z</time></trkpt><trkpt lat="45.93167268533412" lon="8.543330500566022"><ele>216.0</ele><time>2026-04-01T12:38:24.001Z</time></trkpt><trkpt lat="45.93172840254602" lon="8.54320763071464"><ele>220.0</ele><time>2026-04-01T12:38:25.001Z</time></trkpt><trkpt lat="45.93178675149763" lon="8.54307776277848"><ele>224.0</ele><time>2026-04-01T12:38:26.001Z</time></trkpt><trkpt lat="45.93184480405305" lon="8.542942769787768"><ele>228.0</ele><time>2026-04-01T12:38:27.001Z</time></trkpt><trkpt lat="45.931902429866796" lon="8.542801202156314"><ele>232.0</ele><time>2026-04-01T12:38:28.001Z</time></trkpt><trkpt lat="45.931959404652" lon="8.54265125550429"><ele>232.0</ele><time>2026-04-01T12:38:29.001Z</time></trkpt><trkpt lat="45.93201801248426" lon="8.542496131611705"><ele>232.0</ele><time>2026-04-01T12:38:30.001Z</time></trkpt><trkpt lat="45.932070561340176" lon="8.542331795356608"><ele>232.0</ele><time>2026-04-01T12:38:31.001Z</time></trkpt><trkpt lat="45.93211802301439" lon="8.542161599998956"><ele>232.0</ele><time>2026-04-01T12:38:32.001Z</time></trkpt><trkpt lat="45.93216014171739" lon="8.541986491330906"><ele>231.75</ele><time>2026-04-01T12:38:33.001Z</time></trkpt><trkpt lat="45.932199511137696" lon="8.541811555254123"><ele>231.5</ele><time>2026-04-01T12:38:34.001Z</time></trkpt><trkpt lat="45.93223531183489" lon="8.541639599540025"><ele>231.25</ele><time>2026-04-01T12:38:35.001Z</time></trkpt><trkpt lat="45.93226897494585" lon="8.541468562108959"><ele>231.0</ele><time>2026-04-01T12:38:36.001Z</time></trkpt><trkpt lat="45.932300985769295" lon="8.541301976312157"><ele>230.25</ele><time>2026-04-01T12:38:37.001Z</time></trkpt><trkpt lat="45.932332099497394" lon="8.541137255248762"><ele>229.5</ele><time>2026-04-01T12:38:38.001Z</time></trkpt><trkpt lat="45.93236258506517" lon="8.54097755910493"><ele>228.75</ele><time>2026-04-01T12:38:39.001Z</time></trkpt><trkpt lat="45.93239346795548" lon="8.540817396571907"><ele>228.0</ele><time>2026-04-01T12:38:40.001Z</time></trkpt><trkpt lat="45.932424206232426" lon="8.540658551237936"><ele>228.0</ele><time>2026-04-01T12:38:41.001Z</time></trkpt><trkpt lat="45.93245483741081" lon="8.54049926545992"><ele>228.0</ele><time>2026-04-01T12:38:42.001Z</time></trkpt><trkpt lat="45.93248677272009" lon="8.540338094090325"><ele>228.0</ele><time>2026-04-01T12:38:43.001Z</time></trkpt><trkpt lat="45.93252183154923" lon="8.540169855046303"><ele>228.0</ele><time>2026-04-01T12:38:44.001Z</time></trkpt><trkpt lat="45.932556078631286" lon="8.53999324412612"><ele>233.25</ele><time>2026-04-01T12:38:45.001Z</time></trkpt><trkpt lat="45.932594629392085" lon="8.539814563831646"><ele>238.5</ele><time>2026-04-01T12:38:46.001Z</time></trkpt><trkpt lat="45.93263272523157" lon="8.53963375525654"><ele>243.75</ele><time>2026-04-01T12:38:47.001Z</time></trkpt><trkpt lat="45.93267025147271" lon="8.53945224531307"><ele>249.0</ele><time>2026-04-01T12:38:48.001Z</time></trkpt><trkpt lat="45.932708844455775" lon="8.539269284920302"><ele>249.0</ele><time>2026-04-01T12:38:49.001Z</time></trkpt><trkpt lat="45.93274319129518" lon="8.53909585588087"><ele>249.0</ele><time>2026-04-01T12:38:50.002Z</time></trkpt><trkpt lat="45.93277188905345" lon="8.538917405003636"><ele>249.0</ele><time>2026-04-01T12:38:51.002Z</time></trkpt><trkpt lat="45.93279168799039" lon="8.538741683628173"><ele>249.0</ele><time>2026-04-01T12:38:52.002Z</time></trkpt><trkpt lat="45.932806112706416" lon="8.538571178437959"><ele>248.0</ele><time>2026-04-01T12:38:53.002Z</time></trkpt><trkpt lat="45.93281774366976" lon="8.538399498512902"><ele>247.0</ele><time>2026-04-01T12:38:54.002Z</time></trkpt><trkpt lat="45.93283089827001" lon="8.538228757874055"><ele>246.0</ele><time>2026-04-01T12:38:55.002Z</time></trkpt><trkpt lat="45.93284337685706" lon="8.538057371832318"><ele>245.0</ele><time>2026-04-01T12:38:56.002Z</time></trkpt><trkpt lat="45.93285641805349" lon="8.537886866607929"><ele>243.25</ele><time>2026-04-01T12:38:56.999Z</time></trkpt><trkpt lat="45.93286993787366" lon="8.537714850991328"><ele>241.5</ele><time>2026-04-01T12:38:57.999Z</time></trkpt><trkpt lat="45.93288391812545" lon="8.537538005072205"><ele>239.75</ele><time>2026-04-01T12:38:58.999Z</time></trkpt><trkpt lat="45.93290004659328" lon="8.537359900011849"><ele>238.0</ele><time>2026-04-01T12:38:59.999Z</time></trkpt><trkpt lat="45.93291599236879" lon="8.53717567284222"><ele>236.25</ele><time>2026-04-01T12:39:00.999Z</time></trkpt><trkpt lat="45.93293765771664" lon="8.536991159275864"><ele>234.5</ele><time>2026-04-01T12:39:01.999Z</time></trkpt><trkpt lat="45.9329617259616" lon="8.536809062163789"><ele>232.75</ele><time>2026-04-01T12:39:02.999Z</time></trkpt><trkpt lat="45.932989558851325" lon="8.536630119675674"><ele>231.0</ele><time>2026-04-01T12:39:03.999Z</time></trkpt><trkpt lat="45.93301566918229" lon="8.536453493206436"><ele>231.0</ele><time>2026-04-01T12:39:04.999Z</time></trkpt><trkpt lat="45.93304235436336" lon="8.536273176231555"><ele>231.0</ele><time>2026-04-01T12:39:05.999Z</time></trkpt><trkpt lat="45.933070630539596" lon="8.53609004027005"><ele>231.0</ele><time>2026-04-01T12:39:06.999Z</time></trkpt><trkpt lat="45.93310066466184" lon="8.535903818526013"><ele>231.0</ele><time>2026-04-01T12:39:07.999Z</time></trkpt><trkpt lat="45.93313044488985" lon="8.535714479939651"><ele>229.5</ele><time>2026-04-01T12:39:08.999Z</time></trkpt><trkpt lat="45.93315891224215" lon="8.535521596825328"><ele>228.0</ele><time>2026-04-01T12:39:09.999Z</time></trkpt><trkpt lat="45.93318910767703" lon="8.535328659162591"><ele>226.5</ele><time>2026-04-01T12:39:10.999Z</time></trkpt><trkpt lat="45.93322023616521" lon="8.535133784597102"><ele>225.0</ele><time>2026-04-01T12:39:11.999Z</time></trkpt><trkpt lat="45.93325115865328" lon="8.534938522547623"><ele>224.5</ele><time>2026-04-01T12:39:12.999Z</time></trkpt><trkpt lat="45.93328134541812" lon="8.534742857346037"><ele>224.0</ele><time>2026-04-01T12:39:13.999Z</time></trkpt><trkpt lat="45.93331237466263" lon="8.534548364754368"><ele>223.5</ele><time>2026-04-01T12:39:15Z</time></trkpt><trkpt lat="45.93333911754242" lon="8.534354733320285"><ele>223.0</ele><time>2026-04-01T12:39:16Z</time></trkpt><trkpt lat="45.93336597652016" lon="8.534161632974142"><ele>225.5</ele><time>2026-04-01T12:39:17Z</time></trkpt><trkpt lat="45.933395944519205" lon="8.533969151675757"><ele>228.0</ele><time>2026-04-01T12:39:18Z</time></trkpt><trkpt lat="45.93342604493417" lon="8.533773603516952"><ele>230.5</ele><time>2026-04-01T12:39:19Z</time></trkpt><trkpt lat="45.93345780461004" lon="8.533579756824702"><ele>233.0</ele><time>2026-04-01T12:39:20Z</time></trkpt><trkpt lat="45.9334881087188" lon="8.533385271037023"><ele>233.0</ele><time>2026-04-01T12:39:21Z</time></trkpt><trkpt lat="45.933514628690546" lon="8.533186879014908"><ele>233.0</ele><time>2026-04-01T12:39:22Z</time></trkpt><trkpt lat="45.93354448237338" lon="8.532995616796427"><ele>233.0</ele><time>2026-04-01T12:39:23Z</time></trkpt><trkpt lat="45.93358016234624" lon="8.532808936125974"><ele>233.0</ele><time>2026-04-01T12:39:24Z</time></trkpt><trkpt lat="45.93361874594142" lon="8.532620814868304"><ele>232.0</ele><time>2026-04-01T12:39:25Z</time></trkpt><trkpt lat="45.93366305189538" lon="8.532437223583624"><ele>231.0</ele><time>2026-04-01T12:39:26Z</time></trkpt><trkpt lat="45.93371377892762" lon="8.532256768963531"><ele>230.0</ele><time>2026-04-01T12:39:27Z</time></trkpt><trkpt lat="45.933769420990174" lon="8.532078300020515"><ele>229.0</ele><time>2026-04-01T12:39:28Z</time></trkpt><trkpt lat="45.93382618733068" lon="8.531901627565944"><ele>227.75</ele><time>2026-04-01T12:39:29Z</time></trkpt><trkpt lat="45.933881239631496" lon="8.53172474948714"><ele>226.5</ele><time>2026-04-01T12:39:30Z</time></trkpt><trkpt lat="45.93393689860736" lon="8.531548787589331"><ele>225.25</ele><time>2026-04-01T12:39:31Z</time></trkpt><trkpt lat="45.93398997785807" lon="8.53137163016577"><ele>224.0</ele><time>2026-04-01T12:39:32Z</time></trkpt><trkpt lat="45.93403762154654" lon="8.531191192392274"><ele>221.75</ele><time>2026-04-01T12:39:33Z</time></trkpt><trkpt lat="45.934080664886814" lon="8.531007014095218"><ele>219.5</ele><time>2026-04-01T12:39:34Z</time></trkpt><trkpt lat="45.93411670502143" lon="8.530820119634486"><ele>217.25</ele><time>2026-04-01T12:39:35Z</time></trkpt><trkpt lat="45.93414865136197" lon="8.530629669732864"><ele>215.0</ele><time>2026-04-01T12:39:36Z</time></trkpt><trkpt lat="45.93417720275244" lon="8.530437952255676"><ele>214.25</ele><time>2026-04-01T12:39:37Z</time></trkpt><trkpt lat="45.93420437036952" lon="8.530242730753464"><ele>213.5</ele><time>2026-04-01T12:39:38Z</time></trkpt><trkpt lat="45.93423390405051" lon="8.530052725751924"><ele>212.75</ele><time>2026-04-01T12:39:39Z</time></trkpt><trkpt lat="45.93426914977241" lon="8.529866038014838"><ele>212.0</ele><time>2026-04-01T12:39:40Z</time></trkpt><trkpt lat="45.93430713971439" lon="8.529687358050415"><ele>217.75</ele><time>2026-04-01T12:39:41Z</time></trkpt><trkpt lat="45.93434900282547" lon="8.529507347397502"><ele>223.5</ele><time>2026-04-01T12:39:42Z</time></trkpt><trkpt lat="45.934387088247696" lon="8.529324421466482"><ele>229.25</ele><time>2026-04-01T12:39:43Z</time></trkpt><trkpt lat="45.934419569209076" lon="8.529136776913424"><ele>235.0</ele><time>2026-04-01T12:39:44Z</time></trkpt><trkpt lat="45.934452530589" lon="8.528949368479477"><ele>235.0</ele><time>2026-04-01T12:39:45Z</time></trkpt><trkpt lat="45.93448449006968" lon="8.528762625153558"><ele>235.0</ele><time>2026-04-01T12:39:46Z</time></trkpt><trkpt lat="45.9345184711429" lon="8.528572489935415"><ele>235.0</ele><time>2026-04-01T12:39:47Z</time></trkpt><trkpt lat="45.93455374763149" lon="8.528383655403854"><ele>235.0</ele><time>2026-04-01T12:39:48Z</time></trkpt><trkpt lat="45.93458823026964" lon="8.528195417901088"><ele>231.0</ele><time>2026-04-01T12:39:49Z</time></trkpt><trkpt lat="45.9346239233954" lon="8.528007828933823"><ele>227.0</ele><time>2026-04-01T12:39:50Z</time></trkpt><trkpt lat="45.934662634943656" lon="8.527813670821137"><ele>223.0</ele><time>2026-04-01T12:39:51Z</time></trkpt><trkpt lat="45.93470803708858" lon="8.527627847491923"><ele>219.0</ele><time>2026-04-01T12:39:52Z</time></trkpt><trkpt lat="45.93475215335642" lon="8.52744031439468"><ele>217.5</ele><time>2026-04-01T12:39:53Z</time></trkpt><trkpt lat="45.93479534844718" lon="8.527253341765485"><ele>216.0</ele><time>2026-04-01T12:39:54Z</time></trkpt><trkpt lat="45.93483246779583" lon="8.52706185369525"><ele>214.5</ele><time>2026-04-01T12:39:55Z</time></trkpt><trkpt lat="45.93486141823601" lon="8.526872156588668"><ele>213.0</ele><time>2026-04-01T12:39:56Z</time></trkpt><trkpt lat="45.934888028034706" lon="8.526687176230265"><ele>212.5</ele><time>2026-04-01T12:39:57Z</time></trkpt><trkpt lat="45.93491208396297" lon="8.526507063326443"><ele>212.0</ele><time>2026-04-01T12:39:58Z</time></trkpt><trkpt lat="45.93493589970924" lon="8.526328165423783"><ele>211.5</ele><time>2026-04-01T12:39:59Z</time></trkpt><trkpt lat="45.93496375062582" lon="8.526149066027077"><ele>211.0</ele><time>2026-04-01T12:40:00.001Z</time></trkpt><trkpt lat="45.934995790595345" lon="8.525970895138418"><ele>211.25</ele><time>2026-04-01T12:40:01.001Z</time></trkpt><trkpt lat="45.9350354762233" lon="8.525793413940189"><ele>211.5</ele><time>2026-04-01T12:40:02.001Z</time></trkpt><trkpt lat="45.93508291957638" lon="8.5256220564256"><ele>211.75</ele><time>2026-04-01T12:40:03.001Z</time></trkpt><trkpt lat="45.93513703766908" lon="8.525454194062473"><ele>212.0</ele><time>2026-04-01T12:40:04.001Z</time></trkpt><trkpt lat="45.93519729010543" lon="8.525290387567852"><ele>212.0</ele><time>2026-04-01T12:40:05.001Z</time></trkpt><trkpt lat="45.93526582683759" lon="8.525135981727521"><ele>212.0</ele><time>2026-04-01T12:40:06.001Z</time></trkpt><trkpt lat="45.93533759396787" lon="8.52500029662879"><ele>212.0</ele><time>2026-04-01T12:40:07.001Z</time></trkpt><trkpt lat="45.93540175069742" lon="8.524893752960987"><ele>212.0</ele><time>2026-04-01T12:40:08.001Z</time></trkpt><trkpt lat="45.935458798035064" lon="8.524804947274687"><ele>212.0</ele><time>2026-04-01T12:40:09.001Z</time></trkpt><trkpt lat="45.935516370029276" lon="8.52471928039559"><ele>212.00000000000003</ele><time>2026-04-01T12:40:10.001Z</time></trkpt><trkpt lat="45.93557631580988" lon="8.52463491066648"><ele>212.0</ele><time>2026-04-01T12:40:11.001Z</time></trkpt><trkpt lat="45.93563697464869" lon="8.524552391240082"><ele>212.0</ele><time>2026-04-01T12:40:12.001Z</time></trkpt><trkpt lat="45.935697615858714" lon="8.524470647815047"><ele>212.0</ele><time>2026-04-01T12:40:13.001Z</time></trkpt><trkpt lat="45.935756054548094" lon="8.52439125780604"><ele>212.00000000000003</ele><time>2026-04-01T12:40:14.001Z</time></trkpt><trkpt lat="45.935813890556645" lon="8.524313739593097"><ele>212.0</ele><time>2026-04-01T12:40:15.001Z</time></trkpt><trkpt lat="45.93586995263547" lon="8.52423982263371"><ele>212.2857142857143</ele><time>2026-04-01T12:40:16.001Z</time></trkpt><trkpt lat="45.9359250492169" lon="8.524166745228992"><ele>212.57142857142856</ele><time>2026-04-01T12:40:17.001Z</time></trkpt><trkpt lat="45.935980744639366" lon="8.524091696100761"><ele>212.85714285714286</ele><time>2026-04-01T12:40:18.001Z</time></trkpt><trkpt lat="45.93603715181519" lon="8.524024052574783"><ele>213.14285714285717</ele><time>2026-04-01T12:40:19.001Z</time></trkpt><trkpt lat="45.936087916612834" lon="8.523953920210833"><ele>213.42857142857144</ele><time>2026-04-01T12:40:20.001Z</time></trkpt><trkpt lat="45.936140234548986" lon="8.523884383931422"><ele>213.71428571428572</ele><time>2026-04-01T12:40:21.001Z</time></trkpt><trkpt lat="45.93619177306405" lon="8.523817143396284"><ele>214.0</ele><time>2026-04-01T12:40:22.001Z</time></trkpt><trkpt lat="45.93623900821813" lon="8.523755949179671"><ele>212.99999999999997</ele><time>2026-04-01T12:40:23.001Z</time></trkpt><trkpt lat="45.93632722038614" lon="8.523644612802297"><ele>212.0</ele><time>2026-04-01T12:40:25.001Z</time></trkpt><trkpt lat="45.936414020084314" lon="8.523537689593828"><ele>211.0</ele><time>2026-04-01T12:40:27.001Z</time></trkpt><trkpt lat="45.93646490468152" lon="8.523472260983784"><ele>210.0</ele><time>2026-04-01T12:40:28.001Z</time></trkpt><trkpt lat="45.93651504440493" lon="8.523400930917377"><ele>208.99999999999997</ele><time>2026-04-01T12:40:29.001Z</time></trkpt><trkpt lat="45.93656435926441" lon="8.5233226432621"><ele>208.0</ele><time>2026-04-01T12:40:30.001Z</time></trkpt><trkpt lat="45.93661050208436" lon="8.523234368243742"><ele>208.0</ele><time>2026-04-01T12:40:31.001Z</time></trkpt><trkpt lat="45.936652255969456" lon="8.523134747475012"><ele>208.0</ele><time>2026-04-01T12:40:32.001Z</time></trkpt><trkpt lat="45.93668469071787" lon="8.523016556936023"><ele>208.0</ele><time>2026-04-01T12:40:33.001Z</time></trkpt><trkpt lat="45.936703685429116" lon="8.522887385963713"><ele>208.0</ele><time>2026-04-01T12:40:34.001Z</time></trkpt><trkpt lat="45.93670898784095" lon="8.522753413625907"><ele>208.0</ele><time>2026-04-01T12:40:35.001Z</time></trkpt><trkpt lat="45.93669547062245" lon="8.522614334326455"><ele>208.4</ele><time>2026-04-01T12:40:36.001Z</time></trkpt><trkpt lat="45.93666985227049" lon="8.522476982375917"><ele>208.8</ele><time>2026-04-01T12:40:37.001Z</time></trkpt><trkpt lat="45.93663876782333" lon="8.522336423422315"><ele>209.2</ele><time>2026-04-01T12:40:38.001Z</time></trkpt><trkpt lat="45.936605657194804" lon="8.522190554333983"><ele>209.6</ele><time>2026-04-01T12:40:39.001Z</time></trkpt><trkpt lat="45.93657497619006" lon="8.522038527740483"><ele>210.0</ele><time>2026-04-01T12:40:40.001Z</time></trkpt><trkpt lat="45.936548541559894" lon="8.521882400234793"><ele>210.0</ele><time>2026-04-01T12:40:41.001Z</time></trkpt><trkpt lat="45.93653132085811" lon="8.521725044558261"><ele>210.0</ele><time>2026-04-01T12:40:42.001Z</time></trkpt><trkpt lat="45.936528050762085" lon="8.52156607161469"><ele>210.0</ele><time>2026-04-01T12:40:43.001Z</time></trkpt><trkpt lat="45.93653975458622" lon="8.521406057312495"><ele>210.0</ele><time>2026-04-01T12:40:44.001Z</time></trkpt><trkpt lat="45.93656828974029" lon="8.521251287007813"><ele>210.0</ele><time>2026-04-01T12:40:45.001Z</time></trkpt><trkpt lat="45.93661004210101" lon="8.521100231786962"><ele>208.0</ele><time>2026-04-01T12:40:46.001Z</time></trkpt><trkpt lat="45.93665969914528" lon="8.520954972547457"><ele>206.0</ele><time>2026-04-01T12:40:47.002Z</time></trkpt><trkpt lat="45.936719879482666" lon="8.520813895250265"><ele>204.0</ele><time>2026-04-01T12:40:48.002Z</time></trkpt><trkpt lat="45.936796750478706" lon="8.520687590565176"><ele>202.0</ele><time>2026-04-01T12:40:49.002Z</time></trkpt><trkpt lat="45.936887606054036" lon="8.520569011676514"><ele>204.75</ele><time>2026-04-01T12:40:50.002Z</time></trkpt><trkpt lat="45.9369832556348" lon="8.5204350048481"><ele>207.5</ele><time>2026-04-01T12:40:51.002Z</time></trkpt><trkpt lat="45.9370729275013" lon="8.520285407206742"><ele>210.25</ele><time>2026-04-01T12:40:52.002Z</time></trkpt><trkpt lat="45.93714724315078" lon="8.520117906167167"><ele>213.0</ele><time>2026-04-01T12:40:53.002Z</time></trkpt><trkpt lat="45.937204750956205" lon="8.519936012409596"><ele>213.0</ele><time>2026-04-01T12:40:54.002Z</time></trkpt><trkpt lat="45.93725393061551" lon="8.519753642809365"><ele>213.0</ele><time>2026-04-01T12:40:55.002Z</time></trkpt><trkpt lat="45.937300958516005" lon="8.51957659342709"><ele>213.0</ele><time>2026-04-01T12:40:56.002Z</time></trkpt><trkpt lat="45.93734959736494" lon="8.519401077152144"><ele>213.0</ele><time>2026-04-01T12:40:57.002Z</time></trkpt><trkpt lat="45.93739803938994" lon="8.519226865459698"><ele>210.75</ele><time>2026-04-01T12:40:58.002Z</time></trkpt><trkpt lat="45.93744804621654" lon="8.51905026203015"><ele>208.5</ele><time>2026-04-01T12:40:59.002Z</time></trkpt><trkpt lat="45.937498402685485" lon="8.518869476386"><ele>206.25</ele><time>2026-04-01T12:41:00.002Z</time></trkpt><trkpt lat="45.93750648729224" lon="8.518684937061005"><ele>204.0</ele><time>2026-04-01T12:41:01.002Z</time></trkpt><trkpt lat="45.93759858779666" lon="8.518495563988575"><ele>207.75</ele><time>2026-04-01T12:41:02.002Z</time></trkpt><trkpt lat="45.937647646071376" lon="8.518300524921388"><ele>211.5</ele><time>2026-04-01T12:41:03Z</time></trkpt><trkpt lat="45.93769185261868" lon="8.518106748030082"><ele>215.25</ele><time>2026-04-01T12:41:04Z</time></trkpt><trkpt lat="45.937728056495054" lon="8.517914630347896"><ele>219.0</ele><time>2026-04-01T12:41:05Z</time></trkpt><trkpt lat="45.93775691487405" lon="8.517724417418712"><ele>219.0</ele><time>2026-04-01T12:41:06Z</time></trkpt><trkpt lat="45.93778037989929" lon="8.517535976050032"><ele>219.0</ele><time>2026-04-01T12:41:07Z</time></trkpt><trkpt lat="45.937801332730146" lon="8.517349341852494"><ele>219.0</ele><time>2026-04-01T12:41:08Z</time></trkpt><trkpt lat="45.937824395163375" lon="8.517170304186456"><ele>219.0</ele><time>2026-04-01T12:41:09Z</time></trkpt><trkpt lat="45.937854042452116" lon="8.516990410840746"><ele>218.0</ele><time>2026-04-01T12:41:10Z</time></trkpt><trkpt lat="45.93789369670673" lon="8.516811265375107"><ele>217.0</ele><time>2026-04-01T12:41:11Z</time></trkpt><trkpt lat="45.937943078367155" lon="8.51663608703783"><ele>216.0</ele><time>2026-04-01T12:41:12Z</time></trkpt><trkpt lat="45.93800374997113" lon="8.516465289708803"><ele>215.0</ele><time>2026-04-01T12:41:13Z</time></trkpt><trkpt lat="45.93807626547182" lon="8.51630409972524"><ele>217.25</ele><time>2026-04-01T12:41:14Z</time></trkpt><trkpt lat="45.93815831334945" lon="8.516148987641182"><ele>219.5</ele><time>2026-04-01T12:41:15Z</time></trkpt><trkpt lat="45.93824687300322" lon="8.516000260109447"><ele>221.75</ele><time>2026-04-01T12:41:16Z</time></trkpt><trkpt lat="45.93834501251667" lon="8.515860352662441"><ele>224.0</ele><time>2026-04-01T12:41:17Z</time></trkpt><trkpt lat="45.93845559968505" lon="8.51573718176784"><ele>224.0</ele><time>2026-04-01T12:41:18Z</time></trkpt><trkpt lat="45.93857584145843" lon="8.51562634129205"><ele>224.0</ele><time>2026-04-01T12:41:19Z</time></trkpt><trkpt lat="45.93870301261386" lon="8.515527977891141"><ele>224.0</ele><time>2026-04-01T12:41:20Z</time></trkpt><trkpt lat="45.93883145923094" lon="8.51542682434996"><ele>224.0</ele><time>2026-04-01T12:41:21Z</time></trkpt><trkpt lat="45.93895480591529" lon="8.515319533485687"><ele>220.5</ele><time>2026-04-01T12:41:22Z</time></trkpt><trkpt lat="45.93906919610851" lon="8.515199572759899"><ele>217.0</ele><time>2026-04-01T12:41:23Z</time></trkpt><trkpt lat="45.93917514349409" lon="8.515061012118423"><ele>213.5</ele><time>2026-04-01T12:41:24Z</time></trkpt><trkpt lat="45.939270622306374" lon="8.514908461650307"><ele>210.0</ele><time>2026-04-01T12:41:25Z</time></trkpt><trkpt lat="45.93935383394304" lon="8.514746286915889"><ele>217.0</ele><time>2026-04-01T12:41:26Z</time></trkpt><trkpt lat="45.939428315869044" lon="8.514575362311854"><ele>224.0</ele><time>2026-04-01T12:41:27Z</time></trkpt><trkpt lat="45.93949316496084" lon="8.514396167509387"><ele>231.0</ele><time>2026-04-01T12:41:28Z</time></trkpt><trkpt lat="45.93954734363372" lon="8.514211689391743"><ele>238.0</ele><time>2026-04-01T12:41:29Z</time></trkpt><trkpt lat="45.939597679404315" lon="8.514022422180936"><ele>238.0</ele><time>2026-04-01T12:41:30Z</time></trkpt><trkpt lat="45.93964639823246" lon="8.513828874392363"><ele>238.0</ele><time>2026-04-01T12:41:31Z</time></trkpt><trkpt lat="45.939696437975094" lon="8.513635850837911"><ele>238.0</ele><time>2026-04-01T12:41:32Z</time></trkpt><trkpt lat="45.93974879134265" lon="8.51344673123765"><ele>238.0</ele><time>2026-04-01T12:41:33Z</time></trkpt><trkpt lat="45.939799622943944" lon="8.513258028020203"><ele>236.0</ele><time>2026-04-01T12:41:34Z</time></trkpt><trkpt lat="45.93985115574046" lon="8.513072003105648"><ele>234.0</ele><time>2026-04-01T12:41:35Z</time></trkpt><trkpt lat="45.93990148840947" lon="8.512883919590983"><ele>232.0</ele><time>2026-04-01T12:41:36Z</time></trkpt><trkpt lat="45.93995176357514" lon="8.5126955219498"><ele>230.0</ele><time>2026-04-01T12:41:37Z</time></trkpt><trkpt lat="45.94000398749292" lon="8.512503962185598"><ele>229.0</ele><time>2026-04-01T12:41:38Z</time></trkpt><trkpt lat="45.9400568186629" lon="8.512310803471676"><ele>228.0</ele><time>2026-04-01T12:41:39Z</time></trkpt><trkpt lat="45.940110574480784" lon="8.512114092617153"><ele>227.0</ele><time>2026-04-01T12:41:40Z</time></trkpt><trkpt lat="45.94016419423976" lon="8.511919134765558"><ele>226.0</ele><time>2026-04-01T12:41:41Z</time></trkpt><trkpt lat="45.94021877787683" lon="8.511721248577619"><ele>226.0</ele><time>2026-04-01T12:41:42Z</time></trkpt><trkpt lat="45.94027287429883" lon="8.511523620676016"><ele>226.0</ele><time>2026-04-01T12:41:43Z</time></trkpt><trkpt lat="45.94032133202855" lon="8.511329085675209"><ele>226.0</ele><time>2026-04-01T12:41:44Z</time></trkpt><trkpt lat="45.94036218235196" lon="8.511131460719351"><ele>226.0</ele><time>2026-04-01T12:41:45Z</time></trkpt><trkpt lat="45.9403927938425" lon="8.51092876474274"><ele>222.25</ele><time>2026-04-01T12:41:46Z</time></trkpt><trkpt lat="45.940415931482875" lon="8.510719683672727"><ele>218.5</ele><time>2026-04-01T12:41:47Z</time></trkpt><trkpt lat="45.940435739492266" lon="8.510510007180848"><ele>214.75</ele><time>2026-04-01T12:41:48Z</time></trkpt><trkpt lat="45.94045311315894" lon="8.510299660164696"><ele>211.0</ele><time>2026-04-01T12:41:49Z</time></trkpt><trkpt lat="45.94046915418674" lon="8.510089002162774"><ele>210.25</ele><time>2026-04-01T12:41:50Z</time></trkpt><trkpt lat="45.94048801782023" lon="8.509883102191546"><ele>209.5</ele><time>2026-04-01T12:41:51Z</time></trkpt><trkpt lat="45.940512119748746" lon="8.509676044397356"><ele>208.75</ele><time>2026-04-01T12:41:52Z</time></trkpt><trkpt lat="45.94053993097943" lon="8.509468080031946"><ele>208.0</ele><time>2026-04-01T12:41:53Z</time></trkpt><trkpt lat="45.94056894406431" lon="8.509260701330795"><ele>207.5</ele><time>2026-04-01T12:41:54Z</time></trkpt><trkpt lat="45.94059726500626" lon="8.509056347142117"><ele>207.0</ele><time>2026-04-01T12:41:55Z</time></trkpt><trkpt lat="45.94062586106781" lon="8.508848251387377"><ele>206.5</ele><time>2026-04-01T12:41:56Z</time></trkpt><trkpt lat="45.940655239674534" lon="8.508641029385325"><ele>206.0</ele><time>2026-04-01T12:41:57Z</time></trkpt><trkpt lat="45.94068524707969" lon="8.508431779188367"><ele>205.5</ele><time>2026-04-01T12:41:58Z</time></trkpt><trkpt lat="45.9407168011038" lon="8.508221372725874"><ele>205.0</ele><time>2026-04-01T12:41:59.001Z</time></trkpt><trkpt lat="45.940748970111954" lon="8.508012915222956"><ele>204.5</ele><time>2026-04-01T12:42:00.001Z</time></trkpt><trkpt lat="45.94077745644694" lon="8.507805156857799"><ele>204.0</ele><time>2026-04-01T12:42:01.001Z</time></trkpt><trkpt lat="45.94080717038325" lon="8.507593071725502"><ele>204.0</ele><time>2026-04-01T12:42:02.001Z</time></trkpt><trkpt lat="45.940837799102326" lon="8.507379907183452"><ele>204.0</ele><time>2026-04-01T12:42:03.001Z</time></trkpt><trkpt lat="45.940869538146885" lon="8.50716941829846"><ele>204.0</ele><time>2026-04-01T12:42:04.001Z</time></trkpt><trkpt lat="45.940901105839494" lon="8.506956914249043"><ele>211.0</ele><time>2026-04-01T12:42:05.001Z</time></trkpt><trkpt lat="45.94093503985136" lon="8.506746478131973"><ele>218.0</ele><time>2026-04-01T12:42:06.001Z</time></trkpt><trkpt lat="45.94096957011969" lon="8.506531328062838"><ele>225.0</ele><time>2026-04-01T12:42:07.001Z</time></trkpt><trkpt lat="45.94100272148527" lon="8.506314176305557"><ele>221.33333333333331</ele><time>2026-04-01T12:42:08.001Z</time></trkpt><trkpt lat="45.94104023646214" lon="8.506092587642057"><ele>217.66666666666666</ele><time>2026-04-01T12:42:09.001Z</time></trkpt><trkpt lat="45.94107653575768" lon="8.505876616476902"><ele>214.0</ele><time>2026-04-01T12:42:10.001Z</time></trkpt><trkpt lat="45.941112404886745" lon="8.50565851991708"><ele>214.0</ele><time>2026-04-01T12:42:11.001Z</time></trkpt><trkpt lat="45.94114782558174" lon="8.50544244612786"><ele>214.0</ele><time>2026-04-01T12:42:12.001Z</time></trkpt><trkpt lat="45.941181426675186" lon="8.50523252885501"><ele>214.0</ele><time>2026-04-01T12:42:13.001Z</time></trkpt><trkpt lat="45.94121359220788" lon="8.505027773315081"><ele>212.75</ele><time>2026-04-01T12:42:14.001Z</time></trkpt><trkpt lat="45.94124309794896" lon="8.504825791755287"><ele>211.5</ele><time>2026-04-01T12:42:15.001Z</time></trkpt><trkpt lat="45.941269580099004" lon="8.504624883138236"><ele>210.25</ele><time>2026-04-01T12:42:16.001Z</time></trkpt><trkpt lat="45.94129199254161" lon="8.50442739186417"><ele>209.0</ele><time>2026-04-01T12:42:17.001Z</time></trkpt><trkpt lat="45.941312534856365" lon="8.504226211780884"><ele>209.0</ele><time>2026-04-01T12:42:18.001Z</time></trkpt><trkpt lat="45.94133687318832" lon="8.50402879919304"><ele>209.0</ele><time>2026-04-01T12:42:19.001Z</time></trkpt><trkpt lat="45.94136780629004" lon="8.503836825766657"><ele>209.0</ele><time>2026-04-01T12:42:20.001Z</time></trkpt><trkpt lat="45.941407049455115" lon="8.503643190445654"><ele>209.0</ele><time>2026-04-01T12:42:21.001Z</time></trkpt><trkpt lat="45.9414633044983" lon="8.50345552644983"><ele>208.5</ele><time>2026-04-01T12:42:22.001Z</time></trkpt><trkpt lat="45.941533895380374" lon="8.50327549199658"><ele>208.0</ele><time>2026-04-01T12:42:23.001Z</time></trkpt><trkpt lat="45.94162107303908" lon="8.503101337978936"><ele>207.5</ele><time>2026-04-01T12:42:24.001Z</time></trkpt><trkpt lat="45.94172170880932" lon="8.502944930443865"><ele>207.0</ele><time>2026-04-01T12:42:25.001Z</time></trkpt><trkpt lat="45.94183679335851" lon="8.50280589266146"><ele>207.0</ele><time>2026-04-01T12:42:26.001Z</time></trkpt><trkpt lat="45.9419562368023" lon="8.502669701829715"><ele>207.0</ele><time>2026-04-01T12:42:27.001Z</time></trkpt><trkpt lat="45.94207420495423" lon="8.502525984614245"><ele>207.0</ele><time>2026-04-01T12:42:28.001Z</time></trkpt><trkpt lat="45.94218861709542" lon="8.502372460203953"><ele>207.0</ele><time>2026-04-01T12:42:29.001Z</time></trkpt><trkpt lat="45.94229563509324" lon="8.502209754802218"><ele>207.0</ele><time>2026-04-01T12:42:30.001Z</time></trkpt><trkpt lat="45.94238833779316" lon="8.50203627321463"><ele>207.0</ele><time>2026-04-01T12:42:31.001Z</time></trkpt><trkpt lat="45.94246904997464" lon="8.501856981741156"><ele>207.0</ele><time>2026-04-01T12:42:32.001Z</time></trkpt><trkpt lat="45.94253981495421" lon="8.501675912175479"><ele>207.0</ele><time>2026-04-01T12:42:33.001Z</time></trkpt><trkpt lat="45.942610627232526" lon="8.501496332798105"><ele>207.0</ele><time>2026-04-01T12:42:34.001Z</time></trkpt><trkpt lat="45.94268285454244" lon="8.501311300722305"><ele>207.0</ele><time>2026-04-01T12:42:35.001Z</time></trkpt><trkpt lat="45.942750334973056" lon="8.501125003952058"><ele>207.0</ele><time>2026-04-01T12:42:36.001Z</time></trkpt><trkpt lat="45.942816513874426" lon="8.50094212811542"><ele>207.0</ele><time>2026-04-01T12:42:37.001Z</time></trkpt><trkpt lat="45.942881241395064" lon="8.500764997471148"><ele>207.0</ele><time>2026-04-01T12:42:38.001Z</time></trkpt><trkpt lat="45.94294478859601" lon="8.5005921173099"><ele>207.0</ele><time>2026-04-01T12:42:39.001Z</time></trkpt><trkpt lat="45.94300531631965" lon="8.500423929478305"><ele>205.75</ele><time>2026-04-01T12:42:40.001Z</time></trkpt><trkpt lat="45.94306671330185" lon="8.500256285346726"><ele>204.5</ele><time>2026-04-01T12:42:41.001Z</time></trkpt><trkpt lat="45.94313388250209" lon="8.500095666257698"><ele>203.25</ele><time>2026-04-01T12:42:42.001Z</time></trkpt><trkpt lat="45.94321356704911" lon="8.49994702572901"><ele>202.0</ele><time>2026-04-01T12:42:43.001Z</time></trkpt><trkpt lat="45.943306557665" lon="8.499809497949304"><ele>201.75</ele><time>2026-04-01T12:42:44.001Z</time></trkpt><trkpt lat="45.94341210932719" lon="8.499689587143719"><ele>201.5</ele><time>2026-04-01T12:42:45.001Z</time></trkpt><trkpt lat="45.94352422951351" lon="8.499579827178227"><ele>201.25</ele><time>2026-04-01T12:42:46.001Z</time></trkpt><trkpt lat="45.943638946108635" lon="8.499472215589181"><ele>201.0</ele><time>2026-04-01T12:42:47.002Z</time></trkpt><trkpt lat="45.943754692011844" lon="8.499367012243363"><ele>201.0</ele><time>2026-04-01T12:42:48.002Z</time></trkpt><trkpt lat="45.94387064813445" lon="8.499260780665558"><ele>201.0</ele><time>2026-04-01T12:42:49.002Z</time></trkpt><trkpt lat="45.943982012662126" lon="8.499157657006286"><ele>201.0</ele><time>2026-04-01T12:42:50.002Z</time></trkpt><trkpt lat="45.94408603030382" lon="8.4990545226632"><ele>201.0</ele><time>2026-04-01T12:42:51.002Z</time></trkpt><trkpt lat="45.944181941697906" lon="8.498947449456063"><ele>203.0</ele><time>2026-04-01T12:42:52.002Z</time></trkpt><trkpt lat="45.944271847550674" lon="8.498829195209124"><ele>205.0</ele><time>2026-04-01T12:42:53.002Z</time></trkpt><trkpt lat="45.94435150617851" lon="8.498704088490015"><ele>207.0</ele><time>2026-04-01T12:42:54.002Z</time></trkpt><trkpt lat="45.944423034511225" lon="8.498574776941009"><ele>209.0</ele><time>2026-04-01T12:42:55.002Z</time></trkpt><trkpt lat="45.94448714056186" lon="8.498438536333326"><ele>209.0</ele><time>2026-04-01T12:42:56.002Z</time></trkpt><trkpt lat="45.944545363839424" lon="8.49829715027594"><ele>209.0</ele><time>2026-04-01T12:42:57.002Z</time></trkpt><trkpt lat="45.944603132559855" lon="8.498154671193467"><ele>209.0</ele><time>2026-04-01T12:42:58.002Z</time></trkpt><trkpt lat="45.94465890781747" lon="8.49801230160604"><ele>209.0</ele><time>2026-04-01T12:42:59.002Z</time></trkpt><trkpt lat="45.94471532197296" lon="8.497868681870923"><ele>208.2</ele><time>2026-04-01T12:43:00.002Z</time></trkpt><trkpt lat="45.94477174436268" lon="8.497725121739812"><ele>207.39999999999998</ele><time>2026-04-01T12:43:01.002Z</time></trkpt><trkpt lat="45.94482660621651" lon="8.49758365193667"><ele>206.6</ele><time>2026-04-01T12:43:02.002Z</time></trkpt><trkpt lat="45.94487794101979" lon="8.497451700837988"><ele>205.8</ele><time>2026-04-01T12:43:03.002Z</time></trkpt><trkpt lat="45.94492171287217" lon="8.497338244811234"><ele>205.0</ele><time>2026-04-01T12:43:04.002Z</time></trkpt><trkpt lat="45.94496563811849" lon="8.497227210049337"><ele>204.99999999999997</ele><time>2026-04-01T12:43:05.002Z</time></trkpt><trkpt lat="45.94500803995587" lon="8.497119000874296"><ele>205.0</ele><time>2026-04-01T12:43:06.002Z</time></trkpt><trkpt lat="45.94505038001377" lon="8.497010696665242"><ele>205.0</ele><time>2026-04-01T12:43:07.002Z</time></trkpt><trkpt lat="45.945092291160336" lon="8.496900501739935"><ele>205.0</ele><time>2026-04-01T12:43:08.002Z</time></trkpt><trkpt lat="45.9451355274066" lon="8.496786373350147"><ele>204.99999999999997</ele><time>2026-04-01T12:43:09Z</time></trkpt><trkpt lat="45.94518102256758" lon="8.496669153260717"><ele>205.0</ele><time>2026-04-01T12:43:10Z</time></trkpt><trkpt lat="45.945228459743085" lon="8.49654745684573"><ele>204.6</ele><time>2026-04-01T12:43:11Z</time></trkpt><trkpt lat="45.94527742347635" lon="8.496425882082466"><ele>204.2</ele><time>2026-04-01T12:43:12Z</time></trkpt><trkpt lat="45.94532773487702" lon="8.49630300509703"><ele>203.8</ele><time>2026-04-01T12:43:13Z</time></trkpt><trkpt lat="45.94537832184032" lon="8.49617879215324"><ele>203.4</ele><time>2026-04-01T12:43:14Z</time></trkpt><trkpt lat="45.94542855592882" lon="8.496050119783582"><ele>203.0</ele><time>2026-04-01T12:43:15Z</time></trkpt><trkpt lat="45.94548063778151" lon="8.495915711065445"><ele>203.0</ele><time>2026-04-01T12:43:16Z</time></trkpt><trkpt lat="45.94553362252407" lon="8.495777036270086"><ele>203.0</ele><time>2026-04-01T12:43:17Z</time></trkpt><trkpt lat="45.945586304152066" lon="8.495632756138528"><ele>203.0</ele><time>2026-04-01T12:43:18Z</time></trkpt><trkpt lat="45.94563651205883" lon="8.495480199511235"><ele>203.0</ele><time>2026-04-01T12:43:19Z</time></trkpt><trkpt lat="45.94567821148208" lon="8.495321748426207"><ele>202.8</ele><time>2026-04-01T12:43:20Z</time></trkpt><trkpt lat="45.945708258607404" lon="8.49516147054303"><ele>202.60000000000002</ele><time>2026-04-01T12:43:21Z</time></trkpt><trkpt lat="45.945731405792095" lon="8.495002529410518"><ele>202.39999999999998</ele><time>2026-04-01T12:43:22Z</time></trkpt><trkpt lat="45.945749514404866" lon="8.494845848273016"><ele>202.2</ele><time>2026-04-01T12:43:23Z</time></trkpt><trkpt lat="45.9457637813833" lon="8.494690941754158"><ele>202.0</ele><time>2026-04-01T12:43:24Z</time></trkpt><trkpt lat="45.94577499461883" lon="8.494533446324732"><ele>202.0</ele><time>2026-04-01T12:43:25Z</time></trkpt><trkpt lat="45.9457869272905" lon="8.494375591655546"><ele>202.0</ele><time>2026-04-01T12:43:26Z</time></trkpt><trkpt lat="45.94579862673079" lon="8.494216251133953"><ele>202.0</ele><time>2026-04-01T12:43:27Z</time></trkpt><trkpt lat="45.94580820694352" lon="8.494056322141287"><ele>202.0</ele><time>2026-04-01T12:43:28Z</time></trkpt><trkpt lat="45.94581693005692" lon="8.493894679213291"><ele>202.0</ele><time>2026-04-01T12:43:29Z</time></trkpt><trkpt lat="45.945822838054276" lon="8.493733068215935"><ele>202.0</ele><time>2026-04-01T12:43:30Z</time></trkpt><trkpt lat="45.94582552410427" lon="8.493569157227157"><ele>202.0</ele><time>2026-04-01T12:43:31Z</time></trkpt><trkpt lat="45.94582430420279" lon="8.493403563017152"><ele>202.0</ele><time>2026-04-01T12:43:32Z</time></trkpt><trkpt lat="45.9458220600058" lon="8.493237063463182"><ele>202.0</ele><time>2026-04-01T12:43:33Z</time></trkpt><trkpt lat="45.94582088457123" lon="8.493069239610936"><ele>201.75</ele><time>2026-04-01T12:43:34Z</time></trkpt><trkpt lat="45.94581660597554" lon="8.492900026209826"><ele>201.5</ele><time>2026-04-01T12:43:35Z</time></trkpt><trkpt lat="45.945811469056004" lon="8.492731564147999"><ele>201.25</ele><time>2026-04-01T12:43:36Z</time></trkpt><trkpt lat="45.94580644637511" lon="8.492569374356576"><ele>201.0</ele><time>2026-04-01T12:43:37Z</time></trkpt><trkpt lat="45.94580003058441" lon="8.492410911526743"><ele>201.0</ele><time>2026-04-01T12:43:38Z</time></trkpt><trkpt lat="45.945793644055904" lon="8.492251774986972"><ele>201.0</ele><time>2026-04-01T12:43:39Z</time></trkpt><trkpt lat="45.945787947041666" lon="8.492096407649882"><ele>201.0</ele><time>2026-04-01T12:43:40Z</time></trkpt><trkpt lat="45.94578314193856" lon="8.491941951853274"><ele>201.0</ele><time>2026-04-01T12:43:41Z</time></trkpt><trkpt lat="45.94578068957812" lon="8.491785661842693"><ele>201.0</ele><time>2026-04-01T12:43:42Z</time></trkpt><trkpt lat="45.9457795648567" lon="8.49162984850619"><ele>201.20000000000002</ele><time>2026-04-01T12:43:43Z</time></trkpt><trkpt lat="45.94578130032566" lon="8.491472067267573"><ele>201.4</ele><time>2026-04-01T12:43:44Z</time></trkpt><trkpt lat="45.94578703711518" lon="8.491315184438225"><ele>201.6</ele><time>2026-04-01T12:43:45Z</time></trkpt><trkpt lat="45.945797679718076" lon="8.49115728963303"><ele>201.8</ele><time>2026-04-01T12:43:46Z</time></trkpt><trkpt lat="45.94581196103761" lon="8.491000623284961"><ele>202.0</ele><time>2026-04-01T12:43:47Z</time></trkpt><trkpt lat="45.94582493162568" lon="8.490843867521615"><ele>201.6</ele><time>2026-04-01T12:43:48Z</time></trkpt><trkpt lat="45.94583651341639" lon="8.490686797768012"><ele>201.2</ele><time>2026-04-01T12:43:49Z</time></trkpt><trkpt lat="45.94584772637811" lon="8.49053401070227"><ele>200.8</ele><time>2026-04-01T12:43:50Z</time></trkpt><trkpt lat="45.94586070008306" lon="8.490395995118323"><ele>200.4</ele><time>2026-04-01T12:43:51Z</time></trkpt><trkpt lat="45.945871124078074" lon="8.49026734272615"><ele>200.0</ele><time>2026-04-01T12:43:52Z</time></trkpt><trkpt lat="45.94587950651581" lon="8.490140471263874"><ele>200.00000000000003</ele><time>2026-04-01T12:43:53Z</time></trkpt><trkpt lat="45.94588616592957" lon="8.490016571584356"><ele>200.0</ele><time>2026-04-01T12:43:54Z</time></trkpt><trkpt lat="45.94588570544891" lon="8.489895261103387"><ele>200.0</ele><time>2026-04-01T12:43:55Z</time></trkpt><trkpt lat="45.945873419480456" lon="8.48977715721809"><ele>200.0</ele><time>2026-04-01T12:43:56Z</time></trkpt><trkpt lat="45.94585692097051" lon="8.48966005922759"><ele>200.00000000000003</ele><time>2026-04-01T12:43:57Z</time></trkpt><trkpt lat="45.94584073200544" lon="8.489548635926571"><ele>200.0</ele><time>2026-04-01T12:43:58Z</time></trkpt><trkpt lat="45.94582812531816" lon="8.489459610013439"><ele>199.83333333333334</ele><time>2026-04-01T12:43:59Z</time></trkpt><trkpt lat="45.94581795901485" lon="8.489311631036804"><ele>199.66666666666669</ele><time>2026-04-01T12:44:01.001Z</time></trkpt><trkpt lat="45.94584609377267" lon="8.48915923567596"><ele>199.5</ele><time>2026-04-01T12:44:03.001Z</time></trkpt><trkpt lat="45.945885616230086" lon="8.489085337921205"><ele>199.33333333333331</ele><time>2026-04-01T12:44:04.001Z</time></trkpt><trkpt lat="45.945931956620676" lon="8.48900045381389"><ele>199.16666666666666</ele><time>2026-04-01T12:44:05.001Z</time></trkpt><trkpt lat="45.94596765707006" lon="8.488901939387212"><ele>199.0</ele><time>2026-04-01T12:44:06.001Z</time></trkpt><trkpt lat="45.94597728951418" lon="8.488789929726627"><ele>198.83333333333331</ele><time>2026-04-01T12:44:07.001Z</time></trkpt><trkpt lat="45.94595950336456" lon="8.488679516571906"><ele>198.66666666666666</ele><time>2026-04-01T12:44:08.001Z</time></trkpt><trkpt lat="45.94591333188333" lon="8.488575056906436"><ele>198.5</ele><time>2026-04-01T12:44:09.001Z</time></trkpt><trkpt lat="45.94584618009357" lon="8.488486438654894"><ele>198.33333333333331</ele><time>2026-04-01T12:44:10.001Z</time></trkpt><trkpt lat="45.94577700009693" lon="8.488398871873576"><ele>198.16666666666666</ele><time>2026-04-01T12:44:11.001Z</time></trkpt><trkpt lat="45.94571418586137" lon="8.48829434864294"><ele>198.0</ele><time>2026-04-01T12:44:12.001Z</time></trkpt><trkpt lat="45.945666469147504" lon="8.488168908278192"><ele>198.0</ele><time>2026-04-01T12:44:13.001Z</time></trkpt><trkpt lat="45.945632802353025" lon="8.488027083646028"><ele>198.0</ele><time>2026-04-01T12:44:14.001Z</time></trkpt><trkpt lat="45.94560114252591" lon="8.487876403316191"><ele>198.0</ele><time>2026-04-01T12:44:15.001Z</time></trkpt><trkpt lat="45.94556949437875" lon="8.487717877095612"><ele>198.0</ele><time>2026-04-01T12:44:16.001Z</time></trkpt><trkpt lat="45.94553764946685" lon="8.487548351962994"><ele>197.75</ele><time>2026-04-01T12:44:17.001Z</time></trkpt><trkpt lat="45.94550433847369" lon="8.487358605586312"><ele>197.5</ele><time>2026-04-01T12:44:18.001Z</time></trkpt><trkpt lat="45.94546683951859" lon="8.487142208719188"><ele>197.25</ele><time>2026-04-01T12:44:19.001Z</time></trkpt><trkpt lat="45.94542644364988" lon="8.486925682094574"><ele>197.0</ele><time>2026-04-01T12:44:20.001Z</time></trkpt><trkpt lat="45.94538663025583" lon="8.48671281579398"><ele>197.0</ele><time>2026-04-01T12:44:21.001Z</time></trkpt><trkpt lat="45.945349451325534" lon="8.486503665322557"><ele>197.0</ele><time>2026-04-01T12:44:22.001Z</time></trkpt><trkpt lat="45.94531439109935" lon="8.486297973532086"><ele>197.0</ele><time>2026-04-01T12:44:23.001Z</time></trkpt><trkpt lat="45.9452810490437" lon="8.48609666334803"><ele>197.0</ele><time>2026-04-01T12:44:24.001Z</time></trkpt><trkpt lat="45.94524790879399" lon="8.485899942192589"><ele>197.0</ele><time>2026-04-01T12:44:25.001Z</time></trkpt><trkpt lat="45.94521621266462" lon="8.485708990131627"><ele>197.0</ele><time>2026-04-01T12:44:26.001Z</time></trkpt><trkpt lat="45.94518529415405" lon="8.485522062929098"><ele>197.0</ele><time>2026-04-01T12:44:27.001Z</time></trkpt><trkpt lat="45.945154601174345" lon="8.485339395670735"><ele>197.0</ele><time>2026-04-01T12:44:28.001Z</time></trkpt><trkpt lat="45.94512356388882" lon="8.485155544153356"><ele>197.0</ele><time>2026-04-01T12:44:29.001Z</time></trkpt><trkpt lat="45.945092760064135" lon="8.484968754756508"><ele>197.0</ele><time>2026-04-01T12:44:30.001Z</time></trkpt><trkpt lat="45.945061633125036" lon="8.484779218384606"><ele>197.0</ele><time>2026-04-01T12:44:31.001Z</time></trkpt><trkpt lat="45.94502960253248" lon="8.484586348840185"><ele>197.0</ele><time>2026-04-01T12:44:32.001Z</time></trkpt><trkpt lat="45.9449967839014" lon="8.48439080148463"><ele>196.75</ele><time>2026-04-01T12:44:33.001Z</time></trkpt><trkpt lat="45.94496275743727" lon="8.484192765470384"><ele>196.5</ele><time>2026-04-01T12:44:34.001Z</time></trkpt><trkpt lat="45.94492784630161" lon="8.483992436313192"><ele>196.25</ele><time>2026-04-01T12:44:35.001Z</time></trkpt><trkpt lat="45.94489284244818" lon="8.483787728332548"><ele>196.0</ele><time>2026-04-01T12:44:36.001Z</time></trkpt><trkpt lat="45.94486006963922" lon="8.4835861841008"><ele>196.0</ele><time>2026-04-01T12:44:37.001Z</time></trkpt><trkpt lat="45.9448281109709" lon="8.483388401570458"><ele>196.0</ele><time>2026-04-01T12:44:38.001Z</time></trkpt><trkpt lat="45.94479690376874" lon="8.483194614053971"><ele>196.0</ele><time>2026-04-01T12:44:39.001Z</time></trkpt><trkpt lat="45.944765670747785" lon="8.482997865269775"><ele>196.0</ele><time>2026-04-01T12:44:40.001Z</time></trkpt><trkpt lat="45.9447332472106" lon="8.48279947221054"><ele>196.0</ele><time>2026-04-01T12:44:41.001Z</time></trkpt><trkpt lat="45.944698769106644" lon="8.482599472585893"><ele>196.0</ele><time>2026-04-01T12:44:42.001Z</time></trkpt><trkpt lat="45.944663853177794" lon="8.482398999933586"><ele>196.0</ele><time>2026-04-01T12:44:43.001Z</time></trkpt><trkpt lat="45.94463040445765" lon="8.482195564118724"><ele>196.0</ele><time>2026-04-01T12:44:44.001Z</time></trkpt><trkpt lat="45.94459719529843" lon="8.481991978976739"><ele>196.0</ele><time>2026-04-01T12:44:45.001Z</time></trkpt><trkpt lat="45.94456371954192" lon="8.481786671159652"><ele>196.0</ele><time>2026-04-01T12:44:46.001Z</time></trkpt><trkpt lat="45.94452926323612" lon="8.481579800510536"><ele>196.0</ele><time>2026-04-01T12:44:47.001Z</time></trkpt><trkpt lat="45.944494802747364" lon="8.48137254148007"><ele>196.0</ele><time>2026-04-01T12:44:48.001Z</time></trkpt><trkpt lat="45.944459132828634" lon="8.481162924651652"><ele>196.25</ele><time>2026-04-01T12:44:49.002Z</time></trkpt><trkpt lat="45.944424600140806" lon="8.480954634743364"><ele>196.5</ele><time>2026-04-01T12:44:50.002Z</time></trkpt><trkpt lat="45.94439172106795" lon="8.480752429791163"><ele>196.75</ele><time>2026-04-01T12:44:51.002Z</time></trkpt><trkpt lat="45.944358591135526" lon="8.480554171690544"><ele>197.0</ele><time>2026-04-01T12:44:52.002Z</time></trkpt><trkpt lat="45.94432419168058" lon="8.480353320701127"><ele>197.0</ele><time>2026-04-01T12:44:53.002Z</time></trkpt><trkpt lat="45.94428982943751" lon="8.480149989755956"><ele>197.0</ele><time>2026-04-01T12:44:54.002Z</time></trkpt><trkpt lat="45.94425627610329" lon="8.47995279926089"><ele>197.0</ele><time>2026-04-01T12:44:55.002Z</time></trkpt><trkpt lat="45.94422371574555" lon="8.479759477937284"><ele>197.0</ele><time>2026-04-01T12:44:56.002Z</time></trkpt><trkpt lat="45.94419191136164" lon="8.479570599000054"><ele>197.0</ele><time>2026-04-01T12:44:57.002Z</time></trkpt><trkpt lat="45.94416119337729" lon="8.479386345156747"><ele>197.0</ele><time>2026-04-01T12:44:58.002Z</time></trkpt><trkpt lat="45.94413092205066" lon="8.479207293217955"><ele>197.0</ele><time>2026-04-01T12:44:59.002Z</time></trkpt><trkpt lat="45.94410080062426" lon="8.479029728796876"><ele>197.0</ele><time>2026-04-01T12:45:00.002Z</time></trkpt><trkpt lat="45.94407013330848" lon="8.478849012384634"><ele>197.25</ele><time>2026-04-01T12:45:01.002Z</time></trkpt><trkpt lat="45.944039563558164" lon="8.47866487395805"><ele>197.5</ele><time>2026-04-01T12:45:02.002Z</time></trkpt><trkpt lat="45.94400830813173" lon="8.478478607587434"><ele>197.75</ele><time>2026-04-01T12:45:03.002Z</time></trkpt><trkpt lat="45.94397624732284" lon="8.47828880053412"><ele>198.0</ele><time>2026-04-01T12:45:04.002Z</time></trkpt><trkpt lat="45.94394366241607" lon="8.478095892667115"><ele>197.5</ele><time>2026-04-01T12:45:05.002Z</time></trkpt><trkpt lat="45.94391089722963" lon="8.477899966654094"><ele>197.0</ele><time>2026-04-01T12:45:06.002Z</time></trkpt><trkpt lat="45.94387799228867" lon="8.47770106373764"><ele>196.5</ele><time>2026-04-01T12:45:07.002Z</time></trkpt><trkpt lat="45.94384436802268" lon="8.477501516325765"><ele>196.0</ele><time>2026-04-01T12:45:08.002Z</time></trkpt><trkpt lat="45.94381077165078" lon="8.477305851523443"><ele>196.0</ele><time>2026-04-01T12:45:09.002Z</time></trkpt><trkpt lat="45.94377730747455" lon="8.477110773197118"><ele>196.0</ele><time>2026-04-01T12:45:10.002Z</time></trkpt><trkpt lat="45.94374516911968" lon="8.476916258487183"><ele>196.0</ele><time>2026-04-01T12:45:11.002Z</time></trkpt><trkpt lat="45.94371389923586" lon="8.476722795491527"><ele>196.0</ele><time>2026-04-01T12:45:12.002Z</time></trkpt><trkpt lat="45.943681990447494" lon="8.476530394812448"><ele>195.75</ele><time>2026-04-01T12:45:13.002Z</time></trkpt><trkpt lat="45.94365019560765" lon="8.476344035215751"><ele>195.5</ele><time>2026-04-01T12:45:14.002Z</time></trkpt><trkpt lat="45.943619098838205" lon="8.476163211257335"><ele>195.25</ele><time>2026-04-01T12:45:15Z</time></trkpt><trkpt lat="45.943588769055616" lon="8.47598567640216"><ele>195.0</ele><time>2026-04-01T12:45:16Z</time></trkpt><trkpt lat="45.94355840791863" lon="8.475807056281662"><ele>195.25</ele><time>2026-04-01T12:45:17Z</time></trkpt><trkpt lat="45.94352763053539" lon="8.475623590934186"><ele>195.5</ele><time>2026-04-01T12:45:18Z</time></trkpt><trkpt lat="45.943496392676266" lon="8.475437511850801"><ele>195.75</ele><time>2026-04-01T12:45:19Z</time></trkpt><trkpt lat="45.943464815248305" lon="8.475249161353807"><ele>196.0</ele><time>2026-04-01T12:45:20Z</time></trkpt><trkpt lat="45.94343415996233" lon="8.475064914576409"><ele>196.0</ele><time>2026-04-01T12:45:21Z</time></trkpt><trkpt lat="45.943404249963926" lon="8.474883984665889"><ele>196.0</ele><time>2026-04-01T12:45:22Z</time></trkpt><trkpt lat="45.943375359788575" lon="8.474713015570849"><ele>196.0</ele><time>2026-04-01T12:45:23Z</time></trkpt><trkpt lat="45.94334958920152" lon="8.474561064664986"><ele>196.0</ele><time>2026-04-01T12:45:24Z</time></trkpt><trkpt lat="45.943326353601485" lon="8.474428631804228"><ele>196.16666666666666</ele><time>2026-04-01T12:45:25Z</time></trkpt><trkpt lat="45.94330424291721" lon="8.474304707266668"><ele>196.33333333333331</ele><time>2026-04-01T12:45:26Z</time></trkpt><trkpt lat="45.943283000513006" lon="8.474183697955079"><ele>196.5</ele><time>2026-04-01T12:45:27Z</time></trkpt><trkpt lat="45.94326429310773" lon="8.474074909863836"><ele>196.66666666666669</ele><time>2026-04-01T12:45:28Z</time></trkpt><trkpt lat="45.94324714896362" lon="8.473972207341847"><ele>196.83333333333334</ele><time>2026-04-01T12:45:29Z</time></trkpt><trkpt lat="45.94322976008057" lon="8.473871453829132"><ele>197.0</ele><time>2026-04-01T12:45:30Z</time></trkpt><trkpt lat="45.94321293559597" lon="8.4737755956742"><ele>197.39999999999998</ele><time>2026-04-01T12:45:31Z</time></trkpt><trkpt lat="45.94319922842199" lon="8.473682604737789"><ele>197.79999999999998</ele><time>2026-04-01T12:45:32Z</time></trkpt><trkpt lat="45.94320282326755" lon="8.473507856523367"><ele>198.2</ele><time>2026-04-01T12:45:34Z</time></trkpt><trkpt lat="45.943188930638584" lon="8.473329901087956"><ele>198.6</ele><time>2026-04-01T12:45:36Z</time></trkpt><trkpt lat="45.9431570397221" lon="8.473246040529192"><ele>199.0</ele><time>2026-04-01T12:45:37Z</time></trkpt><trkpt lat="45.94312199696641" lon="8.473154275767918"><ele>198.99999999999997</ele><time>2026-04-01T12:45:38Z</time></trkpt><trkpt lat="45.94309387340754" lon="8.473052136066745"><ele>199.0</ele><time>2026-04-01T12:45:39Z</time></trkpt><trkpt lat="45.943072901411895" lon="8.472939933436663"><ele>199.0</ele><time>2026-04-01T12:45:40Z</time></trkpt><trkpt lat="45.94305219639591" lon="8.47281802975877"><ele>199.0</ele><time>2026-04-01T12:45:41Z</time></trkpt><trkpt lat="45.94303155812389" lon="8.472688310183475"><ele>198.99999999999997</ele><time>2026-04-01T12:45:42Z</time></trkpt><trkpt lat="45.94300791582478" lon="8.47254779436117"><ele>199.0</ele><time>2026-04-01T12:45:43Z</time></trkpt><trkpt lat="45.94298269214124" lon="8.472401225231167"><ele>199.5</ele><time>2026-04-01T12:45:44Z</time></trkpt><trkpt lat="45.94295666690121" lon="8.472250251643228"><ele>200.0</ele><time>2026-04-01T12:45:45Z</time></trkpt><trkpt lat="45.94292930062441" lon="8.4720905562981"><ele>200.5</ele><time>2026-04-01T12:45:46Z</time></trkpt><trkpt lat="45.94290123668622" lon="8.471918287240404"><ele>201.0</ele><time>2026-04-01T12:45:47Z</time></trkpt><trkpt lat="45.9428722812478" lon="8.471742331422682"><ele>201.0</ele><time>2026-04-01T12:45:48Z</time></trkpt><trkpt lat="45.94284781672518" lon="8.471564095284629"><ele>201.0</ele><time>2026-04-01T12:45:49Z</time></trkpt><trkpt lat="45.94281675621096" lon="8.471385426271908"><ele>201.0</ele><time>2026-04-01T12:45:50Z</time></trkpt><trkpt lat="45.94278665365819" lon="8.471208115114992"><ele>201.0</ele><time>2026-04-01T12:45:51Z</time></trkpt><trkpt lat="45.94275938410599" lon="8.471029211882067"><ele>201.0</ele><time>2026-04-01T12:45:52Z</time></trkpt><trkpt lat="45.942727093480364" lon="8.470851090617503"><ele>201.0</ele><time>2026-04-01T12:45:53Z</time></trkpt><trkpt lat="45.94269156026561" lon="8.470673026645828"><ele>201.0</ele><time>2026-04-01T12:45:54Z</time></trkpt><trkpt lat="45.94265318185745" lon="8.47049651698969"><ele>201.0</ele><time>2026-04-01T12:45:55Z</time></trkpt><trkpt lat="45.942608113974856" lon="8.470324625910155"><ele>201.0</ele><time>2026-04-01T12:45:56Z</time></trkpt><trkpt lat="45.94255504941118" lon="8.470156028072132"><ele>201.0</ele><time>2026-04-01T12:45:57Z</time></trkpt><trkpt lat="45.94249264200333" lon="8.469992560749589"><ele>201.0</ele><time>2026-04-01T12:45:58Z</time></trkpt><trkpt lat="45.94242807328983" lon="8.469832742580413"><ele>201.0</ele><time>2026-04-01T12:45:59Z</time></trkpt><trkpt lat="45.94236199943225" lon="8.469675274223064"><ele>202.0</ele><time>2026-04-01T12:46:00Z</time></trkpt><trkpt lat="45.9422944880233" lon="8.469520951452257"><ele>203.0</ele><time>2026-04-01T12:46:01Z</time></trkpt><trkpt lat="45.942222757884025" lon="8.469367019431136"><ele>204.0</ele><time>2026-04-01T12:46:02Z</time></trkpt><trkpt lat="45.94215203104796" lon="8.469215131022832"><ele>205.0</ele><time>2026-04-01T12:46:03Z</time></trkpt><trkpt lat="45.94207994871452" lon="8.469064421201704"><ele>205.0</ele><time>2026-04-01T12:46:04Z</time></trkpt><trkpt lat="45.942009749264756" lon="8.468913539270261"><ele>205.0</ele><time>2026-04-01T12:46:05Z</time></trkpt><trkpt lat="45.94194088562323" lon="8.468766087148351"><ele>205.0</ele><time>2026-04-01T12:46:06Z</time></trkpt><trkpt lat="45.941871283943655" lon="8.468618603261758"><ele>205.0</ele><time>2026-04-01T12:46:07.001Z</time></trkpt><trkpt lat="45.94180233189294" lon="8.46847002814354"><ele>204.5</ele><time>2026-04-01T12:46:08.001Z</time></trkpt><trkpt lat="45.94173319228566" lon="8.46831551328668"><ele>204.0</ele><time>2026-04-01T12:46:09.001Z</time></trkpt><trkpt lat="45.94166121654216" lon="8.468159172390138"><ele>203.5</ele><time>2026-04-01T12:46:10.001Z</time></trkpt><trkpt lat="45.941589698729025" lon="8.46799769771321"><ele>203.0</ele><time>2026-04-01T12:46:11.001Z</time></trkpt><trkpt lat="45.941516451547066" lon="8.467835025547858"><ele>203.0</ele><time>2026-04-01T12:46:12.001Z</time></trkpt><trkpt lat="45.94144316083732" lon="8.467670737854498"><ele>203.0</ele><time>2026-04-01T12:46:13.001Z</time></trkpt><trkpt lat="45.94136822889059" lon="8.467505471244731"><ele>203.0</ele><time>2026-04-01T12:46:14.001Z</time></trkpt><trkpt lat="45.941292945296304" lon="8.467339642461774"><ele>203.0</ele><time>2026-04-01T12:46:15.001Z</time></trkpt><trkpt lat="45.94121977604074" lon="8.467171066448696"><ele>208.25</ele><time>2026-04-01T12:46:16.001Z</time></trkpt><trkpt lat="45.94114758591954" lon="8.466998900761498"><ele>213.5</ele><time>2026-04-01T12:46:17.001Z</time></trkpt><trkpt lat="45.94107834161936" lon="8.466823622078469"><ele>218.75</ele><time>2026-04-01T12:46:18.001Z</time></trkpt><trkpt lat="45.9410095389715" lon="8.466645674358885"><ele>224.0</ele><time>2026-04-01T12:46:19.001Z</time></trkpt><trkpt lat="45.94094411781803" lon="8.466464731443985"><ele>219.25</ele><time>2026-04-01T12:46:20.001Z</time></trkpt><trkpt lat="45.94087905532198" lon="8.466282636636025"><ele>214.5</ele><time>2026-04-01T12:46:21.001Z</time></trkpt><trkpt lat="45.940814763818985" lon="8.466099070657444"><ele>209.75</ele><time>2026-04-01T12:46:22.001Z</time></trkpt><trkpt lat="45.94074987685459" lon="8.465914921430564"><ele>205.0</ele><time>2026-04-01T12:46:23.001Z</time></trkpt><trkpt lat="45.940684638709094" lon="8.465729293019193"><ele>205.0</ele><time>2026-04-01T12:46:24.001Z</time></trkpt><trkpt lat="45.940617786106294" lon="8.465542903164264"><ele>205.0</ele><time>2026-04-01T12:46:25.001Z</time></trkpt><trkpt lat="45.9405495963539" lon="8.465355657647475"><ele>205.0</ele><time>2026-04-01T12:46:26.001Z</time></trkpt><trkpt lat="45.9404817367583" lon="8.465166862182029"><ele>205.0</ele><time>2026-04-01T12:46:27.001Z</time></trkpt><trkpt lat="45.940414276886436" lon="8.464975718459625"><ele>206.33333333333331</ele><time>2026-04-01T12:46:28.001Z</time></trkpt><trkpt lat="45.94034531482143" lon="8.46478301262845"><ele>207.66666666666669</ele><time>2026-04-01T12:46:29.001Z</time></trkpt><trkpt lat="45.94027594504839" lon="8.464585374457226"><ele>209.0</ele><time>2026-04-01T12:46:30.001Z</time></trkpt><trkpt lat="45.94020498383827" lon="8.464383258854543"><ele>209.0</ele><time>2026-04-01T12:46:31.001Z</time></trkpt><trkpt lat="45.940132093334746" lon="8.464179948161787"><ele>209.0</ele><time>2026-04-01T12:46:32.001Z</time></trkpt><trkpt lat="45.94005848903606" lon="8.463975320441333"><ele>209.0</ele><time>2026-04-01T12:46:33.001Z</time></trkpt><trkpt lat="45.93998487450148" lon="8.463769478086709"><ele>207.33333333333334</ele><time>2026-04-01T12:46:34.001Z</time></trkpt><trkpt lat="45.93991040732963" lon="8.46356203818748"><ele>205.66666666666669</ele><time>2026-04-01T12:46:35.001Z</time></trkpt><trkpt lat="45.93983523485833" lon="8.463351461367532"><ele>204.0</ele><time>2026-04-01T12:46:36.001Z</time></trkpt><trkpt lat="45.93975916971186" lon="8.46313876921824"><ele>204.0</ele><time>2026-04-01T12:46:37.001Z</time></trkpt><trkpt lat="45.939681965733186" lon="8.462925958879099"><ele>204.0</ele><time>2026-04-01T12:46:38.001Z</time></trkpt><trkpt lat="45.939606071453966" lon="8.462713582469442"><ele>204.0</ele><time>2026-04-01T12:46:39.001Z</time></trkpt><trkpt lat="45.93953103106989" lon="8.462502242370801"><ele>204.0</ele><time>2026-04-01T12:46:40.001Z</time></trkpt><trkpt lat="45.939456687790226" lon="8.462292352432064"><ele>204.0</ele><time>2026-04-01T12:46:41.001Z</time></trkpt><trkpt lat="45.939382997918834" lon="8.46208355419508"><ele>204.0</ele><time>2026-04-01T12:46:42.001Z</time></trkpt><trkpt lat="45.93930970891109" lon="8.46187626148127"><ele>203.66666666666669</ele><time>2026-04-01T12:46:43.001Z</time></trkpt><trkpt lat="45.93923528602784" lon="8.461668966672269"><ele>203.33333333333334</ele><time>2026-04-01T12:46:44.001Z</time></trkpt><trkpt lat="45.9391627657455" lon="8.461462973890523"><ele>203.0</ele><time>2026-04-01T12:46:45.001Z</time></trkpt><trkpt lat="45.93908965617508" lon="8.461257309297713"><ele>203.0</ele><time>2026-04-01T12:46:46.001Z</time></trkpt><trkpt lat="45.93901727282245" lon="8.461053217689225"><ele>203.0</ele><time>2026-04-01T12:46:47.001Z</time></trkpt><trkpt lat="45.93894486693211" lon="8.46084878605711"><ele>203.0</ele><time>2026-04-01T12:46:48.001Z</time></trkpt><trkpt lat="45.93887216255242" lon="8.46064714584746"><ele>203.0</ele><time>2026-04-01T12:46:49.001Z</time></trkpt><trkpt lat="45.938799630699314" lon="8.46044564863397"><ele>203.0</ele><time>2026-04-01T12:46:50.001Z</time></trkpt><trkpt lat="45.93872873184203" lon="8.460244136868528"><ele>203.0</ele><time>2026-04-01T12:46:51.001Z</time></trkpt><trkpt lat="45.93865749065319" lon="8.460043383948312"><ele>203.0</ele><time>2026-04-01T12:46:52.001Z</time></trkpt><trkpt lat="45.938586096995486" lon="8.459844998469073"><ele>203.0</ele><time>2026-04-01T12:46:53.001Z</time></trkpt><trkpt lat="45.93851592260168" lon="8.459646128841284"><ele>203.0</ele><time>2026-04-01T12:46:54.001Z</time></trkpt><trkpt lat="45.938446854171744" lon="8.45944402066873"><ele>202.0</ele><time>2026-04-01T12:46:55.001Z</time></trkpt><trkpt lat="45.938379259318566" lon="8.459238282033676"><ele>201.0</ele><time>2026-04-01T12:46:56.001Z</time></trkpt><trkpt lat="45.93832021453671" lon="8.459025936191056"><ele>200.0</ele><time>2026-04-01T12:46:57.001Z</time></trkpt><trkpt lat="45.93826714796432" lon="8.458809896291479"><ele>200.0</ele><time>2026-04-01T12:46:58.002Z</time></trkpt><trkpt lat="45.938223845481986" lon="8.458589945790104"><ele>200.0</ele><time>2026-04-01T12:46:59.002Z</time></trkpt><trkpt lat="45.938186319809965" lon="8.458367799629858"><ele>200.0</ele><time>2026-04-01T12:47:00.002Z</time></trkpt><trkpt lat="45.93814763426976" lon="8.458146375587164"><ele>200.75</ele><time>2026-04-01T12:47:01.002Z</time></trkpt><trkpt lat="45.93810986926143" lon="8.4579330054649"><ele>201.5</ele><time>2026-04-01T12:47:02.002Z</time></trkpt><trkpt lat="45.93807662227687" lon="8.45773278091043"><ele>202.25</ele><time>2026-04-01T12:47:03.002Z</time></trkpt><trkpt lat="45.93804534603022" lon="8.457552856516184"><ele>203.0</ele><time>2026-04-01T12:47:04.002Z</time></trkpt><trkpt lat="45.93801619605375" lon="8.45739177719224"><ele>203.0</ele><time>2026-04-01T12:47:05.002Z</time></trkpt><trkpt lat="45.9379879097453" lon="8.45722997289055"><ele>203.0</ele><time>2026-04-01T12:47:06.002Z</time></trkpt><trkpt lat="45.93795938623266" lon="8.457060189820183"><ele>203.0</ele><time>2026-04-01T12:47:07.002Z</time></trkpt><trkpt lat="45.93792727128965" lon="8.456882015143528"><ele>203.0</ele><time>2026-04-01T12:47:08.002Z</time></trkpt><trkpt lat="45.93789488643649" lon="8.456694640577458"><ele>203.75</ele><time>2026-04-01T12:47:09.002Z</time></trkpt><trkpt lat="45.937860867763895" lon="8.456500689724255"><ele>204.5</ele><time>2026-04-01T12:47:10.002Z</time></trkpt><trkpt lat="45.93782560667766" lon="8.456298312576894"><ele>205.25</ele><time>2026-04-01T12:47:11.002Z</time></trkpt><trkpt lat="45.93778692353668" lon="8.456084871412989"><ele>206.0</ele><time>2026-04-01T12:47:12.002Z</time></trkpt><trkpt lat="45.93774592537833" lon="8.45585425537946"><ele>208.0</ele><time>2026-04-01T12:47:13.002Z</time></trkpt><trkpt lat="45.93770315415808" lon="8.455617778761656"><ele>210.0</ele><time>2026-04-01T12:47:14.002Z</time></trkpt><trkpt lat="45.937661514968" lon="8.455382840499347"><ele>212.0</ele><time>2026-04-01T12:47:15.002Z</time></trkpt><trkpt lat="45.93761979521298" lon="8.455150619077154"><ele>212.66666666666669</ele><time>2026-04-01T12:47:16.002Z</time></trkpt><trkpt lat="45.9375804522191" lon="8.454918264229732"><ele>213.33333333333331</ele><time>2026-04-01T12:47:17.002Z</time></trkpt><trkpt lat="45.93754106437216" lon="8.454688280484948"><ele>214.0</ele><time>2026-04-01T12:47:18.002Z</time></trkpt><trkpt lat="45.937499854817446" lon="8.454460162201254"><ele>212.66666666666666</ele><time>2026-04-01T12:47:19.002Z</time></trkpt><trkpt lat="45.93745950754775" lon="8.454233729107365"><ele>211.33333333333331</ele><time>2026-04-01T12:47:20.002Z</time></trkpt><trkpt lat="45.937419764369956" lon="8.454009177529096"><ele>210.0</ele><time>2026-04-01T12:47:21Z</time></trkpt><trkpt lat="45.93738092923861" lon="8.453785972789452"><ele>210.0</ele><time>2026-04-01T12:47:22Z</time></trkpt><trkpt lat="45.93734236927941" lon="8.453561579696663"><ele>210.0</ele><time>2026-04-01T12:47:23Z</time></trkpt><trkpt lat="45.93730197162734" lon="8.453333989426707"><ele>210.0</ele><time>2026-04-01T12:47:24Z</time></trkpt><trkpt lat="45.93726250958468" lon="8.453106772058113"><ele>212.33333333333331</ele><time>2026-04-01T12:47:25Z</time></trkpt><trkpt lat="45.93722460071642" lon="8.452880748968466"><ele>214.66666666666666</ele><time>2026-04-01T12:47:26Z</time></trkpt><trkpt lat="45.93718410834905" lon="8.452657123627125"><ele>217.0</ele><time>2026-04-01T12:47:27Z</time></trkpt><trkpt lat="45.93714613914361" lon="8.4524355662432"><ele>217.0</ele><time>2026-04-01T12:47:28Z</time></trkpt><trkpt lat="45.93710952222837" lon="8.452213824801374"><ele>217.0</ele><time>2026-04-01T12:47:29Z</time></trkpt><trkpt lat="45.937073870799445" lon="8.451990305631904"><ele>217.0</ele><time>2026-04-01T12:47:30Z</time></trkpt><trkpt lat="45.937040253591746" lon="8.451765571691647"><ele>217.33333333333331</ele><time>2026-04-01T12:47:31Z</time></trkpt><trkpt lat="45.93700799107589" lon="8.451543495342287"><ele>217.66666666666669</ele><time>2026-04-01T12:47:32Z</time></trkpt><trkpt lat="45.93698048519425" lon="8.451321339826764"><ele>218.0</ele><time>2026-04-01T12:47:33Z</time></trkpt><trkpt lat="45.93695886247346" lon="8.451098519086143"><ele>217.0</ele><time>2026-04-01T12:47:34Z</time></trkpt><trkpt lat="45.936943069791795" lon="8.450874416512017"><ele>216.0</ele><time>2026-04-01T12:47:35Z</time></trkpt><trkpt lat="45.93693539481591" lon="8.450647798697968"><ele>215.0</ele><time>2026-04-01T12:47:36Z</time></trkpt><trkpt lat="45.93693310253866" lon="8.450419911803332"><ele>214.33333333333334</ele><time>2026-04-01T12:47:37Z</time></trkpt><trkpt lat="45.93693606165123" lon="8.45019242209399"><ele>213.66666666666669</ele><time>2026-04-01T12:47:38Z</time></trkpt><trkpt lat="45.93693959515729" lon="8.449963199569712"><ele>213.0</ele><time>2026-04-01T12:47:39Z</time></trkpt><trkpt lat="45.93694404365555" lon="8.449733173106223"><ele>213.66666666666669</ele><time>2026-04-01T12:47:40Z</time></trkpt><trkpt lat="45.93694800658947" lon="8.449503748721687"><ele>214.33333333333334</ele><time>2026-04-01T12:47:41Z</time></trkpt><trkpt lat="45.936951136535924" lon="8.449271560234688"><ele>215.0</ele><time>2026-04-01T12:47:42Z</time></trkpt><trkpt lat="45.93695261384526" lon="8.449037249788944"><ele>215.0</ele><time>2026-04-01T12:47:43Z</time></trkpt><trkpt lat="45.93695185244219" lon="8.448802445739824"><ele>215.0</ele><time>2026-04-01T12:47:44Z</time></trkpt><trkpt lat="45.936949105195616" lon="8.448568606439899"><ele>215.0</ele><time>2026-04-01T12:47:45Z</time></trkpt><trkpt lat="45.93694249963686" lon="8.448335029689144"><ele>215.0</ele><time>2026-04-01T12:47:46Z</time></trkpt><trkpt lat="45.93693278721714" lon="8.448101051070461"><ele>215.0</ele><time>2026-04-01T12:47:47Z</time></trkpt><trkpt lat="45.936920070433736" lon="8.447869681026086"><ele>215.0</ele><time>2026-04-01T12:47:48Z</time></trkpt><trkpt lat="45.93690437248608" lon="8.447641729288128"><ele>213.0</ele><time>2026-04-01T12:47:49Z</time></trkpt><trkpt lat="45.93688476694838" lon="8.447417686630686"><ele>211.0</ele><time>2026-04-01T12:47:50Z</time></trkpt><trkpt lat="45.93686281799865" lon="8.447200542439715"><ele>209.0</ele><time>2026-04-01T12:47:51Z</time></trkpt><trkpt lat="45.936839242063" lon="8.446992417815055"><ele>209.0</ele><time>2026-04-01T12:47:52Z</time></trkpt><trkpt lat="45.93681193009961" lon="8.446789934824444"><ele>209.0</ele><time>2026-04-01T12:47:53Z</time></trkpt><trkpt lat="45.936781212320554" lon="8.446595383232987"><ele>209.0</ele><time>2026-04-01T12:47:54Z</time></trkpt><trkpt lat="45.93674960404607" lon="8.446403731010244"><ele>209.0</ele><time>2026-04-01T12:47:55Z</time></trkpt><trkpt lat="45.936718287010585" lon="8.446215288535534"><ele>206.75</ele><time>2026-04-01T12:47:56Z</time></trkpt><trkpt lat="45.93668572047772" lon="8.446029159206606"><ele>204.5</ele><time>2026-04-01T12:47:57Z</time></trkpt><trkpt lat="45.93664946327122" lon="8.445843650942521"><ele>202.25</ele><time>2026-04-01T12:47:58Z</time></trkpt><trkpt lat="45.93660880560014" lon="8.445656911934627"><ele>200.0</ele><time>2026-04-01T12:47:59Z</time></trkpt><trkpt lat="45.936564893939256" lon="8.445468471509509"><ele>200.5</ele><time>2026-04-01T12:48:00Z</time></trkpt><trkpt lat="45.93651583354836" lon="8.445279483554428"><ele>201.0</ele><time>2026-04-01T12:48:01.001Z</time></trkpt><trkpt lat="45.936465240042224" lon="8.445088780816866"><ele>201.5</ele><time>2026-04-01T12:48:02.001Z</time></trkpt><trkpt lat="45.936411509097695" lon="8.444897401931003"><ele>202.0</ele><time>2026-04-01T12:48:03.001Z</time></trkpt><trkpt lat="45.936355689454054" lon="8.444709718666578"><ele>202.0</ele><time>2026-04-01T12:48:04.001Z</time></trkpt><trkpt lat="45.936297885907194" lon="8.444530077294463"><ele>202.0</ele><time>2026-04-01T12:48:05.001Z</time></trkpt><trkpt lat="45.93623865023443" lon="8.44435374469445"><ele>202.0</ele><time>2026-04-01T12:48:06.001Z</time></trkpt><trkpt lat="45.936177969677345" lon="8.444179738395878"><ele>202.0</ele><time>2026-04-01T12:48:07.001Z</time></trkpt><trkpt lat="45.936114599621476" lon="8.444004390459112"><ele>202.0</ele><time>2026-04-01T12:48:08.001Z</time></trkpt><trkpt lat="45.93605154117683" lon="8.443829475470361"><ele>202.0</ele><time>2026-04-01T12:48:09.001Z</time></trkpt><trkpt lat="45.93598521554573" lon="8.443655917815407"><ele>202.0</ele><time>2026-04-01T12:48:10.001Z</time></trkpt><trkpt lat="45.93591600740173" lon="8.443483330085007"><ele>202.0</ele><time>2026-04-01T12:48:11.001Z</time></trkpt><trkpt lat="45.93584454112339" lon="8.443314892451571"><ele>201.0</ele><time>2026-04-01T12:48:12.001Z</time></trkpt><trkpt lat="45.93576958392233" lon="8.443152441191243"><ele>200.0</ele><time>2026-04-01T12:48:13.001Z</time></trkpt><trkpt lat="45.935691806840566" lon="8.442992362905043"><ele>199.0</ele><time>2026-04-01T12:48:14.001Z</time></trkpt><trkpt lat="45.93561154179092" lon="8.442835636099607"><ele>198.0</ele><time>2026-04-01T12:48:15.001Z</time></trkpt><trkpt lat="45.935529974566485" lon="8.442681171025596"><ele>198.0</ele><time>2026-04-01T12:48:16.001Z</time></trkpt><trkpt lat="45.93544591341448" lon="8.442528732349437"><ele>198.0</ele><time>2026-04-01T12:48:17.001Z</time></trkpt><trkpt lat="45.935361757415926" lon="8.442381782902212"><ele>198.0</ele><time>2026-04-01T12:48:18.001Z</time></trkpt><trkpt lat="45.935277297623465" lon="8.442239342702013"><ele>198.0</ele><time>2026-04-01T12:48:19.001Z</time></trkpt><trkpt lat="45.93519328734336" lon="8.442101259712542"><ele>199.0</ele><time>2026-04-01T12:48:20.001Z</time></trkpt><trkpt lat="45.93510919768482" lon="8.441968193896805"><ele>200.0</ele><time>2026-04-01T12:48:21.001Z</time></trkpt><trkpt lat="45.93502654325621" lon="8.441837626534944"><ele>201.0</ele><time>2026-04-01T12:48:22.001Z</time></trkpt><trkpt lat="45.934944925461565" lon="8.441710813060807"><ele>202.0</ele><time>2026-04-01T12:48:23.001Z</time></trkpt><trkpt lat="45.9348653831336" lon="8.441587137342717"><ele>202.0</ele><time>2026-04-01T12:48:24.001Z</time></trkpt><trkpt lat="45.934783021284204" lon="8.441464472966121"><ele>202.0</ele><time>2026-04-01T12:48:25.001Z</time></trkpt><trkpt lat="45.9346984164883" lon="8.44134034475221"><ele>202.0</ele><time>2026-04-01T12:48:26.001Z</time></trkpt><trkpt lat="45.93461372698915" lon="8.441218222183302"><ele>202.0</ele><time>2026-04-01T12:48:27.001Z</time></trkpt><trkpt lat="45.93453171391921" lon="8.441094934976109"><ele>202.0</ele><time>2026-04-01T12:48:28.001Z</time></trkpt><trkpt lat="45.93444964874994" lon="8.440971627157742"><ele>202.0</ele><time>2026-04-01T12:48:29.001Z</time></trkpt><trkpt lat="45.9343668933016" lon="8.44084591303525"><ele>202.0</ele><time>2026-04-01T12:48:30.001Z</time></trkpt><trkpt lat="45.934281486375475" lon="8.440717348255404"><ele>202.0</ele><time>2026-04-01T12:48:31.001Z</time></trkpt><trkpt lat="45.93419615591457" lon="8.440590132374934"><ele>202.5</ele><time>2026-04-01T12:48:32.001Z</time></trkpt><trkpt lat="45.934106695404665" lon="8.440458801793174"><ele>203.0</ele><time>2026-04-01T12:48:33.001Z</time></trkpt><trkpt lat="45.93401449270366" lon="8.44032182746629"><ele>203.5</ele><time>2026-04-01T12:48:34.001Z</time></trkpt><trkpt lat="45.933920127464006" lon="8.440182449366016"><ele>204.0</ele><time>2026-04-01T12:48:35.001Z</time></trkpt><trkpt lat="45.93382604126386" lon="8.440042418219726"><ele>204.0</ele><time>2026-04-01T12:48:36.001Z</time></trkpt><trkpt lat="45.93372967453396" lon="8.43990014766913"><ele>204.0</ele><time>2026-04-01T12:48:37.001Z</time></trkpt><trkpt lat="45.9336340957189" lon="8.439756397212337"><ele>204.0</ele><time>2026-04-01T12:48:38.001Z</time></trkpt><trkpt lat="45.93353932374869" lon="8.439611787388259"><ele>204.0</ele><time>2026-04-01T12:48:39.001Z</time></trkpt><trkpt lat="45.93344377348178" lon="8.43947110372107"><ele>203.75</ele><time>2026-04-01T12:48:40.001Z</time></trkpt><trkpt lat="45.93334809971743" lon="8.439329831273703"><ele>203.5</ele><time>2026-04-01T12:48:41.001Z</time></trkpt><trkpt lat="45.933256880437035" lon="8.43919510514573"><ele>203.25</ele><time>2026-04-01T12:48:42.001Z</time></trkpt><trkpt lat="45.933169143846264" lon="8.439064137882735"><ele>203.0</ele><time>2026-04-01T12:48:43.001Z</time></trkpt><trkpt lat="45.933085321604906" lon="8.438939032965672"><ele>203.0</ele><time>2026-04-01T12:48:44.001Z</time></trkpt><trkpt lat="45.93300282532914" lon="8.438816709772148"><ele>203.0</ele><time>2026-04-01T12:48:45.001Z</time></trkpt><trkpt lat="45.932921150680215" lon="8.438699430849603"><ele>203.0</ele><time>2026-04-01T12:48:46.001Z</time></trkpt><trkpt lat="45.93284012198761" lon="8.438584986032772"><ele>203.0</ele><time>2026-04-01T12:48:47.001Z</time></trkpt><trkpt lat="45.93275999671357" lon="8.438473709108886"><ele>203.0</ele><time>2026-04-01T12:48:48.001Z</time></trkpt><trkpt lat="45.932680348962215" lon="8.438364644041155"><ele>203.0</ele><time>2026-04-01T12:48:49.001Z</time></trkpt><trkpt lat="45.93260397747227" lon="8.438259468048795"><ele>203.0</ele><time>2026-04-01T12:48:50.001Z</time></trkpt><trkpt lat="45.932528723209444" lon="8.438154373425322"><ele>203.0</ele><time>2026-04-01T12:48:51.001Z</time></trkpt><trkpt lat="45.93245533201964" lon="8.438047280138749"><ele>203.0</ele><time>2026-04-01T12:48:52.002Z</time></trkpt><trkpt lat="45.93238053837727" lon="8.43793641632642"><ele>203.4</ele><time>2026-04-01T12:48:53.002Z</time></trkpt><trkpt lat="45.93230917046422" lon="8.437825171985482"><ele>203.8</ele><time>2026-04-01T12:48:54.002Z</time></trkpt><trkpt lat="45.932240766841424" lon="8.437713001588659"><ele>204.2</ele><time>2026-04-01T12:48:55.002Z</time></trkpt><trkpt lat="45.93217359809965" lon="8.437600665792205"><ele>204.6</ele><time>2026-04-01T12:48:56.002Z</time></trkpt><trkpt lat="45.93210655712818" lon="8.437491332105038"><ele>205.0</ele><time>2026-04-01T12:48:57.002Z</time></trkpt><trkpt lat="45.932040902753045" lon="8.437387052104592"><ele>204.99999999999997</ele><time>2026-04-01T12:48:58.002Z</time></trkpt><trkpt lat="45.93198115525963" lon="8.437295760103913"><ele>205.0</ele><time>2026-04-01T12:48:59.002Z</time></trkpt><trkpt lat="45.93193509527697" lon="8.43723117229135"><ele>205.0</ele><time>2026-04-01T12:49:00.002Z</time></trkpt><trkpt lat="45.931885074017174" lon="8.437166600986558"><ele>205.0</ele><time>2026-04-01T12:49:02.002Z</time></trkpt><trkpt lat="45.931830935890936" lon="8.437104151731074"><ele>204.99999999999997</ele><time>2026-04-01T12:49:05.002Z</time></trkpt><trkpt lat="45.93176514701718" lon="8.437038791553238"><ele>205.0</ele><time>2026-04-01T12:49:07.002Z</time></trkpt><trkpt lat="45.931687472413735" lon="8.436972343629858"><ele>205.33333333333331</ele><time>2026-04-01T12:49:09.002Z</time></trkpt><trkpt lat="45.931611444080545" lon="8.43690652409443"><ele>205.66666666666666</ele><time>2026-04-01T12:49:11.002Z</time></trkpt><trkpt lat="45.93154876883389" lon="8.436844203958627"><ele>206.0</ele><time>2026-04-01T12:49:13.002Z</time></trkpt><trkpt lat="45.93147769002559" lon="8.436733528830006"><ele>206.33333333333331</ele><time>2026-04-01T12:49:15.002Z</time></trkpt><trkpt lat="45.9314235173107" lon="8.436676765556893"><ele>206.66666666666666</ele><time>2026-04-01T12:49:16.002Z</time></trkpt><trkpt lat="45.931385161673255" lon="8.436591864391701"><ele>207.0</ele><time>2026-04-01T12:49:17.002Z</time></trkpt><trkpt lat="45.93133408757771" lon="8.436532526497137"><ele>207.0</ele><time>2026-04-01T12:49:18.002Z</time></trkpt><trkpt lat="45.93127839746457" lon="8.436472632369961"><ele>207.0</ele><time>2026-04-01T12:49:19.002Z</time></trkpt><trkpt lat="45.931229506617974" lon="8.436406970064025"><ele>207.0</ele><time>2026-04-01T12:49:20.002Z</time></trkpt><trkpt lat="45.931170188359474" lon="8.43625091480281"><ele>207.0</ele><time>2026-04-01T12:49:22.002Z</time></trkpt><trkpt lat="45.93114162405036" lon="8.436166983040545"><ele>207.0</ele><time>2026-04-01T12:49:23.002Z</time></trkpt><trkpt lat="45.931079820504564" lon="8.436027285252434"><ele>207.0</ele><time>2026-04-01T12:49:25.002Z</time></trkpt><trkpt lat="45.93103504048298" lon="8.43594490313691"><ele>207.0</ele><time>2026-04-01T12:49:27Z</time></trkpt><trkpt lat="45.93098468093816" lon="8.435856375097652"><ele>207.0</ele><time>2026-04-01T12:49:30Z</time></trkpt><trkpt lat="45.930941198638436" lon="8.435788319523136"><ele>207.0</ele><time>2026-04-01T12:49:33Z</time></trkpt><trkpt lat="45.93088098364743" lon="8.435696690889447"><ele>207.0</ele><time>2026-04-01T12:49:36Z</time></trkpt><trkpt lat="45.93083606790716" lon="8.435632613283445"><ele>207.0</ele><time>2026-04-01T12:49:38Z</time></trkpt><trkpt lat="45.930783065258204" lon="8.435556516952328"><ele>207.0</ele><time>2026-04-01T12:49:40Z</time></trkpt><trkpt lat="45.93072596329981" lon="8.43547205475346"><ele>207.33333333333334</ele><time>2026-04-01T12:49:42Z</time></trkpt><trkpt lat="45.93067510989742" lon="8.435395029110584"><ele>207.66666666666669</ele><time>2026-04-01T12:49:44Z</time></trkpt><trkpt lat="45.930621390736626" lon="8.435311992753196"><ele>208.0</ele><time>2026-04-01T12:49:46Z</time></trkpt><trkpt lat="45.930566452601965" lon="8.435229959341143"><ele>208.33333333333334</ele><time>2026-04-01T12:49:48Z</time></trkpt><trkpt lat="45.93051362960673" lon="8.435152855540636"><ele>208.66666666666669</ele><time>2026-04-01T12:49:50Z</time></trkpt><trkpt lat="45.93045805871281" lon="8.435073634514227"><ele>209.0</ele><time>2026-04-01T12:49:52Z</time></trkpt><trkpt lat="45.93039604527012" lon="8.434987958121024"><ele>209.00000000000003</ele><time>2026-04-01T12:49:54Z</time></trkpt><trkpt lat="45.93033058061363" lon="8.434908425412363"><ele>209.0</ele><time>2026-04-01T12:49:56Z</time></trkpt><trkpt lat="45.93026080451003" lon="8.434838908977069"><ele>209.0</ele><time>2026-04-01T12:49:58Z</time></trkpt><trkpt lat="45.930197128605855" lon="8.434775316814077"><ele>209.0</ele><time>2026-04-01T12:50:00Z</time></trkpt><trkpt lat="45.930136078984354" lon="8.43469345089803"><ele>209.00000000000003</ele><time>2026-04-01T12:50:02Z</time></trkpt><trkpt lat="45.930088239229526" lon="8.434579721340139"><ele>209.0</ele><time>2026-04-01T12:50:04Z</time></trkpt><trkpt lat="45.930017367844414" lon="8.434471394205604"><ele>209.33333333333334</ele><time>2026-04-01T12:50:06Z</time></trkpt><trkpt lat="45.9299483230492" lon="8.434383154139566"><ele>209.66666666666669</ele><time>2026-04-01T12:50:08Z</time></trkpt><trkpt lat="45.9298975751104" lon="8.434289774506725"><ele>210.0</ele><time>2026-04-01T12:50:10Z</time></trkpt><trkpt lat="45.929857234132186" lon="8.434203316778857"><ele>210.33333333333331</ele><time>2026-04-01T12:50:12Z</time></trkpt><trkpt lat="45.92980800793221" lon="8.434112617657801"><ele>210.66666666666666</ele><time>2026-04-01T12:50:14.001Z</time></trkpt><trkpt lat="45.9297405586676" lon="8.434005323591416"><ele>211.0</ele><time>2026-04-01T12:50:16.001Z</time></trkpt><trkpt lat="45.929663697133634" lon="8.433895879432724"><ele>210.8</ele><time>2026-04-01T12:50:18.001Z</time></trkpt><trkpt lat="45.92958534971694" lon="8.433778564875476"><ele>210.60000000000002</ele><time>2026-04-01T12:50:20.001Z</time></trkpt><trkpt lat="45.929503892842284" lon="8.433667119458546"><ele>210.4</ele><time>2026-04-01T12:50:22.001Z</time></trkpt><trkpt lat="45.92943748144684" lon="8.433573845605565"><ele>210.2</ele><time>2026-04-01T12:50:24.001Z</time></trkpt><trkpt lat="45.929391430296285" lon="8.43350816682839"><ele>210.0</ele><time>2026-04-01T12:50:26.001Z</time></trkpt><trkpt lat="45.92933868008108" lon="8.433430321648098"><ele>210.0</ele><time>2026-04-01T12:50:29.001Z</time></trkpt><trkpt lat="45.92929291842552" lon="8.4333669215509"><ele>210.0</ele><time>2026-04-01T12:50:31.001Z</time></trkpt><trkpt lat="45.92922727422074" lon="8.43327711203678"><ele>210.0</ele><time>2026-04-01T12:50:34.001Z</time></trkpt><trkpt lat="45.92916017070935" lon="8.433192670867975"><ele>210.0</ele><time>2026-04-01T12:50:37.001Z</time></trkpt><trkpt lat="45.92909471223575" lon="8.433106109681187"><ele>210.0</ele><time>2026-04-01T12:50:40.001Z</time></trkpt><trkpt lat="45.9290452529171" lon="8.433046449454046"><ele>210.0</ele><time>2026-04-01T12:50:42.001Z</time></trkpt><trkpt lat="45.92896564200357" lon="8.432965256923744"><ele>210.57142857142858</ele><time>2026-04-01T12:50:45.001Z</time></trkpt><trkpt lat="45.92891268498808" lon="8.43291449003424"><ele>211.14285714285714</ele><time>2026-04-01T12:50:47.001Z</time></trkpt><trkpt lat="45.928848926866955" lon="8.432857634965002"><ele>211.71428571428572</ele><time>2026-04-01T12:50:50.001Z</time></trkpt><trkpt lat="45.92878463912424" lon="8.432809066648844"><ele>212.28571428571428</ele><time>2026-04-01T12:50:54.001Z</time></trkpt><trkpt lat="45.92872087848934" lon="8.43276001215962"><ele>212.85714285714286</ele><time>2026-04-01T12:51:02.001Z</time></trkpt><trkpt lat="45.928644665848395" lon="8.432708781949657"><ele>213.42857142857144</ele><time>2026-04-01T12:51:08.002Z</time></trkpt><trkpt lat="45.928584635503626" lon="8.43265980092088"><ele>214.0</ele><time>2026-04-01T12:51:10.002Z</time></trkpt><trkpt lat="45.928517842501456" lon="8.432600301486021"><ele>213.99999999999997</ele><time>2026-04-01T12:51:12.002Z</time></trkpt><trkpt lat="45.92844271166659" lon="8.432532286299155"><ele>214.0</ele><time>2026-04-01T12:51:14.002Z</time></trkpt><trkpt lat="45.92834625968059" lon="8.432454646071056"><ele>214.0</ele><time>2026-04-01T12:51:16.002Z</time></trkpt><trkpt lat="45.92828837574927" lon="8.432418343896686"><ele>214.0</ele><time>2026-04-01T12:51:17.002Z</time></trkpt><trkpt lat="45.92822534234495" lon="8.43238709136966"><ele>213.99999999999997</ele><time>2026-04-01T12:51:18.002Z</time></trkpt><trkpt lat="45.928156347370255" lon="8.432359525002184"><ele>214.0</ele><time>2026-04-01T12:51:19.002Z</time></trkpt><trkpt lat="45.92808507348986" lon="8.432331707971686"><ele>214.00000000000003</ele><time>2026-04-01T12:51:20.002Z</time></trkpt><trkpt lat="45.92801280739242" lon="8.432298606590269"><ele>214.0</ele><time>2026-04-01T12:51:21.002Z</time></trkpt><trkpt lat="45.92794603434959" lon="8.432268943593602"><ele>214.0</ele><time>2026-04-01T12:51:22.002Z</time></trkpt><trkpt lat="45.92788159326566" lon="8.432240585909469"><ele>214.0</ele><time>2026-04-01T12:51:23.002Z</time></trkpt><trkpt lat="45.92781884252473" lon="8.432210648330665"><ele>214.0</ele><time>2026-04-01T12:51:24.002Z</time></trkpt><trkpt lat="45.92775785889233" lon="8.432180212920555"><ele>214.00000000000003</ele><time>2026-04-01T12:51:25.002Z</time></trkpt><trkpt lat="45.92769681583907" lon="8.432147944815702"><ele>214.0</ele><time>2026-04-01T12:51:26.002Z</time></trkpt><trkpt lat="45.92763568534853" lon="8.43211594847223"><ele>214.14285714285717</ele><time>2026-04-01T12:51:27.002Z</time></trkpt><trkpt lat="45.92757540464318" lon="8.432082948579009"><ele>214.28571428571428</ele><time>2026-04-01T12:51:28.002Z</time></trkpt><trkpt lat="45.92751420166812" lon="8.432049908576143"><ele>214.42857142857144</ele><time>2026-04-01T12:51:29.002Z</time></trkpt><trkpt lat="45.92745368178384" lon="8.432017569917424"><ele>214.57142857142858</ele><time>2026-04-01T12:51:30.002Z</time></trkpt><trkpt lat="45.92739122821529" lon="8.431983739237664"><ele>214.71428571428572</ele><time>2026-04-01T12:51:31.002Z</time></trkpt><trkpt lat="45.92733146346543" lon="8.431950410009216"><ele>214.85714285714286</ele><time>2026-04-01T12:51:32.002Z</time></trkpt><trkpt lat="45.92721545901945" lon="8.43188995503927"><ele>215.0</ele><time>2026-04-01T12:51:34Z</time></trkpt><trkpt lat="45.92710983067372" lon="8.431811755847189"><ele>214.7142857142857</ele><time>2026-04-01T12:51:36Z</time></trkpt><trkpt lat="45.92704974823214" lon="8.431781421467303"><ele>214.42857142857144</ele><time>2026-04-01T12:51:37Z</time></trkpt><trkpt lat="45.92698683999697" lon="8.431748203259103"><ele>214.14285714285714</ele><time>2026-04-01T12:51:38Z</time></trkpt><trkpt lat="45.92691952139048" lon="8.431712545752898"><ele>213.85714285714283</ele><time>2026-04-01T12:51:39Z</time></trkpt><trkpt lat="45.92685125643395" lon="8.431675676918625"><ele>213.57142857142856</ele><time>2026-04-01T12:51:40Z</time></trkpt><trkpt lat="45.926783291624474" lon="8.431638511119102"><ele>213.28571428571428</ele><time>2026-04-01T12:51:41Z</time></trkpt><trkpt lat="45.92671963998196" lon="8.431604238648701"><ele>213.0</ele><time>2026-04-01T12:51:42Z</time></trkpt><trkpt lat="45.926655776407195" lon="8.431569282254323"><ele>212.99999999999997</ele><time>2026-04-01T12:51:43Z</time></trkpt><trkpt lat="45.92659120049199" lon="8.431531651069392"><ele>213.0</ele><time>2026-04-01T12:51:44Z</time></trkpt><trkpt lat="45.92652426515749" lon="8.43149632398263"><ele>213.0</ele><time>2026-04-01T12:51:45Z</time></trkpt><trkpt lat="45.92645546071282" lon="8.431461191790811"><ele>213.0</ele><time>2026-04-01T12:51:46Z</time></trkpt><trkpt lat="45.92638740834852" lon="8.43142410991357"><ele>213.0</ele><time>2026-04-01T12:51:47Z</time></trkpt><trkpt lat="45.92631645549729" lon="8.431386174095596"><ele>212.99999999999997</ele><time>2026-04-01T12:51:48Z</time></trkpt><trkpt lat="45.92624344266094" lon="8.431346138447752"><ele>213.0</ele><time>2026-04-01T12:51:49Z</time></trkpt><trkpt lat="45.92616911966619" lon="8.43130360549906"><ele>213.16666666666666</ele><time>2026-04-01T12:51:50Z</time></trkpt><trkpt lat="45.92609473481107" lon="8.431261538602504"><ele>213.33333333333331</ele><time>2026-04-01T12:51:51Z</time></trkpt><trkpt lat="45.926021513567996" lon="8.431222070475414"><ele>213.5</ele><time>2026-04-01T12:51:52Z</time></trkpt><trkpt lat="45.92594910503929" lon="8.431183654913218"><ele>213.66666666666666</ele><time>2026-04-01T12:51:53Z</time></trkpt><trkpt lat="45.92587636631719" lon="8.431146633147927"><ele>213.83333333333331</ele><time>2026-04-01T12:51:54Z</time></trkpt><trkpt lat="45.92580366125434" lon="8.431108024620826"><ele>214.0</ele><time>2026-04-01T12:51:55Z</time></trkpt><trkpt lat="45.92572867055486" lon="8.431072807538024"><ele>213.99999999999997</ele><time>2026-04-01T12:51:56Z</time></trkpt><trkpt lat="45.92565312822857" lon="8.431035490187437"><ele>214.0</ele><time>2026-04-01T12:51:57Z</time></trkpt><trkpt lat="45.925576844350736" lon="8.430996550961856"><ele>214.0</ele><time>2026-04-01T12:51:58Z</time></trkpt><trkpt lat="45.925501525466146" lon="8.430955957217309"><ele>214.0</ele><time>2026-04-01T12:51:59Z</time></trkpt><trkpt lat="45.92542469288588" lon="8.43091695442379"><ele>213.99999999999997</ele><time>2026-04-01T12:52:00Z</time></trkpt><trkpt lat="45.92534949298876" lon="8.430876099850963"><ele>214.0</ele><time>2026-04-01T12:52:01Z</time></trkpt><trkpt lat="45.92527519702096" lon="8.430834824580646"><ele>214.0</ele><time>2026-04-01T12:52:02Z</time></trkpt><trkpt lat="45.9251981835351" lon="8.43079403173059"><ele>213.99999999999997</ele><time>2026-04-01T12:52:03Z</time></trkpt><trkpt lat="45.92511298374079" lon="8.4307517025408"><ele>213.99999999999997</ele><time>2026-04-01T12:52:04Z</time></trkpt><trkpt lat="45.92501085280526" lon="8.430702923770506"><ele>214.0</ele><time>2026-04-01T12:52:05Z</time></trkpt><trkpt lat="45.924909786226564" lon="8.43064314618311"><ele>214.0</ele><time>2026-04-01T12:52:06Z</time></trkpt><trkpt lat="45.92481548188065" lon="8.430583963742542"><ele>214.39999999999998</ele><time>2026-04-01T12:52:07Z</time></trkpt><trkpt lat="45.92472424217096" lon="8.430524934238896"><ele>214.79999999999998</ele><time>2026-04-01T12:52:08Z</time></trkpt><trkpt lat="45.92464654134406" lon="8.430463338686742"><ele>215.20000000000002</ele><time>2026-04-01T12:52:09Z</time></trkpt><trkpt lat="45.9245871053982" lon="8.430398189482585"><ele>215.60000000000002</ele><time>2026-04-01T12:52:10Z</time></trkpt><trkpt lat="45.924501491457654" lon="8.430305512446235"><ele>216.0</ele><time>2026-04-01T12:52:12Z</time></trkpt><trkpt lat="45.92438027376306" lon="8.430250256951433"><ele>216.0</ele><time>2026-04-01T12:52:14Z</time></trkpt><trkpt lat="45.924312952711674" lon="8.430253103196451"><ele>216.0</ele><time>2026-04-01T12:52:15Z</time></trkpt><trkpt lat="45.92424740506357" lon="8.430241676025053"><ele>216.0</ele><time>2026-04-01T12:52:16Z</time></trkpt><trkpt lat="45.92414145260358" lon="8.430195760212062"><ele>216.0</ele><time>2026-04-01T12:52:18Z</time></trkpt><trkpt lat="45.92407728471018" lon="8.430166055107934"><ele>216.0</ele><time>2026-04-01T12:52:20Z</time></trkpt><trkpt lat="45.92401441614822" lon="8.430141649682822"><ele>216.0</ele><time>2026-04-01T12:52:35.001Z</time></trkpt><trkpt lat="45.92394071212796" lon="8.43030754811099"><ele>216.60000000000002</ele><time>2026-04-01T12:52:39.001Z</time></trkpt><trkpt lat="45.92391234914719" lon="8.430423244484368"><ele>217.20000000000002</ele><time>2026-04-01T12:52:42.001Z</time></trkpt><trkpt lat="45.92396889672106" lon="8.430357658871506"><ele>217.79999999999998</ele><time>2026-04-01T12:52:46.001Z</time></trkpt><trkpt lat="45.923908472714075" lon="8.43031832472735"><ele>218.39999999999998</ele><time>2026-04-01T12:53:39Z</time></trkpt><trkpt lat="45.9238258523453" lon="8.430533907540884"><ele>219.0</ele><time>2026-04-01T12:53:41Z</time></trkpt><trkpt lat="45.92383721959309" lon="8.43063892790231"><ele>219.0</ele><time>2026-04-01T12:54:06Z</time></trkpt><trkpt lat="45.92367424589472" lon="8.430549220481854"><ele>219.0</ele><time>2026-04-01T12:54:09Z</time></trkpt><trkpt lat="45.92386666687201" lon="8.430497370028478"><ele>219.0</ele><time>2026-04-01T12:54:15.067Z</time></trkpt><trkpt lat="45.923864755314526" lon="8.430625081537725"><ele>219.0</ele><time>2026-04-01T12:54:58.001Z</time></trkpt><trkpt lat="45.92380192256779" lon="8.430582256653702"><ele>219.0</ele><time>2026-04-01T12:55:20.001Z</time></trkpt><trkpt lat="45.9237296387004" lon="8.430555716287834"><ele>219.0</ele><time>2026-04-01T12:57:17.002Z</time></trkpt><trkpt lat="45.92379043272264" lon="8.430587858572835"><ele>219.0</ele><time>2026-04-01T12:57:31.067Z</time></trkpt><trkpt lat="45.923846811399535" lon="8.43065193341675"><ele>219.0</ele><time>2026-04-01T12:57:33.066Z</time></trkpt><trkpt lat="45.923770331114575" lon="8.430625990920152"><ele>219.0</ele><time>2026-04-01T12:57:37.067Z</time></trkpt><trkpt lat="45.92382525887508" lon="8.430550556736298"><ele>219.0</ele><time>2026-04-01T12:59:10.02Z</time></trkpt><trkpt lat="45.92389800420371" lon="8.430586325769848"><ele>219.0</ele><time>2026-04-01T13:03:11.005Z</time></trkpt><trkpt lat="45.9239386619294" lon="8.430509718246748"><ele>219.0</ele><time>2026-04-01T13:03:18.004Z</time></trkpt><trkpt lat="45.9238995827196" lon="8.430642066464157"><ele>219.0</ele><time>2026-04-01T13:03:59.001Z</time></trkpt><trkpt lat="45.92386243353795" lon="8.430769425358559"><ele>219.0</ele><time>2026-04-01T13:04:01.001Z</time></trkpt><trkpt lat="45.9238310189579" lon="8.430855640884383"><ele>219.0</ele><time>2026-04-01T13:04:03.001Z</time></trkpt><trkpt lat="45.92373908211533" lon="8.43088167147455"><ele>219.0</ele><time>2026-04-01T13:04:06.001Z</time></trkpt><trkpt lat="45.92366569752524" lon="8.430857810048161"><ele>219.0</ele><time>2026-04-01T13:04:08.001Z</time></trkpt><trkpt lat="45.92360202132518" lon="8.430837718573624"><ele>219.0</ele><time>2026-04-01T13:04:10.001Z</time></trkpt><trkpt lat="45.92352791024862" lon="8.430883998535228"><ele>219.0</ele><time>2026-04-01T13:04:13.001Z</time></trkpt><trkpt lat="45.92347656914494" lon="8.430768744499765"><ele>219.0</ele><time>2026-04-01T13:04:15.001Z</time></trkpt><trkpt lat="45.92341625045804" lon="8.430739818309988"><ele>219.0</ele><time>2026-04-01T13:04:19.001Z</time></trkpt><trkpt lat="45.923348160639556" lon="8.43075695750264"><ele>219.0</ele><time>2026-04-01T13:07:48Z</time></trkpt><trkpt lat="45.92334127961253" lon="8.430657108062617"><ele>219.0</ele><time>2026-04-01T13:08:02Z</time></trkpt><trkpt lat="45.92335420053628" lon="8.430564345719164"><ele>218.83333333333334</ele><time>2026-04-01T13:08:04Z</time></trkpt><trkpt lat="45.92338876523092" lon="8.430486420660296"><ele>218.66666666666669</ele><time>2026-04-01T13:08:06Z</time></trkpt><trkpt lat="45.92342375196196" lon="8.43038149644513"><ele>218.5</ele><time>2026-04-01T13:08:59.001Z</time></trkpt><trkpt lat="45.92343427556374" lon="8.430285020089457"><ele>218.33333333333334</ele><time>2026-04-01T13:09:01.001Z</time></trkpt><trkpt lat="45.92344797909164" lon="8.430163907761488"><ele>218.16666666666669</ele><time>2026-04-01T13:09:04.001Z</time></trkpt><trkpt lat="45.92346049033673" lon="8.430050065224588"><ele>218.0</ele><time>2026-04-01T13:11:54Z</time></trkpt><trkpt lat="45.92353695460671" lon="8.430135942338536"><ele>218.33333333333334</ele><time>2026-04-01T13:11:57Z</time></trkpt><trkpt lat="45.92360102615236" lon="8.430168139827245"><ele>218.66666666666669</ele><time>2026-04-01T13:11:58Z</time></trkpt><trkpt lat="45.9236609916053" lon="8.4301982739492"><ele>219.0</ele><time>2026-04-01T13:11:59Z</time></trkpt><trkpt lat="45.92377785265587" lon="8.430245235921996"><ele>219.33333333333331</ele><time>2026-04-01T13:12:01Z</time></trkpt><trkpt lat="45.923850196139654" lon="8.430268622228997"><ele>219.66666666666666</ele><time>2026-04-01T13:12:03Z</time></trkpt><trkpt lat="45.923909028605166" lon="8.430305092589203"><ele>220.0</ele><time>2026-04-01T13:12:06Z</time></trkpt><trkpt lat="45.923976480613945" lon="8.43035681523226"><ele>220.0</ele><time>2026-04-01T13:12:09Z</time></trkpt><trkpt lat="45.92406516738648" lon="8.430220811436445"><ele>220.0</ele><time>2026-04-01T13:12:16Z</time></trkpt><trkpt lat="45.92412891767238" lon="8.430253292695879"><ele>220.0</ele><time>2026-04-01T13:12:18Z</time></trkpt><trkpt lat="45.92420880302561" lon="8.430293209025567"><ele>220.0</ele><time>2026-04-01T13:12:20Z</time></trkpt><trkpt lat="45.92431621088586" lon="8.430342466710941"><ele>220.0</ele><time>2026-04-01T13:12:22Z</time></trkpt><trkpt lat="45.924421999272724" lon="8.430391935486274"><ele>220.0</ele><time>2026-04-01T13:12:24Z</time></trkpt><trkpt lat="45.92449168302748" lon="8.430453166240678"><ele>220.0</ele><time>2026-04-01T13:12:26Z</time></trkpt><trkpt lat="45.924480056701384" lon="8.430261427983222"><ele>220.0</ele><time>2026-04-01T13:12:30Z</time></trkpt><trkpt lat="45.924339510008714" lon="8.4302926609993"><ele>220.0</ele><time>2026-04-01T13:12:33Z</time></trkpt><trkpt lat="45.92422504268623" lon="8.43026339553537"><ele>219.99999999999997</ele><time>2026-04-01T13:12:35Z</time></trkpt><trkpt lat="45.92415835962829" lon="8.430234315036031"><ele>220.0</ele><time>2026-04-01T13:12:36Z</time></trkpt><trkpt lat="45.92408716791892" lon="8.430195914204388"><ele>220.0</ele><time>2026-04-01T13:12:37Z</time></trkpt><trkpt lat="45.9240161544412" lon="8.430152911659428"><ele>220.0</ele><time>2026-04-01T13:12:38Z</time></trkpt><trkpt lat="45.92393677178628" lon="8.430109180595814"><ele>219.99999999999997</ele><time>2026-04-01T13:12:39Z</time></trkpt><trkpt lat="45.92385475664611" lon="8.430064896471952"><ele>220.0</ele><time>2026-04-01T13:12:40Z</time></trkpt><trkpt lat="45.92376982332287" lon="8.430019731978957"><ele>220.0</ele><time>2026-04-01T13:12:41Z</time></trkpt><trkpt lat="45.923681441900094" lon="8.429972414091207"><ele>220.0</ele><time>2026-04-01T13:12:42Z</time></trkpt><trkpt lat="45.92359044045107" lon="8.429921383711692"><ele>220.0</ele><time>2026-04-01T13:12:43Z</time></trkpt><trkpt lat="45.92349809252849" lon="8.429869135252549"><ele>220.0</ele><time>2026-04-01T13:12:44Z</time></trkpt><trkpt lat="45.923400835081885" lon="8.429819279275474"><ele>220.0</ele><time>2026-04-01T13:12:45Z</time></trkpt><trkpt lat="45.9233046678813" lon="8.429767210845553"><ele>220.0</ele><time>2026-04-01T13:12:46Z</time></trkpt><trkpt lat="45.92320568183734" lon="8.429715748211478"><ele>220.0</ele><time>2026-04-01T13:12:47Z</time></trkpt><trkpt lat="45.92310456404709" lon="8.429664045843792"><ele>220.0</ele><time>2026-04-01T13:12:48Z</time></trkpt><trkpt lat="45.923003840386514" lon="8.429608919110049"><ele>220.0</ele><time>2026-04-01T13:12:49Z</time></trkpt><trkpt lat="45.922900798389065" lon="8.429556239103242"><ele>220.0</ele><time>2026-04-01T13:12:50Z</time></trkpt><trkpt lat="45.92279560438613" lon="8.42950135772482"><ele>220.4</ele><time>2026-04-01T13:12:51Z</time></trkpt><trkpt lat="45.92269228057242" lon="8.429445475360396"><ele>220.8</ele><time>2026-04-01T13:12:52Z</time></trkpt><trkpt lat="45.92258798018769" lon="8.429389491330468"><ele>221.2</ele><time>2026-04-01T13:12:53Z</time></trkpt><trkpt lat="45.92248485542436" lon="8.429332555468639"><ele>221.6</ele><time>2026-04-01T13:12:54Z</time></trkpt><trkpt lat="45.92237890843583" lon="8.429275450538583"><ele>222.0</ele><time>2026-04-01T13:12:55Z</time></trkpt><trkpt lat="45.92227116036035" lon="8.42921825306354"><ele>223.0</ele><time>2026-04-01T13:12:56Z</time></trkpt><trkpt lat="45.92215380140846" lon="8.429154912285524"><ele>224.0</ele><time>2026-04-01T13:12:57Z</time></trkpt><trkpt lat="45.92202261580035" lon="8.429084648136188"><ele>225.0</ele><time>2026-04-01T13:12:58Z</time></trkpt><trkpt lat="45.921883710681215" lon="8.42901302161654"><ele>226.0</ele><time>2026-04-01T13:12:59Z</time></trkpt><trkpt lat="45.92175348752237" lon="8.428943983437138"><ele>226.5</ele><time>2026-04-01T13:13:00Z</time></trkpt><trkpt lat="45.92162829438051" lon="8.428874238987662"><ele>227.0</ele><time>2026-04-01T13:13:01Z</time></trkpt><trkpt lat="45.92150186209854" lon="8.428807186986337"><ele>227.5</ele><time>2026-04-01T13:13:02Z</time></trkpt><trkpt lat="45.92137784261958" lon="8.428738213585332"><ele>228.0</ele><time>2026-04-01T13:13:03Z</time></trkpt><trkpt lat="45.92125551828894" lon="8.428673232872141"><ele>229.0</ele><time>2026-04-01T13:13:04Z</time></trkpt><trkpt lat="45.92113438386535" lon="8.428608817816801"><ele>230.0</ele><time>2026-04-01T13:13:05Z</time></trkpt><trkpt lat="45.92101531114975" lon="8.428544942436778"><ele>231.0</ele><time>2026-04-01T13:13:06Z</time></trkpt><trkpt lat="45.9208955659369" lon="8.428482503183654"><ele>232.0</ele><time>2026-04-01T13:13:07Z</time></trkpt><trkpt lat="45.92077713989044" lon="8.428419027317258"><ele>232.75</ele><time>2026-04-01T13:13:08Z</time></trkpt><trkpt lat="45.920658481633076" lon="8.428355971807104"><ele>233.5</ele><time>2026-04-01T13:13:09Z</time></trkpt><trkpt lat="45.92054027945387" lon="8.428292517731231"><ele>234.25</ele><time>2026-04-01T13:13:10Z</time></trkpt><trkpt lat="45.92042193354727" lon="8.42822963462487"><ele>235.0</ele><time>2026-04-01T13:13:11Z</time></trkpt><trkpt lat="45.92030355719784" lon="8.428167823792409"><ele>235.0</ele><time>2026-04-01T13:13:12Z</time></trkpt><trkpt lat="45.92018632573086" lon="8.428103672353885"><ele>235.0</ele><time>2026-04-01T13:13:13Z</time></trkpt><trkpt lat="45.92006774657382" lon="8.428041197675842"><ele>235.0</ele><time>2026-04-01T13:13:14Z</time></trkpt><trkpt lat="45.91994957188814" lon="8.427978351249859"><ele>235.0</ele><time>2026-04-01T13:13:15Z</time></trkpt><trkpt lat="45.91983251362685" lon="8.42791579716348"><ele>236.4</ele><time>2026-04-01T13:13:16Z</time></trkpt><trkpt lat="45.9197196320934" lon="8.427854741932839"><ele>237.8</ele><time>2026-04-01T13:13:17Z</time></trkpt><trkpt lat="45.91961132082552" lon="8.427798935106296"><ele>239.2</ele><time>2026-04-01T13:13:18Z</time></trkpt><trkpt lat="45.919512336869225" lon="8.427745602476922"><ele>240.6</ele><time>2026-04-01T13:13:19Z</time></trkpt><trkpt lat="45.91942142895538" lon="8.42769097447547"><ele>242.0</ele><time>2026-04-01T13:13:20Z</time></trkpt><trkpt lat="45.91934108270371" lon="8.42764457507406"><ele>242.00000000000003</ele><time>2026-04-01T13:13:21Z</time></trkpt><trkpt lat="45.91927967023621" lon="8.42760803616502"><ele>242.0</ele><time>2026-04-01T13:13:22Z</time></trkpt><trkpt lat="45.91918835743449" lon="8.427535012199044"><ele>242.0</ele><time>2026-04-01T13:13:24.001Z</time></trkpt><trkpt lat="45.91909059030629" lon="8.427451176443961"><ele>242.0</ele><time>2026-04-01T13:13:26.001Z</time></trkpt><trkpt lat="45.9190263952508" lon="8.42744945299892"><ele>242.00000000000003</ele><time>2026-04-01T13:13:27.001Z</time></trkpt><trkpt lat="45.918958303756" lon="8.427454932816673"><ele>242.0</ele><time>2026-04-01T13:13:28.001Z</time></trkpt><trkpt lat="45.91888588801548" lon="8.427447704910552"><ele>242.39999999999998</ele><time>2026-04-01T13:13:29.001Z</time></trkpt><trkpt lat="45.91881032229658" lon="8.427413670893747"><ele>242.79999999999998</ele><time>2026-04-01T13:13:30.001Z</time></trkpt><trkpt lat="45.91873066902162" lon="8.427377952228278"><ele>243.2</ele><time>2026-04-01T13:13:31.001Z</time></trkpt><trkpt lat="45.91864645773247" lon="8.42733991564626"><ele>243.6</ele><time>2026-04-01T13:13:32.001Z</time></trkpt><trkpt lat="45.91855366466509" lon="8.42730062322377"><ele>244.0</ele><time>2026-04-01T13:13:33.001Z</time></trkpt><trkpt lat="45.91845468273" lon="8.427261594678528"><ele>243.5</ele><time>2026-04-01T13:13:34.001Z</time></trkpt><trkpt lat="45.91835075869333" lon="8.427221146470842"><ele>243.0</ele><time>2026-04-01T13:13:35.001Z</time></trkpt><trkpt lat="45.91824109227202" lon="8.427181071162856"><ele>242.5</ele><time>2026-04-01T13:13:36.001Z</time></trkpt><trkpt lat="45.91812606150217" lon="8.427138742778636"><ele>242.0</ele><time>2026-04-01T13:13:37.001Z</time></trkpt><trkpt lat="45.91801085561465" lon="8.427070823055118"><ele>242.25</ele><time>2026-04-01T13:13:38.001Z</time></trkpt><trkpt lat="45.917885816271344" lon="8.427046779206147"><ele>242.5</ele><time>2026-04-01T13:13:39.001Z</time></trkpt><trkpt lat="45.9177616849689" lon="8.426996202560925"><ele>242.75</ele><time>2026-04-01T13:13:39.999Z</time></trkpt><trkpt lat="45.917635578361725" lon="8.426947063605724"><ele>243.0</ele><time>2026-04-01T13:13:40.999Z</time></trkpt><trkpt lat="45.91750824876162" lon="8.426897988564944"><ele>243.0</ele><time>2026-04-01T13:13:41.999Z</time></trkpt><trkpt lat="45.91737932662173" lon="8.426848113685637"><ele>243.0</ele><time>2026-04-01T13:13:42.999Z</time></trkpt><trkpt lat="45.91724739866969" lon="8.426797240988952"><ele>243.0</ele><time>2026-04-01T13:13:43.999Z</time></trkpt><trkpt lat="45.917113473737416" lon="8.426745488053529"><ele>243.0</ele><time>2026-04-01T13:13:44.999Z</time></trkpt><trkpt lat="45.91697741490299" lon="8.42669475032895"><ele>243.0</ele><time>2026-04-01T13:13:45.999Z</time></trkpt><trkpt lat="45.916841177498185" lon="8.426644111791056"><ele>243.0</ele><time>2026-04-01T13:13:46.999Z</time></trkpt><trkpt lat="45.91670366790875" lon="8.426592162995751"><ele>243.0</ele><time>2026-04-01T13:13:47.999Z</time></trkpt><trkpt lat="45.91656567913492" lon="8.426539753764912"><ele>243.0</ele><time>2026-04-01T13:13:48.999Z</time></trkpt><trkpt lat="45.91642869943479" lon="8.426487298282124"><ele>242.75</ele><time>2026-04-01T13:13:49.999Z</time></trkpt><trkpt lat="45.91628974898626" lon="8.426433998117227"><ele>242.5</ele><time>2026-04-01T13:13:50.999Z</time></trkpt><trkpt lat="45.91615038004403" lon="8.42638172791229"><ele>242.25</ele><time>2026-04-01T13:13:51.999Z</time></trkpt><trkpt lat="45.91601126781512" lon="8.426328772937186"><ele>242.0</ele><time>2026-04-01T13:13:52.999Z</time></trkpt><trkpt lat="45.91587232109034" lon="8.426275029654516"><ele>244.25</ele><time>2026-04-01T13:13:53.999Z</time></trkpt><trkpt lat="45.915732681370905" lon="8.426219725933617"><ele>246.5</ele><time>2026-04-01T13:13:54.999Z</time></trkpt><trkpt lat="45.91559379059156" lon="8.426164694864886"><ele>248.75</ele><time>2026-04-01T13:13:55.999Z</time></trkpt><trkpt lat="45.91545496503435" lon="8.426110170255875"><ele>251.0</ele><time>2026-04-01T13:13:56.999Z</time></trkpt><trkpt lat="45.91531737929725" lon="8.426056975113712"><ele>251.0</ele><time>2026-04-01T13:13:57.999Z</time></trkpt><trkpt lat="45.91517759312978" lon="8.42600554836595"><ele>251.0</ele><time>2026-04-01T13:13:58.999Z</time></trkpt><trkpt lat="45.91504268930704" lon="8.425952610548766"><ele>251.0</ele><time>2026-04-01T13:13:59.999Z</time></trkpt><trkpt lat="45.91490796585552" lon="8.425899598523705"><ele>251.0</ele><time>2026-04-01T13:14:01Z</time></trkpt><trkpt lat="45.91477363549394" lon="8.425847982932137"><ele>250.25</ele><time>2026-04-01T13:14:02Z</time></trkpt><trkpt lat="45.91463932052152" lon="8.425797852773568"><ele>249.5</ele><time>2026-04-01T13:14:03Z</time></trkpt><trkpt lat="45.91450624848676" lon="8.425746269529075"><ele>248.75</ele><time>2026-04-01T13:14:04Z</time></trkpt><trkpt lat="45.91437378424808" lon="8.425692615856212"><ele>248.0</ele><time>2026-04-01T13:14:05Z</time></trkpt><trkpt lat="45.91423940289682" lon="8.4256387109142"><ele>248.25</ele><time>2026-04-01T13:14:06Z</time></trkpt><trkpt lat="45.91410787648059" lon="8.425580103924409"><ele>248.5</ele><time>2026-04-01T13:14:07Z</time></trkpt><trkpt lat="45.913976432217964" lon="8.425513900990008"><ele>248.75</ele><time>2026-04-01T13:14:08Z</time></trkpt><trkpt lat="45.91384473846181" lon="8.425437274921777"><ele>249.0</ele><time>2026-04-01T13:14:09Z</time></trkpt><trkpt lat="45.91371778111055" lon="8.425351202388901"><ele>249.5</ele><time>2026-04-01T13:14:10Z</time></trkpt><trkpt lat="45.91359151608704" lon="8.425259549890653"><ele>250.0</ele><time>2026-04-01T13:14:11Z</time></trkpt><trkpt lat="45.91346940317401" lon="8.425165010181557"><ele>250.5</ele><time>2026-04-01T13:14:12Z</time></trkpt><trkpt lat="45.91334726663119" lon="8.425072441728702"><ele>251.0</ele><time>2026-04-01T13:14:13Z</time></trkpt><trkpt lat="45.913227209194964" lon="8.424982989645967"><ele>251.0</ele><time>2026-04-01T13:14:14Z</time></trkpt><trkpt lat="45.91310969461789" lon="8.42489308550136"><ele>251.0</ele><time>2026-04-01T13:14:15Z</time></trkpt><trkpt lat="45.91299427263539" lon="8.424807850080406"><ele>251.0</ele><time>2026-04-01T13:14:16Z</time></trkpt><trkpt lat="45.912881772482905" lon="8.424726189900088"><ele>251.0</ele><time>2026-04-01T13:14:17Z</time></trkpt><trkpt lat="45.91277490168906" lon="8.42464369020753"><ele>251.75</ele><time>2026-04-01T13:14:18Z</time></trkpt><trkpt lat="45.91266963677169" lon="8.424560445667156"><ele>252.5</ele><time>2026-04-01T13:14:19Z</time></trkpt><trkpt lat="45.91256580729986" lon="8.424479919272196"><ele>253.25</ele><time>2026-04-01T13:14:20Z</time></trkpt><trkpt lat="45.91246314647309" lon="8.424401998487534"><ele>254.0</ele><time>2026-04-01T13:14:21Z</time></trkpt><trkpt lat="45.91235648607102" lon="8.424323592770591"><ele>254.0</ele><time>2026-04-01T13:14:22Z</time></trkpt><trkpt lat="45.91224813501699" lon="8.424243786791862"><ele>254.0</ele><time>2026-04-01T13:14:23Z</time></trkpt><trkpt lat="45.91213715596178" lon="8.424158447591509"><ele>254.0</ele><time>2026-04-01T13:14:24Z</time></trkpt><trkpt lat="45.9120262621656" lon="8.424072002785094"><ele>254.0</ele><time>2026-04-01T13:14:25Z</time></trkpt><trkpt lat="45.9119143703788" lon="8.423987467645631"><ele>254.0</ele><time>2026-04-01T13:14:26Z</time></trkpt><trkpt lat="45.9118015814619" lon="8.423900339326105"><ele>254.0</ele><time>2026-04-01T13:14:27Z</time></trkpt><trkpt lat="45.91168968550683" lon="8.42381392165275"><ele>254.0</ele><time>2026-04-01T13:14:28Z</time></trkpt><trkpt lat="45.911574604763175" lon="8.423733049910114"><ele>254.0</ele><time>2026-04-01T13:14:29Z</time></trkpt><trkpt lat="45.91146014990174" lon="8.423647950103273"><ele>253.75</ele><time>2026-04-01T13:14:30Z</time></trkpt><trkpt lat="45.91134582416441" lon="8.423562778063156"><ele>253.5</ele><time>2026-04-01T13:14:31Z</time></trkpt><trkpt lat="45.91123237516418" lon="8.423481772043186"><ele>253.25</ele><time>2026-04-01T13:14:32Z</time></trkpt><trkpt lat="45.91112244649716" lon="8.423401746041487"><ele>253.0</ele><time>2026-04-01T13:14:33Z</time></trkpt><trkpt lat="45.911014861881" lon="8.4233220365366"><ele>253.0</ele><time>2026-04-01T13:14:34Z</time></trkpt><trkpt lat="45.91090972190448" lon="8.42324350249078"><ele>253.0</ele><time>2026-04-01T13:14:35Z</time></trkpt><trkpt lat="45.910803910619414" lon="8.42316473117719"><ele>253.0</ele><time>2026-04-01T13:14:36Z</time></trkpt><trkpt lat="45.910698448547244" lon="8.423084607657296"><ele>253.0</ele><time>2026-04-01T13:14:37Z</time></trkpt><trkpt lat="45.9105943796518" lon="8.423006277766305"><ele>253.25</ele><time>2026-04-01T13:14:38Z</time></trkpt><trkpt lat="45.910493043716" lon="8.422928554495781"><ele>253.5</ele><time>2026-04-01T13:14:39Z</time></trkpt><trkpt lat="45.91038847288612" lon="8.422853876499568"><ele>253.75</ele><time>2026-04-01T13:14:40Z</time></trkpt><trkpt lat="45.91028516950399" lon="8.422780723524665"><ele>254.0</ele><time>2026-04-01T13:14:41Z</time></trkpt><trkpt lat="45.91018506115261" lon="8.422706173292491"><ele>254.0</ele><time>2026-04-01T13:14:42Z</time></trkpt><trkpt lat="45.91009363335637" lon="8.42261006395203"><ele>254.0</ele><time>2026-04-01T13:14:43Z</time></trkpt><trkpt lat="45.909991082651324" lon="8.42253203526343"><ele>254.0</ele><time>2026-04-01T13:14:44Z</time></trkpt><trkpt lat="45.909886201358255" lon="8.422453460530896"><ele>254.0</ele><time>2026-04-01T13:14:45Z</time></trkpt><trkpt lat="45.90977618447305" lon="8.42239179092079"><ele>254.25</ele><time>2026-04-01T13:14:46Z</time></trkpt><trkpt lat="45.909669167628856" lon="8.422317213263922"><ele>254.5</ele><time>2026-04-01T13:14:47Z</time></trkpt><trkpt lat="45.909562341502756" lon="8.422249162529305"><ele>254.75</ele><time>2026-04-01T13:14:48Z</time></trkpt><trkpt lat="45.909456458389556" lon="8.422184361876962"><ele>255.0</ele><time>2026-04-01T13:14:49Z</time></trkpt><trkpt lat="45.90935130953883" lon="8.42212215677431"><ele>255.0</ele><time>2026-04-01T13:14:50Z</time></trkpt><trkpt lat="45.90924693105755" lon="8.422063895685364"><ele>255.0</ele><time>2026-04-01T13:14:51Z</time></trkpt><trkpt lat="45.90914460919541" lon="8.422007709069455"><ele>255.0</ele><time>2026-04-01T13:14:52Z</time></trkpt><trkpt lat="45.909044167430075" lon="8.42194998541382"><ele>255.0</ele><time>2026-04-01T13:14:53Z</time></trkpt><trkpt lat="45.908938514161214" lon="8.421891756438844"><ele>255.0</ele><time>2026-04-01T13:14:54Z</time></trkpt><trkpt lat="45.90883215620209" lon="8.421831292488632"><ele>254.4</ele><time>2026-04-01T13:14:55Z</time></trkpt><trkpt lat="45.908727262399154" lon="8.42177028727629"><ele>253.8</ele><time>2026-04-01T13:14:56Z</time></trkpt><trkpt lat="45.90862492291612" lon="8.42170789093041"><ele>253.2</ele><time>2026-04-01T13:14:57Z</time></trkpt><trkpt lat="45.908524925564855" lon="8.421646973452193"><ele>252.6</ele><time>2026-04-01T13:14:58Z</time></trkpt><trkpt lat="45.908425122096354" lon="8.421587819784898"><ele>252.0</ele><time>2026-04-01T13:14:59Z</time></trkpt><trkpt lat="45.90832225606359" lon="8.421528799752087"><ele>251.8</ele><time>2026-04-01T13:15:00Z</time></trkpt><trkpt lat="45.90821516965198" lon="8.421469922476014"><ele>251.6</ele><time>2026-04-01T13:15:01Z</time></trkpt><trkpt lat="45.90811131282652" lon="8.421412135692607"><ele>251.40000000000003</ele><time>2026-04-01T13:15:02Z</time></trkpt><trkpt lat="45.908008299801224" lon="8.42135478679049"><ele>251.20000000000002</ele><time>2026-04-01T13:15:03Z</time></trkpt><trkpt lat="45.90790798238358" lon="8.421298223051052"><ele>251.0</ele><time>2026-04-01T13:15:04Z</time></trkpt><trkpt lat="45.9078104503545" lon="8.421243573813046"><ele>251.0</ele><time>2026-04-01T13:15:05Z</time></trkpt><trkpt lat="45.907714861823436" lon="8.421191162495388"><ele>251.00000000000003</ele><time>2026-04-01T13:15:06Z</time></trkpt><trkpt lat="45.90762239771039" lon="8.421140628107402"><ele>251.00000000000003</ele><time>2026-04-01T13:15:07Z</time></trkpt><trkpt lat="45.90753346046186" lon="8.42109138344806"><ele>251.0</ele><time>2026-04-01T13:15:08Z</time></trkpt><trkpt lat="45.90744714150504" lon="8.421044480456503"><ele>251.0</ele><time>2026-04-01T13:15:09Z</time></trkpt><trkpt lat="45.90736139983538" lon="8.421003331357182"><ele>250.83333333333334</ele><time>2026-04-01T13:15:10Z</time></trkpt><trkpt lat="45.907274472373764" lon="8.420971115031147"><ele>250.66666666666669</ele><time>2026-04-01T13:15:11Z</time></trkpt><trkpt lat="45.90719103516449" lon="8.420951776151526"><ele>250.5</ele><time>2026-04-01T13:15:12Z</time></trkpt><trkpt lat="45.90712091141751" lon="8.420937338207617"><ele>250.33333333333331</ele><time>2026-04-01T13:15:13Z</time></trkpt><trkpt lat="45.907001073681464" lon="8.420877747033956"><ele>250.16666666666666</ele><time>2026-04-01T13:15:15Z</time></trkpt><trkpt lat="45.906939697245605" lon="8.420829907098357"><ele>250.0</ele><time>2026-04-01T13:15:16Z</time></trkpt><trkpt lat="45.90687236790908" lon="8.420777611785386"><ele>250.0</ele><time>2026-04-01T13:15:17Z</time></trkpt><trkpt lat="45.9067996085281" lon="8.42072089832524"><ele>250.0</ele><time>2026-04-01T13:15:18Z</time></trkpt><trkpt lat="45.90672110202943" lon="8.420660082932377"><ele>250.0</ele><time>2026-04-01T13:15:19Z</time></trkpt><trkpt lat="45.90663698576299" lon="8.420601191897077"><ele>250.0</ele><time>2026-04-01T13:15:20Z</time></trkpt><trkpt lat="45.906545691933204" lon="8.420545838666007"><ele>250.0</ele><time>2026-04-01T13:15:21Z</time></trkpt><trkpt lat="45.90644967784564" lon="8.42049502318078"><ele>250.2</ele><time>2026-04-01T13:15:22Z</time></trkpt><trkpt lat="45.906350168590095" lon="8.420444177644235"><ele>250.4</ele><time>2026-04-01T13:15:23Z</time></trkpt><trkpt lat="45.90624792285795" lon="8.420392133319313"><ele>250.60000000000002</ele><time>2026-04-01T13:15:24Z</time></trkpt><trkpt lat="45.90614188195509" lon="8.420336642500667"><ele>250.8</ele><time>2026-04-01T13:15:25Z</time></trkpt><trkpt lat="45.9060322265586" lon="8.420278379496825"><ele>251.0</ele><time>2026-04-01T13:15:26Z</time></trkpt><trkpt lat="45.905922620238215" lon="8.420220000664902"><ele>251.0</ele><time>2026-04-01T13:15:27Z</time></trkpt><trkpt lat="45.905816682998484" lon="8.42016537398659"><ele>251.00000000000003</ele><time>2026-04-01T13:15:28Z</time></trkpt><trkpt lat="45.905715204115154" lon="8.420111438831368"><ele>251.00000000000003</ele><time>2026-04-01T13:15:29Z</time></trkpt><trkpt lat="45.90561824614854" lon="8.420060431198136"><ele>251.0</ele><time>2026-04-01T13:15:30Z</time></trkpt><trkpt lat="45.9055262707938" lon="8.420009862936386"><ele>251.0</ele><time>2026-04-01T13:15:31Z</time></trkpt><trkpt lat="45.90544000090395" lon="8.41996041653161"><ele>251.00000000000003</ele><time>2026-04-01T13:15:32Z</time></trkpt><trkpt lat="45.905355042033456" lon="8.419914488243997"><ele>251.0</ele><time>2026-04-01T13:15:33Z</time></trkpt><trkpt lat="45.905273746595576" lon="8.419867973555672"><ele>251.0</ele><time>2026-04-01T13:15:34Z</time></trkpt><trkpt lat="45.90519409777547" lon="8.419822700935502"><ele>251.0</ele><time>2026-04-01T13:15:35Z</time></trkpt><trkpt lat="45.905118558664306" lon="8.419778202730244"><ele>251.00000000000003</ele><time>2026-04-01T13:15:36Z</time></trkpt><trkpt lat="45.905043093295454" lon="8.4197349538768"><ele>251.0</ele><time>2026-04-01T13:15:37Z</time></trkpt><trkpt lat="45.9049695951718" lon="8.419694129077097"><ele>250.83333333333334</ele><time>2026-04-01T13:15:38.001Z</time></trkpt><trkpt lat="45.904900796711715" lon="8.419654060497711"><ele>250.66666666666669</ele><time>2026-04-01T13:15:39.001Z</time></trkpt><trkpt lat="45.90483962163618" lon="8.419620769130944"><ele>250.5</ele><time>2026-04-01T13:15:40.001Z</time></trkpt><trkpt lat="45.90474956268799" lon="8.419569053086173"><ele>250.33333333333331</ele><time>2026-04-01T13:15:42.001Z</time></trkpt><trkpt lat="45.90467136042081" lon="8.419526418632325"><ele>250.16666666666666</ele><time>2026-04-01T13:15:44.001Z</time></trkpt><trkpt lat="45.904594018968695" lon="8.419486274560478"><ele>250.0</ele><time>2026-04-01T13:15:46.999Z</time></trkpt><trkpt lat="45.904530560434004" lon="8.419451976757095"><ele>250.83333333333331</ele><time>2026-04-01T13:15:49.999Z</time></trkpt><trkpt lat="45.904454778262064" lon="8.419413306336235"><ele>251.66666666666666</ele><time>2026-04-01T13:15:52.999Z</time></trkpt><trkpt lat="45.90438318275326" lon="8.41937546100807"><ele>252.5</ele><time>2026-04-01T13:15:54.999Z</time></trkpt><trkpt lat="45.90429743960832" lon="8.419328306039302"><ele>253.33333333333331</ele><time>2026-04-01T13:15:56.999Z</time></trkpt><trkpt lat="45.90422364245807" lon="8.419281852486815"><ele>254.16666666666666</ele><time>2026-04-01T13:15:58.999Z</time></trkpt><trkpt lat="45.90414578404115" lon="8.419234350376021"><ele>255.0</ele><time>2026-04-01T13:16:00.999Z</time></trkpt><trkpt lat="45.90405763910482" lon="8.419178461956568"><ele>255.0</ele><time>2026-04-01T13:16:02.999Z</time></trkpt><trkpt lat="45.90395346887209" lon="8.419111880738692"><ele>255.0</ele><time>2026-04-01T13:16:04.999Z</time></trkpt><trkpt lat="45.90389608178832" lon="8.419071467247104"><ele>255.0</ele><time>2026-04-01T13:16:05.999Z</time></trkpt><trkpt lat="45.90383869048983" lon="8.41902991067519"><ele>255.0</ele><time>2026-04-01T13:16:06.999Z</time></trkpt><trkpt lat="45.90375679199837" lon="8.418968085072601"><ele>255.0</ele><time>2026-04-01T13:16:08.999Z</time></trkpt><trkpt lat="45.9037005918568" lon="8.41892272981006"><ele>255.0</ele><time>2026-04-01T13:16:11.999Z</time></trkpt><trkpt lat="45.90363417268363" lon="8.418870951581047"><ele>255.0</ele><time>2026-04-01T13:16:16Z</time></trkpt><trkpt lat="45.903575295180225" lon="8.418827437765874"><ele>255.0</ele><time>2026-04-01T13:16:18Z</time></trkpt><trkpt lat="45.903502952913705" lon="8.41877227415552"><ele>255.0</ele><time>2026-04-01T13:16:20Z</time></trkpt><trkpt lat="45.903408592949326" lon="8.418700950097284"><ele>255.0</ele><time>2026-04-01T13:16:22Z</time></trkpt><trkpt lat="45.90334977690037" lon="8.418658639061299"><ele>255.0</ele><time>2026-04-01T13:16:23Z</time></trkpt><trkpt lat="45.90328532012266" lon="8.418611475535"><ele>255.0</ele><time>2026-04-01T13:16:24Z</time></trkpt><trkpt lat="45.903216925323854" lon="8.418560846687294"><ele>255.66666666666666</ele><time>2026-04-01T13:16:25Z</time></trkpt><trkpt lat="45.90314351657537" lon="8.418507290433912"><ele>256.3333333333333</ele><time>2026-04-01T13:16:26Z</time></trkpt><trkpt lat="45.90306791193156" lon="8.418452410092119"><ele>257.0</ele><time>2026-04-01T13:16:27Z</time></trkpt><trkpt lat="45.902997926501776" lon="8.418401802569141"><ele>257.66666666666663</ele><time>2026-04-01T13:16:28Z</time></trkpt><trkpt lat="45.90293442261543" lon="8.418348877424037"><ele>258.3333333333333</ele><time>2026-04-01T13:16:29Z</time></trkpt><trkpt lat="45.90286621585922" lon="8.418297658471783"><ele>259.0</ele><time>2026-04-01T13:16:30Z</time></trkpt><trkpt lat="45.902793781449574" lon="8.41824622336737"><ele>259.0</ele><time>2026-04-01T13:16:31Z</time></trkpt><trkpt lat="45.90272079092794" lon="8.418196116499065"><ele>259.0</ele><time>2026-04-01T13:16:32Z</time></trkpt><trkpt lat="45.9026503473815" lon="8.41814968525381"><ele>259.0</ele><time>2026-04-01T13:16:33Z</time></trkpt><trkpt lat="45.902587226026206" lon="8.418103707558455"><ele>259.0</ele><time>2026-04-01T13:16:34Z</time></trkpt><trkpt lat="45.902528508110336" lon="8.418060904043898"><ele>259.0</ele><time>2026-04-01T13:16:35Z</time></trkpt><trkpt lat="45.902429536337856" lon="8.417987153892229"><ele>259.0</ele><time>2026-04-01T13:16:37Z</time></trkpt><trkpt lat="45.90236098449802" lon="8.417933667625565"><ele>259.5</ele><time>2026-04-01T13:16:39Z</time></trkpt><trkpt lat="45.902277511913795" lon="8.417867888972047"><ele>260.0</ele><time>2026-04-01T13:16:41Z</time></trkpt><trkpt lat="45.90217575335956" lon="8.417789456166542"><ele>260.5</ele><time>2026-04-01T13:16:43Z</time></trkpt><trkpt lat="45.90212073794844" lon="8.417744478868302"><ele>261.0</ele><time>2026-04-01T13:16:44Z</time></trkpt><trkpt lat="45.9020616583207" lon="8.41769819834725"><ele>261.5</ele><time>2026-04-01T13:16:45Z</time></trkpt><trkpt lat="45.90199728270762" lon="8.41765243089001"><ele>262.0</ele><time>2026-04-01T13:16:46Z</time></trkpt><trkpt lat="45.90193031535637" lon="8.417603098145326"><ele>262.0</ele><time>2026-04-01T13:16:47Z</time></trkpt><trkpt lat="45.90186197619242" lon="8.417550087595675"><ele>262.0</ele><time>2026-04-01T13:16:48Z</time></trkpt><trkpt lat="45.90179155877068" lon="8.417495866043597"><ele>262.0</ele><time>2026-04-01T13:16:49Z</time></trkpt><trkpt lat="45.90171454542825" lon="8.417437645922092"><ele>262.0</ele><time>2026-04-01T13:16:50Z</time></trkpt><trkpt lat="45.90163706932872" lon="8.417380745092757"><ele>262.0</ele><time>2026-04-01T13:16:51Z</time></trkpt><trkpt lat="45.90156033971026" lon="8.41732162151813"><ele>262.0</ele><time>2026-04-01T13:16:52Z</time></trkpt><trkpt lat="45.901488541188556" lon="8.41726707963974"><ele>262.16666666666663</ele><time>2026-04-01T13:16:53Z</time></trkpt><trkpt lat="45.9014145330881" lon="8.417212640590536"><ele>262.3333333333333</ele><time>2026-04-01T13:16:54Z</time></trkpt><trkpt lat="45.90134082793027" lon="8.417158246708404"><ele>262.5</ele><time>2026-04-01T13:16:55Z</time></trkpt><trkpt lat="45.90126948469141" lon="8.4171019317095"><ele>262.6666666666667</ele><time>2026-04-01T13:16:56Z</time></trkpt><trkpt lat="45.90120309702944" lon="8.41705330689417"><ele>262.83333333333337</ele><time>2026-04-01T13:16:57Z</time></trkpt><trkpt lat="45.901137940822956" lon="8.417005993522796"><ele>263.0</ele><time>2026-04-01T13:16:58Z</time></trkpt><trkpt lat="45.901073944903054" lon="8.416958427795677"><ele>263.5</ele><time>2026-04-01T13:16:59Z</time></trkpt><trkpt lat="45.901006742807354" lon="8.416910135968495"><ele>264.0</ele><time>2026-04-01T13:17:00Z</time></trkpt><trkpt lat="45.90093839124125" lon="8.416858628348304"><ele>264.5</ele><time>2026-04-01T13:17:01Z</time></trkpt><trkpt lat="45.90086630449995" lon="8.416804800348636"><ele>265.0</ele><time>2026-04-01T13:17:02Z</time></trkpt><trkpt lat="45.90079180031779" lon="8.416747423876945"><ele>265.5</ele><time>2026-04-01T13:17:03Z</time></trkpt><trkpt lat="45.90071684439938" lon="8.416691472770081"><ele>266.0</ele><time>2026-04-01T13:17:04Z</time></trkpt><trkpt lat="45.900642551542134" lon="8.41663500373673"><ele>266.0</ele><time>2026-04-01T13:17:05Z</time></trkpt><trkpt lat="45.90057122238702" lon="8.416582673707667"><ele>266.0</ele><time>2026-04-01T13:17:06Z</time></trkpt><trkpt lat="45.90050270271998" lon="8.416533210161306"><ele>266.0</ele><time>2026-04-01T13:17:07Z</time></trkpt><trkpt lat="45.90043915071756" lon="8.416486450230611"><ele>266.0</ele><time>2026-04-01T13:17:08Z</time></trkpt><trkpt lat="45.9003776557892" lon="8.41644316098452"><ele>266.0</ele><time>2026-04-01T13:17:09Z</time></trkpt><trkpt lat="45.90032633120865" lon="8.416378955160273"><ele>266.0</ele><time>2026-04-01T13:17:10Z</time></trkpt><trkpt lat="45.90026299448499" lon="8.416354579661197"><ele>266.0</ele><time>2026-04-01T13:17:11Z</time></trkpt><trkpt lat="45.900208332258856" lon="8.416309602945264"><ele>265.6</ele><time>2026-04-01T13:17:12Z</time></trkpt><trkpt lat="45.90011366458191" lon="8.416221263609474"><ele>265.20000000000005</ele><time>2026-04-01T13:17:14Z</time></trkpt><trkpt lat="45.90001267444055" lon="8.416184664396898"><ele>264.79999999999995</ele><time>2026-04-01T13:17:16Z</time></trkpt><trkpt lat="45.89990085739226" lon="8.416112384560972"><ele>264.4</ele><time>2026-04-01T13:17:18Z</time></trkpt><trkpt lat="45.89983438010061" lon="8.416064753600958"><ele>264.0</ele><time>2026-04-01T13:17:19Z</time></trkpt><trkpt lat="45.89976344520754" lon="8.416009445845559"><ele>264.0</ele><time>2026-04-01T13:17:20Z</time></trkpt><trkpt lat="45.89968843413311" lon="8.415942712959154"><ele>264.0</ele><time>2026-04-01T13:17:21Z</time></trkpt><trkpt lat="45.899608393053846" lon="8.415871333197227"><ele>264.0</ele><time>2026-04-01T13:17:22Z</time></trkpt><trkpt lat="45.8995251568673" lon="8.415798861047513"><ele>264.0</ele><time>2026-04-01T13:17:23Z</time></trkpt><trkpt lat="45.89943773910206" lon="8.415727360893525"><ele>264.0</ele><time>2026-04-01T13:17:24Z</time></trkpt><trkpt lat="45.89934729876429" lon="8.415659863417194"><ele>264.0</ele><time>2026-04-01T13:17:25Z</time></trkpt><trkpt lat="45.89925654194023" lon="8.415591496119445"><ele>264.0</ele><time>2026-04-01T13:17:26Z</time></trkpt><trkpt lat="45.89916260662222" lon="8.415517585278387"><ele>264.0</ele><time>2026-04-01T13:17:27Z</time></trkpt><trkpt lat="45.89906517191111" lon="8.415444691994914"><ele>264.0</ele><time>2026-04-01T13:17:28Z</time></trkpt><trkpt lat="45.8989652880876" lon="8.415370596962108"><ele>264.0</ele><time>2026-04-01T13:17:29Z</time></trkpt><trkpt lat="45.89886192344987" lon="8.41529959343607"><ele>264.25</ele><time>2026-04-01T13:17:30Z</time></trkpt><trkpt lat="45.898757715835835" lon="8.41522474143442"><ele>264.5</ele><time>2026-04-01T13:17:31Z</time></trkpt><trkpt lat="45.89865133323684" lon="8.415146994501644"><ele>264.75</ele><time>2026-04-01T13:17:32Z</time></trkpt><trkpt lat="45.89854549131942" lon="8.415063113885484"><ele>265.0</ele><time>2026-04-01T13:17:33Z</time></trkpt><trkpt lat="45.89843695759143" lon="8.41497898024602"><ele>265.5</ele><time>2026-04-01T13:17:34Z</time></trkpt><trkpt lat="45.89832371432917" lon="8.414897011119505"><ele>266.0</ele><time>2026-04-01T13:17:35Z</time></trkpt><trkpt lat="45.898209346655776" lon="8.41481359718027"><ele>266.5</ele><time>2026-04-01T13:17:36Z</time></trkpt><trkpt lat="45.898092659717" lon="8.414729532269787"><ele>267.0</ele><time>2026-04-01T13:17:37Z</time></trkpt><trkpt lat="45.89797461793491" lon="8.414641822407061"><ele>267.0</ele><time>2026-04-01T13:17:38Z</time></trkpt><trkpt lat="45.89785617445817" lon="8.414552091306154"><ele>267.0</ele><time>2026-04-01T13:17:39Z</time></trkpt><trkpt lat="45.89773772827714" lon="8.414460894161282"><ele>267.0</ele><time>2026-04-01T13:17:40Z</time></trkpt><trkpt lat="45.89761842383539" lon="8.414367994377397"><ele>267.0</ele><time>2026-04-01T13:17:41.001Z</time></trkpt><trkpt lat="45.89749908213026" lon="8.414273500560137"><ele>266.75</ele><time>2026-04-01T13:17:42.001Z</time></trkpt><trkpt lat="45.897379030955854" lon="8.414180715678379"><ele>266.5</ele><time>2026-04-01T13:17:43.001Z</time></trkpt><trkpt lat="45.89725870897161" lon="8.414093654572941"><ele>266.25</ele><time>2026-04-01T13:17:44.001Z</time></trkpt><trkpt lat="45.89714221530429" lon="8.414009509124167"><ele>266.0</ele><time>2026-04-01T13:17:45.001Z</time></trkpt><trkpt lat="45.897029361991976" lon="8.413926882754494"><ele>266.0</ele><time>2026-04-01T13:17:46.001Z</time></trkpt><trkpt lat="45.89691830828943" lon="8.413842781254832"><ele>266.0</ele><time>2026-04-01T13:17:47.001Z</time></trkpt><trkpt lat="45.89680924743955" lon="8.413762141570777"><ele>266.0</ele><time>2026-04-01T13:17:48.001Z</time></trkpt><trkpt lat="45.89670080088162" lon="8.41368207162283"><ele>266.0</ele><time>2026-04-01T13:17:49.001Z</time></trkpt><trkpt lat="45.896593573785715" lon="8.413601881927923"><ele>266.75</ele><time>2026-04-01T13:17:50.001Z</time></trkpt><trkpt lat="45.89648815445358" lon="8.41352078693573"><ele>267.5</ele><time>2026-04-01T13:17:51.001Z</time></trkpt><trkpt lat="45.89638327482531" lon="8.413441130770755"><ele>268.25</ele><time>2026-04-01T13:17:51.999Z</time></trkpt><trkpt lat="45.89628277757757" lon="8.41336069995212"><ele>269.0</ele><time>2026-04-01T13:17:52.999Z</time></trkpt><trkpt lat="45.89618147727766" lon="8.413282834866056"><ele>269.0</ele><time>2026-04-01T13:17:53.999Z</time></trkpt><trkpt lat="45.89608262962467" lon="8.4132065951248"><ele>269.0</ele><time>2026-04-01T13:17:54.999Z</time></trkpt><trkpt lat="45.89598497906178" lon="8.413131971191417"><ele>269.0</ele><time>2026-04-01T13:17:55.999Z</time></trkpt><trkpt lat="45.89588620537669" lon="8.413059588304185"><ele>269.0</ele><time>2026-04-01T13:17:56.999Z</time></trkpt><trkpt lat="45.89578636232209" lon="8.41298605692566"><ele>269.0</ele><time>2026-04-01T13:17:57.999Z</time></trkpt><trkpt lat="45.89568913012322" lon="8.41291432385518"><ele>270.0</ele><time>2026-04-01T13:17:58.999Z</time></trkpt><trkpt lat="45.89558982930671" lon="8.412844140225676"><ele>271.0</ele><time>2026-04-01T13:17:59.999Z</time></trkpt><trkpt lat="45.89549173469482" lon="8.412776763621435"><ele>272.0</ele><time>2026-04-01T13:18:00.999Z</time></trkpt><trkpt lat="45.89539532525895" lon="8.412708358087409"><ele>273.0</ele><time>2026-04-01T13:18:01.999Z</time></trkpt><trkpt lat="45.89529925750289" lon="8.412640677043974"><ele>274.0</ele><time>2026-04-01T13:18:02.999Z</time></trkpt><trkpt lat="45.89520706364008" lon="8.412569995991701"><ele>274.0</ele><time>2026-04-01T13:18:03.999Z</time></trkpt><trkpt lat="45.89511410307524" lon="8.412500953021798"><ele>274.0</ele><time>2026-04-01T13:18:04.999Z</time></trkpt><trkpt lat="45.89502175440166" lon="8.412434869160277"><ele>274.0</ele><time>2026-04-01T13:18:05.999Z</time></trkpt><trkpt lat="45.894933672675954" lon="8.412368125872648"><ele>274.0</ele><time>2026-04-01T13:18:06.999Z</time></trkpt><trkpt lat="45.89484808927839" lon="8.412304511720546"><ele>274.0</ele><time>2026-04-01T13:18:07.999Z</time></trkpt><trkpt lat="45.89476639697281" lon="8.412245964956305"><ele>273.8333333333333</ele><time>2026-04-01T13:18:08.999Z</time></trkpt><trkpt lat="45.89469463597433" lon="8.4121694337954"><ele>273.66666666666663</ele><time>2026-04-01T13:18:09.999Z</time></trkpt><trkpt lat="45.89461884753245" lon="8.41211263792173"><ele>273.5</ele><time>2026-04-01T13:18:10.999Z</time></trkpt><trkpt lat="45.89454552107375" lon="8.412058081982973"><ele>273.3333333333333</ele><time>2026-04-01T13:18:11.999Z</time></trkpt><trkpt lat="45.89447235733699" lon="8.412003568048036"><ele>273.1666666666667</ele><time>2026-04-01T13:18:12.999Z</time></trkpt><trkpt lat="45.894390686627354" lon="8.411967505016294"><ele>273.0</ele><time>2026-04-01T13:18:13.999Z</time></trkpt><trkpt lat="45.89431530218717" lon="8.411905901045143"><ele>273.6666666666667</ele><time>2026-04-01T13:18:14.999Z</time></trkpt><trkpt lat="45.89423660131213" lon="8.4118467745942"><ele>274.3333333333333</ele><time>2026-04-01T13:18:15.999Z</time></trkpt><trkpt lat="45.894158564534884" lon="8.41178630351011"><ele>275.0</ele><time>2026-04-01T13:18:16.999Z</time></trkpt><trkpt lat="45.89407905227412" lon="8.411726867663624"><ele>275.66666666666663</ele><time>2026-04-01T13:18:17.999Z</time></trkpt><trkpt lat="45.89399919084067" lon="8.411669793343139"><ele>276.3333333333333</ele><time>2026-04-01T13:18:18.999Z</time></trkpt><trkpt lat="45.893919829815644" lon="8.411612032269822"><ele>277.0</ele><time>2026-04-01T13:18:19.999Z</time></trkpt><trkpt lat="45.89384201394677" lon="8.411553700863797"><ele>277.0</ele><time>2026-04-01T13:18:21Z</time></trkpt><trkpt lat="45.89376265772654" lon="8.411492666171196"><ele>277.0</ele><time>2026-04-01T13:18:22Z</time></trkpt><trkpt lat="45.89368068085259" lon="8.411432735181153"><ele>277.0</ele><time>2026-04-01T13:18:23Z</time></trkpt><trkpt lat="45.89359711701971" lon="8.411372172966312"><ele>277.0</ele><time>2026-04-01T13:18:24Z</time></trkpt><trkpt lat="45.893513969104" lon="8.41131082901338"><ele>277.0</ele><time>2026-04-01T13:18:25Z</time></trkpt><trkpt lat="45.89343217442221" lon="8.411245777569023"><ele>277.4</ele><time>2026-04-01T13:18:26Z</time></trkpt><trkpt lat="45.89334894539644" lon="8.411181293771836"><ele>277.79999999999995</ele><time>2026-04-01T13:18:27Z</time></trkpt><trkpt lat="45.8932646172435" lon="8.411117241096111"><ele>278.2</ele><time>2026-04-01T13:18:28Z</time></trkpt><trkpt lat="45.893180045415775" lon="8.411053419230596"><ele>278.59999999999997</ele><time>2026-04-01T13:18:29Z</time></trkpt><trkpt lat="45.89309830906399" lon="8.410993529431783"><ele>279.0</ele><time>2026-04-01T13:18:30Z</time></trkpt><trkpt lat="45.89302213426447" lon="8.410936090406096"><ele>279.0</ele><time>2026-04-01T13:18:31Z</time></trkpt><trkpt lat="45.89294489526584" lon="8.410879557470427"><ele>279.0</ele><time>2026-04-01T13:18:32Z</time></trkpt><trkpt lat="45.892879053325395" lon="8.410798492968544"><ele>279.0</ele><time>2026-04-01T13:18:33Z</time></trkpt><trkpt lat="45.892805060591925" lon="8.410744131424597"><ele>279.0</ele><time>2026-04-01T13:18:34Z</time></trkpt><trkpt lat="45.892728328161404" lon="8.41069778573182"><ele>279.0</ele><time>2026-04-01T13:18:35Z</time></trkpt><trkpt lat="45.892651251250506" lon="8.410653585573517"><ele>279.0</ele><time>2026-04-01T13:18:36Z</time></trkpt><trkpt lat="45.892572441506125" lon="8.410617731671397"><ele>279.0</ele><time>2026-04-01T13:18:37Z</time></trkpt><trkpt lat="45.89249331263014" lon="8.410589015156951"><ele>279.0</ele><time>2026-04-01T13:18:38Z</time></trkpt><trkpt lat="45.89241409094923" lon="8.410562946492131"><ele>279.0</ele><time>2026-04-01T13:18:39Z</time></trkpt><trkpt lat="45.89233545226371" lon="8.41053820036017"><ele>279.0</ele><time>2026-04-01T13:18:40Z</time></trkpt><trkpt lat="45.89226040832663" lon="8.410513876119332"><ele>279.0</ele><time>2026-04-01T13:18:41Z</time></trkpt><trkpt lat="45.892191661766695" lon="8.410493833749525"><ele>279.0</ele><time>2026-04-01T13:18:42Z</time></trkpt><trkpt lat="45.89212162829831" lon="8.410471674986361"><ele>279.3333333333333</ele><time>2026-04-01T13:18:43Z</time></trkpt><trkpt lat="45.89204779337176" lon="8.410447952889955"><ele>279.6666666666667</ele><time>2026-04-01T13:18:44Z</time></trkpt><trkpt lat="45.89197595732349" lon="8.41042148035797"><ele>280.0</ele><time>2026-04-01T13:18:45Z</time></trkpt><trkpt lat="45.89189578741213" lon="8.41040015234213"><ele>280.33333333333337</ele><time>2026-04-01T13:18:46Z</time></trkpt><trkpt lat="45.891817071809626" lon="8.410374228802768"><ele>280.6666666666667</ele><time>2026-04-01T13:18:47Z</time></trkpt><trkpt lat="45.89173527081576" lon="8.410345057757091"><ele>281.0</ele><time>2026-04-01T13:18:48Z</time></trkpt><trkpt lat="45.891650119667425" lon="8.410316165689274"><ele>281.0</ele><time>2026-04-01T13:18:49Z</time></trkpt><trkpt lat="45.89156221011267" lon="8.410287350704564"><ele>281.0</ele><time>2026-04-01T13:18:50Z</time></trkpt><trkpt lat="45.89147266409381" lon="8.410258820488462"><ele>281.0</ele><time>2026-04-01T13:18:51Z</time></trkpt><trkpt lat="45.8913812543672" lon="8.410231918922753"><ele>281.0</ele><time>2026-04-01T13:18:52Z</time></trkpt><trkpt lat="45.89129076273089" lon="8.410207069535302"><ele>281.0</ele><time>2026-04-01T13:18:53Z</time></trkpt><trkpt lat="45.89119977470579" lon="8.41017895611092"><ele>281.0</ele><time>2026-04-01T13:18:54Z</time></trkpt><trkpt lat="45.891105950838295" lon="8.410149873456522"><ele>281.0</ele><time>2026-04-01T13:18:55Z</time></trkpt><trkpt lat="45.89101117301256" lon="8.41012058670949"><ele>281.0</ele><time>2026-04-01T13:18:56Z</time></trkpt><trkpt lat="45.89091388040473" lon="8.410091999828927"><ele>281.0</ele><time>2026-04-01T13:18:57Z</time></trkpt><trkpt lat="45.89082050647459" lon="8.410063447448422"><ele>281.0</ele><time>2026-04-01T13:18:58Z</time></trkpt><trkpt lat="45.89073285475931" lon="8.410035631948235"><ele>281.33333333333337</ele><time>2026-04-01T13:18:59Z</time></trkpt><trkpt lat="45.890649839123405" lon="8.410009586679775"><ele>281.6666666666667</ele><time>2026-04-01T13:19:00Z</time></trkpt><trkpt lat="45.89057712875587" lon="8.409985037667205"><ele>282.0</ele><time>2026-04-01T13:19:01Z</time></trkpt><trkpt lat="45.89051275506374" lon="8.409963658749076"><ele>282.3333333333333</ele><time>2026-04-01T13:19:02Z</time></trkpt><trkpt lat="45.89041807589053" lon="8.40993115300474"><ele>282.66666666666663</ele><time>2026-04-01T13:19:04Z</time></trkpt><trkpt lat="45.89034632604824" lon="8.409909705325994"><ele>283.0</ele><time>2026-04-01T13:19:18Z</time></trkpt><trkpt lat="45.890297462546805" lon="8.41001070667514"><ele>283.0</ele><time>2026-04-01T13:19:20Z</time></trkpt><trkpt lat="45.8902629495239" lon="8.41011110306484"><ele>283.0</ele><time>2026-04-01T13:19:22Z</time></trkpt><trkpt lat="45.890217757965644" lon="8.410259940687213"><ele>283.0</ele><time>2026-04-01T13:19:24Z</time></trkpt><trkpt lat="45.890188711800214" lon="8.410349434524521"><ele>283.0</ele><time>2026-04-01T13:19:25Z</time></trkpt><trkpt lat="45.89015459623533" lon="8.410448038610825"><ele>283.0</ele><time>2026-04-01T13:19:26Z</time></trkpt><trkpt lat="45.89011816758029" lon="8.410558458905214"><ele>283.0</ele><time>2026-04-01T13:19:27Z</time></trkpt><trkpt lat="45.89008340014318" lon="8.410681822716324"><ele>282.4</ele><time>2026-04-01T13:19:28Z</time></trkpt><trkpt lat="45.89004781559553" lon="8.41081156391307"><ele>281.8</ele><time>2026-04-01T13:19:29Z</time></trkpt><trkpt lat="45.89001051910298" lon="8.410939270273367"><ele>281.2</ele><time>2026-04-01T13:19:30Z</time></trkpt><trkpt lat="45.88997350347855" lon="8.41106700178067"><ele>280.6</ele><time>2026-04-01T13:19:31.001Z</time></trkpt><trkpt lat="45.88993732828571" lon="8.411199031390503"><ele>280.0</ele><time>2026-04-01T13:19:32.001Z</time></trkpt><trkpt lat="45.88990116429901" lon="8.411333987019384"><ele>279.2</ele><time>2026-04-01T13:19:33.001Z</time></trkpt><trkpt lat="45.8898675096647" lon="8.411475113137453"><ele>278.4</ele><time>2026-04-01T13:19:34.001Z</time></trkpt><trkpt lat="45.889831713722955" lon="8.41161612160824"><ele>277.6</ele><time>2026-04-01T13:19:35.001Z</time></trkpt><trkpt lat="45.88979418710941" lon="8.41176169196056"><ele>276.8</ele><time>2026-04-01T13:19:36.001Z</time></trkpt><trkpt lat="45.88975697089011" lon="8.411911878353623"><ele>276.0</ele><time>2026-04-01T13:19:37.001Z</time></trkpt><trkpt lat="45.889714672066305" lon="8.412064034110637"><ele>275.0</ele><time>2026-04-01T13:19:38.001Z</time></trkpt><trkpt lat="45.889669797260574" lon="8.412219265951522"><ele>274.0</ele><time>2026-04-01T13:19:39.001Z</time></trkpt><trkpt lat="45.88962367153312" lon="8.41237538282336"><ele>273.0</ele><time>2026-04-01T13:19:40.001Z</time></trkpt><trkpt lat="45.88957819803648" lon="8.41252964023614"><ele>272.0</ele><time>2026-04-01T13:19:41.001Z</time></trkpt><trkpt lat="45.88953063167403" lon="8.41268573967537"><ele>272.0</ele><time>2026-04-01T13:19:42.001Z</time></trkpt><trkpt lat="45.88948318916465" lon="8.4128430621519"><ele>272.0</ele><time>2026-04-01T13:19:43.001Z</time></trkpt><trkpt lat="45.8894370245947" lon="8.413000100616085"><ele>272.0</ele><time>2026-04-01T13:19:44.001Z</time></trkpt><trkpt lat="45.88939142919095" lon="8.413154179269482"><ele>272.0</ele><time>2026-04-01T13:19:45.001Z</time></trkpt><trkpt lat="45.88934862441955" lon="8.413307315255425"><ele>272.4</ele><time>2026-04-01T13:19:46.001Z</time></trkpt><trkpt lat="45.88930704358153" lon="8.413452025895616"><ele>272.79999999999995</ele><time>2026-04-01T13:19:47.001Z</time></trkpt><trkpt lat="45.889267549334484" lon="8.413588390792395"><ele>273.2</ele><time>2026-04-01T13:19:48.001Z</time></trkpt><trkpt lat="45.889234405538176" lon="8.413699216748675"><ele>273.59999999999997</ele><time>2026-04-01T13:19:49.001Z</time></trkpt><trkpt lat="45.8892005754241" lon="8.41380413645874"><ele>274.0</ele><time>2026-04-01T13:19:50.001Z</time></trkpt><trkpt lat="45.889163413509905" lon="8.413900317862202"><ele>274.28571428571433</ele><time>2026-04-01T13:19:51.001Z</time></trkpt><trkpt lat="45.88912200563071" lon="8.4139917344416"><ele>274.57142857142856</ele><time>2026-04-01T13:19:52.001Z</time></trkpt><trkpt lat="45.889080795106075" lon="8.41407774145954"><ele>274.8571428571429</ele><time>2026-04-01T13:19:53.001Z</time></trkpt><trkpt lat="45.88904202795079" lon="8.41416614007581"><ele>275.14285714285717</ele><time>2026-04-01T13:19:54.001Z</time></trkpt><trkpt lat="45.88900878470329" lon="8.414245635445988"><ele>275.42857142857144</ele><time>2026-04-01T13:19:55.001Z</time></trkpt><trkpt lat="45.888966150341226" lon="8.414352659621684"><ele>275.7142857142857</ele><time>2026-04-01T13:19:57.001Z</time></trkpt><trkpt lat="45.88892302800251" lon="8.414443727143725"><ele>276.0</ele><time>2026-04-01T13:20:00.999Z</time></trkpt><trkpt lat="45.88884229729357" lon="8.414381588619776"><ele>276.0</ele><time>2026-04-01T13:20:02.999Z</time></trkpt><trkpt lat="45.88873437849231" lon="8.41429943103103"><ele>276.0</ele><time>2026-04-01T13:20:04.999Z</time></trkpt><trkpt lat="45.88867116790439" lon="8.414251223942454"><ele>276.0</ele><time>2026-04-01T13:20:05.999Z</time></trkpt><trkpt lat="45.88860148411531" lon="8.414198042636295"><ele>276.0</ele><time>2026-04-01T13:20:06.999Z</time></trkpt><trkpt lat="45.88852818409501" lon="8.414142101576235"><ele>276.0</ele><time>2026-04-01T13:20:07.999Z</time></trkpt><trkpt lat="45.88844749220419" lon="8.414080519101823"><ele>276.0</ele><time>2026-04-01T13:20:08.999Z</time></trkpt><trkpt lat="45.888363001047765" lon="8.414016039134575"><ele>277.0</ele><time>2026-04-01T13:20:09.999Z</time></trkpt><trkpt lat="45.8882732804825" lon="8.413947566236391"><ele>278.0</ele><time>2026-04-01T13:20:10.999Z</time></trkpt><trkpt lat="45.88817935540544" lon="8.41387588443077"><ele>279.0</ele><time>2026-04-01T13:20:11.999Z</time></trkpt><trkpt lat="45.88808319420332" lon="8.413802278309516"><ele>280.0</ele><time>2026-04-01T13:20:12.999Z</time></trkpt><trkpt lat="45.887985343338634" lon="8.4137270043392"><ele>281.0</ele><time>2026-04-01T13:20:13.999Z</time></trkpt><trkpt lat="45.88788433819951" lon="8.413649303873648"><ele>281.0</ele><time>2026-04-01T13:20:14.999Z</time></trkpt><trkpt lat="45.88778119111475" lon="8.413569955676873"><ele>281.0</ele><time>2026-04-01T13:20:15.999Z</time></trkpt><trkpt lat="45.88767544206387" lon="8.413486398916366"><ele>281.0</ele><time>2026-04-01T13:20:16.999Z</time></trkpt><trkpt lat="45.88756838426992" lon="8.413401070146552"><ele>281.0</ele><time>2026-04-01T13:20:17.999Z</time></trkpt><trkpt lat="45.88746000344441" lon="8.413311389238359"><ele>282.5</ele><time>2026-04-01T13:20:18.999Z</time></trkpt><trkpt lat="45.88735123124102" lon="8.413217485485614"><ele>284.0</ele><time>2026-04-01T13:20:19.999Z</time></trkpt><trkpt lat="45.88724338389113" lon="8.41311918630108"><ele>285.5</ele><time>2026-04-01T13:20:21Z</time></trkpt><trkpt lat="45.887135237910144" lon="8.413027766407964"><ele>287.0</ele><time>2026-04-01T13:20:22Z</time></trkpt><trkpt lat="45.88703191972504" lon="8.412928311682862"><ele>287.0</ele><time>2026-04-01T13:20:23Z</time></trkpt><trkpt lat="45.88692931179784" lon="8.412831514529595"><ele>287.0</ele><time>2026-04-01T13:20:24Z</time></trkpt><trkpt lat="45.88682832964443" lon="8.412734181394557"><ele>287.0</ele><time>2026-04-01T13:20:25Z</time></trkpt><trkpt lat="45.88672815110835" lon="8.412635877310763"><ele>287.0</ele><time>2026-04-01T13:20:26Z</time></trkpt><trkpt lat="45.88663200861257" lon="8.412544293924984"><ele>287.2</ele><time>2026-04-01T13:20:27Z</time></trkpt><trkpt lat="45.886539475429984" lon="8.412456942454586"><ele>287.4</ele><time>2026-04-01T13:20:28Z</time></trkpt><trkpt lat="45.88644980481622" lon="8.41237263594519"><ele>287.6</ele><time>2026-04-01T13:20:29Z</time></trkpt><trkpt lat="45.886359337027436" lon="8.412288573617106"><ele>287.8</ele><time>2026-04-01T13:20:30Z</time></trkpt><trkpt lat="45.88627200732126" lon="8.412208729049778"><ele>288.0</ele><time>2026-04-01T13:20:31Z</time></trkpt><trkpt lat="45.88618794174751" lon="8.41213119508788"><ele>288.0</ele><time>2026-04-01T13:20:32Z</time></trkpt><trkpt lat="45.88610581536373" lon="8.41205680125349"><ele>288.0</ele><time>2026-04-01T13:20:33Z</time></trkpt><trkpt lat="45.886024796282285" lon="8.411985062141342"><ele>288.0</ele><time>2026-04-01T13:20:34Z</time></trkpt><trkpt lat="45.88593862140438" lon="8.41191038224539"><ele>288.0</ele><time>2026-04-01T13:20:35Z</time></trkpt><trkpt lat="45.885849969944076" lon="8.411830937388398"><ele>288.0</ele><time>2026-04-01T13:20:36Z</time></trkpt><trkpt lat="45.885759650061885" lon="8.411752139482868"><ele>288.0</ele><time>2026-04-01T13:20:37Z</time></trkpt><trkpt lat="45.88566916440052" lon="8.411666397175663"><ele>288.0</ele><time>2026-04-01T13:20:38Z</time></trkpt><trkpt lat="45.88557667122719" lon="8.411584550982862"><ele>288.0</ele><time>2026-04-01T13:20:39Z</time></trkpt><trkpt lat="45.88547968715526" lon="8.411502819677816"><ele>288.0</ele><time>2026-04-01T13:20:40Z</time></trkpt><trkpt lat="45.885375477728715" lon="8.411433514097007"><ele>288.0</ele><time>2026-04-01T13:20:41Z</time></trkpt><trkpt lat="45.885269537251496" lon="8.411371345508408"><ele>288.0</ele><time>2026-04-01T13:20:42Z</time></trkpt><trkpt lat="45.885152195961155" lon="8.41132308809788"><ele>288.0</ele><time>2026-04-01T13:20:43Z</time></trkpt><trkpt lat="45.88503646697299" lon="8.411289513069889"><ele>288.0</ele><time>2026-04-01T13:20:44Z</time></trkpt><trkpt lat="45.884916530959" lon="8.411256737831023"><ele>288.0</ele><time>2026-04-01T13:20:45Z</time></trkpt><trkpt lat="45.88479621693239" lon="8.41122539876809"><ele>288.0</ele><time>2026-04-01T13:20:46Z</time></trkpt><trkpt lat="45.884675728390306" lon="8.411198629607455"><ele>288.0</ele><time>2026-04-01T13:20:47Z</time></trkpt><trkpt lat="45.88455691482602" lon="8.411170396472771"><ele>288.0</ele><time>2026-04-01T13:20:48Z</time></trkpt><trkpt lat="45.884438499203874" lon="8.411141478843732"><ele>288.0</ele><time>2026-04-01T13:20:49Z</time></trkpt><trkpt lat="45.8843191698703" lon="8.411113979061223"><ele>288.0</ele><time>2026-04-01T13:20:50Z</time></trkpt><trkpt lat="45.88420181101256" lon="8.411087446068072"><ele>288.0</ele><time>2026-04-01T13:20:51Z</time></trkpt><trkpt lat="45.88408802258978" lon="8.411062057494588"><ele>288.0</ele><time>2026-04-01T13:20:52Z</time></trkpt><trkpt lat="45.88398186041325" lon="8.411036890807901"><ele>288.0</ele><time>2026-04-01T13:20:53Z</time></trkpt><trkpt lat="45.88387772938986" lon="8.411015425395782"><ele>288.0</ele><time>2026-04-01T13:20:54Z</time></trkpt><trkpt lat="45.88377769848206" lon="8.411005261186537"><ele>288.0</ele><time>2026-04-01T13:20:55Z</time></trkpt><trkpt lat="45.88368175647269" lon="8.411012995699833"><ele>288.0</ele><time>2026-04-01T13:20:56Z</time></trkpt><trkpt lat="45.88359103016628" lon="8.411034363384182"><ele>288.0</ele><time>2026-04-01T13:20:57Z</time></trkpt><trkpt lat="45.883508056201094" lon="8.411055490731613"><ele>288.0</ele><time>2026-04-01T13:20:58Z</time></trkpt><trkpt lat="45.8834272581913" lon="8.411066926776767"><ele>288.0</ele><time>2026-04-01T13:20:59Z</time></trkpt><trkpt lat="45.88334682564555" lon="8.411075072338052"><ele>288.0</ele><time>2026-04-01T13:21:00Z</time></trkpt><trkpt lat="45.88327461005367" lon="8.411090084084403"><ele>288.00000000000006</ele><time>2026-04-01T13:21:01Z</time></trkpt><trkpt lat="45.883214172201306" lon="8.411123049857805"><ele>288.0</ele><time>2026-04-01T13:21:02Z</time></trkpt><trkpt lat="45.88316512812163" lon="8.411181906925528"><ele>288.0</ele><time>2026-04-01T13:21:03Z</time></trkpt><trkpt lat="45.88312717940529" lon="8.411266188214585"><ele>288.0</ele><time>2026-04-01T13:21:04Z</time></trkpt><trkpt lat="45.88308800774399" lon="8.411361770115816"><ele>288.0</ele><time>2026-04-01T13:21:05Z</time></trkpt><trkpt lat="45.883039405065105" lon="8.411454561384641"><ele>288.00000000000006</ele><time>2026-04-01T13:21:06Z</time></trkpt><trkpt lat="45.882973065073465" lon="8.411532843722808"><ele>288.0</ele><time>2026-04-01T13:21:07Z</time></trkpt><trkpt lat="45.88289863776502" lon="8.411606967250448"><ele>289.0</ele><time>2026-04-01T13:21:08Z</time></trkpt><trkpt lat="45.88281004357221" lon="8.411662365602888"><ele>290.0</ele><time>2026-04-01T13:21:09Z</time></trkpt><trkpt lat="45.88272337616566" lon="8.411735188328263"><ele>291.0</ele><time>2026-04-01T13:21:10Z</time></trkpt><trkpt lat="45.88264041274678" lon="8.41183116029788"><ele>292.0</ele><time>2026-04-01T13:21:11Z</time></trkpt><trkpt lat="45.88254793087861" lon="8.411908515467363"><ele>293.0</ele><time>2026-04-01T13:21:12Z</time></trkpt><trkpt lat="45.88245480601497" lon="8.41198914937917"><ele>293.0</ele><time>2026-04-01T13:21:13Z</time></trkpt><trkpt lat="45.882359861902415" lon="8.41206835260601"><ele>293.0</ele><time>2026-04-01T13:21:14Z</time></trkpt><trkpt lat="45.882264413117035" lon="8.412146922882746"><ele>293.0</ele><time>2026-04-01T13:21:15Z</time></trkpt><trkpt lat="45.88216953492547" lon="8.412227480753403"><ele>293.0</ele><time>2026-04-01T13:21:16Z</time></trkpt><trkpt lat="45.88207289735109" lon="8.41230720629803"><ele>293.0</ele><time>2026-04-01T13:21:17Z</time></trkpt><trkpt lat="45.881969404625444" lon="8.412363409330734"><ele>293.8</ele><time>2026-04-01T13:21:18Z</time></trkpt><trkpt lat="45.88188040635837" lon="8.412456186561124"><ele>294.6</ele><time>2026-04-01T13:21:19Z</time></trkpt><trkpt lat="45.88178242924316" lon="8.412518112219898"><ele>295.4</ele><time>2026-04-01T13:21:20.001Z</time></trkpt><trkpt lat="45.88167564436841" lon="8.412541929178717"><ele>296.2</ele><time>2026-04-01T13:21:21.001Z</time></trkpt><trkpt lat="45.88157465853389" lon="8.412592667941775"><ele>297.0</ele><time>2026-04-01T13:21:22.001Z</time></trkpt><trkpt lat="45.881479334512335" lon="8.412655725228758"><ele>297.0</ele><time>2026-04-01T13:21:23.001Z</time></trkpt><trkpt lat="45.88139257269901" lon="8.412721061930155"><ele>297.0</ele><time>2026-04-01T13:21:24.001Z</time></trkpt><trkpt lat="45.88130631479044" lon="8.412795279503474"><ele>297.0</ele><time>2026-04-01T13:21:25.001Z</time></trkpt><trkpt lat="45.88122260182514" lon="8.412866477959417"><ele>297.0</ele><time>2026-04-01T13:21:26.001Z</time></trkpt><trkpt lat="45.88114054734159" lon="8.412921734882552"><ele>297.0</ele><time>2026-04-01T13:21:27.001Z</time></trkpt><trkpt lat="45.88105278115735" lon="8.412962978336942"><ele>298.2</ele><time>2026-04-01T13:21:28.001Z</time></trkpt><trkpt lat="45.88096768780445" lon="8.413020322959223"><ele>299.4</ele><time>2026-04-01T13:21:29.001Z</time></trkpt><trkpt lat="45.88087450021236" lon="8.413045256075941"><ele>300.6</ele><time>2026-04-01T13:21:30.001Z</time></trkpt><trkpt lat="45.88078102899023" lon="8.413056862284863"><ele>301.8</ele><time>2026-04-01T13:21:31.001Z</time></trkpt><trkpt lat="45.88068829923935" lon="8.413060295383776"><ele>303.0</ele><time>2026-04-01T13:21:32.001Z</time></trkpt><trkpt lat="45.88059033122208" lon="8.413059859040521"><ele>303.0</ele><time>2026-04-01T13:21:33.001Z</time></trkpt><trkpt lat="45.88049406761896" lon="8.41305628169048"><ele>303.0</ele><time>2026-04-01T13:21:34.001Z</time></trkpt><trkpt lat="45.88039499952548" lon="8.413046592897068"><ele>303.0</ele><time>2026-04-01T13:21:35.001Z</time></trkpt><trkpt lat="45.88029583485541" lon="8.41304492766039"><ele>303.0</ele><time>2026-04-01T13:21:36.001Z</time></trkpt><trkpt lat="45.8801961092564" lon="8.41304878679186"><ele>303.0</ele><time>2026-04-01T13:21:37.001Z</time></trkpt><trkpt lat="45.880094494206524" lon="8.41303610163408"><ele>302.8</ele><time>2026-04-01T13:21:38.001Z</time></trkpt><trkpt lat="45.87999930711305" lon="8.413083600599535"><ele>302.6</ele><time>2026-04-01T13:21:39.001Z</time></trkpt><trkpt lat="45.87990373352405" lon="8.413114744325386"><ele>302.4</ele><time>2026-04-01T13:21:40.001Z</time></trkpt><trkpt lat="45.87981291881069" lon="8.413139596073995"><ele>302.2</ele><time>2026-04-01T13:21:41.001Z</time></trkpt><trkpt lat="45.879727810875025" lon="8.413154513145448"><ele>302.0</ele><time>2026-04-01T13:21:42.001Z</time></trkpt><trkpt lat="45.87964469649784" lon="8.413166604835014"><ele>302.0</ele><time>2026-04-01T13:21:43.001Z</time></trkpt><trkpt lat="45.879577364645996" lon="8.413170900826469"><ele>302.0</ele><time>2026-04-01T13:21:44.001Z</time></trkpt><trkpt lat="45.87946327599317" lon="8.413140788477941"><ele>302.0</ele><time>2026-04-01T13:21:46.001Z</time></trkpt><trkpt lat="45.87936214162178" lon="8.413076121638186"><ele>302.0</ele><time>2026-04-01T13:21:48.001Z</time></trkpt><trkpt lat="45.87926474786383" lon="8.413105908834845"><ele>302.0</ele><time>2026-04-01T13:21:50.001Z</time></trkpt><trkpt lat="45.879165386383434" lon="8.413196845416127"><ele>302.33333333333337</ele><time>2026-04-01T13:21:52.001Z</time></trkpt><trkpt lat="45.87904677584433" lon="8.41320893435533"><ele>302.6666666666667</ele><time>2026-04-01T13:21:54.001Z</time></trkpt><trkpt lat="45.87898037585134" lon="8.413182799941445"><ele>303.0</ele><time>2026-04-01T13:21:55.001Z</time></trkpt><trkpt lat="45.878910345487796" lon="8.413152205899339"><ele>303.3333333333333</ele><time>2026-04-01T13:21:56.001Z</time></trkpt><trkpt lat="45.87883728116746" lon="8.41312546117923"><ele>303.66666666666663</ele><time>2026-04-01T13:21:57.001Z</time></trkpt><trkpt lat="45.87875878100708" lon="8.413086775146928"><ele>304.0</ele><time>2026-04-01T13:21:58.001Z</time></trkpt><trkpt lat="45.87867119876998" lon="8.413103748609599"><ele>304.0</ele><time>2026-04-01T13:21:59.001Z</time></trkpt><trkpt lat="45.87858935426379" lon="8.413137173796803"><ele>304.0</ele><time>2026-04-01T13:22:00.001Z</time></trkpt><trkpt lat="45.878509153540435" lon="8.413130121096911"><ele>304.0</ele><time>2026-04-01T13:22:01.001Z</time></trkpt><trkpt lat="45.87842712620324" lon="8.413120800261066"><ele>304.0</ele><time>2026-04-01T13:22:02.001Z</time></trkpt><trkpt lat="45.878346973892704" lon="8.4131107037109"><ele>304.0</ele><time>2026-04-01T13:22:03.001Z</time></trkpt><trkpt lat="45.878267054973634" lon="8.413098526390797"><ele>304.0</ele><time>2026-04-01T13:22:03.999Z</time></trkpt><trkpt lat="45.87818747182432" lon="8.413084778699854"><ele>304.8333333333333</ele><time>2026-04-01T13:22:04.999Z</time></trkpt><trkpt lat="45.87811113594039" lon="8.413061247364817"><ele>305.66666666666663</ele><time>2026-04-01T13:22:05.999Z</time></trkpt><trkpt lat="45.878040044822335" lon="8.413036946855868"><ele>306.5</ele><time>2026-04-01T13:22:06.999Z</time></trkpt><trkpt lat="45.87797020043588" lon="8.413012289694638"><ele>307.3333333333333</ele><time>2026-04-01T13:22:07.999Z</time></trkpt><trkpt lat="45.87790537365107" lon="8.412989173137396"><ele>308.1666666666667</ele><time>2026-04-01T13:22:08.999Z</time></trkpt><trkpt lat="45.87784424236984" lon="8.412964769051257"><ele>309.0</ele><time>2026-04-01T13:22:09.999Z</time></trkpt><trkpt lat="45.87773095950143" lon="8.412914124829348"><ele>308.1666666666667</ele><time>2026-04-01T13:22:11.999Z</time></trkpt><trkpt lat="45.87762613403461" lon="8.412875350838869"><ele>307.3333333333333</ele><time>2026-04-01T13:22:13.999Z</time></trkpt><trkpt lat="45.877559307424" lon="8.412848819072288"><ele>306.5</ele><time>2026-04-01T13:22:15.999Z</time></trkpt><trkpt lat="45.87748631529644" lon="8.412816750070043"><ele>305.66666666666663</ele><time>2026-04-01T13:22:19.999Z</time></trkpt><trkpt lat="45.87739999102322" lon="8.412774986082429"><ele>304.8333333333333</ele><time>2026-04-01T13:22:22.999Z</time></trkpt><trkpt lat="45.8773112589271" lon="8.412735395491426"><ele>304.0</ele><time>2026-04-01T13:22:24.999Z</time></trkpt><trkpt lat="45.877214275986006" lon="8.412680464978372"><ele>304.0</ele><time>2026-04-01T13:22:27Z</time></trkpt><trkpt lat="45.877115888351724" lon="8.412598398065304"><ele>304.0</ele><time>2026-04-01T13:22:29Z</time></trkpt><trkpt lat="45.87703173429231" lon="8.412503108533082"><ele>304.0</ele><time>2026-04-01T13:22:31Z</time></trkpt><trkpt lat="45.876945057988365" lon="8.4123860710638"><ele>304.0</ele><time>2026-04-01T13:22:33Z</time></trkpt><trkpt lat="45.876859653038096" lon="8.412258588225441"><ele>304.0</ele><time>2026-04-01T13:22:35Z</time></trkpt><trkpt lat="45.87681667641908" lon="8.41218505988446"><ele>304.0</ele><time>2026-04-01T13:22:36Z</time></trkpt><trkpt lat="45.87674182363612" lon="8.412039932064928"><ele>304.0</ele><time>2026-04-01T13:22:38Z</time></trkpt><trkpt lat="45.87666951908525" lon="8.411909801097856"><ele>304.0</ele><time>2026-04-01T13:22:40Z</time></trkpt><trkpt lat="45.87661017973544" lon="8.411791373347183"><ele>304.0</ele><time>2026-04-01T13:22:42Z</time></trkpt><trkpt lat="45.876560209867094" lon="8.411689747818503"><ele>304.0</ele><time>2026-04-01T13:22:44Z</time></trkpt><trkpt lat="45.87651031338622" lon="8.411588061076392"><ele>304.0</ele><time>2026-04-01T13:22:47Z</time></trkpt><trkpt lat="45.8764686694698" lon="8.411502330572153"><ele>304.0</ele><time>2026-04-01T13:22:50Z</time></trkpt><trkpt lat="45.876425967263806" lon="8.411431012382184"><ele>304.0</ele><time>2026-04-01T13:22:54Z</time></trkpt><trkpt lat="45.87638408024081" lon="8.41135038248009"><ele>304.0</ele><time>2026-04-01T13:22:59Z</time></trkpt><trkpt lat="45.876343765001316" lon="8.411269123088562"><ele>304.0</ele><time>2026-04-01T13:23:04Z</time></trkpt><trkpt lat="45.8763176453962" lon="8.41118457278863"><ele>304.0</ele><time>2026-04-01T13:23:28.001Z</time></trkpt><trkpt lat="45.87626173332191" lon="8.411076508822651"><ele>303.2</ele><time>2026-04-01T13:23:32.001Z</time></trkpt><trkpt lat="45.876170922724654" lon="8.410997354678642"><ele>302.4</ele><time>2026-04-01T13:23:34.001Z</time></trkpt><trkpt lat="45.87609712344611" lon="8.41085751426007"><ele>301.6</ele><time>2026-04-01T13:23:36.001Z</time></trkpt><trkpt lat="45.876058952219516" lon="8.410785300378992"><ele>300.8</ele><time>2026-04-01T13:23:37.001Z</time></trkpt><trkpt lat="45.875983586529266" lon="8.410642784080142"><ele>300.0</ele><time>2026-04-01T13:23:39.001Z</time></trkpt><trkpt lat="45.875943318399855" lon="8.410568711460236"><ele>299.99999999999994</ele><time>2026-04-01T13:23:40.001Z</time></trkpt><trkpt lat="45.87590372417082" lon="8.410495644637912"><ele>300.0</ele><time>2026-04-01T13:23:41.001Z</time></trkpt><trkpt lat="45.8758631400834" lon="8.410420751187392"><ele>300.0</ele><time>2026-04-01T13:23:42.001Z</time></trkpt><trkpt lat="45.875823670969986" lon="8.41034883972525"><ele>300.0</ele><time>2026-04-01T13:23:43.001Z</time></trkpt><trkpt lat="45.87578174992187" lon="8.410273010976544"><ele>300.0</ele><time>2026-04-01T13:23:44.001Z</time></trkpt><trkpt lat="45.875739547352275" lon="8.410196672934992"><ele>299.99999999999994</ele><time>2026-04-01T13:23:45.001Z</time></trkpt><trkpt lat="45.87568014166254" lon="8.410051285735562"><ele>300.0</ele><time>2026-04-01T13:23:47.001Z</time></trkpt><trkpt lat="45.87562225224602" lon="8.409963696286525"><ele>300.0</ele><time>2026-04-01T13:23:49.001Z</time></trkpt><trkpt lat="45.87557527637954" lon="8.409879453578048"><ele>300.0</ele><time>2026-04-01T13:23:52.001Z</time></trkpt><trkpt lat="45.875549973832086" lon="8.409783920986714"><ele>300.0</ele><time>2026-04-01T13:23:54.001Z</time></trkpt><trkpt lat="45.87555059688047" lon="8.409648067304536"><ele>300.0</ele><time>2026-04-01T13:23:56.001Z</time></trkpt><trkpt lat="45.875542217022534" lon="8.40955700114952"><ele>300.0</ele><time>2026-04-01T13:23:58.001Z</time></trkpt><trkpt lat="45.87553055462733" lon="8.409444542248494"><ele>300.0</ele><time>2026-04-01T13:24:01.001Z</time></trkpt><trkpt lat="45.87552762046211" lon="8.409302352716885"><ele>299.6666666666667</ele><time>2026-04-01T13:24:03.001Z</time></trkpt><trkpt lat="45.87551920746912" lon="8.409169054118518"><ele>299.3333333333333</ele><time>2026-04-01T13:24:05.001Z</time></trkpt><trkpt lat="45.875483376921444" lon="8.409064230391339"><ele>299.0</ele><time>2026-04-01T13:24:07.001Z</time></trkpt><trkpt lat="45.875407905758834" lon="8.409028029815014"><ele>298.66666666666663</ele><time>2026-04-01T13:24:09.001Z</time></trkpt><trkpt lat="45.87529731461936" lon="8.4090334226252"><ele>298.3333333333333</ele><time>2026-04-01T13:24:11Z</time></trkpt><trkpt lat="45.87523213176492" lon="8.40903341106775"><ele>298.0</ele><time>2026-04-01T13:24:12Z</time></trkpt><trkpt lat="45.875157362984694" lon="8.409027990833193"><ele>297.8333333333333</ele><time>2026-04-01T13:24:13Z</time></trkpt><trkpt lat="45.875082122715966" lon="8.409020470504792"><ele>297.66666666666663</ele><time>2026-04-01T13:24:14Z</time></trkpt><trkpt lat="45.87500675250719" lon="8.409010362509157"><ele>297.5</ele><time>2026-04-01T13:24:15Z</time></trkpt><trkpt lat="45.87493339920045" lon="8.409001062755419"><ele>297.3333333333333</ele><time>2026-04-01T13:24:16Z</time></trkpt><trkpt lat="45.874858946235946" lon="8.408999935287477"><ele>297.1666666666667</ele><time>2026-04-01T13:24:17Z</time></trkpt><trkpt lat="45.87479472870343" lon="8.408976597694949"><ele>297.0</ele><time>2026-04-01T13:24:18Z</time></trkpt><trkpt lat="45.87469769927406" lon="8.408861565796029"><ele>297.3333333333333</ele><time>2026-04-01T13:24:20Z</time></trkpt><trkpt lat="45.874659569623354" lon="8.408776868284363"><ele>297.6666666666667</ele><time>2026-04-01T13:24:21Z</time></trkpt><trkpt lat="45.8746280331314" lon="8.408684515788071"><ele>298.0</ele><time>2026-04-01T13:24:22Z</time></trkpt><trkpt lat="45.87459152264486" lon="8.40858196838111"><ele>298.33333333333337</ele><time>2026-04-01T13:24:23Z</time></trkpt><trkpt lat="45.874560018033385" lon="8.408475969509135"><ele>298.6666666666667</ele><time>2026-04-01T13:24:24Z</time></trkpt><trkpt lat="45.87452981484868" lon="8.40837558527927"><ele>299.0</ele><time>2026-04-01T13:24:25Z</time></trkpt><trkpt lat="45.874500624643076" lon="8.408281318703702"><ele>299.0</ele><time>2026-04-01T13:24:26Z</time></trkpt><trkpt lat="45.874476588788596" lon="8.408188196079507"><ele>299.0</ele><time>2026-04-01T13:24:27Z</time></trkpt><trkpt lat="45.87445247673348" lon="8.408092238473492"><ele>299.0</ele><time>2026-04-01T13:24:28Z</time></trkpt><trkpt lat="45.874427130553265" lon="8.407993583808137"><ele>299.0</ele><time>2026-04-01T13:24:29Z</time></trkpt><trkpt lat="45.87440184105387" lon="8.407894647768794"><ele>299.0</ele><time>2026-04-01T13:24:30Z</time></trkpt><trkpt lat="45.87437662930409" lon="8.407795897493525"><ele>299.0</ele><time>2026-04-01T13:24:31Z</time></trkpt><trkpt lat="45.87434635354109" lon="8.407699670347284"><ele>299.0</ele><time>2026-04-01T13:24:32Z</time></trkpt><trkpt lat="45.87429840677155" lon="8.40761348876146"><ele>298.6666666666667</ele><time>2026-04-01T13:24:33Z</time></trkpt><trkpt lat="45.87423729090862" lon="8.407537878211691"><ele>298.33333333333337</ele><time>2026-04-01T13:24:34Z</time></trkpt><trkpt lat="45.87416869106362" lon="8.407469426398873"><ele>298.0</ele><time>2026-04-01T13:24:35Z</time></trkpt><trkpt lat="45.87409689833995" lon="8.407401693607556"><ele>297.6666666666667</ele><time>2026-04-01T13:24:36Z</time></trkpt><trkpt lat="45.87402793071436" lon="8.407327641175335"><ele>297.3333333333333</ele><time>2026-04-01T13:24:37Z</time></trkpt><trkpt lat="45.87396317640615" lon="8.407261905110678"><ele>297.0</ele><time>2026-04-01T13:24:38Z</time></trkpt><trkpt lat="45.873901300238074" lon="8.407203690827288"><ele>298.3333333333333</ele><time>2026-04-01T13:24:39Z</time></trkpt><trkpt lat="45.873842185924154" lon="8.407142615545975"><ele>299.6666666666667</ele><time>2026-04-01T13:24:40Z</time></trkpt><trkpt lat="45.87377729052826" lon="8.407077882841314"><ele>301.0</ele><time>2026-04-01T13:24:41Z</time></trkpt><trkpt lat="45.87371199054208" lon="8.40701333200562"><ele>302.33333333333337</ele><time>2026-04-01T13:24:42Z</time></trkpt><trkpt lat="45.873644333975385" lon="8.406944612864224"><ele>303.6666666666667</ele><time>2026-04-01T13:24:43Z</time></trkpt><trkpt lat="45.87355851229003" lon="8.40688962410303"><ele>305.0</ele><time>2026-04-01T13:24:44Z</time></trkpt><trkpt lat="45.87346767207709" lon="8.406837546206404"><ele>304.8</ele><time>2026-04-01T13:24:45Z</time></trkpt><trkpt lat="45.87337336227891" lon="8.406799803874739"><ele>304.6</ele><time>2026-04-01T13:24:46Z</time></trkpt><trkpt lat="45.873287850086626" lon="8.40678499501339"><ele>304.4</ele><time>2026-04-01T13:24:47Z</time></trkpt><trkpt lat="45.873188238783385" lon="8.406761746061504"><ele>304.2</ele><time>2026-04-01T13:24:48Z</time></trkpt><trkpt lat="45.87308820605641" lon="8.406732025984244"><ele>304.0</ele><time>2026-04-01T13:24:49Z</time></trkpt><trkpt lat="45.872986150146076" lon="8.406692253454551"><ele>304.0</ele><time>2026-04-01T13:24:50Z</time></trkpt><trkpt lat="45.87288671492681" lon="8.406639274558882"><ele>304.0</ele><time>2026-04-01T13:24:51Z</time></trkpt><trkpt lat="45.872786675674895" lon="8.406576506073534"><ele>304.0</ele><time>2026-04-01T13:24:52Z</time></trkpt><trkpt lat="45.872698853073466" lon="8.406496570909809"><ele>304.0</ele><time>2026-04-01T13:24:53Z</time></trkpt><trkpt lat="45.872603006636794" lon="8.406417639070368"><ele>304.0</ele><time>2026-04-01T13:24:54Z</time></trkpt><trkpt lat="45.87251763961609" lon="8.406312074192321"><ele>305.25</ele><time>2026-04-01T13:24:55Z</time></trkpt><trkpt lat="45.87243265404492" lon="8.406194278710304"><ele>306.5</ele><time>2026-04-01T13:24:56Z</time></trkpt><trkpt lat="45.87234443016108" lon="8.406071534573469"><ele>307.75</ele><time>2026-04-01T13:24:57Z</time></trkpt><trkpt lat="45.87226174630334" lon="8.405940236383422"><ele>309.0</ele><time>2026-04-01T13:24:58Z</time></trkpt><trkpt lat="45.87218458870505" lon="8.405799823258196"><ele>309.0</ele><time>2026-04-01T13:24:59Z</time></trkpt><trkpt lat="45.8721070662944" lon="8.405651966250254"><ele>309.0</ele><time>2026-04-01T13:25:00Z</time></trkpt><trkpt lat="45.87203228068824" lon="8.405506256400612"><ele>309.0</ele><time>2026-04-01T13:25:01Z</time></trkpt><trkpt lat="45.87196175124143" lon="8.40536000799562"><ele>309.0</ele><time>2026-04-01T13:25:02Z</time></trkpt><trkpt lat="45.871887312713774" lon="8.405216961840875"><ele>309.5</ele><time>2026-04-01T13:25:03Z</time></trkpt><trkpt lat="45.8718120872205" lon="8.405073404802506"><ele>310.0</ele><time>2026-04-01T13:25:04Z</time></trkpt><trkpt lat="45.871739131398336" lon="8.4049290286499"><ele>310.5</ele><time>2026-04-01T13:25:05Z</time></trkpt><trkpt lat="45.87166748021124" lon="8.40478203440699"><ele>311.0</ele><time>2026-04-01T13:25:06Z</time></trkpt><trkpt lat="45.87159531618916" lon="8.40463242751481"><ele>311.0</ele><time>2026-04-01T13:25:07.001Z</time></trkpt><trkpt lat="45.87152474346528" lon="8.404481806440042"><ele>311.0</ele><time>2026-04-01T13:25:08.001Z</time></trkpt><trkpt lat="45.8714509225895" lon="8.404331037753678"><ele>311.0</ele><time>2026-04-01T13:25:09.001Z</time></trkpt><trkpt lat="45.87139067789532" lon="8.404179680601418"><ele>311.0</ele><time>2026-04-01T13:25:10.001Z</time></trkpt><trkpt lat="45.871341145627895" lon="8.40402323404622"><ele>311.0</ele><time>2026-04-01T13:25:11.001Z</time></trkpt><trkpt lat="45.87129650375673" lon="8.403859901045793"><ele>311.0</ele><time>2026-04-01T13:25:12.001Z</time></trkpt><trkpt lat="45.87125286172553" lon="8.403694157861052"><ele>311.0</ele><time>2026-04-01T13:25:13.001Z</time></trkpt><trkpt lat="45.87121319215065" lon="8.403531026269086"><ele>311.0</ele><time>2026-04-01T13:25:14.001Z</time></trkpt><trkpt lat="45.871170738574584" lon="8.403371010044395"><ele>311.0</ele><time>2026-04-01T13:25:15.001Z</time></trkpt><trkpt lat="45.87111922751336" lon="8.403216775138668"><ele>311.0</ele><time>2026-04-01T13:25:16.001Z</time></trkpt><trkpt lat="45.871055792123734" lon="8.403067617979078"><ele>311.0</ele><time>2026-04-01T13:25:17.001Z</time></trkpt><trkpt lat="45.87098761177368" lon="8.402929165749077"><ele>311.0</ele><time>2026-04-01T13:25:18.001Z</time></trkpt><trkpt lat="45.870920500225175" lon="8.40280072759872"><ele>311.0</ele><time>2026-04-01T13:25:19.001Z</time></trkpt><trkpt lat="45.87085333323685" lon="8.402675134162392"><ele>311.0</ele><time>2026-04-01T13:25:20.001Z</time></trkpt><trkpt lat="45.87078753076061" lon="8.40255126299291"><ele>311.0</ele><time>2026-04-01T13:25:21.001Z</time></trkpt><trkpt lat="45.870721018556075" lon="8.40242576962921"><ele>311.0</ele><time>2026-04-01T13:25:22.001Z</time></trkpt><trkpt lat="45.87065677522927" lon="8.402301772161247"><ele>311.0</ele><time>2026-04-01T13:25:23.001Z</time></trkpt><trkpt lat="45.87059225569224" lon="8.40217721203479"><ele>312.0</ele><time>2026-04-01T13:25:24.001Z</time></trkpt><trkpt lat="45.87052867432829" lon="8.40205329047764"><ele>313.0</ele><time>2026-04-01T13:25:25.001Z</time></trkpt><trkpt lat="45.87047092831433" lon="8.401940308025926"><ele>314.0</ele><time>2026-04-01T13:25:26.001Z</time></trkpt><trkpt lat="45.87041681210112" lon="8.401831899606893"><ele>315.0</ele><time>2026-04-01T13:25:27.001Z</time></trkpt><trkpt lat="45.87035951745968" lon="8.401721461516116"><ele>316.0</ele><time>2026-04-01T13:25:28.001Z</time></trkpt><trkpt lat="45.87030134096995" lon="8.401605417213968"><ele>316.0</ele><time>2026-04-01T13:25:29.001Z</time></trkpt><trkpt lat="45.87025657611695" lon="8.401478206470056"><ele>316.0</ele><time>2026-04-01T13:25:30.001Z</time></trkpt><trkpt lat="45.87023421269876" lon="8.401343015045487"><ele>316.0</ele><time>2026-04-01T13:25:31.001Z</time></trkpt><trkpt lat="45.87022325932374" lon="8.401203411724591"><ele>316.0</ele><time>2026-04-01T13:25:32.001Z</time></trkpt><trkpt lat="45.87021470892517" lon="8.40106521657519"><ele>316.0</ele><time>2026-04-01T13:25:33.001Z</time></trkpt><trkpt lat="45.870210482320246" lon="8.40092994118607"><ele>318.16666666666663</ele><time>2026-04-01T13:25:34.001Z</time></trkpt><trkpt lat="45.87020360554642" lon="8.400801044668984"><ele>320.3333333333333</ele><time>2026-04-01T13:25:35.001Z</time></trkpt><trkpt lat="45.87019746920097" lon="8.400677039916838"><ele>322.5</ele><time>2026-04-01T13:25:36.001Z</time></trkpt><trkpt lat="45.87018755353373" lon="8.400551471173467"><ele>324.6666666666667</ele><time>2026-04-01T13:25:37.001Z</time></trkpt><trkpt lat="45.87017217522088" lon="8.400425883053295"><ele>326.83333333333337</ele><time>2026-04-01T13:25:38.001Z</time></trkpt><trkpt lat="45.87015280258312" lon="8.400297652469146"><ele>329.0</ele><time>2026-04-01T13:25:39.001Z</time></trkpt><trkpt lat="45.87013257453097" lon="8.400168468138295"><ele>327.4</ele><time>2026-04-01T13:25:40.001Z</time></trkpt><trkpt lat="45.87010970885678" lon="8.400035954848356"><ele>325.79999999999995</ele><time>2026-04-01T13:25:41.001Z</time></trkpt><trkpt lat="45.87009002832665" lon="8.399897616848683"><ele>324.20000000000005</ele><time>2026-04-01T13:25:42.001Z</time></trkpt><trkpt lat="45.87007390876829" lon="8.399761181542171"><ele>322.6</ele><time>2026-04-01T13:25:43.001Z</time></trkpt><trkpt lat="45.870061940478635" lon="8.39962334517021"><ele>321.0</ele><time>2026-04-01T13:25:44.001Z</time></trkpt><trkpt lat="45.87005747772497" lon="8.399485073723122"><ele>321.0</ele><time>2026-04-01T13:25:45.001Z</time></trkpt><trkpt lat="45.87006201860187" lon="8.399348070242384"><ele>321.0</ele><time>2026-04-01T13:25:46.001Z</time></trkpt><trkpt lat="45.87007240051374" lon="8.399208446654178"><ele>321.0</ele><time>2026-04-01T13:25:47.001Z</time></trkpt><trkpt lat="45.870085410170624" lon="8.399068261254136"><ele>321.0</ele><time>2026-04-01T13:25:48.001Z</time></trkpt><trkpt lat="45.870103104475206" lon="8.398928143004714"><ele>321.0</ele><time>2026-04-01T13:25:49.001Z</time></trkpt><trkpt lat="45.870124259779395" lon="8.398787948485706"><ele>323.8</ele><time>2026-04-01T13:25:50.001Z</time></trkpt><trkpt lat="45.87014926459865" lon="8.398649053248448"><ele>326.6</ele><time>2026-04-01T13:25:51.001Z</time></trkpt><trkpt lat="45.870179623294014" lon="8.39851189957344"><ele>329.4</ele><time>2026-04-01T13:25:52.001Z</time></trkpt><trkpt lat="45.87021052949395" lon="8.398374207903933"><ele>332.2</ele><time>2026-04-01T13:25:53.001Z</time></trkpt><trkpt lat="45.870242769106014" lon="8.398235672970765"><ele>335.0</ele><time>2026-04-01T13:25:54.001Z</time></trkpt><trkpt lat="45.870279421490494" lon="8.398099202925316"><ele>333.0</ele><time>2026-04-01T13:25:55.001Z</time></trkpt><trkpt lat="45.87031668010889" lon="8.39796198107172"><ele>331.0</ele><time>2026-04-01T13:25:56.001Z</time></trkpt><trkpt lat="45.8703524568935" lon="8.397825130770492"><ele>329.0</ele><time>2026-04-01T13:25:57.001Z</time></trkpt><trkpt lat="45.870386954248616" lon="8.397687091026523"><ele>327.0</ele><time>2026-04-01T13:25:58.001Z</time></trkpt><trkpt lat="45.87042360614613" lon="8.397546864114798"><ele>325.0</ele><time>2026-04-01T13:25:59.001Z</time></trkpt><trkpt lat="45.87045878887275" lon="8.39740433085668"><ele>325.0</ele><time>2026-04-01T13:26:00.001Z</time></trkpt><trkpt lat="45.87049498301084" lon="8.397268376300834"><ele>325.0</ele><time>2026-04-01T13:26:01.001Z</time></trkpt><trkpt lat="45.87052649789616" lon="8.39713797742969"><ele>325.0</ele><time>2026-04-01T13:26:02.001Z</time></trkpt><trkpt lat="45.87055689809956" lon="8.397015976376517"><ele>325.0</ele><time>2026-04-01T13:26:03.001Z</time></trkpt><trkpt lat="45.87058695472601" lon="8.396898134506996"><ele>325.0</ele><time>2026-04-01T13:26:04.001Z</time></trkpt><trkpt lat="45.87061486587747" lon="8.396782827200902"><ele>324.8333333333333</ele><time>2026-04-01T13:26:05.001Z</time></trkpt><trkpt lat="45.87063872859934" lon="8.39667448243584"><ele>324.66666666666663</ele><time>2026-04-01T13:26:06.001Z</time></trkpt><trkpt lat="45.870658302247435" lon="8.396579286658355"><ele>324.5</ele><time>2026-04-01T13:26:07.001Z</time></trkpt><trkpt lat="45.870674655848894" lon="8.396489954021177"><ele>324.3333333333333</ele><time>2026-04-01T13:26:08.002Z</time></trkpt><trkpt lat="45.87070330486275" lon="8.396333774269555"><ele>324.1666666666667</ele><time>2026-04-01T13:26:10.002Z</time></trkpt><trkpt lat="45.870714228402214" lon="8.39621214862463"><ele>324.0</ele><time>2026-04-01T13:26:12.002Z</time></trkpt><trkpt lat="45.870652018858166" lon="8.39611015011693"><ele>323.6</ele><time>2026-04-01T13:26:14.002Z</time></trkpt><trkpt lat="45.8705390991346" lon="8.396087028534128"><ele>323.2</ele><time>2026-04-01T13:26:16Z</time></trkpt><trkpt lat="45.870410330077945" lon="8.396062522929686"><ele>322.8</ele><time>2026-04-01T13:26:18Z</time></trkpt><trkpt lat="45.87033514569715" lon="8.396046182100216"><ele>322.40000000000003</ele><time>2026-04-01T13:26:19Z</time></trkpt><trkpt lat="45.87025287885965" lon="8.396025702072043"><ele>322.0</ele><time>2026-04-01T13:26:20Z</time></trkpt><trkpt lat="45.870169982259405" lon="8.396005729038784"><ele>321.20000000000005</ele><time>2026-04-01T13:26:21Z</time></trkpt><trkpt lat="45.87008194267214" lon="8.395984128008417"><ele>320.40000000000003</ele><time>2026-04-01T13:26:22Z</time></trkpt><trkpt lat="45.86999167497117" lon="8.39595976577334"><ele>319.6</ele><time>2026-04-01T13:26:23Z</time></trkpt><trkpt lat="45.869894362708955" lon="8.395934383677144"><ele>318.8</ele><time>2026-04-01T13:26:24Z</time></trkpt><trkpt lat="45.869803041064024" lon="8.395906325892115"><ele>318.0</ele><time>2026-04-01T13:26:25Z</time></trkpt><trkpt lat="45.869716848987615" lon="8.39587962478591"><ele>318.0</ele><time>2026-04-01T13:26:26Z</time></trkpt><trkpt lat="45.86961292148689" lon="8.395845687444377"><ele>318.0</ele><time>2026-04-01T13:26:28Z</time></trkpt><trkpt lat="45.86952809757557" lon="8.395823830608004"><ele>318.0</ele><time>2026-04-01T13:26:30Z</time></trkpt><trkpt lat="45.86939755903365" lon="8.395825755728549"><ele>318.0</ele><time>2026-04-01T13:26:32Z</time></trkpt><trkpt lat="45.8693172546628" lon="8.395865157635532"><ele>318.0</ele><time>2026-04-01T13:26:33Z</time></trkpt><trkpt lat="45.86923637769285" lon="8.395925096132876"><ele>320.6</ele><time>2026-04-01T13:26:34Z</time></trkpt><trkpt lat="45.8691541984171" lon="8.39599461582627"><ele>323.20000000000005</ele><time>2026-04-01T13:26:35Z</time></trkpt><trkpt lat="45.869066376581536" lon="8.396067816879858"><ele>325.8</ele><time>2026-04-01T13:26:36Z</time></trkpt><trkpt lat="45.86897185630681" lon="8.396148450906223"><ele>328.40000000000003</ele><time>2026-04-01T13:26:37Z</time></trkpt><trkpt lat="45.86886927791756" lon="8.396214891247498"><ele>331.0</ele><time>2026-04-01T13:26:38Z</time></trkpt><trkpt lat="45.868760686124865" lon="8.396262511017293"><ele>331.0</ele><time>2026-04-01T13:26:39Z</time></trkpt><trkpt lat="45.86864604641761" lon="8.396293865304026"><ele>331.0</ele><time>2026-04-01T13:26:40Z</time></trkpt><trkpt lat="45.868523067093115" lon="8.396302867967796"><ele>331.0</ele><time>2026-04-01T13:26:41Z</time></trkpt><trkpt lat="45.86839736060341" lon="8.396287798728155"><ele>331.0</ele><time>2026-04-01T13:26:42Z</time></trkpt><trkpt lat="45.86827327063982" lon="8.396244597174164"><ele>336.5</ele><time>2026-04-01T13:26:43Z</time></trkpt><trkpt lat="45.86814338348049" lon="8.396198825221418"><ele>342.0</ele><time>2026-04-01T13:26:44Z</time></trkpt><trkpt lat="45.86800660067558" lon="8.39614467325656"><ele>347.5</ele><time>2026-04-01T13:26:45Z</time></trkpt><trkpt lat="45.86786731560264" lon="8.396090633143077"><ele>353.0</ele><time>2026-04-01T13:26:46Z</time></trkpt><trkpt lat="45.867728498817016" lon="8.396032917616385"><ele>349.5</ele><time>2026-04-01T13:26:47Z</time></trkpt><trkpt lat="45.86758952296606" lon="8.395975355252569"><ele>346.0</ele><time>2026-04-01T13:26:48Z</time></trkpt><trkpt lat="45.86745876127501" lon="8.395901524082946"><ele>342.5</ele><time>2026-04-01T13:26:49Z</time></trkpt><trkpt lat="45.86733189544672" lon="8.395805717857455"><ele>339.0</ele><time>2026-04-01T13:26:50Z</time></trkpt><trkpt lat="45.86721126764298" lon="8.395698274001527"><ele>339.0</ele><time>2026-04-01T13:26:51Z</time></trkpt><trkpt lat="45.86708807751676" lon="8.395585155694992"><ele>339.0</ele><time>2026-04-01T13:26:52Z</time></trkpt><trkpt lat="45.866965009203774" lon="8.395471518309336"><ele>339.0</ele><time>2026-04-01T13:26:53Z</time></trkpt><trkpt lat="45.86683997233818" lon="8.39535713697189"><ele>339.0</ele><time>2026-04-01T13:26:54Z</time></trkpt><trkpt lat="45.866715764432996" lon="8.395239324808736"><ele>343.0</ele><time>2026-04-01T13:26:55Z</time></trkpt><trkpt lat="45.866589979336794" lon="8.395124456996715"><ele>347.0</ele><time>2026-04-01T13:26:56Z</time></trkpt><trkpt lat="45.86646167818269" lon="8.395011006581719"><ele>351.0</ele><time>2026-04-01T13:26:57Z</time></trkpt><trkpt lat="45.86633328995128" lon="8.394897611222047"><ele>351.0</ele><time>2026-04-01T13:26:58Z</time></trkpt><trkpt lat="45.86620473651311" lon="8.394783576649372"><ele>351.0</ele><time>2026-04-01T13:26:59Z</time></trkpt><trkpt lat="45.866078365479616" lon="8.394671411577365"><ele>351.0</ele><time>2026-04-01T13:27:00Z</time></trkpt><trkpt lat="45.86595107799422" lon="8.394558073651996"><ele>351.0</ele><time>2026-04-01T13:27:01Z</time></trkpt><trkpt lat="45.86582270016304" lon="8.394442954583353"><ele>355.25</ele><time>2026-04-01T13:27:02Z</time></trkpt><trkpt lat="45.86569700257881" lon="8.394334783221575"><ele>359.5</ele><time>2026-04-01T13:27:03Z</time></trkpt><trkpt lat="45.8655721789716" lon="8.394229801614546"><ele>363.75</ele><time>2026-04-01T13:27:04Z</time></trkpt><trkpt lat="45.86544759662939" lon="8.394124086877783"><ele>368.0</ele><time>2026-04-01T13:27:05Z</time></trkpt><trkpt lat="45.86532155773485" lon="8.394023619948268"><ele>368.0</ele><time>2026-04-01T13:27:06Z</time></trkpt><trkpt lat="45.86519787854659" lon="8.39392046728999"><ele>368.0</ele><time>2026-04-01T13:27:07.001Z</time></trkpt><trkpt lat="45.86507591159642" lon="8.393813989333315"><ele>368.0</ele><time>2026-04-01T13:27:08.001Z</time></trkpt><trkpt lat="45.86496330028723" lon="8.393689479137516"><ele>368.0</ele><time>2026-04-01T13:27:09.001Z</time></trkpt><trkpt lat="45.86486118214017" lon="8.393557224927115"><ele>370.25</ele><time>2026-04-01T13:27:10.001Z</time></trkpt><trkpt lat="45.86475852793973" lon="8.393419928089923"><ele>372.5</ele><time>2026-04-01T13:27:11.001Z</time></trkpt><trkpt lat="45.864650809823125" lon="8.393286298626425"><ele>374.75</ele><time>2026-04-01T13:27:12.001Z</time></trkpt><trkpt lat="45.864536952886574" lon="8.393163760308692"><ele>377.0</ele><time>2026-04-01T13:27:13.001Z</time></trkpt><trkpt lat="45.86441779469979" lon="8.3930523758879"><ele>376.25</ele><time>2026-04-01T13:27:14.001Z</time></trkpt><trkpt lat="45.86429764715393" lon="8.392944751710798"><ele>375.5</ele><time>2026-04-01T13:27:15.001Z</time></trkpt><trkpt lat="45.86418579051011" lon="8.392829520034883"><ele>374.75</ele><time>2026-04-01T13:27:16.001Z</time></trkpt><trkpt lat="45.86407164662183" lon="8.392712499106102"><ele>374.0</ele><time>2026-04-01T13:27:17.001Z</time></trkpt><trkpt lat="45.863961420788115" lon="8.39259660609464"><ele>374.0</ele><time>2026-04-01T13:27:18.001Z</time></trkpt><trkpt lat="45.863856342655474" lon="8.39248089163887"><ele>374.0</ele><time>2026-04-01T13:27:19.001Z</time></trkpt><trkpt lat="45.86375603593243" lon="8.392366979912158"><ele>374.0</ele><time>2026-04-01T13:27:20.001Z</time></trkpt><trkpt lat="45.863664589563484" lon="8.39224866672229"><ele>374.0</ele><time>2026-04-01T13:27:21.001Z</time></trkpt><trkpt lat="45.8635845471096" lon="8.392124709399443"><ele>375.2</ele><time>2026-04-01T13:27:22.001Z</time></trkpt><trkpt lat="45.863514717520765" lon="8.392005713844135"><ele>376.4</ele><time>2026-04-01T13:27:23.001Z</time></trkpt><trkpt lat="45.86344804723726" lon="8.391886031216908"><ele>377.6</ele><time>2026-04-01T13:27:24.001Z</time></trkpt><trkpt lat="45.86338378247719" lon="8.391778097781856"><ele>378.8</ele><time>2026-04-01T13:27:25.001Z</time></trkpt><trkpt lat="45.863320255173214" lon="8.391684649864393"><ele>380.0</ele><time>2026-04-01T13:27:26.001Z</time></trkpt><trkpt lat="45.86326059832664" lon="8.391609576222036"><ele>377.5</ele><time>2026-04-01T13:27:27.001Z</time></trkpt><trkpt lat="45.86320393313675" lon="8.391552443118252"><ele>375.0</ele><time>2026-04-01T13:27:28.001Z</time></trkpt><trkpt lat="45.86313406287841" lon="8.391381391476198"><ele>372.5</ele><time>2026-04-01T13:27:30.001Z</time></trkpt><trkpt lat="45.86322073531731" lon="8.391301249073535"><ele>370.0</ele><time>2026-04-01T13:27:32.001Z</time></trkpt><trkpt lat="45.86328642851406" lon="8.391318428788251"><ele>367.5</ele><time>2026-04-01T13:27:33.001Z</time></trkpt><trkpt lat="45.86335105336733" lon="8.391349231037285"><ele>365.0</ele><time>2026-04-01T13:27:34.001Z</time></trkpt><trkpt lat="45.86342220307957" lon="8.391355446638437"><ele>367.5</ele><time>2026-04-01T13:27:35.001Z</time></trkpt><trkpt lat="45.863498863791804" lon="8.391376020147117"><ele>370.0</ele><time>2026-04-01T13:27:36.001Z</time></trkpt><trkpt lat="45.86358382162349" lon="8.391373429928816"><ele>372.5</ele><time>2026-04-01T13:27:37.001Z</time></trkpt><trkpt lat="45.863662420782354" lon="8.39134080669417"><ele>375.0</ele><time>2026-04-01T13:27:38.001Z</time></trkpt><trkpt lat="45.86372970989848" lon="8.391265457178182"><ele>377.5</ele><time>2026-04-01T13:27:39.001Z</time></trkpt><trkpt lat="45.86377363157454" lon="8.391157114717423"><ele>380.0</ele><time>2026-04-01T13:27:40.001Z</time></trkpt><trkpt lat="45.86378394936731" lon="8.391034374441695"><ele>381.2</ele><time>2026-04-01T13:27:41.001Z</time></trkpt><trkpt lat="45.86376290795558" lon="8.390907942133103"><ele>382.4</ele><time>2026-04-01T13:27:42.001Z</time></trkpt><trkpt lat="45.86370877377733" lon="8.390804331266247"><ele>383.6</ele><time>2026-04-01T13:27:43.001Z</time></trkpt><trkpt lat="45.86363516341868" lon="8.390720049736242"><ele>384.8</ele><time>2026-04-01T13:27:44.001Z</time></trkpt><trkpt lat="45.86356266652045" lon="8.390624756503513"><ele>386.0</ele><time>2026-04-01T13:27:45.001Z</time></trkpt><trkpt lat="45.86348578578376" lon="8.390523031991421"><ele>385.6</ele><time>2026-04-01T13:27:46.001Z</time></trkpt><trkpt lat="45.86340782703643" lon="8.390414739424822"><ele>385.20000000000005</ele><time>2026-04-01T13:27:47.001Z</time></trkpt><trkpt lat="45.86332845217045" lon="8.39030636210963"><ele>384.79999999999995</ele><time>2026-04-01T13:27:48.001Z</time></trkpt><trkpt lat="45.86324673275399" lon="8.390196767066168"><ele>384.4</ele><time>2026-04-01T13:27:49.001Z</time></trkpt><trkpt lat="45.863163200005324" lon="8.390083520226286"><ele>384.0</ele><time>2026-04-01T13:27:50.001Z</time></trkpt><trkpt lat="45.86307797242587" lon="8.389967823815477"><ele>384.0</ele><time>2026-04-01T13:27:51.001Z</time></trkpt><trkpt lat="45.86299129066591" lon="8.389850983189934"><ele>384.0</ele><time>2026-04-01T13:27:52.001Z</time></trkpt><trkpt lat="45.86290391409598" lon="8.389731620642557"><ele>384.0</ele><time>2026-04-01T13:27:53.001Z</time></trkpt><trkpt lat="45.86281636091181" lon="8.389613245926792"><ele>384.0</ele><time>2026-04-01T13:27:54.001Z</time></trkpt><trkpt lat="45.86273422534295" lon="8.38950063215193"><ele>385.79999999999995</ele><time>2026-04-01T13:27:55.001Z</time></trkpt><trkpt lat="45.862656445567424" lon="8.38939205076991"><ele>387.59999999999997</ele><time>2026-04-01T13:27:56.001Z</time></trkpt><trkpt lat="45.86258986811399" lon="8.38928720921142"><ele>389.4</ele><time>2026-04-01T13:27:57.001Z</time></trkpt><trkpt lat="45.862533050035594" lon="8.389183003539548"><ele>391.2</ele><time>2026-04-01T13:27:58.001Z</time></trkpt><trkpt lat="45.86248295503604" lon="8.389076425161663"><ele>393.0</ele><time>2026-04-01T13:27:59.001Z</time></trkpt><trkpt lat="45.86244221618656" lon="8.388970087103138"><ele>390.59999999999997</ele><time>2026-04-01T13:28:00.001Z</time></trkpt><trkpt lat="45.86240927792044" lon="8.388830948775805"><ele>388.2</ele><time>2026-04-01T13:28:02.001Z</time></trkpt><trkpt lat="45.86238678877864" lon="8.388718699264075"><ele>385.8</ele><time>2026-04-01T13:28:10.002Z</time></trkpt><trkpt lat="45.86230054247931" lon="8.38863726888148"><ele>383.4</ele><time>2026-04-01T13:28:13.002Z</time></trkpt><trkpt lat="45.86221751002268" lon="8.388575095206322"><ele>381.0</ele><time>2026-04-01T13:28:15.002Z</time></trkpt><trkpt lat="45.86210876360841" lon="8.388486007334885"><ele>381.0</ele><time>2026-04-01T13:28:17.002Z</time></trkpt><trkpt lat="45.86205430004405" lon="8.388437986474148"><ele>381.0</ele><time>2026-04-01T13:28:18.002Z</time></trkpt><trkpt lat="45.86196724409805" lon="8.388359161513234"><ele>381.0</ele><time>2026-04-01T13:28:20.002Z</time></trkpt><trkpt lat="45.86191407440579" lon="8.388294339022755"><ele>381.0</ele><time>2026-04-01T13:28:23Z</time></trkpt></trkseg></trk></gpx>